<?xml version="1.0" encoding="UTF-8" standalone="no" ?>
<gpx xmlns="http://www.topografix.com/GPX/1/1" xmlns:xsi="http://www.w3.org/2001/XMLSchema-instance" xsi:schemaLocation="http://www.topografix.com/GPX/1/1 http://www.topografix.com/GPX/1/1/gpx.xsd" version="1.1" creator="VisuGPX - https://www.visugpx.com">
  <metadata>
    <name>Erquy : Sables d\'Or et Hopitaux</name>
    <desc><![CDATA[Une petite balade d\'à peine 8 km au départ des Sables d\'Or autour de la Vallée Denis et des Hôpitaux]]></desc>
  </metadata>
  <trk>
    <name><![CDATA[Erquy : Sables d\'Or et Hopitaux_1]]></name>
    <trkseg>
      <trkpt lat="48.6343" lon="-2.41036">
        <ele>10</ele>
        <time>2014-04-14T12:33:04.1Z</time>
      </trkpt>
      <trkpt lat="48.63433" lon="-2.41038">
        <ele>8</ele>
        <time>2014-04-14T12:33:07.1Z</time>
      </trkpt>
      <trkpt lat="48.63434" lon="-2.41041">
        <ele>7</ele>
        <time>2014-04-14T12:33:09.1Z</time>
      </trkpt>
      <trkpt lat="48.63436" lon="-2.41047">
        <ele>7</ele>
        <time>2014-04-14T12:33:11.1Z</time>
      </trkpt>
      <trkpt lat="48.63437" lon="-2.41051">
        <ele>7</ele>
        <time>2014-04-14T12:33:14.1Z</time>
      </trkpt>
      <trkpt lat="48.63438" lon="-2.41056">
        <ele>6</ele>
        <time>2014-04-14T12:33:16.1Z</time>
      </trkpt>
      <trkpt lat="48.6344" lon="-2.41062">
        <ele>7</ele>
        <time>2014-04-14T12:33:19.1Z</time>
      </trkpt>
      <trkpt lat="48.63441" lon="-2.41069">
        <ele>6</ele>
        <time>2014-04-14T12:33:22.1Z</time>
      </trkpt>
      <trkpt lat="48.63443" lon="-2.41075">
        <ele>6</ele>
        <time>2014-04-14T12:33:25.1Z</time>
      </trkpt>
      <trkpt lat="48.63443" lon="-2.41082">
        <ele>7</ele>
        <time>2014-04-14T12:33:28.1Z</time>
      </trkpt>
      <trkpt lat="48.63443" lon="-2.41088">
        <ele>7</ele>
        <time>2014-04-14T12:33:30.1Z</time>
      </trkpt>
      <trkpt lat="48.63442" lon="-2.41092">
        <ele>7</ele>
        <time>2014-04-14T12:33:32.1Z</time>
      </trkpt>
      <trkpt lat="48.6344" lon="-2.41095">
        <ele>7</ele>
        <time>2014-04-14T12:33:35.1Z</time>
      </trkpt>
      <trkpt lat="48.63438" lon="-2.41098">
        <ele>7</ele>
        <time>2014-04-14T12:33:38.1Z</time>
      </trkpt>
      <trkpt lat="48.63438" lon="-2.41099">
        <ele>7</ele>
        <time>2014-04-14T12:33:40.1Z</time>
      </trkpt>
      <trkpt lat="48.63438" lon="-2.41099">
        <ele>6</ele>
        <time>2014-04-14T12:33:45.1Z</time>
      </trkpt>
      <trkpt lat="48.63438" lon="-2.41099">
        <ele>6</ele>
        <time>2014-04-14T12:33:49.1Z</time>
      </trkpt>
      <trkpt lat="48.63435" lon="-2.411">
        <ele>6</ele>
        <time>2014-04-14T12:33:51.1Z</time>
      </trkpt>
      <trkpt lat="48.63433" lon="-2.41103">
        <ele>6</ele>
        <time>2014-04-14T12:33:53.1Z</time>
      </trkpt>
      <trkpt lat="48.6343" lon="-2.41108">
        <ele>6</ele>
        <time>2014-04-14T12:33:55.1Z</time>
      </trkpt>
      <trkpt lat="48.63427" lon="-2.41111">
        <ele>6</ele>
        <time>2014-04-14T12:33:58.1Z</time>
      </trkpt>
      <trkpt lat="48.63425" lon="-2.41115">
        <ele>6</ele>
        <time>2014-04-14T12:34:00.1Z</time>
      </trkpt>
      <trkpt lat="48.63421" lon="-2.41118">
        <ele>5</ele>
        <time>2014-04-14T12:34:03.1Z</time>
      </trkpt>
      <trkpt lat="48.63417" lon="-2.41123">
        <ele>5</ele>
        <time>2014-04-14T12:34:06.1Z</time>
      </trkpt>
      <trkpt lat="48.63414" lon="-2.41127">
        <ele>6</ele>
        <time>2014-04-14T12:34:08.1Z</time>
      </trkpt>
      <trkpt lat="48.63412" lon="-2.4113">
        <ele>6</ele>
        <time>2014-04-14T12:34:10.1Z</time>
      </trkpt>
      <trkpt lat="48.6341" lon="-2.41133">
        <ele>6</ele>
        <time>2014-04-14T12:34:13.1Z</time>
      </trkpt>
      <trkpt lat="48.63406" lon="-2.41137">
        <ele>5</ele>
        <time>2014-04-14T12:34:16.1Z</time>
      </trkpt>
      <trkpt lat="48.63403" lon="-2.41142">
        <ele>4</ele>
        <time>2014-04-14T12:34:19.1Z</time>
      </trkpt>
      <trkpt lat="48.634" lon="-2.41146">
        <ele>4</ele>
        <time>2014-04-14T12:34:22.1Z</time>
      </trkpt>
      <trkpt lat="48.63397" lon="-2.4115">
        <ele>5</ele>
        <time>2014-04-14T12:34:25.1Z</time>
      </trkpt>
      <trkpt lat="48.63395" lon="-2.41152">
        <ele>5</ele>
        <time>2014-04-14T12:34:27.1Z</time>
      </trkpt>
      <trkpt lat="48.63393" lon="-2.41154">
        <ele>5</ele>
        <time>2014-04-14T12:34:29.1Z</time>
      </trkpt>
      <trkpt lat="48.63389" lon="-2.41152">
        <ele>5</ele>
        <time>2014-04-14T12:34:32.1Z</time>
      </trkpt>
      <trkpt lat="48.63386" lon="-2.4115">
        <ele>4</ele>
        <time>2014-04-14T12:34:35.1Z</time>
      </trkpt>
      <trkpt lat="48.63384" lon="-2.41149">
        <ele>4</ele>
        <time>2014-04-14T12:34:37.1Z</time>
      </trkpt>
      <trkpt lat="48.63382" lon="-2.41148">
        <ele>4</ele>
        <time>2014-04-14T12:34:39.1Z</time>
      </trkpt>
      <trkpt lat="48.63379" lon="-2.41147">
        <ele>5</ele>
        <time>2014-04-14T12:34:42.1Z</time>
      </trkpt>
      <trkpt lat="48.63375" lon="-2.41146">
        <ele>5</ele>
        <time>2014-04-14T12:34:45.1Z</time>
      </trkpt>
      <trkpt lat="48.63371" lon="-2.41147">
        <ele>5</ele>
        <time>2014-04-14T12:34:48.1Z</time>
      </trkpt>
      <trkpt lat="48.63369" lon="-2.41148">
        <ele>5</ele>
        <time>2014-04-14T12:34:50.1Z</time>
      </trkpt>
      <trkpt lat="48.63366" lon="-2.41149">
        <ele>5</ele>
        <time>2014-04-14T12:34:52.1Z</time>
      </trkpt>
      <trkpt lat="48.63363" lon="-2.41151">
        <ele>5</ele>
        <time>2014-04-14T12:34:55.1Z</time>
      </trkpt>
      <trkpt lat="48.6336" lon="-2.41152">
        <ele>5</ele>
        <time>2014-04-14T12:34:57.1Z</time>
      </trkpt>
      <trkpt lat="48.63356" lon="-2.41153">
        <ele>6</ele>
        <time>2014-04-14T12:35:00.1Z</time>
      </trkpt>
      <trkpt lat="48.63353" lon="-2.41154">
        <ele>6</ele>
        <time>2014-04-14T12:35:02.1Z</time>
      </trkpt>
      <trkpt lat="48.63351" lon="-2.41155">
        <ele>5</ele>
        <time>2014-04-14T12:35:05.1Z</time>
      </trkpt>
      <trkpt lat="48.63348" lon="-2.41156">
        <ele>5</ele>
        <time>2014-04-14T12:35:07.1Z</time>
      </trkpt>
      <trkpt lat="48.63346" lon="-2.41157">
        <ele>5</ele>
        <time>2014-04-14T12:35:09.1Z</time>
      </trkpt>
      <trkpt lat="48.63343" lon="-2.41158">
        <ele>6</ele>
        <time>2014-04-14T12:35:12.1Z</time>
      </trkpt>
      <trkpt lat="48.6334" lon="-2.4116">
        <ele>6</ele>
        <time>2014-04-14T12:35:14.1Z</time>
      </trkpt>
      <trkpt lat="48.63337" lon="-2.41161">
        <ele>6</ele>
        <time>2014-04-14T12:35:16.1Z</time>
      </trkpt>
      <trkpt lat="48.63335" lon="-2.41162">
        <ele>5</ele>
        <time>2014-04-14T12:35:19.1Z</time>
      </trkpt>
      <trkpt lat="48.63332" lon="-2.41164">
        <ele>5</ele>
        <time>2014-04-14T12:35:21.1Z</time>
      </trkpt>
      <trkpt lat="48.6333" lon="-2.41164">
        <ele>5</ele>
        <time>2014-04-14T12:35:23.1Z</time>
      </trkpt>
      <trkpt lat="48.63326" lon="-2.41165">
        <ele>5</ele>
        <time>2014-04-14T12:35:27.1Z</time>
      </trkpt>
      <trkpt lat="48.63323" lon="-2.41166">
        <ele>5</ele>
        <time>2014-04-14T12:35:30.1Z</time>
      </trkpt>
      <trkpt lat="48.63321" lon="-2.41167">
        <ele>5</ele>
        <time>2014-04-14T12:35:32.1Z</time>
      </trkpt>
      <trkpt lat="48.63317" lon="-2.41168">
        <ele>5</ele>
        <time>2014-04-14T12:35:35.1Z</time>
      </trkpt>
      <trkpt lat="48.63314" lon="-2.41169">
        <ele>6</ele>
        <time>2014-04-14T12:35:38.1Z</time>
      </trkpt>
      <trkpt lat="48.63311" lon="-2.41169">
        <ele>6</ele>
        <time>2014-04-14T12:35:40.1Z</time>
      </trkpt>
      <trkpt lat="48.63308" lon="-2.4117">
        <ele>6</ele>
        <time>2014-04-14T12:35:43.1Z</time>
      </trkpt>
      <trkpt lat="48.63304" lon="-2.4117">
        <ele>6</ele>
        <time>2014-04-14T12:35:46.1Z</time>
      </trkpt>
      <trkpt lat="48.633" lon="-2.41169">
        <ele>6</ele>
        <time>2014-04-14T12:35:49.1Z</time>
      </trkpt>
      <trkpt lat="48.63298" lon="-2.41168">
        <ele>6</ele>
        <time>2014-04-14T12:35:51.1Z</time>
      </trkpt>
      <trkpt lat="48.63296" lon="-2.41167">
        <ele>6</ele>
        <time>2014-04-14T12:35:53.1Z</time>
      </trkpt>
      <trkpt lat="48.63292" lon="-2.41165">
        <ele>7</ele>
        <time>2014-04-14T12:35:55.1Z</time>
      </trkpt>
      <trkpt lat="48.63291" lon="-2.41163">
        <ele>7</ele>
        <time>2014-04-14T12:35:57.1Z</time>
      </trkpt>
      <trkpt lat="48.6329" lon="-2.4116">
        <ele>7</ele>
        <time>2014-04-14T12:36:01.1Z</time>
      </trkpt>
      <trkpt lat="48.63286" lon="-2.4116">
        <ele>7</ele>
        <time>2014-04-14T12:36:04.1Z</time>
      </trkpt>
      <trkpt lat="48.63283" lon="-2.41161">
        <ele>7</ele>
        <time>2014-04-14T12:36:06.1Z</time>
      </trkpt>
      <trkpt lat="48.6328" lon="-2.41164">
        <ele>7</ele>
        <time>2014-04-14T12:36:09.1Z</time>
      </trkpt>
      <trkpt lat="48.63276" lon="-2.41167">
        <ele>7</ele>
        <time>2014-04-14T12:36:12.1Z</time>
      </trkpt>
      <trkpt lat="48.63273" lon="-2.41169">
        <ele>8</ele>
        <time>2014-04-14T12:36:14.1Z</time>
      </trkpt>
      <trkpt lat="48.63269" lon="-2.41172">
        <ele>7</ele>
        <time>2014-04-14T12:36:17.1Z</time>
      </trkpt>
      <trkpt lat="48.63267" lon="-2.41174">
        <ele>8</ele>
        <time>2014-04-14T12:36:19.1Z</time>
      </trkpt>
      <trkpt lat="48.63265" lon="-2.41176">
        <ele>8</ele>
        <time>2014-04-14T12:36:21.1Z</time>
      </trkpt>
      <trkpt lat="48.63262" lon="-2.41179">
        <ele>8</ele>
        <time>2014-04-14T12:36:23.1Z</time>
      </trkpt>
      <trkpt lat="48.6326" lon="-2.41181">
        <ele>7</ele>
        <time>2014-04-14T12:36:25.1Z</time>
      </trkpt>
      <trkpt lat="48.63257" lon="-2.41182">
        <ele>7</ele>
        <time>2014-04-14T12:36:28.1Z</time>
      </trkpt>
      <trkpt lat="48.63255" lon="-2.41185">
        <ele>7</ele>
        <time>2014-04-14T12:36:30.1Z</time>
      </trkpt>
      <trkpt lat="48.63252" lon="-2.41188">
        <ele>7</ele>
        <time>2014-04-14T12:36:33.1Z</time>
      </trkpt>
      <trkpt lat="48.63249" lon="-2.4119">
        <ele>8</ele>
        <time>2014-04-14T12:36:36.1Z</time>
      </trkpt>
      <trkpt lat="48.63247" lon="-2.41193">
        <ele>7</ele>
        <time>2014-04-14T12:36:38.1Z</time>
      </trkpt>
      <trkpt lat="48.63244" lon="-2.41196">
        <ele>7</ele>
        <time>2014-04-14T12:36:41.1Z</time>
      </trkpt>
      <trkpt lat="48.63241" lon="-2.412">
        <ele>7</ele>
        <time>2014-04-14T12:36:43.1Z</time>
      </trkpt>
      <trkpt lat="48.6324" lon="-2.41202">
        <ele>7</ele>
        <time>2014-04-14T12:36:46.1Z</time>
      </trkpt>
      <trkpt lat="48.63237" lon="-2.41206">
        <ele>7</ele>
        <time>2014-04-14T12:36:49.1Z</time>
      </trkpt>
      <trkpt lat="48.63234" lon="-2.41208">
        <ele>7</ele>
        <time>2014-04-14T12:36:51.1Z</time>
      </trkpt>
      <trkpt lat="48.63232" lon="-2.41212">
        <ele>8</ele>
        <time>2014-04-14T12:36:54.1Z</time>
      </trkpt>
      <trkpt lat="48.6323" lon="-2.41214">
        <ele>8</ele>
        <time>2014-04-14T12:36:56.1Z</time>
      </trkpt>
      <trkpt lat="48.63227" lon="-2.41218">
        <ele>8</ele>
        <time>2014-04-14T12:36:59.1Z</time>
      </trkpt>
      <trkpt lat="48.63224" lon="-2.41223">
        <ele>7</ele>
        <time>2014-04-14T12:37:02.1Z</time>
      </trkpt>
      <trkpt lat="48.63223" lon="-2.41226">
        <ele>7</ele>
        <time>2014-04-14T12:37:04.1Z</time>
      </trkpt>
      <trkpt lat="48.63222" lon="-2.41229">
        <ele>7</ele>
        <time>2014-04-14T12:37:06.1Z</time>
      </trkpt>
      <trkpt lat="48.63219" lon="-2.41233">
        <ele>6</ele>
        <time>2014-04-14T12:37:08.1Z</time>
      </trkpt>
      <trkpt lat="48.63218" lon="-2.41236">
        <ele>6</ele>
        <time>2014-04-14T12:37:10.1Z</time>
      </trkpt>
      <trkpt lat="48.63216" lon="-2.4124">
        <ele>6</ele>
        <time>2014-04-14T12:37:13.1Z</time>
      </trkpt>
      <trkpt lat="48.63214" lon="-2.41244">
        <ele>6</ele>
        <time>2014-04-14T12:37:15.1Z</time>
      </trkpt>
      <trkpt lat="48.63213" lon="-2.41247">
        <ele>6</ele>
        <time>2014-04-14T12:37:18.1Z</time>
      </trkpt>
      <trkpt lat="48.63211" lon="-2.41252">
        <ele>6</ele>
        <time>2014-04-14T12:37:21.1Z</time>
      </trkpt>
      <trkpt lat="48.63209" lon="-2.41256">
        <ele>6</ele>
        <time>2014-04-14T12:37:24.1Z</time>
      </trkpt>
      <trkpt lat="48.63208" lon="-2.41261">
        <ele>6</ele>
        <time>2014-04-14T12:37:26.1Z</time>
      </trkpt>
      <trkpt lat="48.63206" lon="-2.41265">
        <ele>6</ele>
        <time>2014-04-14T12:37:29.1Z</time>
      </trkpt>
      <trkpt lat="48.63205" lon="-2.41268">
        <ele>6</ele>
        <time>2014-04-14T12:37:31.1Z</time>
      </trkpt>
      <trkpt lat="48.63203" lon="-2.41272">
        <ele>6</ele>
        <time>2014-04-14T12:37:33.1Z</time>
      </trkpt>
      <trkpt lat="48.63203" lon="-2.41276">
        <ele>6</ele>
        <time>2014-04-14T12:37:36.1Z</time>
      </trkpt>
      <trkpt lat="48.63202" lon="-2.41279">
        <ele>6</ele>
        <time>2014-04-14T12:37:38.1Z</time>
      </trkpt>
      <trkpt lat="48.63201" lon="-2.41283">
        <ele>6</ele>
        <time>2014-04-14T12:37:40.1Z</time>
      </trkpt>
      <trkpt lat="48.632" lon="-2.41288">
        <ele>6</ele>
        <time>2014-04-14T12:37:43.1Z</time>
      </trkpt>
      <trkpt lat="48.63198" lon="-2.41293">
        <ele>6</ele>
        <time>2014-04-14T12:37:46.1Z</time>
      </trkpt>
      <trkpt lat="48.63197" lon="-2.41297">
        <ele>6</ele>
        <time>2014-04-14T12:37:48.1Z</time>
      </trkpt>
      <trkpt lat="48.63196" lon="-2.413">
        <ele>6</ele>
        <time>2014-04-14T12:37:50.1Z</time>
      </trkpt>
      <trkpt lat="48.63195" lon="-2.41305">
        <ele>6</ele>
        <time>2014-04-14T12:37:52.1Z</time>
      </trkpt>
      <trkpt lat="48.63195" lon="-2.41309">
        <ele>6</ele>
        <time>2014-04-14T12:37:55.1Z</time>
      </trkpt>
      <trkpt lat="48.63194" lon="-2.41313">
        <ele>6</ele>
        <time>2014-04-14T12:37:57.1Z</time>
      </trkpt>
      <trkpt lat="48.63193" lon="-2.41318">
        <ele>6</ele>
        <time>2014-04-14T12:37:59.1Z</time>
      </trkpt>
      <trkpt lat="48.63192" lon="-2.41323">
        <ele>6</ele>
        <time>2014-04-14T12:38:03.1Z</time>
      </trkpt>
      <trkpt lat="48.63191" lon="-2.41329">
        <ele>6</ele>
        <time>2014-04-14T12:38:06.1Z</time>
      </trkpt>
      <trkpt lat="48.6319" lon="-2.41334">
        <ele>6</ele>
        <time>2014-04-14T12:38:09.1Z</time>
      </trkpt>
      <trkpt lat="48.6319" lon="-2.41337">
        <ele>6</ele>
        <time>2014-04-14T12:38:11.1Z</time>
      </trkpt>
      <trkpt lat="48.6319" lon="-2.41342">
        <ele>6</ele>
        <time>2014-04-14T12:38:14.1Z</time>
      </trkpt>
      <trkpt lat="48.63189" lon="-2.41347">
        <ele>6</ele>
        <time>2014-04-14T12:38:17.1Z</time>
      </trkpt>
      <trkpt lat="48.63189" lon="-2.4135">
        <ele>6</ele>
        <time>2014-04-14T12:38:19.1Z</time>
      </trkpt>
      <trkpt lat="48.63189" lon="-2.41355">
        <ele>6</ele>
        <time>2014-04-14T12:38:21.1Z</time>
      </trkpt>
      <trkpt lat="48.6319" lon="-2.41359">
        <ele>6</ele>
        <time>2014-04-14T12:38:23.1Z</time>
      </trkpt>
      <trkpt lat="48.6319" lon="-2.41363">
        <ele>6</ele>
        <time>2014-04-14T12:38:26.1Z</time>
      </trkpt>
      <trkpt lat="48.6319" lon="-2.41369">
        <ele>6</ele>
        <time>2014-04-14T12:38:28.1Z</time>
      </trkpt>
      <trkpt lat="48.6319" lon="-2.41373">
        <ele>5</ele>
        <time>2014-04-14T12:38:30.1Z</time>
      </trkpt>
      <trkpt lat="48.6319" lon="-2.41377">
        <ele>5</ele>
        <time>2014-04-14T12:38:33.1Z</time>
      </trkpt>
      <trkpt lat="48.6319" lon="-2.41381">
        <ele>5</ele>
        <time>2014-04-14T12:38:35.1Z</time>
      </trkpt>
      <trkpt lat="48.63191" lon="-2.41387">
        <ele>5</ele>
        <time>2014-04-14T12:38:38.1Z</time>
      </trkpt>
      <trkpt lat="48.63191" lon="-2.41392">
        <ele>5</ele>
        <time>2014-04-14T12:38:41.1Z</time>
      </trkpt>
      <trkpt lat="48.63192" lon="-2.41398">
        <ele>5</ele>
        <time>2014-04-14T12:38:43.1Z</time>
      </trkpt>
      <trkpt lat="48.63192" lon="-2.41402">
        <ele>5</ele>
        <time>2014-04-14T12:38:46.1Z</time>
      </trkpt>
      <trkpt lat="48.63192" lon="-2.41408">
        <ele>5</ele>
        <time>2014-04-14T12:38:49.1Z</time>
      </trkpt>
      <trkpt lat="48.63193" lon="-2.41413">
        <ele>5</ele>
        <time>2014-04-14T12:38:52.1Z</time>
      </trkpt>
      <trkpt lat="48.63194" lon="-2.4142">
        <ele>5</ele>
        <time>2014-04-14T12:38:55.1Z</time>
      </trkpt>
      <trkpt lat="48.63194" lon="-2.41425">
        <ele>5</ele>
        <time>2014-04-14T12:38:57.1Z</time>
      </trkpt>
      <trkpt lat="48.63194" lon="-2.41428">
        <ele>5</ele>
        <time>2014-04-14T12:38:59.1Z</time>
      </trkpt>
      <trkpt lat="48.63194" lon="-2.41434">
        <ele>5</ele>
        <time>2014-04-14T12:39:03.1Z</time>
      </trkpt>
      <trkpt lat="48.63195" lon="-2.41438">
        <ele>5</ele>
        <time>2014-04-14T12:39:05.1Z</time>
      </trkpt>
      <trkpt lat="48.63195" lon="-2.41442">
        <ele>5</ele>
        <time>2014-04-14T12:39:07.1Z</time>
      </trkpt>
      <trkpt lat="48.63196" lon="-2.41446">
        <ele>5</ele>
        <time>2014-04-14T12:39:09.1Z</time>
      </trkpt>
      <trkpt lat="48.63197" lon="-2.4145">
        <ele>5</ele>
        <time>2014-04-14T12:39:12.1Z</time>
      </trkpt>
      <trkpt lat="48.63197" lon="-2.41454">
        <ele>5</ele>
        <time>2014-04-14T12:39:14.1Z</time>
      </trkpt>
      <trkpt lat="48.63197" lon="-2.41459">
        <ele>5</ele>
        <time>2014-04-14T12:39:17.1Z</time>
      </trkpt>
      <trkpt lat="48.63198" lon="-2.41465">
        <ele>5</ele>
        <time>2014-04-14T12:39:20.1Z</time>
      </trkpt>
      <trkpt lat="48.63199" lon="-2.41468">
        <ele>5</ele>
        <time>2014-04-14T12:39:22.1Z</time>
      </trkpt>
      <trkpt lat="48.63199" lon="-2.41473">
        <ele>5</ele>
        <time>2014-04-14T12:39:25.1Z</time>
      </trkpt>
      <trkpt lat="48.632" lon="-2.41477">
        <ele>5</ele>
        <time>2014-04-14T12:39:27.1Z</time>
      </trkpt>
      <trkpt lat="48.632" lon="-2.41481">
        <ele>5</ele>
        <time>2014-04-14T12:39:30.1Z</time>
      </trkpt>
      <trkpt lat="48.63201" lon="-2.41485">
        <ele>5</ele>
        <time>2014-04-14T12:39:32.1Z</time>
      </trkpt>
      <trkpt lat="48.63202" lon="-2.4149">
        <ele>5</ele>
        <time>2014-04-14T12:39:35.1Z</time>
      </trkpt>
      <trkpt lat="48.63202" lon="-2.41493">
        <ele>5</ele>
        <time>2014-04-14T12:39:37.1Z</time>
      </trkpt>
      <trkpt lat="48.63203" lon="-2.41498">
        <ele>5</ele>
        <time>2014-04-14T12:39:39.1Z</time>
      </trkpt>
      <trkpt lat="48.63203" lon="-2.41502">
        <ele>5</ele>
        <time>2014-04-14T12:39:42.1Z</time>
      </trkpt>
      <trkpt lat="48.63203" lon="-2.41506">
        <ele>5</ele>
        <time>2014-04-14T12:39:44.1Z</time>
      </trkpt>
      <trkpt lat="48.63204" lon="-2.41511">
        <ele>6</ele>
        <time>2014-04-14T12:39:47.1Z</time>
      </trkpt>
      <trkpt lat="48.63204" lon="-2.41515">
        <ele>6</ele>
        <time>2014-04-14T12:39:49.1Z</time>
      </trkpt>
      <trkpt lat="48.63205" lon="-2.41521">
        <ele>6</ele>
        <time>2014-04-14T12:39:52.1Z</time>
      </trkpt>
      <trkpt lat="48.63205" lon="-2.41527">
        <ele>5</ele>
        <time>2014-04-14T12:39:54.1Z</time>
      </trkpt>
      <trkpt lat="48.63206" lon="-2.4153">
        <ele>5</ele>
        <time>2014-04-14T12:39:57.1Z</time>
      </trkpt>
      <trkpt lat="48.63206" lon="-2.41536">
        <ele>5</ele>
        <time>2014-04-14T12:40:00.1Z</time>
      </trkpt>
      <trkpt lat="48.63207" lon="-2.41542">
        <ele>5</ele>
        <time>2014-04-14T12:40:02.1Z</time>
      </trkpt>
      <trkpt lat="48.63208" lon="-2.41547">
        <ele>5</ele>
        <time>2014-04-14T12:40:05.1Z</time>
      </trkpt>
      <trkpt lat="48.63209" lon="-2.41549">
        <ele>5</ele>
        <time>2014-04-14T12:40:08.1Z</time>
      </trkpt>
      <trkpt lat="48.63209" lon="-2.41555">
        <ele>6</ele>
        <time>2014-04-14T12:40:11.1Z</time>
      </trkpt>
      <trkpt lat="48.6321" lon="-2.4156">
        <ele>6</ele>
        <time>2014-04-14T12:40:14.1Z</time>
      </trkpt>
      <trkpt lat="48.63211" lon="-2.41565">
        <ele>6</ele>
        <time>2014-04-14T12:40:17.1Z</time>
      </trkpt>
      <trkpt lat="48.63212" lon="-2.4157">
        <ele>6</ele>
        <time>2014-04-14T12:40:20.1Z</time>
      </trkpt>
      <trkpt lat="48.63213" lon="-2.41575">
        <ele>6</ele>
        <time>2014-04-14T12:40:23.1Z</time>
      </trkpt>
      <trkpt lat="48.63214" lon="-2.41579">
        <ele>6</ele>
        <time>2014-04-14T12:40:26.1Z</time>
      </trkpt>
      <trkpt lat="48.63215" lon="-2.41585">
        <ele>6</ele>
        <time>2014-04-14T12:40:28.1Z</time>
      </trkpt>
      <trkpt lat="48.63216" lon="-2.41589">
        <ele>6</ele>
        <time>2014-04-14T12:40:31.1Z</time>
      </trkpt>
      <trkpt lat="48.63217" lon="-2.41594">
        <ele>6</ele>
        <time>2014-04-14T12:40:33.1Z</time>
      </trkpt>
      <trkpt lat="48.63218" lon="-2.41598">
        <ele>6</ele>
        <time>2014-04-14T12:40:37.1Z</time>
      </trkpt>
      <trkpt lat="48.63219" lon="-2.41601">
        <ele>7</ele>
        <time>2014-04-14T12:40:39.1Z</time>
      </trkpt>
      <trkpt lat="48.63219" lon="-2.41604">
        <ele>7</ele>
        <time>2014-04-14T12:40:41.1Z</time>
      </trkpt>
      <trkpt lat="48.6322" lon="-2.4161">
        <ele>6</ele>
        <time>2014-04-14T12:40:44.1Z</time>
      </trkpt>
      <trkpt lat="48.63221" lon="-2.41615">
        <ele>6</ele>
        <time>2014-04-14T12:40:46.1Z</time>
      </trkpt>
      <trkpt lat="48.63221" lon="-2.41618">
        <ele>6</ele>
        <time>2014-04-14T12:40:49.1Z</time>
      </trkpt>
      <trkpt lat="48.63222" lon="-2.41622">
        <ele>7</ele>
        <time>2014-04-14T12:40:51.1Z</time>
      </trkpt>
      <trkpt lat="48.63223" lon="-2.41625">
        <ele>7</ele>
        <time>2014-04-14T12:40:54.1Z</time>
      </trkpt>
      <trkpt lat="48.63223" lon="-2.41627">
        <ele>7</ele>
        <time>2014-04-14T12:40:56.1Z</time>
      </trkpt>
      <trkpt lat="48.63224" lon="-2.4163">
        <ele>7</ele>
        <time>2014-04-14T12:40:58.1Z</time>
      </trkpt>
      <trkpt lat="48.63224" lon="-2.41632">
        <ele>7</ele>
        <time>2014-04-14T12:41:01.1Z</time>
      </trkpt>
      <trkpt lat="48.63225" lon="-2.41635">
        <ele>7</ele>
        <time>2014-04-14T12:41:03.1Z</time>
      </trkpt>
      <trkpt lat="48.63226" lon="-2.41637">
        <ele>7</ele>
        <time>2014-04-14T12:41:05.1Z</time>
      </trkpt>
      <trkpt lat="48.63226" lon="-2.41639">
        <ele>7</ele>
        <time>2014-04-14T12:41:07.1Z</time>
      </trkpt>
      <trkpt lat="48.63228" lon="-2.41644">
        <ele>7</ele>
        <time>2014-04-14T12:41:10.1Z</time>
      </trkpt>
      <trkpt lat="48.63229" lon="-2.41646">
        <ele>7</ele>
        <time>2014-04-14T12:41:12.1Z</time>
      </trkpt>
      <trkpt lat="48.6323" lon="-2.4165">
        <ele>7</ele>
        <time>2014-04-14T12:41:14.1Z</time>
      </trkpt>
      <trkpt lat="48.63231" lon="-2.41654">
        <ele>6</ele>
        <time>2014-04-14T12:41:17.1Z</time>
      </trkpt>
      <trkpt lat="48.63233" lon="-2.41659">
        <ele>6</ele>
        <time>2014-04-14T12:41:20.1Z</time>
      </trkpt>
      <trkpt lat="48.63234" lon="-2.41662">
        <ele>5</ele>
        <time>2014-04-14T12:41:23.1Z</time>
      </trkpt>
      <trkpt lat="48.63235" lon="-2.41666">
        <ele>5</ele>
        <time>2014-04-14T12:41:25.1Z</time>
      </trkpt>
      <trkpt lat="48.63235" lon="-2.41668">
        <ele>5</ele>
        <time>2014-04-14T12:41:28.1Z</time>
      </trkpt>
      <trkpt lat="48.63235" lon="-2.4167">
        <ele>5</ele>
        <time>2014-04-14T12:41:31.1Z</time>
      </trkpt>
      <trkpt lat="48.63235" lon="-2.41671">
        <ele>5</ele>
        <time>2014-04-14T12:41:33.1Z</time>
      </trkpt>
      <trkpt lat="48.63236" lon="-2.41673">
        <ele>5</ele>
        <time>2014-04-14T12:41:35.1Z</time>
      </trkpt>
      <trkpt lat="48.63237" lon="-2.41674">
        <ele>5</ele>
        <time>2014-04-14T12:41:38.1Z</time>
      </trkpt>
      <trkpt lat="48.63237" lon="-2.41675">
        <ele>5</ele>
        <time>2014-04-14T12:41:40.1Z</time>
      </trkpt>
      <trkpt lat="48.63236" lon="-2.41677">
        <ele>5</ele>
        <time>2014-04-14T12:41:43.1Z</time>
      </trkpt>
      <trkpt lat="48.63236" lon="-2.41679">
        <ele>5</ele>
        <time>2014-04-14T12:41:46.1Z</time>
      </trkpt>
      <trkpt lat="48.63237" lon="-2.41681">
        <ele>5</ele>
        <time>2014-04-14T12:41:48.1Z</time>
      </trkpt>
      <trkpt lat="48.63237" lon="-2.41683">
        <ele>5</ele>
        <time>2014-04-14T12:41:50.1Z</time>
      </trkpt>
      <trkpt lat="48.63236" lon="-2.41683">
        <ele>5</ele>
        <time>2014-04-14T12:41:53.1Z</time>
      </trkpt>
      <trkpt lat="48.63237" lon="-2.41683">
        <ele>5</ele>
        <time>2014-04-14T12:41:55.1Z</time>
      </trkpt>
      <trkpt lat="48.63237" lon="-2.41684">
        <ele>5</ele>
        <time>2014-04-14T12:41:58.1Z</time>
      </trkpt>
      <trkpt lat="48.63236" lon="-2.41685">
        <ele>5</ele>
        <time>2014-04-14T12:42:01.1Z</time>
      </trkpt>
      <trkpt lat="48.63236" lon="-2.41687">
        <ele>5</ele>
        <time>2014-04-14T12:42:03.1Z</time>
      </trkpt>
      <trkpt lat="48.63236" lon="-2.41692">
        <ele>5</ele>
        <time>2014-04-14T12:42:07.1Z</time>
      </trkpt>
      <trkpt lat="48.63234" lon="-2.41699">
        <ele>4</ele>
        <time>2014-04-14T12:42:09.1Z</time>
      </trkpt>
      <trkpt lat="48.63233" lon="-2.41705">
        <ele>4</ele>
        <time>2014-04-14T12:42:12.1Z</time>
      </trkpt>
      <trkpt lat="48.63232" lon="-2.4171">
        <ele>3</ele>
        <time>2014-04-14T12:42:15.1Z</time>
      </trkpt>
      <trkpt lat="48.63231" lon="-2.41714">
        <ele>3</ele>
        <time>2014-04-14T12:42:17.1Z</time>
      </trkpt>
      <trkpt lat="48.6323" lon="-2.41717">
        <ele>3</ele>
        <time>2014-04-14T12:42:20.1Z</time>
      </trkpt>
      <trkpt lat="48.63228" lon="-2.41721">
        <ele>3</ele>
        <time>2014-04-14T12:42:22.1Z</time>
      </trkpt>
      <trkpt lat="48.63226" lon="-2.41723">
        <ele>2</ele>
        <time>2014-04-14T12:42:25.1Z</time>
      </trkpt>
      <trkpt lat="48.63225" lon="-2.41728">
        <ele>2</ele>
        <time>2014-04-14T12:42:27.1Z</time>
      </trkpt>
      <trkpt lat="48.63223" lon="-2.41734">
        <ele>2</ele>
        <time>2014-04-14T12:42:30.1Z</time>
      </trkpt>
      <trkpt lat="48.63223" lon="-2.41736">
        <ele>2</ele>
        <time>2014-04-14T12:42:33.1Z</time>
      </trkpt>
      <trkpt lat="48.63221" lon="-2.41739">
        <ele>3</ele>
        <time>2014-04-14T12:42:36.1Z</time>
      </trkpt>
      <trkpt lat="48.63219" lon="-2.41741">
        <ele>2</ele>
        <time>2014-04-14T12:42:38.1Z</time>
      </trkpt>
      <trkpt lat="48.63217" lon="-2.41744">
        <ele>2</ele>
        <time>2014-04-14T12:42:40.1Z</time>
      </trkpt>
      <trkpt lat="48.63215" lon="-2.41748">
        <ele>2</ele>
        <time>2014-04-14T12:42:43.1Z</time>
      </trkpt>
      <trkpt lat="48.63213" lon="-2.41752">
        <ele>3</ele>
        <time>2014-04-14T12:42:45.1Z</time>
      </trkpt>
      <trkpt lat="48.63212" lon="-2.41756">
        <ele>3</ele>
        <time>2014-04-14T12:42:48.1Z</time>
      </trkpt>
      <trkpt lat="48.63211" lon="-2.41758">
        <ele>4</ele>
        <time>2014-04-14T12:42:51.1Z</time>
      </trkpt>
      <trkpt lat="48.63209" lon="-2.41762">
        <ele>4</ele>
        <time>2014-04-14T12:42:53.1Z</time>
      </trkpt>
      <trkpt lat="48.63207" lon="-2.41765">
        <ele>3</ele>
        <time>2014-04-14T12:42:56.1Z</time>
      </trkpt>
      <trkpt lat="48.63206" lon="-2.41768">
        <ele>3</ele>
        <time>2014-04-14T12:42:58.1Z</time>
      </trkpt>
      <trkpt lat="48.63205" lon="-2.4177">
        <ele>3</ele>
        <time>2014-04-14T12:43:00.1Z</time>
      </trkpt>
      <trkpt lat="48.63204" lon="-2.41771">
        <ele>3</ele>
        <time>2014-04-14T12:43:02.1Z</time>
      </trkpt>
      <trkpt lat="48.63203" lon="-2.41772">
        <ele>3</ele>
        <time>2014-04-14T12:43:05.1Z</time>
      </trkpt>
      <trkpt lat="48.63203" lon="-2.41774">
        <ele>3</ele>
        <time>2014-04-14T12:43:07.1Z</time>
      </trkpt>
      <trkpt lat="48.63202" lon="-2.41775">
        <ele>3</ele>
        <time>2014-04-14T12:43:10.1Z</time>
      </trkpt>
      <trkpt lat="48.632" lon="-2.41775">
        <ele>3</ele>
        <time>2014-04-14T12:43:12.1Z</time>
      </trkpt>
      <trkpt lat="48.632" lon="-2.41773">
        <ele>4</ele>
        <time>2014-04-14T12:43:15.1Z</time>
      </trkpt>
      <trkpt lat="48.63197" lon="-2.41773">
        <ele>4</ele>
        <time>2014-04-14T12:43:18.1Z</time>
      </trkpt>
      <trkpt lat="48.63195" lon="-2.41773">
        <ele>4</ele>
        <time>2014-04-14T12:43:21.1Z</time>
      </trkpt>
      <trkpt lat="48.63194" lon="-2.41774">
        <ele>4</ele>
        <time>2014-04-14T12:43:23.1Z</time>
      </trkpt>
      <trkpt lat="48.63192" lon="-2.41774">
        <ele>4</ele>
        <time>2014-04-14T12:43:26.1Z</time>
      </trkpt>
      <trkpt lat="48.6319" lon="-2.41774">
        <ele>4</ele>
        <time>2014-04-14T12:43:29.1Z</time>
      </trkpt>
      <trkpt lat="48.63189" lon="-2.41775">
        <ele>4</ele>
        <time>2014-04-14T12:43:32.1Z</time>
      </trkpt>
      <trkpt lat="48.63186" lon="-2.41774">
        <ele>4</ele>
        <time>2014-04-14T12:43:34.1Z</time>
      </trkpt>
      <trkpt lat="48.63184" lon="-2.41774">
        <ele>4</ele>
        <time>2014-04-14T12:43:37.1Z</time>
      </trkpt>
      <trkpt lat="48.63182" lon="-2.41776">
        <ele>4</ele>
        <time>2014-04-14T12:43:39.1Z</time>
      </trkpt>
      <trkpt lat="48.6318" lon="-2.41777">
        <ele>4</ele>
        <time>2014-04-14T12:43:42.1Z</time>
      </trkpt>
      <trkpt lat="48.63178" lon="-2.41778">
        <ele>4</ele>
        <time>2014-04-14T12:43:44.1Z</time>
      </trkpt>
      <trkpt lat="48.63177" lon="-2.4178">
        <ele>4</ele>
        <time>2014-04-14T12:43:47.1Z</time>
      </trkpt>
      <trkpt lat="48.63175" lon="-2.41781">
        <ele>4</ele>
        <time>2014-04-14T12:43:49.1Z</time>
      </trkpt>
      <trkpt lat="48.63172" lon="-2.41783">
        <ele>4</ele>
        <time>2014-04-14T12:43:51.1Z</time>
      </trkpt>
      <trkpt lat="48.6317" lon="-2.41784">
        <ele>4</ele>
        <time>2014-04-14T12:43:53.1Z</time>
      </trkpt>
      <trkpt lat="48.63168" lon="-2.41784">
        <ele>4</ele>
        <time>2014-04-14T12:43:56.1Z</time>
      </trkpt>
      <trkpt lat="48.63165" lon="-2.41787">
        <ele>5</ele>
        <time>2014-04-14T12:43:58.1Z</time>
      </trkpt>
      <trkpt lat="48.63164" lon="-2.41788">
        <ele>5</ele>
        <time>2014-04-14T12:44:01.1Z</time>
      </trkpt>
      <trkpt lat="48.6316" lon="-2.41791">
        <ele>5</ele>
        <time>2014-04-14T12:44:03.1Z</time>
      </trkpt>
      <trkpt lat="48.63158" lon="-2.41791">
        <ele>4</ele>
        <time>2014-04-14T12:44:06.1Z</time>
      </trkpt>
      <trkpt lat="48.63155" lon="-2.41792">
        <ele>4</ele>
        <time>2014-04-14T12:44:09.1Z</time>
      </trkpt>
      <trkpt lat="48.63153" lon="-2.41794">
        <ele>5</ele>
        <time>2014-04-14T12:44:11.1Z</time>
      </trkpt>
      <trkpt lat="48.6315" lon="-2.41796">
        <ele>5</ele>
        <time>2014-04-14T12:44:14.1Z</time>
      </trkpt>
      <trkpt lat="48.63147" lon="-2.41796">
        <ele>5</ele>
        <time>2014-04-14T12:44:16.1Z</time>
      </trkpt>
      <trkpt lat="48.63145" lon="-2.41797">
        <ele>5</ele>
        <time>2014-04-14T12:44:19.1Z</time>
      </trkpt>
      <trkpt lat="48.63142" lon="-2.41797">
        <ele>5</ele>
        <time>2014-04-14T12:44:22.1Z</time>
      </trkpt>
      <trkpt lat="48.63139" lon="-2.41798">
        <ele>5</ele>
        <time>2014-04-14T12:44:25.1Z</time>
      </trkpt>
      <trkpt lat="48.63137" lon="-2.41798">
        <ele>5</ele>
        <time>2014-04-14T12:44:27.1Z</time>
      </trkpt>
      <trkpt lat="48.63134" lon="-2.41798">
        <ele>5</ele>
        <time>2014-04-14T12:44:29.1Z</time>
      </trkpt>
      <trkpt lat="48.63134" lon="-2.41798">
        <ele>5</ele>
        <time>2014-04-14T12:44:32.1Z</time>
      </trkpt>
      <trkpt lat="48.63132" lon="-2.41798">
        <ele>5</ele>
        <time>2014-04-14T12:44:34.1Z</time>
      </trkpt>
      <trkpt lat="48.6313" lon="-2.41799">
        <ele>5</ele>
        <time>2014-04-14T12:44:37.1Z</time>
      </trkpt>
      <trkpt lat="48.63127" lon="-2.418">
        <ele>5</ele>
        <time>2014-04-14T12:44:39.1Z</time>
      </trkpt>
      <trkpt lat="48.63123" lon="-2.41799">
        <ele>5</ele>
        <time>2014-04-14T12:44:42.1Z</time>
      </trkpt>
      <trkpt lat="48.6312" lon="-2.418">
        <ele>5</ele>
        <time>2014-04-14T12:44:45.1Z</time>
      </trkpt>
      <trkpt lat="48.63118" lon="-2.418">
        <ele>5</ele>
        <time>2014-04-14T12:44:48.1Z</time>
      </trkpt>
      <trkpt lat="48.63114" lon="-2.41801">
        <ele>5</ele>
        <time>2014-04-14T12:44:50.1Z</time>
      </trkpt>
      <trkpt lat="48.63111" lon="-2.41802">
        <ele>6</ele>
        <time>2014-04-14T12:44:53.1Z</time>
      </trkpt>
      <trkpt lat="48.63108" lon="-2.41802">
        <ele>6</ele>
        <time>2014-04-14T12:44:56.1Z</time>
      </trkpt>
      <trkpt lat="48.63105" lon="-2.41802">
        <ele>6</ele>
        <time>2014-04-14T12:44:58.1Z</time>
      </trkpt>
      <trkpt lat="48.63102" lon="-2.41803">
        <ele>6</ele>
        <time>2014-04-14T12:45:00.1Z</time>
      </trkpt>
      <trkpt lat="48.631" lon="-2.41804">
        <ele>6</ele>
        <time>2014-04-14T12:45:02.1Z</time>
      </trkpt>
      <trkpt lat="48.63097" lon="-2.41805">
        <ele>5</ele>
        <time>2014-04-14T12:45:04.1Z</time>
      </trkpt>
      <trkpt lat="48.63094" lon="-2.41807">
        <ele>5</ele>
        <time>2014-04-14T12:45:08.1Z</time>
      </trkpt>
      <trkpt lat="48.63092" lon="-2.41808">
        <ele>5</ele>
        <time>2014-04-14T12:45:10.1Z</time>
      </trkpt>
      <trkpt lat="48.63089" lon="-2.4181">
        <ele>5</ele>
        <time>2014-04-14T12:45:12.1Z</time>
      </trkpt>
      <trkpt lat="48.63087" lon="-2.41811">
        <ele>5</ele>
        <time>2014-04-14T12:45:14.1Z</time>
      </trkpt>
      <trkpt lat="48.63086" lon="-2.41812">
        <ele>5</ele>
        <time>2014-04-14T12:45:17.1Z</time>
      </trkpt>
      <trkpt lat="48.63086" lon="-2.41812">
        <ele>5</ele>
        <time>2014-04-14T12:45:19.1Z</time>
      </trkpt>
      <trkpt lat="48.63085" lon="-2.41812">
        <ele>6</ele>
        <time>2014-04-14T12:45:22.1Z</time>
      </trkpt>
      <trkpt lat="48.63084" lon="-2.41812">
        <ele>6</ele>
        <time>2014-04-14T12:45:24.1Z</time>
      </trkpt>
      <trkpt lat="48.63081" lon="-2.41814">
        <ele>5</ele>
        <time>2014-04-14T12:45:26.1Z</time>
      </trkpt>
      <trkpt lat="48.63079" lon="-2.41817">
        <ele>5</ele>
        <time>2014-04-14T12:45:29.1Z</time>
      </trkpt>
      <trkpt lat="48.63076" lon="-2.41819">
        <ele>4</ele>
        <time>2014-04-14T12:45:31.1Z</time>
      </trkpt>
      <trkpt lat="48.63074" lon="-2.41819">
        <ele>4</ele>
        <time>2014-04-14T12:45:34.1Z</time>
      </trkpt>
      <trkpt lat="48.63071" lon="-2.4182">
        <ele>4</ele>
        <time>2014-04-14T12:45:37.1Z</time>
      </trkpt>
      <trkpt lat="48.63068" lon="-2.41822">
        <ele>4</ele>
        <time>2014-04-14T12:45:40.1Z</time>
      </trkpt>
      <trkpt lat="48.63064" lon="-2.41824">
        <ele>5</ele>
        <time>2014-04-14T12:45:42.1Z</time>
      </trkpt>
      <trkpt lat="48.63063" lon="-2.41824">
        <ele>5</ele>
        <time>2014-04-14T12:45:46.1Z</time>
      </trkpt>
      <trkpt lat="48.6306" lon="-2.41824">
        <ele>5</ele>
        <time>2014-04-14T12:45:49.1Z</time>
      </trkpt>
      <trkpt lat="48.63059" lon="-2.41824">
        <ele>5</ele>
        <time>2014-04-14T12:45:51.1Z</time>
      </trkpt>
      <trkpt lat="48.63058" lon="-2.41823">
        <ele>6</ele>
        <time>2014-04-14T12:45:53.1Z</time>
      </trkpt>
      <trkpt lat="48.63057" lon="-2.41823">
        <ele>6</ele>
        <time>2014-04-14T12:45:57.1Z</time>
      </trkpt>
      <trkpt lat="48.63056" lon="-2.41823">
        <ele>6</ele>
        <time>2014-04-14T12:45:59.1Z</time>
      </trkpt>
      <trkpt lat="48.63055" lon="-2.41823">
        <ele>6</ele>
        <time>2014-04-14T12:46:02.1Z</time>
      </trkpt>
      <trkpt lat="48.63054" lon="-2.41822">
        <ele>7</ele>
        <time>2014-04-14T12:46:04.1Z</time>
      </trkpt>
      <trkpt lat="48.63053" lon="-2.41823">
        <ele>7</ele>
        <time>2014-04-14T12:46:06.1Z</time>
      </trkpt>
      <trkpt lat="48.63052" lon="-2.41824">
        <ele>8</ele>
        <time>2014-04-14T12:46:08.1Z</time>
      </trkpt>
      <trkpt lat="48.6305" lon="-2.41826">
        <ele>8</ele>
        <time>2014-04-14T12:46:11.1Z</time>
      </trkpt>
      <trkpt lat="48.63048" lon="-2.41828">
        <ele>8</ele>
        <time>2014-04-14T12:46:14.1Z</time>
      </trkpt>
      <trkpt lat="48.63046" lon="-2.41828">
        <ele>8</ele>
        <time>2014-04-14T12:46:17.1Z</time>
      </trkpt>
      <trkpt lat="48.63046" lon="-2.41829">
        <ele>8</ele>
        <time>2014-04-14T12:46:19.1Z</time>
      </trkpt>
      <trkpt lat="48.63045" lon="-2.41829">
        <ele>9</ele>
        <time>2014-04-14T12:46:22.1Z</time>
      </trkpt>
      <trkpt lat="48.63044" lon="-2.41829">
        <ele>9</ele>
        <time>2014-04-14T12:46:25.1Z</time>
      </trkpt>
      <trkpt lat="48.63044" lon="-2.41829">
        <ele>9</ele>
        <time>2014-04-14T12:46:27.1Z</time>
      </trkpt>
      <trkpt lat="48.63043" lon="-2.41829">
        <ele>10</ele>
        <time>2014-04-14T12:46:29.1Z</time>
      </trkpt>
      <trkpt lat="48.63043" lon="-2.41829">
        <ele>10</ele>
        <time>2014-04-14T12:46:31.1Z</time>
      </trkpt>
      <trkpt lat="48.63041" lon="-2.4183">
        <ele>10</ele>
        <time>2014-04-14T12:46:34.1Z</time>
      </trkpt>
      <trkpt lat="48.63039" lon="-2.41831">
        <ele>10</ele>
        <time>2014-04-14T12:46:37.1Z</time>
      </trkpt>
      <trkpt lat="48.63036" lon="-2.41833">
        <ele>9</ele>
        <time>2014-04-14T12:46:39.1Z</time>
      </trkpt>
      <trkpt lat="48.63036" lon="-2.41833">
        <ele>8</ele>
        <time>2014-04-14T12:46:41.1Z</time>
      </trkpt>
      <trkpt lat="48.63034" lon="-2.41835">
        <ele>8</ele>
        <time>2014-04-14T12:46:44.1Z</time>
      </trkpt>
      <trkpt lat="48.63033" lon="-2.41835">
        <ele>7</ele>
        <time>2014-04-14T12:46:46.1Z</time>
      </trkpt>
      <trkpt lat="48.63032" lon="-2.41836">
        <ele>7</ele>
        <time>2014-04-14T12:46:50.1Z</time>
      </trkpt>
      <trkpt lat="48.63031" lon="-2.41837">
        <ele>7</ele>
        <time>2014-04-14T12:46:52.1Z</time>
      </trkpt>
      <trkpt lat="48.63029" lon="-2.41838">
        <ele>6</ele>
        <time>2014-04-14T12:46:55.1Z</time>
      </trkpt>
      <trkpt lat="48.63028" lon="-2.41838">
        <ele>5</ele>
        <time>2014-04-14T12:46:57.1Z</time>
      </trkpt>
      <trkpt lat="48.63027" lon="-2.41838">
        <ele>5</ele>
        <time>2014-04-14T12:47:00.1Z</time>
      </trkpt>
      <trkpt lat="48.63025" lon="-2.4184">
        <ele>4</ele>
        <time>2014-04-14T12:47:02.1Z</time>
      </trkpt>
      <trkpt lat="48.63023" lon="-2.41843">
        <ele>4</ele>
        <time>2014-04-14T12:47:04.1Z</time>
      </trkpt>
      <trkpt lat="48.6302" lon="-2.41845">
        <ele>4</ele>
        <time>2014-04-14T12:47:07.1Z</time>
      </trkpt>
      <trkpt lat="48.63018" lon="-2.41849">
        <ele>4</ele>
        <time>2014-04-14T12:47:10.1Z</time>
      </trkpt>
      <trkpt lat="48.63017" lon="-2.41853">
        <ele>4</ele>
        <time>2014-04-14T12:47:12.1Z</time>
      </trkpt>
      <trkpt lat="48.63016" lon="-2.41853">
        <ele>5</ele>
        <time>2014-04-14T12:47:15.1Z</time>
      </trkpt>
      <trkpt lat="48.63015" lon="-2.41854">
        <ele>5</ele>
        <time>2014-04-14T12:47:18.1Z</time>
      </trkpt>
      <trkpt lat="48.63015" lon="-2.41855">
        <ele>6</ele>
        <time>2014-04-14T12:47:20.1Z</time>
      </trkpt>
      <trkpt lat="48.63015" lon="-2.41855">
        <ele>5</ele>
        <time>2014-04-14T12:47:23.1Z</time>
      </trkpt>
      <trkpt lat="48.63013" lon="-2.41859">
        <ele>6</ele>
        <time>2014-04-14T12:47:26.1Z</time>
      </trkpt>
      <trkpt lat="48.63011" lon="-2.41864">
        <ele>5</ele>
        <time>2014-04-14T12:47:29.1Z</time>
      </trkpt>
      <trkpt lat="48.63008" lon="-2.41869">
        <ele>4</ele>
        <time>2014-04-14T12:47:31.1Z</time>
      </trkpt>
      <trkpt lat="48.63006" lon="-2.41873">
        <ele>3</ele>
        <time>2014-04-14T12:47:34.1Z</time>
      </trkpt>
      <trkpt lat="48.63004" lon="-2.41876">
        <ele>3</ele>
        <time>2014-04-14T12:47:36.1Z</time>
      </trkpt>
      <trkpt lat="48.63001" lon="-2.41881">
        <ele>3</ele>
        <time>2014-04-14T12:47:39.1Z</time>
      </trkpt>
      <trkpt lat="48.62999" lon="-2.41885">
        <ele>3</ele>
        <time>2014-04-14T12:47:41.1Z</time>
      </trkpt>
      <trkpt lat="48.62996" lon="-2.4189">
        <ele>3</ele>
        <time>2014-04-14T12:47:44.1Z</time>
      </trkpt>
      <trkpt lat="48.62993" lon="-2.41895">
        <ele>3</ele>
        <time>2014-04-14T12:47:47.1Z</time>
      </trkpt>
      <trkpt lat="48.6299" lon="-2.41899">
        <ele>4</ele>
        <time>2014-04-14T12:47:50.1Z</time>
      </trkpt>
      <trkpt lat="48.62989" lon="-2.41902">
        <ele>4</ele>
        <time>2014-04-14T12:47:52.1Z</time>
      </trkpt>
      <trkpt lat="48.62987" lon="-2.41905">
        <ele>4</ele>
        <time>2014-04-14T12:47:55.1Z</time>
      </trkpt>
      <trkpt lat="48.62985" lon="-2.41908">
        <ele>4</ele>
        <time>2014-04-14T12:47:58.1Z</time>
      </trkpt>
      <trkpt lat="48.62983" lon="-2.41912">
        <ele>4</ele>
        <time>2014-04-14T12:48:00.1Z</time>
      </trkpt>
      <trkpt lat="48.62982" lon="-2.41916">
        <ele>4</ele>
        <time>2014-04-14T12:48:03.1Z</time>
      </trkpt>
      <trkpt lat="48.62979" lon="-2.41919">
        <ele>4</ele>
        <time>2014-04-14T12:48:06.1Z</time>
      </trkpt>
      <trkpt lat="48.62978" lon="-2.41922">
        <ele>4</ele>
        <time>2014-04-14T12:48:08.1Z</time>
      </trkpt>
      <trkpt lat="48.62977" lon="-2.41924">
        <ele>4</ele>
        <time>2014-04-14T12:48:11.1Z</time>
      </trkpt>
      <trkpt lat="48.62975" lon="-2.41926">
        <ele>4</ele>
        <time>2014-04-14T12:48:13.1Z</time>
      </trkpt>
      <trkpt lat="48.62974" lon="-2.41928">
        <ele>5</ele>
        <time>2014-04-14T12:48:16.1Z</time>
      </trkpt>
      <trkpt lat="48.62971" lon="-2.41931">
        <ele>4</ele>
        <time>2014-04-14T12:48:19.1Z</time>
      </trkpt>
      <trkpt lat="48.6297" lon="-2.41933">
        <ele>4</ele>
        <time>2014-04-14T12:48:21.1Z</time>
      </trkpt>
      <trkpt lat="48.62968" lon="-2.41937">
        <ele>4</ele>
        <time>2014-04-14T12:48:24.1Z</time>
      </trkpt>
      <trkpt lat="48.62968" lon="-2.41939">
        <ele>4</ele>
        <time>2014-04-14T12:48:26.1Z</time>
      </trkpt>
      <trkpt lat="48.62967" lon="-2.41941">
        <ele>4</ele>
        <time>2014-04-14T12:48:29.1Z</time>
      </trkpt>
      <trkpt lat="48.62966" lon="-2.41943">
        <ele>4</ele>
        <time>2014-04-14T12:48:31.1Z</time>
      </trkpt>
      <trkpt lat="48.62965" lon="-2.41945">
        <ele>5</ele>
        <time>2014-04-14T12:48:34.1Z</time>
      </trkpt>
      <trkpt lat="48.62964" lon="-2.41946">
        <ele>5</ele>
        <time>2014-04-14T12:48:36.1Z</time>
      </trkpt>
      <trkpt lat="48.62964" lon="-2.41948">
        <ele>5</ele>
        <time>2014-04-14T12:48:39.1Z</time>
      </trkpt>
      <trkpt lat="48.62963" lon="-2.41949">
        <ele>5</ele>
        <time>2014-04-14T12:48:41.1Z</time>
      </trkpt>
      <trkpt lat="48.62962" lon="-2.4195">
        <ele>4</ele>
        <time>2014-04-14T12:48:44.1Z</time>
      </trkpt>
      <trkpt lat="48.6296" lon="-2.41955">
        <ele>3</ele>
        <time>2014-04-14T12:48:46.1Z</time>
      </trkpt>
      <trkpt lat="48.62959" lon="-2.41958">
        <ele>3</ele>
        <time>2014-04-14T12:48:48.1Z</time>
      </trkpt>
      <trkpt lat="48.62957" lon="-2.41962">
        <ele>3</ele>
        <time>2014-04-14T12:48:51.1Z</time>
      </trkpt>
      <trkpt lat="48.62956" lon="-2.41965">
        <ele>3</ele>
        <time>2014-04-14T12:48:54.1Z</time>
      </trkpt>
      <trkpt lat="48.62955" lon="-2.41966">
        <ele>3</ele>
        <time>2014-04-14T12:48:56.1Z</time>
      </trkpt>
      <trkpt lat="48.62955" lon="-2.41967">
        <ele>4</ele>
        <time>2014-04-14T12:48:58.1Z</time>
      </trkpt>
      <trkpt lat="48.62954" lon="-2.41968">
        <ele>4</ele>
        <time>2014-04-14T12:49:01.1Z</time>
      </trkpt>
      <trkpt lat="48.62953" lon="-2.41971">
        <ele>4</ele>
        <time>2014-04-14T12:49:04.1Z</time>
      </trkpt>
      <trkpt lat="48.62952" lon="-2.41972">
        <ele>4</ele>
        <time>2014-04-14T12:49:08.1Z</time>
      </trkpt>
      <trkpt lat="48.62952" lon="-2.41973">
        <ele>4</ele>
        <time>2014-04-14T12:49:11.1Z</time>
      </trkpt>
      <trkpt lat="48.62951" lon="-2.41975">
        <ele>4</ele>
        <time>2014-04-14T12:49:14.1Z</time>
      </trkpt>
      <trkpt lat="48.6295" lon="-2.41975">
        <ele>4</ele>
        <time>2014-04-14T12:49:16.1Z</time>
      </trkpt>
      <trkpt lat="48.6295" lon="-2.41976">
        <ele>4</ele>
        <time>2014-04-14T12:49:18.1Z</time>
      </trkpt>
      <trkpt lat="48.6295" lon="-2.41977">
        <ele>4</ele>
        <time>2014-04-14T12:49:20.1Z</time>
      </trkpt>
      <trkpt lat="48.62949" lon="-2.41978">
        <ele>4</ele>
        <time>2014-04-14T12:49:22.1Z</time>
      </trkpt>
      <trkpt lat="48.62949" lon="-2.41979">
        <ele>4</ele>
        <time>2014-04-14T12:49:25.1Z</time>
      </trkpt>
      <trkpt lat="48.62949" lon="-2.41979">
        <ele>4</ele>
        <time>2014-04-14T12:49:27.1Z</time>
      </trkpt>
      <trkpt lat="48.62948" lon="-2.4198">
        <ele>4</ele>
        <time>2014-04-14T12:49:30.1Z</time>
      </trkpt>
      <trkpt lat="48.62948" lon="-2.4198">
        <ele>4</ele>
        <time>2014-04-14T12:49:33.1Z</time>
      </trkpt>
      <trkpt lat="48.62947" lon="-2.41979">
        <ele>4</ele>
        <time>2014-04-14T12:49:35.1Z</time>
      </trkpt>
      <trkpt lat="48.62949" lon="-2.4198">
        <ele>4</ele>
        <time>2014-04-14T12:49:37.1Z</time>
      </trkpt>
      <trkpt lat="48.62947" lon="-2.4198">
        <ele>3</ele>
        <time>2014-04-14T12:49:40.1Z</time>
      </trkpt>
      <trkpt lat="48.62944" lon="-2.4198">
        <ele>4</ele>
        <time>2014-04-14T12:49:43.1Z</time>
      </trkpt>
      <trkpt lat="48.62943" lon="-2.4198">
        <ele>4</ele>
        <time>2014-04-14T12:49:45.1Z</time>
      </trkpt>
      <trkpt lat="48.62942" lon="-2.4198">
        <ele>4</ele>
        <time>2014-04-14T12:49:48.1Z</time>
      </trkpt>
      <trkpt lat="48.62941" lon="-2.41981">
        <ele>4</ele>
        <time>2014-04-14T12:49:50.1Z</time>
      </trkpt>
      <trkpt lat="48.62939" lon="-2.41981">
        <ele>4</ele>
        <time>2014-04-14T12:49:52.1Z</time>
      </trkpt>
      <trkpt lat="48.62938" lon="-2.41982">
        <ele>4</ele>
        <time>2014-04-14T12:49:54.1Z</time>
      </trkpt>
      <trkpt lat="48.62936" lon="-2.41983">
        <ele>4</ele>
        <time>2014-04-14T12:49:56.1Z</time>
      </trkpt>
      <trkpt lat="48.62935" lon="-2.41982">
        <ele>4</ele>
        <time>2014-04-14T12:49:59.1Z</time>
      </trkpt>
      <trkpt lat="48.62933" lon="-2.41982">
        <ele>4</ele>
        <time>2014-04-14T12:50:01.1Z</time>
      </trkpt>
      <trkpt lat="48.62931" lon="-2.41984">
        <ele>5</ele>
        <time>2014-04-14T12:50:04.1Z</time>
      </trkpt>
      <trkpt lat="48.62928" lon="-2.41986">
        <ele>6</ele>
        <time>2014-04-14T12:50:07.1Z</time>
      </trkpt>
      <trkpt lat="48.62926" lon="-2.41988">
        <ele>6</ele>
        <time>2014-04-14T12:50:10.1Z</time>
      </trkpt>
      <trkpt lat="48.62924" lon="-2.41991">
        <ele>7</ele>
        <time>2014-04-14T12:50:12.1Z</time>
      </trkpt>
      <trkpt lat="48.62922" lon="-2.41993">
        <ele>7</ele>
        <time>2014-04-14T12:50:15.1Z</time>
      </trkpt>
      <trkpt lat="48.62921" lon="-2.41996">
        <ele>8</ele>
        <time>2014-04-14T12:50:18.1Z</time>
      </trkpt>
      <trkpt lat="48.62921" lon="-2.41998">
        <ele>8</ele>
        <time>2014-04-14T12:50:20.1Z</time>
      </trkpt>
      <trkpt lat="48.62919" lon="-2.42001">
        <ele>8</ele>
        <time>2014-04-14T12:50:23.1Z</time>
      </trkpt>
      <trkpt lat="48.62918" lon="-2.42003">
        <ele>8</ele>
        <time>2014-04-14T12:50:25.1Z</time>
      </trkpt>
      <trkpt lat="48.62916" lon="-2.42007">
        <ele>9</ele>
        <time>2014-04-14T12:50:28.1Z</time>
      </trkpt>
      <trkpt lat="48.62914" lon="-2.42011">
        <ele>9</ele>
        <time>2014-04-14T12:50:31.1Z</time>
      </trkpt>
      <trkpt lat="48.62913" lon="-2.42014">
        <ele>9</ele>
        <time>2014-04-14T12:50:34.1Z</time>
      </trkpt>
      <trkpt lat="48.62911" lon="-2.42018">
        <ele>9</ele>
        <time>2014-04-14T12:50:36.1Z</time>
      </trkpt>
      <trkpt lat="48.6291" lon="-2.4202">
        <ele>9</ele>
        <time>2014-04-14T12:50:38.1Z</time>
      </trkpt>
      <trkpt lat="48.62909" lon="-2.42023">
        <ele>9</ele>
        <time>2014-04-14T12:50:41.1Z</time>
      </trkpt>
      <trkpt lat="48.62909" lon="-2.42025">
        <ele>9</ele>
        <time>2014-04-14T12:50:43.1Z</time>
      </trkpt>
      <trkpt lat="48.62909" lon="-2.42028">
        <ele>9</ele>
        <time>2014-04-14T12:50:45.1Z</time>
      </trkpt>
      <trkpt lat="48.62909" lon="-2.42031">
        <ele>8</ele>
        <time>2014-04-14T12:50:47.1Z</time>
      </trkpt>
      <trkpt lat="48.62909" lon="-2.42034">
        <ele>8</ele>
        <time>2014-04-14T12:50:50.1Z</time>
      </trkpt>
      <trkpt lat="48.62909" lon="-2.42039">
        <ele>8</ele>
        <time>2014-04-14T12:50:52.1Z</time>
      </trkpt>
      <trkpt lat="48.62909" lon="-2.42042">
        <ele>8</ele>
        <time>2014-04-14T12:50:54.1Z</time>
      </trkpt>
      <trkpt lat="48.62909" lon="-2.42046">
        <ele>7</ele>
        <time>2014-04-14T12:50:57.1Z</time>
      </trkpt>
      <trkpt lat="48.62909" lon="-2.42048">
        <ele>7</ele>
        <time>2014-04-14T12:50:59.1Z</time>
      </trkpt>
      <trkpt lat="48.62908" lon="-2.42051">
        <ele>6</ele>
        <time>2014-04-14T12:51:01.1Z</time>
      </trkpt>
      <trkpt lat="48.62908" lon="-2.42054">
        <ele>6</ele>
        <time>2014-04-14T12:51:04.1Z</time>
      </trkpt>
      <trkpt lat="48.62908" lon="-2.42056">
        <ele>6</ele>
        <time>2014-04-14T12:51:07.1Z</time>
      </trkpt>
      <trkpt lat="48.62908" lon="-2.42058">
        <ele>6</ele>
        <time>2014-04-14T12:51:10.1Z</time>
      </trkpt>
      <trkpt lat="48.62907" lon="-2.4206">
        <ele>6</ele>
        <time>2014-04-14T12:51:12.1Z</time>
      </trkpt>
      <trkpt lat="48.62907" lon="-2.42062">
        <ele>6</ele>
        <time>2014-04-14T12:51:15.1Z</time>
      </trkpt>
      <trkpt lat="48.62907" lon="-2.42064">
        <ele>6</ele>
        <time>2014-04-14T12:51:17.1Z</time>
      </trkpt>
      <trkpt lat="48.62907" lon="-2.42066">
        <ele>7</ele>
        <time>2014-04-14T12:51:20.1Z</time>
      </trkpt>
      <trkpt lat="48.62906" lon="-2.42068">
        <ele>7</ele>
        <time>2014-04-14T12:51:23.1Z</time>
      </trkpt>
      <trkpt lat="48.62906" lon="-2.42069">
        <ele>7</ele>
        <time>2014-04-14T12:51:25.1Z</time>
      </trkpt>
      <trkpt lat="48.62906" lon="-2.4207">
        <ele>6</ele>
        <time>2014-04-14T12:51:27.1Z</time>
      </trkpt>
      <trkpt lat="48.62905" lon="-2.42071">
        <ele>6</ele>
        <time>2014-04-14T12:51:29.1Z</time>
      </trkpt>
      <trkpt lat="48.62905" lon="-2.42072">
        <ele>6</ele>
        <time>2014-04-14T12:51:31.1Z</time>
      </trkpt>
      <trkpt lat="48.62905" lon="-2.42072">
        <ele>6</ele>
        <time>2014-04-14T12:51:33.1Z</time>
      </trkpt>
      <trkpt lat="48.62905" lon="-2.42073">
        <ele>6</ele>
        <time>2014-04-14T12:51:36.1Z</time>
      </trkpt>
      <trkpt lat="48.62905" lon="-2.42074">
        <ele>6</ele>
        <time>2014-04-14T12:51:39.1Z</time>
      </trkpt>
      <trkpt lat="48.62905" lon="-2.42075">
        <ele>5</ele>
        <time>2014-04-14T12:51:41.1Z</time>
      </trkpt>
      <trkpt lat="48.62904" lon="-2.42077">
        <ele>5</ele>
        <time>2014-04-14T12:51:43.1Z</time>
      </trkpt>
      <trkpt lat="48.62904" lon="-2.42078">
        <ele>5</ele>
        <time>2014-04-14T12:51:45.1Z</time>
      </trkpt>
      <trkpt lat="48.62903" lon="-2.42079">
        <ele>5</ele>
        <time>2014-04-14T12:51:47.1Z</time>
      </trkpt>
      <trkpt lat="48.62903" lon="-2.42079">
        <ele>5</ele>
        <time>2014-04-14T12:51:50.1Z</time>
      </trkpt>
      <trkpt lat="48.62903" lon="-2.42079">
        <ele>5</ele>
        <time>2014-04-14T12:51:52.1Z</time>
      </trkpt>
      <trkpt lat="48.62904" lon="-2.42079">
        <ele>5</ele>
        <time>2014-04-14T12:51:54.1Z</time>
      </trkpt>
      <trkpt lat="48.62904" lon="-2.42078">
        <ele>5</ele>
        <time>2014-04-14T12:51:57.1Z</time>
      </trkpt>
      <trkpt lat="48.62904" lon="-2.42078">
        <ele>5</ele>
        <time>2014-04-14T12:52:00.1Z</time>
      </trkpt>
      <trkpt lat="48.62904" lon="-2.42078">
        <ele>5</ele>
        <time>2014-04-14T12:52:03.1Z</time>
      </trkpt>
      <trkpt lat="48.62904" lon="-2.4208">
        <ele>5</ele>
        <time>2014-04-14T12:52:06.1Z</time>
      </trkpt>
      <trkpt lat="48.62904" lon="-2.4208">
        <ele>5</ele>
        <time>2014-04-14T12:52:08.1Z</time>
      </trkpt>
      <trkpt lat="48.62904" lon="-2.4208">
        <ele>5</ele>
        <time>2014-04-14T12:52:10.1Z</time>
      </trkpt>
      <trkpt lat="48.62905" lon="-2.4208">
        <ele>5</ele>
        <time>2014-04-14T12:52:17.1Z</time>
      </trkpt>
      <trkpt lat="48.62905" lon="-2.4208">
        <ele>5</ele>
        <time>2014-04-14T12:52:20.1Z</time>
      </trkpt>
      <trkpt lat="48.62905" lon="-2.4208">
        <ele>5</ele>
        <time>2014-04-14T12:52:23.1Z</time>
      </trkpt>
      <trkpt lat="48.62905" lon="-2.42081">
        <ele>5</ele>
        <time>2014-04-14T12:52:26.1Z</time>
      </trkpt>
      <trkpt lat="48.62904" lon="-2.42082">
        <ele>5</ele>
        <time>2014-04-14T12:52:29.1Z</time>
      </trkpt>
      <trkpt lat="48.62903" lon="-2.42083">
        <ele>5</ele>
        <time>2014-04-14T12:52:32.1Z</time>
      </trkpt>
      <trkpt lat="48.62903" lon="-2.42084">
        <ele>6</ele>
        <time>2014-04-14T12:52:35.1Z</time>
      </trkpt>
      <trkpt lat="48.62903" lon="-2.42084">
        <ele>6</ele>
        <time>2014-04-14T12:52:40.1Z</time>
      </trkpt>
      <trkpt lat="48.62903" lon="-2.42083">
        <ele>6</ele>
        <time>2014-04-14T12:52:43.1Z</time>
      </trkpt>
      <trkpt lat="48.62903" lon="-2.42083">
        <ele>6</ele>
        <time>2014-04-14T12:52:45.1Z</time>
      </trkpt>
      <trkpt lat="48.62903" lon="-2.42084">
        <ele>5</ele>
        <time>2014-04-14T12:52:47.1Z</time>
      </trkpt>
      <trkpt lat="48.62903" lon="-2.42085">
        <ele>5</ele>
        <time>2014-04-14T12:52:50.1Z</time>
      </trkpt>
      <trkpt lat="48.62902" lon="-2.42088">
        <ele>4</ele>
        <time>2014-04-14T12:52:53.1Z</time>
      </trkpt>
      <trkpt lat="48.629" lon="-2.4209">
        <ele>5</ele>
        <time>2014-04-14T12:52:55.1Z</time>
      </trkpt>
      <trkpt lat="48.62896" lon="-2.42093">
        <ele>5</ele>
        <time>2014-04-14T12:52:58.1Z</time>
      </trkpt>
      <trkpt lat="48.62893" lon="-2.42094">
        <ele>6</ele>
        <time>2014-04-14T12:53:01.1Z</time>
      </trkpt>
      <trkpt lat="48.62891" lon="-2.42096">
        <ele>6</ele>
        <time>2014-04-14T12:53:03.1Z</time>
      </trkpt>
      <trkpt lat="48.62888" lon="-2.42098">
        <ele>6</ele>
        <time>2014-04-14T12:53:06.1Z</time>
      </trkpt>
      <trkpt lat="48.62886" lon="-2.42099">
        <ele>7</ele>
        <time>2014-04-14T12:53:08.1Z</time>
      </trkpt>
      <trkpt lat="48.62886" lon="-2.42099">
        <ele>7</ele>
        <time>2014-04-14T12:53:11.1Z</time>
      </trkpt>
      <trkpt lat="48.62884" lon="-2.421">
        <ele>8</ele>
        <time>2014-04-14T12:53:14.1Z</time>
      </trkpt>
      <trkpt lat="48.62883" lon="-2.42102">
        <ele>8</ele>
        <time>2014-04-14T12:53:16.1Z</time>
      </trkpt>
      <trkpt lat="48.62881" lon="-2.42105">
        <ele>7</ele>
        <time>2014-04-14T12:53:19.1Z</time>
      </trkpt>
      <trkpt lat="48.62881" lon="-2.42107">
        <ele>8</ele>
        <time>2014-04-14T12:53:21.1Z</time>
      </trkpt>
      <trkpt lat="48.6288" lon="-2.42109">
        <ele>8</ele>
        <time>2014-04-14T12:53:24.1Z</time>
      </trkpt>
      <trkpt lat="48.6288" lon="-2.4211">
        <ele>8</ele>
        <time>2014-04-14T12:53:27.1Z</time>
      </trkpt>
      <trkpt lat="48.6288" lon="-2.4211">
        <ele>8</ele>
        <time>2014-04-14T12:53:32.1Z</time>
      </trkpt>
      <trkpt lat="48.6288" lon="-2.42111">
        <ele>8</ele>
        <time>2014-04-14T12:53:34.1Z</time>
      </trkpt>
      <trkpt lat="48.6288" lon="-2.42112">
        <ele>9</ele>
        <time>2014-04-14T12:53:36.1Z</time>
      </trkpt>
      <trkpt lat="48.6288" lon="-2.42114">
        <ele>9</ele>
        <time>2014-04-14T12:53:39.1Z</time>
      </trkpt>
      <trkpt lat="48.6288" lon="-2.42115">
        <ele>9</ele>
        <time>2014-04-14T12:53:42.1Z</time>
      </trkpt>
      <trkpt lat="48.62879" lon="-2.42118">
        <ele>9</ele>
        <time>2014-04-14T12:53:45.1Z</time>
      </trkpt>
      <trkpt lat="48.62879" lon="-2.4212">
        <ele>9</ele>
        <time>2014-04-14T12:53:48.1Z</time>
      </trkpt>
      <trkpt lat="48.62879" lon="-2.42123">
        <ele>8</ele>
        <time>2014-04-14T12:53:50.1Z</time>
      </trkpt>
      <trkpt lat="48.62878" lon="-2.42126">
        <ele>9</ele>
        <time>2014-04-14T12:53:52.1Z</time>
      </trkpt>
      <trkpt lat="48.62878" lon="-2.42129">
        <ele>8</ele>
        <time>2014-04-14T12:53:54.1Z</time>
      </trkpt>
      <trkpt lat="48.62876" lon="-2.42133">
        <ele>8</ele>
        <time>2014-04-14T12:53:57.1Z</time>
      </trkpt>
      <trkpt lat="48.62875" lon="-2.42135">
        <ele>8</ele>
        <time>2014-04-14T12:53:59.1Z</time>
      </trkpt>
      <trkpt lat="48.62874" lon="-2.42137">
        <ele>8</ele>
        <time>2014-04-14T12:54:02.1Z</time>
      </trkpt>
      <trkpt lat="48.62873" lon="-2.42138">
        <ele>9</ele>
        <time>2014-04-14T12:54:05.1Z</time>
      </trkpt>
      <trkpt lat="48.62872" lon="-2.42141">
        <ele>10</ele>
        <time>2014-04-14T12:54:08.1Z</time>
      </trkpt>
      <trkpt lat="48.6287" lon="-2.42143">
        <ele>9</ele>
        <time>2014-04-14T12:54:11.1Z</time>
      </trkpt>
      <trkpt lat="48.62869" lon="-2.42144">
        <ele>9</ele>
        <time>2014-04-14T12:54:13.1Z</time>
      </trkpt>
      <trkpt lat="48.62868" lon="-2.42146">
        <ele>8</ele>
        <time>2014-04-14T12:54:16.1Z</time>
      </trkpt>
      <trkpt lat="48.62867" lon="-2.42149">
        <ele>8</ele>
        <time>2014-04-14T12:54:19.1Z</time>
      </trkpt>
      <trkpt lat="48.62865" lon="-2.42151">
        <ele>8</ele>
        <time>2014-04-14T12:54:21.1Z</time>
      </trkpt>
      <trkpt lat="48.62865" lon="-2.42152">
        <ele>8</ele>
        <time>2014-04-14T12:54:23.1Z</time>
      </trkpt>
      <trkpt lat="48.62863" lon="-2.42155">
        <ele>8</ele>
        <time>2014-04-14T12:54:26.1Z</time>
      </trkpt>
      <trkpt lat="48.62862" lon="-2.42157">
        <ele>8</ele>
        <time>2014-04-14T12:54:28.1Z</time>
      </trkpt>
      <trkpt lat="48.62861" lon="-2.42159">
        <ele>7</ele>
        <time>2014-04-14T12:54:31.1Z</time>
      </trkpt>
      <trkpt lat="48.6286" lon="-2.4216">
        <ele>7</ele>
        <time>2014-04-14T12:54:33.1Z</time>
      </trkpt>
      <trkpt lat="48.6286" lon="-2.42162">
        <ele>7</ele>
        <time>2014-04-14T12:54:36.1Z</time>
      </trkpt>
      <trkpt lat="48.62859" lon="-2.42165">
        <ele>6</ele>
        <time>2014-04-14T12:54:39.1Z</time>
      </trkpt>
      <trkpt lat="48.62858" lon="-2.42168">
        <ele>6</ele>
        <time>2014-04-14T12:54:42.1Z</time>
      </trkpt>
      <trkpt lat="48.62857" lon="-2.42171">
        <ele>6</ele>
        <time>2014-04-14T12:54:45.1Z</time>
      </trkpt>
      <trkpt lat="48.62856" lon="-2.42174">
        <ele>6</ele>
        <time>2014-04-14T12:54:47.1Z</time>
      </trkpt>
      <trkpt lat="48.62854" lon="-2.42177">
        <ele>6</ele>
        <time>2014-04-14T12:54:50.1Z</time>
      </trkpt>
      <trkpt lat="48.62852" lon="-2.42179">
        <ele>6</ele>
        <time>2014-04-14T12:54:52.1Z</time>
      </trkpt>
      <trkpt lat="48.62852" lon="-2.42182">
        <ele>6</ele>
        <time>2014-04-14T12:54:54.1Z</time>
      </trkpt>
      <trkpt lat="48.62851" lon="-2.42184">
        <ele>6</ele>
        <time>2014-04-14T12:54:56.1Z</time>
      </trkpt>
      <trkpt lat="48.62851" lon="-2.42188">
        <ele>6</ele>
        <time>2014-04-14T12:54:59.1Z</time>
      </trkpt>
      <trkpt lat="48.62851" lon="-2.4219">
        <ele>5</ele>
        <time>2014-04-14T12:55:01.1Z</time>
      </trkpt>
      <trkpt lat="48.62851" lon="-2.42193">
        <ele>5</ele>
        <time>2014-04-14T12:55:03.1Z</time>
      </trkpt>
      <trkpt lat="48.6285" lon="-2.42196">
        <ele>5</ele>
        <time>2014-04-14T12:55:06.1Z</time>
      </trkpt>
      <trkpt lat="48.62849" lon="-2.422">
        <ele>5</ele>
        <time>2014-04-14T12:55:09.1Z</time>
      </trkpt>
      <trkpt lat="48.62848" lon="-2.42204">
        <ele>5</ele>
        <time>2014-04-14T12:55:12.1Z</time>
      </trkpt>
      <trkpt lat="48.62849" lon="-2.42206">
        <ele>5</ele>
        <time>2014-04-14T12:55:14.1Z</time>
      </trkpt>
      <trkpt lat="48.62849" lon="-2.42208">
        <ele>5</ele>
        <time>2014-04-14T12:55:16.1Z</time>
      </trkpt>
      <trkpt lat="48.62849" lon="-2.4221">
        <ele>5</ele>
        <time>2014-04-14T12:55:18.1Z</time>
      </trkpt>
      <trkpt lat="48.6285" lon="-2.42213">
        <ele>5</ele>
        <time>2014-04-14T12:55:21.1Z</time>
      </trkpt>
      <trkpt lat="48.62851" lon="-2.42215">
        <ele>5</ele>
        <time>2014-04-14T12:55:23.1Z</time>
      </trkpt>
      <trkpt lat="48.62851" lon="-2.42219">
        <ele>5</ele>
        <time>2014-04-14T12:55:26.1Z</time>
      </trkpt>
      <trkpt lat="48.62852" lon="-2.42222">
        <ele>4</ele>
        <time>2014-04-14T12:55:29.1Z</time>
      </trkpt>
      <trkpt lat="48.62853" lon="-2.42224">
        <ele>5</ele>
        <time>2014-04-14T12:55:32.1Z</time>
      </trkpt>
      <trkpt lat="48.62854" lon="-2.42224">
        <ele>5</ele>
        <time>2014-04-14T12:55:35.1Z</time>
      </trkpt>
      <trkpt lat="48.62854" lon="-2.42225">
        <ele>4</ele>
        <time>2014-04-14T12:55:37.1Z</time>
      </trkpt>
      <trkpt lat="48.62854" lon="-2.42226">
        <ele>4</ele>
        <time>2014-04-14T12:55:40.1Z</time>
      </trkpt>
      <trkpt lat="48.62854" lon="-2.42226">
        <ele>4</ele>
        <time>2014-04-14T12:55:43.1Z</time>
      </trkpt>
      <trkpt lat="48.62855" lon="-2.42225">
        <ele>4</ele>
        <time>2014-04-14T12:55:46.1Z</time>
      </trkpt>
      <trkpt lat="48.62855" lon="-2.42225">
        <ele>4</ele>
        <time>2014-04-14T12:55:48.1Z</time>
      </trkpt>
      <trkpt lat="48.62856" lon="-2.42225">
        <ele>4</ele>
        <time>2014-04-14T12:55:50.1Z</time>
      </trkpt>
      <trkpt lat="48.62856" lon="-2.42224">
        <ele>4</ele>
        <time>2014-04-14T12:55:53.1Z</time>
      </trkpt>
      <trkpt lat="48.62857" lon="-2.42223">
        <ele>5</ele>
        <time>2014-04-14T12:55:56.1Z</time>
      </trkpt>
      <trkpt lat="48.62858" lon="-2.42223">
        <ele>5</ele>
        <time>2014-04-14T12:55:58.1Z</time>
      </trkpt>
      <trkpt lat="48.62859" lon="-2.42222">
        <ele>5</ele>
        <time>2014-04-14T12:56:00.1Z</time>
      </trkpt>
      <trkpt lat="48.6286" lon="-2.42221">
        <ele>5</ele>
        <time>2014-04-14T12:56:03.1Z</time>
      </trkpt>
      <trkpt lat="48.62861" lon="-2.42221">
        <ele>5</ele>
        <time>2014-04-14T12:56:05.1Z</time>
      </trkpt>
      <trkpt lat="48.62862" lon="-2.42222">
        <ele>5</ele>
        <time>2014-04-14T12:56:08.1Z</time>
      </trkpt>
      <trkpt lat="48.62862" lon="-2.42224">
        <ele>5</ele>
        <time>2014-04-14T12:56:11.1Z</time>
      </trkpt>
      <trkpt lat="48.62863" lon="-2.42227">
        <ele>5</ele>
        <time>2014-04-14T12:56:14.1Z</time>
      </trkpt>
      <trkpt lat="48.62863" lon="-2.42229">
        <ele>5</ele>
        <time>2014-04-14T12:56:16.1Z</time>
      </trkpt>
      <trkpt lat="48.62864" lon="-2.42231">
        <ele>5</ele>
        <time>2014-04-14T12:56:19.1Z</time>
      </trkpt>
      <trkpt lat="48.62865" lon="-2.42234">
        <ele>5</ele>
        <time>2014-04-14T12:56:21.1Z</time>
      </trkpt>
      <trkpt lat="48.62865" lon="-2.42235">
        <ele>5</ele>
        <time>2014-04-14T12:56:24.1Z</time>
      </trkpt>
      <trkpt lat="48.62866" lon="-2.42235">
        <ele>5</ele>
        <time>2014-04-14T12:56:27.1Z</time>
      </trkpt>
      <trkpt lat="48.62865" lon="-2.42234">
        <ele>5</ele>
        <time>2014-04-14T12:56:29.1Z</time>
      </trkpt>
      <trkpt lat="48.62866" lon="-2.42234">
        <ele>5</ele>
        <time>2014-04-14T12:56:31.1Z</time>
      </trkpt>
      <trkpt lat="48.62867" lon="-2.42234">
        <ele>5</ele>
        <time>2014-04-14T12:56:34.1Z</time>
      </trkpt>
      <trkpt lat="48.62867" lon="-2.42234">
        <ele>5</ele>
        <time>2014-04-14T12:56:36.1Z</time>
      </trkpt>
      <trkpt lat="48.62869" lon="-2.42234">
        <ele>5</ele>
        <time>2014-04-14T12:56:39.1Z</time>
      </trkpt>
      <trkpt lat="48.62872" lon="-2.42234">
        <ele>5</ele>
        <time>2014-04-14T12:56:42.1Z</time>
      </trkpt>
      <trkpt lat="48.62875" lon="-2.42232">
        <ele>5</ele>
        <time>2014-04-14T12:56:45.1Z</time>
      </trkpt>
      <trkpt lat="48.62876" lon="-2.42231">
        <ele>5</ele>
        <time>2014-04-14T12:56:47.1Z</time>
      </trkpt>
      <trkpt lat="48.62876" lon="-2.42227">
        <ele>5</ele>
        <time>2014-04-14T12:56:50.1Z</time>
      </trkpt>
      <trkpt lat="48.62877" lon="-2.42225">
        <ele>5</ele>
        <time>2014-04-14T12:56:52.1Z</time>
      </trkpt>
      <trkpt lat="48.62878" lon="-2.42225">
        <ele>5</ele>
        <time>2014-04-14T12:56:54.1Z</time>
      </trkpt>
      <trkpt lat="48.62878" lon="-2.42224">
        <ele>5</ele>
        <time>2014-04-14T12:56:57.1Z</time>
      </trkpt>
      <trkpt lat="48.62879" lon="-2.42222">
        <ele>5</ele>
        <time>2014-04-14T12:57:00.1Z</time>
      </trkpt>
      <trkpt lat="48.62879" lon="-2.42219">
        <ele>5</ele>
        <time>2014-04-14T12:57:03.1Z</time>
      </trkpt>
      <trkpt lat="48.6288" lon="-2.42217">
        <ele>5</ele>
        <time>2014-04-14T12:57:05.1Z</time>
      </trkpt>
      <trkpt lat="48.62881" lon="-2.42214">
        <ele>5</ele>
        <time>2014-04-14T12:57:08.1Z</time>
      </trkpt>
      <trkpt lat="48.62882" lon="-2.42211">
        <ele>5</ele>
        <time>2014-04-14T12:57:10.1Z</time>
      </trkpt>
      <trkpt lat="48.62883" lon="-2.42209">
        <ele>5</ele>
        <time>2014-04-14T12:57:12.1Z</time>
      </trkpt>
      <trkpt lat="48.62884" lon="-2.42204">
        <ele>5</ele>
        <time>2014-04-14T12:57:15.1Z</time>
      </trkpt>
      <trkpt lat="48.62885" lon="-2.42201">
        <ele>5</ele>
        <time>2014-04-14T12:57:17.1Z</time>
      </trkpt>
      <trkpt lat="48.62885" lon="-2.42198">
        <ele>4</ele>
        <time>2014-04-14T12:57:20.1Z</time>
      </trkpt>
      <trkpt lat="48.62885" lon="-2.42196">
        <ele>4</ele>
        <time>2014-04-14T12:57:23.1Z</time>
      </trkpt>
      <trkpt lat="48.62885" lon="-2.42195">
        <ele>4</ele>
        <time>2014-04-14T12:57:25.1Z</time>
      </trkpt>
      <trkpt lat="48.62885" lon="-2.42192">
        <ele>4</ele>
        <time>2014-04-14T12:57:28.1Z</time>
      </trkpt>
      <trkpt lat="48.62886" lon="-2.42189">
        <ele>4</ele>
        <time>2014-04-14T12:57:30.1Z</time>
      </trkpt>
      <trkpt lat="48.62886" lon="-2.42186">
        <ele>4</ele>
        <time>2014-04-14T12:57:33.1Z</time>
      </trkpt>
      <trkpt lat="48.62886" lon="-2.42183">
        <ele>4</ele>
        <time>2014-04-14T12:57:36.1Z</time>
      </trkpt>
      <trkpt lat="48.62887" lon="-2.42182">
        <ele>4</ele>
        <time>2014-04-14T12:57:38.1Z</time>
      </trkpt>
      <trkpt lat="48.62888" lon="-2.4218">
        <ele>4</ele>
        <time>2014-04-14T12:57:41.1Z</time>
      </trkpt>
      <trkpt lat="48.62888" lon="-2.42177">
        <ele>5</ele>
        <time>2014-04-14T12:57:44.1Z</time>
      </trkpt>
      <trkpt lat="48.62889" lon="-2.42175">
        <ele>4</ele>
        <time>2014-04-14T12:57:46.1Z</time>
      </trkpt>
      <trkpt lat="48.6289" lon="-2.42173">
        <ele>4</ele>
        <time>2014-04-14T12:57:49.1Z</time>
      </trkpt>
      <trkpt lat="48.62891" lon="-2.42171">
        <ele>4</ele>
        <time>2014-04-14T12:57:52.1Z</time>
      </trkpt>
      <trkpt lat="48.62892" lon="-2.4217">
        <ele>4</ele>
        <time>2014-04-14T12:57:54.1Z</time>
      </trkpt>
      <trkpt lat="48.62892" lon="-2.42167">
        <ele>4</ele>
        <time>2014-04-14T12:57:57.1Z</time>
      </trkpt>
      <trkpt lat="48.62893" lon="-2.42166">
        <ele>4</ele>
        <time>2014-04-14T12:57:59.1Z</time>
      </trkpt>
      <trkpt lat="48.62893" lon="-2.42161">
        <ele>4</ele>
        <time>2014-04-14T12:58:02.1Z</time>
      </trkpt>
      <trkpt lat="48.62893" lon="-2.42158">
        <ele>4</ele>
        <time>2014-04-14T12:58:04.1Z</time>
      </trkpt>
      <trkpt lat="48.62893" lon="-2.42156">
        <ele>4</ele>
        <time>2014-04-14T12:58:07.1Z</time>
      </trkpt>
      <trkpt lat="48.62894" lon="-2.42152">
        <ele>5</ele>
        <time>2014-04-14T12:58:09.1Z</time>
      </trkpt>
      <trkpt lat="48.62896" lon="-2.42148">
        <ele>5</ele>
        <time>2014-04-14T12:58:12.1Z</time>
      </trkpt>
      <trkpt lat="48.62897" lon="-2.42145">
        <ele>4</ele>
        <time>2014-04-14T12:58:15.1Z</time>
      </trkpt>
      <trkpt lat="48.62898" lon="-2.42143">
        <ele>4</ele>
        <time>2014-04-14T12:58:17.1Z</time>
      </trkpt>
      <trkpt lat="48.629" lon="-2.4214">
        <ele>4</ele>
        <time>2014-04-14T12:58:20.1Z</time>
      </trkpt>
      <trkpt lat="48.62901" lon="-2.42138">
        <ele>4</ele>
        <time>2014-04-14T12:58:23.1Z</time>
      </trkpt>
      <trkpt lat="48.62902" lon="-2.42137">
        <ele>4</ele>
        <time>2014-04-14T12:58:25.1Z</time>
      </trkpt>
      <trkpt lat="48.62903" lon="-2.42134">
        <ele>4</ele>
        <time>2014-04-14T12:58:28.1Z</time>
      </trkpt>
      <trkpt lat="48.62904" lon="-2.42132">
        <ele>4</ele>
        <time>2014-04-14T12:58:30.1Z</time>
      </trkpt>
      <trkpt lat="48.62904" lon="-2.42129">
        <ele>4</ele>
        <time>2014-04-14T12:58:32.1Z</time>
      </trkpt>
      <trkpt lat="48.62906" lon="-2.42126">
        <ele>4</ele>
        <time>2014-04-14T12:58:35.1Z</time>
      </trkpt>
      <trkpt lat="48.62908" lon="-2.42125">
        <ele>4</ele>
        <time>2014-04-14T12:58:38.1Z</time>
      </trkpt>
      <trkpt lat="48.6291" lon="-2.42124">
        <ele>4</ele>
        <time>2014-04-14T12:58:41.1Z</time>
      </trkpt>
      <trkpt lat="48.62912" lon="-2.42123">
        <ele>4</ele>
        <time>2014-04-14T12:58:43.1Z</time>
      </trkpt>
      <trkpt lat="48.62913" lon="-2.42122">
        <ele>4</ele>
        <time>2014-04-14T12:58:45.1Z</time>
      </trkpt>
      <trkpt lat="48.62915" lon="-2.42121">
        <ele>4</ele>
        <time>2014-04-14T12:58:48.1Z</time>
      </trkpt>
      <trkpt lat="48.62917" lon="-2.4212">
        <ele>4</ele>
        <time>2014-04-14T12:58:51.1Z</time>
      </trkpt>
      <trkpt lat="48.6292" lon="-2.42119">
        <ele>4</ele>
        <time>2014-04-14T12:58:54.1Z</time>
      </trkpt>
      <trkpt lat="48.62922" lon="-2.42118">
        <ele>4</ele>
        <time>2014-04-14T12:58:57.1Z</time>
      </trkpt>
      <trkpt lat="48.62923" lon="-2.42115">
        <ele>4</ele>
        <time>2014-04-14T12:59:00.1Z</time>
      </trkpt>
      <trkpt lat="48.62925" lon="-2.42113">
        <ele>4</ele>
        <time>2014-04-14T12:59:03.1Z</time>
      </trkpt>
      <trkpt lat="48.62926" lon="-2.42111">
        <ele>4</ele>
        <time>2014-04-14T12:59:05.1Z</time>
      </trkpt>
      <trkpt lat="48.62928" lon="-2.4211">
        <ele>4</ele>
        <time>2014-04-14T12:59:08.1Z</time>
      </trkpt>
      <trkpt lat="48.62929" lon="-2.42108">
        <ele>4</ele>
        <time>2014-04-14T12:59:10.1Z</time>
      </trkpt>
      <trkpt lat="48.6293" lon="-2.42105">
        <ele>4</ele>
        <time>2014-04-14T12:59:13.1Z</time>
      </trkpt>
      <trkpt lat="48.62931" lon="-2.42103">
        <ele>5</ele>
        <time>2014-04-14T12:59:15.1Z</time>
      </trkpt>
      <trkpt lat="48.62933" lon="-2.42101">
        <ele>5</ele>
        <time>2014-04-14T12:59:18.1Z</time>
      </trkpt>
      <trkpt lat="48.62934" lon="-2.42099">
        <ele>5</ele>
        <time>2014-04-14T12:59:21.1Z</time>
      </trkpt>
      <trkpt lat="48.62937" lon="-2.42098">
        <ele>5</ele>
        <time>2014-04-14T12:59:23.1Z</time>
      </trkpt>
      <trkpt lat="48.62939" lon="-2.42097">
        <ele>5</ele>
        <time>2014-04-14T12:59:26.1Z</time>
      </trkpt>
      <trkpt lat="48.6294" lon="-2.42096">
        <ele>5</ele>
        <time>2014-04-14T12:59:28.1Z</time>
      </trkpt>
      <trkpt lat="48.62941" lon="-2.42096">
        <ele>5</ele>
        <time>2014-04-14T12:59:30.1Z</time>
      </trkpt>
      <trkpt lat="48.62943" lon="-2.42094">
        <ele>5</ele>
        <time>2014-04-14T12:59:33.1Z</time>
      </trkpt>
      <trkpt lat="48.62944" lon="-2.42094">
        <ele>5</ele>
        <time>2014-04-14T12:59:35.1Z</time>
      </trkpt>
      <trkpt lat="48.62946" lon="-2.42092">
        <ele>6</ele>
        <time>2014-04-14T12:59:38.1Z</time>
      </trkpt>
      <trkpt lat="48.62946" lon="-2.4209">
        <ele>6</ele>
        <time>2014-04-14T12:59:41.1Z</time>
      </trkpt>
      <trkpt lat="48.62947" lon="-2.42089">
        <ele>6</ele>
        <time>2014-04-14T12:59:43.1Z</time>
      </trkpt>
      <trkpt lat="48.62948" lon="-2.42088">
        <ele>6</ele>
        <time>2014-04-14T12:59:46.1Z</time>
      </trkpt>
      <trkpt lat="48.62949" lon="-2.42087">
        <ele>6</ele>
        <time>2014-04-14T12:59:49.1Z</time>
      </trkpt>
      <trkpt lat="48.6295" lon="-2.42086">
        <ele>7</ele>
        <time>2014-04-14T12:59:51.1Z</time>
      </trkpt>
      <trkpt lat="48.62951" lon="-2.42085">
        <ele>7</ele>
        <time>2014-04-14T12:59:54.1Z</time>
      </trkpt>
      <trkpt lat="48.62953" lon="-2.42085">
        <ele>7</ele>
        <time>2014-04-14T12:59:57.1Z</time>
      </trkpt>
      <trkpt lat="48.62954" lon="-2.42085">
        <ele>7</ele>
        <time>2014-04-14T13:00:00.1Z</time>
      </trkpt>
      <trkpt lat="48.62955" lon="-2.42085">
        <ele>7</ele>
        <time>2014-04-14T13:00:03.1Z</time>
      </trkpt>
      <trkpt lat="48.62956" lon="-2.42084">
        <ele>7</ele>
        <time>2014-04-14T13:00:06.1Z</time>
      </trkpt>
      <trkpt lat="48.62956" lon="-2.42083">
        <ele>7</ele>
        <time>2014-04-14T13:00:08.1Z</time>
      </trkpt>
      <trkpt lat="48.62956" lon="-2.42082">
        <ele>7</ele>
        <time>2014-04-14T13:00:10.1Z</time>
      </trkpt>
      <trkpt lat="48.62956" lon="-2.4208">
        <ele>7</ele>
        <time>2014-04-14T13:00:13.1Z</time>
      </trkpt>
      <trkpt lat="48.62955" lon="-2.42079">
        <ele>7</ele>
        <time>2014-04-14T13:00:15.1Z</time>
      </trkpt>
      <trkpt lat="48.62955" lon="-2.42074">
        <ele>7</ele>
        <time>2014-04-14T13:00:18.1Z</time>
      </trkpt>
      <trkpt lat="48.62957" lon="-2.4207">
        <ele>8</ele>
        <time>2014-04-14T13:00:21.1Z</time>
      </trkpt>
      <trkpt lat="48.62957" lon="-2.42068">
        <ele>8</ele>
        <time>2014-04-14T13:00:23.1Z</time>
      </trkpt>
      <trkpt lat="48.62958" lon="-2.42066">
        <ele>8</ele>
        <time>2014-04-14T13:00:25.1Z</time>
      </trkpt>
      <trkpt lat="48.62959" lon="-2.42063">
        <ele>8</ele>
        <time>2014-04-14T13:00:28.1Z</time>
      </trkpt>
      <trkpt lat="48.6296" lon="-2.42062">
        <ele>7</ele>
        <time>2014-04-14T13:00:30.1Z</time>
      </trkpt>
      <trkpt lat="48.62961" lon="-2.42059">
        <ele>6</ele>
        <time>2014-04-14T13:00:33.1Z</time>
      </trkpt>
      <trkpt lat="48.62963" lon="-2.42056">
        <ele>6</ele>
        <time>2014-04-14T13:00:35.1Z</time>
      </trkpt>
      <trkpt lat="48.62964" lon="-2.42054">
        <ele>6</ele>
        <time>2014-04-14T13:00:37.1Z</time>
      </trkpt>
      <trkpt lat="48.62965" lon="-2.4205">
        <ele>7</ele>
        <time>2014-04-14T13:00:40.1Z</time>
      </trkpt>
      <trkpt lat="48.62967" lon="-2.42046">
        <ele>7</ele>
        <time>2014-04-14T13:00:43.1Z</time>
      </trkpt>
      <trkpt lat="48.62968" lon="-2.42042">
        <ele>8</ele>
        <time>2014-04-14T13:00:46.1Z</time>
      </trkpt>
      <trkpt lat="48.6297" lon="-2.42038">
        <ele>7</ele>
        <time>2014-04-14T13:00:49.1Z</time>
      </trkpt>
      <trkpt lat="48.62971" lon="-2.42035">
        <ele>7</ele>
        <time>2014-04-14T13:00:51.1Z</time>
      </trkpt>
      <trkpt lat="48.62971" lon="-2.42032">
        <ele>6</ele>
        <time>2014-04-14T13:00:54.1Z</time>
      </trkpt>
      <trkpt lat="48.62971" lon="-2.4203">
        <ele>6</ele>
        <time>2014-04-14T13:00:56.1Z</time>
      </trkpt>
      <trkpt lat="48.62972" lon="-2.42026">
        <ele>5</ele>
        <time>2014-04-14T13:00:59.1Z</time>
      </trkpt>
      <trkpt lat="48.62973" lon="-2.42023">
        <ele>5</ele>
        <time>2014-04-14T13:01:02.1Z</time>
      </trkpt>
      <trkpt lat="48.62973" lon="-2.4202">
        <ele>5</ele>
        <time>2014-04-14T13:01:05.1Z</time>
      </trkpt>
      <trkpt lat="48.62973" lon="-2.42018">
        <ele>5</ele>
        <time>2014-04-14T13:01:07.1Z</time>
      </trkpt>
      <trkpt lat="48.62974" lon="-2.42015">
        <ele>5</ele>
        <time>2014-04-14T13:01:10.1Z</time>
      </trkpt>
      <trkpt lat="48.62974" lon="-2.42013">
        <ele>5</ele>
        <time>2014-04-14T13:01:13.1Z</time>
      </trkpt>
      <trkpt lat="48.62974" lon="-2.42011">
        <ele>5</ele>
        <time>2014-04-14T13:01:16.1Z</time>
      </trkpt>
      <trkpt lat="48.62975" lon="-2.4201">
        <ele>5</ele>
        <time>2014-04-14T13:01:19.1Z</time>
      </trkpt>
      <trkpt lat="48.62976" lon="-2.42008">
        <ele>6</ele>
        <time>2014-04-14T13:01:21.1Z</time>
      </trkpt>
      <trkpt lat="48.62977" lon="-2.42004">
        <ele>6</ele>
        <time>2014-04-14T13:01:24.1Z</time>
      </trkpt>
      <trkpt lat="48.62976" lon="-2.42003">
        <ele>7</ele>
        <time>2014-04-14T13:01:27.1Z</time>
      </trkpt>
      <trkpt lat="48.62976" lon="-2.42001">
        <ele>7</ele>
        <time>2014-04-14T13:01:30.1Z</time>
      </trkpt>
      <trkpt lat="48.62977" lon="-2.42">
        <ele>7</ele>
        <time>2014-04-14T13:01:32.1Z</time>
      </trkpt>
      <trkpt lat="48.62978" lon="-2.41999">
        <ele>8</ele>
        <time>2014-04-14T13:01:35.1Z</time>
      </trkpt>
      <trkpt lat="48.62978" lon="-2.41997">
        <ele>8</ele>
        <time>2014-04-14T13:01:38.1Z</time>
      </trkpt>
      <trkpt lat="48.62978" lon="-2.41996">
        <ele>9</ele>
        <time>2014-04-14T13:01:41.1Z</time>
      </trkpt>
      <trkpt lat="48.62978" lon="-2.41994">
        <ele>9</ele>
        <time>2014-04-14T13:01:43.1Z</time>
      </trkpt>
      <trkpt lat="48.62978" lon="-2.41992">
        <ele>9</ele>
        <time>2014-04-14T13:01:46.1Z</time>
      </trkpt>
      <trkpt lat="48.62978" lon="-2.41991">
        <ele>8</ele>
        <time>2014-04-14T13:01:48.1Z</time>
      </trkpt>
      <trkpt lat="48.62978" lon="-2.4199">
        <ele>8</ele>
        <time>2014-04-14T13:01:50.1Z</time>
      </trkpt>
      <trkpt lat="48.62978" lon="-2.41989">
        <ele>8</ele>
        <time>2014-04-14T13:01:53.1Z</time>
      </trkpt>
      <trkpt lat="48.62979" lon="-2.41987">
        <ele>7</ele>
        <time>2014-04-14T13:01:56.1Z</time>
      </trkpt>
      <trkpt lat="48.62979" lon="-2.41984">
        <ele>6</ele>
        <time>2014-04-14T13:01:58.1Z</time>
      </trkpt>
      <trkpt lat="48.6298" lon="-2.41982">
        <ele>6</ele>
        <time>2014-04-14T13:02:01.1Z</time>
      </trkpt>
      <trkpt lat="48.62981" lon="-2.41979">
        <ele>6</ele>
        <time>2014-04-14T13:02:03.1Z</time>
      </trkpt>
      <trkpt lat="48.62983" lon="-2.41976">
        <ele>6</ele>
        <time>2014-04-14T13:02:06.1Z</time>
      </trkpt>
      <trkpt lat="48.62983" lon="-2.41973">
        <ele>6</ele>
        <time>2014-04-14T13:02:08.1Z</time>
      </trkpt>
      <trkpt lat="48.62984" lon="-2.41971">
        <ele>6</ele>
        <time>2014-04-14T13:02:11.1Z</time>
      </trkpt>
      <trkpt lat="48.62986" lon="-2.41971">
        <ele>6</ele>
        <time>2014-04-14T13:02:14.1Z</time>
      </trkpt>
      <trkpt lat="48.62988" lon="-2.4197">
        <ele>6</ele>
        <time>2014-04-14T13:02:17.1Z</time>
      </trkpt>
      <trkpt lat="48.6299" lon="-2.41968">
        <ele>6</ele>
        <time>2014-04-14T13:02:20.1Z</time>
      </trkpt>
      <trkpt lat="48.62991" lon="-2.41967">
        <ele>6</ele>
        <time>2014-04-14T13:02:22.1Z</time>
      </trkpt>
      <trkpt lat="48.62992" lon="-2.41965">
        <ele>6</ele>
        <time>2014-04-14T13:02:24.1Z</time>
      </trkpt>
      <trkpt lat="48.62994" lon="-2.41964">
        <ele>6</ele>
        <time>2014-04-14T13:02:27.1Z</time>
      </trkpt>
      <trkpt lat="48.62996" lon="-2.41963">
        <ele>6</ele>
        <time>2014-04-14T13:02:29.1Z</time>
      </trkpt>
      <trkpt lat="48.62999" lon="-2.41963">
        <ele>6</ele>
        <time>2014-04-14T13:02:32.1Z</time>
      </trkpt>
      <trkpt lat="48.63" lon="-2.41962">
        <ele>6</ele>
        <time>2014-04-14T13:02:34.1Z</time>
      </trkpt>
      <trkpt lat="48.63002" lon="-2.41962">
        <ele>6</ele>
        <time>2014-04-14T13:02:36.1Z</time>
      </trkpt>
      <trkpt lat="48.63005" lon="-2.4196">
        <ele>7</ele>
        <time>2014-04-14T13:02:39.1Z</time>
      </trkpt>
      <trkpt lat="48.63007" lon="-2.4196">
        <ele>7</ele>
        <time>2014-04-14T13:02:42.1Z</time>
      </trkpt>
      <trkpt lat="48.6301" lon="-2.41961">
        <ele>7</ele>
        <time>2014-04-14T13:02:45.1Z</time>
      </trkpt>
      <trkpt lat="48.63011" lon="-2.41961">
        <ele>7</ele>
        <time>2014-04-14T13:02:47.1Z</time>
      </trkpt>
      <trkpt lat="48.63013" lon="-2.4196">
        <ele>7</ele>
        <time>2014-04-14T13:02:50.1Z</time>
      </trkpt>
      <trkpt lat="48.63015" lon="-2.41959">
        <ele>7</ele>
        <time>2014-04-14T13:02:52.1Z</time>
      </trkpt>
      <trkpt lat="48.63017" lon="-2.41958">
        <ele>7</ele>
        <time>2014-04-14T13:02:55.1Z</time>
      </trkpt>
      <trkpt lat="48.63019" lon="-2.41957">
        <ele>6</ele>
        <time>2014-04-14T13:02:57.1Z</time>
      </trkpt>
      <trkpt lat="48.63021" lon="-2.41956">
        <ele>6</ele>
        <time>2014-04-14T13:03:00.1Z</time>
      </trkpt>
      <trkpt lat="48.63023" lon="-2.41955">
        <ele>6</ele>
        <time>2014-04-14T13:03:03.1Z</time>
      </trkpt>
      <trkpt lat="48.63024" lon="-2.41954">
        <ele>6</ele>
        <time>2014-04-14T13:03:05.1Z</time>
      </trkpt>
      <trkpt lat="48.63027" lon="-2.41952">
        <ele>6</ele>
        <time>2014-04-14T13:03:08.1Z</time>
      </trkpt>
      <trkpt lat="48.6303" lon="-2.41952">
        <ele>6</ele>
        <time>2014-04-14T13:03:11.1Z</time>
      </trkpt>
      <trkpt lat="48.63032" lon="-2.41952">
        <ele>6</ele>
        <time>2014-04-14T13:03:14.1Z</time>
      </trkpt>
      <trkpt lat="48.63033" lon="-2.41952">
        <ele>7</ele>
        <time>2014-04-14T13:03:16.1Z</time>
      </trkpt>
      <trkpt lat="48.63034" lon="-2.41952">
        <ele>7</ele>
        <time>2014-04-14T13:03:18.1Z</time>
      </trkpt>
      <trkpt lat="48.63036" lon="-2.41951">
        <ele>7</ele>
        <time>2014-04-14T13:03:21.1Z</time>
      </trkpt>
      <trkpt lat="48.63039" lon="-2.4195">
        <ele>7</ele>
        <time>2014-04-14T13:03:24.1Z</time>
      </trkpt>
      <trkpt lat="48.63041" lon="-2.41949">
        <ele>6</ele>
        <time>2014-04-14T13:03:27.1Z</time>
      </trkpt>
      <trkpt lat="48.63043" lon="-2.41949">
        <ele>6</ele>
        <time>2014-04-14T13:03:30.1Z</time>
      </trkpt>
      <trkpt lat="48.63045" lon="-2.4195">
        <ele>6</ele>
        <time>2014-04-14T13:03:33.1Z</time>
      </trkpt>
      <trkpt lat="48.63046" lon="-2.41951">
        <ele>6</ele>
        <time>2014-04-14T13:03:36.1Z</time>
      </trkpt>
      <trkpt lat="48.63047" lon="-2.41953">
        <ele>6</ele>
        <time>2014-04-14T13:03:39.1Z</time>
      </trkpt>
      <trkpt lat="48.63048" lon="-2.41954">
        <ele>7</ele>
        <time>2014-04-14T13:03:41.1Z</time>
      </trkpt>
      <trkpt lat="48.63049" lon="-2.41955">
        <ele>7</ele>
        <time>2014-04-14T13:03:43.1Z</time>
      </trkpt>
      <trkpt lat="48.63051" lon="-2.41956">
        <ele>8</ele>
        <time>2014-04-14T13:03:46.1Z</time>
      </trkpt>
      <trkpt lat="48.63052" lon="-2.41956">
        <ele>8</ele>
        <time>2014-04-14T13:03:48.1Z</time>
      </trkpt>
      <trkpt lat="48.63053" lon="-2.41956">
        <ele>9</ele>
        <time>2014-04-14T13:03:50.1Z</time>
      </trkpt>
      <trkpt lat="48.63056" lon="-2.41954">
        <ele>8</ele>
        <time>2014-04-14T13:03:53.1Z</time>
      </trkpt>
      <trkpt lat="48.63057" lon="-2.41954">
        <ele>8</ele>
        <time>2014-04-14T13:03:55.1Z</time>
      </trkpt>
      <trkpt lat="48.63059" lon="-2.41955">
        <ele>7</ele>
        <time>2014-04-14T13:03:58.1Z</time>
      </trkpt>
      <trkpt lat="48.63061" lon="-2.41955">
        <ele>7</ele>
        <time>2014-04-14T13:04:00.1Z</time>
      </trkpt>
      <trkpt lat="48.63062" lon="-2.41956">
        <ele>7</ele>
        <time>2014-04-14T13:04:03.1Z</time>
      </trkpt>
      <trkpt lat="48.63063" lon="-2.41956">
        <ele>7</ele>
        <time>2014-04-14T13:04:05.1Z</time>
      </trkpt>
      <trkpt lat="48.63065" lon="-2.41956">
        <ele>7</ele>
        <time>2014-04-14T13:04:08.1Z</time>
      </trkpt>
      <trkpt lat="48.63066" lon="-2.41955">
        <ele>7</ele>
        <time>2014-04-14T13:04:11.1Z</time>
      </trkpt>
      <trkpt lat="48.63068" lon="-2.41954">
        <ele>7</ele>
        <time>2014-04-14T13:04:14.1Z</time>
      </trkpt>
      <trkpt lat="48.63068" lon="-2.41952">
        <ele>7</ele>
        <time>2014-04-14T13:04:16.1Z</time>
      </trkpt>
      <trkpt lat="48.63068" lon="-2.4195">
        <ele>6</ele>
        <time>2014-04-14T13:04:19.1Z</time>
      </trkpt>
      <trkpt lat="48.63069" lon="-2.4195">
        <ele>6</ele>
        <time>2014-04-14T13:04:22.1Z</time>
      </trkpt>
      <trkpt lat="48.63069" lon="-2.41949">
        <ele>6</ele>
        <time>2014-04-14T13:04:25.1Z</time>
      </trkpt>
      <trkpt lat="48.63069" lon="-2.41948">
        <ele>6</ele>
        <time>2014-04-14T13:04:27.1Z</time>
      </trkpt>
      <trkpt lat="48.63069" lon="-2.41946">
        <ele>5</ele>
        <time>2014-04-14T13:04:30.1Z</time>
      </trkpt>
      <trkpt lat="48.63069" lon="-2.41944">
        <ele>5</ele>
        <time>2014-04-14T13:04:33.1Z</time>
      </trkpt>
      <trkpt lat="48.63069" lon="-2.41943">
        <ele>5</ele>
        <time>2014-04-14T13:04:35.1Z</time>
      </trkpt>
      <trkpt lat="48.63069" lon="-2.41941">
        <ele>5</ele>
        <time>2014-04-14T13:04:38.1Z</time>
      </trkpt>
      <trkpt lat="48.63068" lon="-2.4194">
        <ele>5</ele>
        <time>2014-04-14T13:04:40.1Z</time>
      </trkpt>
      <trkpt lat="48.63068" lon="-2.41938">
        <ele>4</ele>
        <time>2014-04-14T13:04:43.1Z</time>
      </trkpt>
      <trkpt lat="48.63068" lon="-2.41938">
        <ele>4</ele>
        <time>2014-04-14T13:04:45.1Z</time>
      </trkpt>
      <trkpt lat="48.6307" lon="-2.41938">
        <ele>4</ele>
        <time>2014-04-14T13:04:48.1Z</time>
      </trkpt>
      <trkpt lat="48.63071" lon="-2.41937">
        <ele>4</ele>
        <time>2014-04-14T13:04:51.1Z</time>
      </trkpt>
      <trkpt lat="48.63073" lon="-2.41938">
        <ele>4</ele>
        <time>2014-04-14T13:04:54.1Z</time>
      </trkpt>
      <trkpt lat="48.63074" lon="-2.41938">
        <ele>4</ele>
        <time>2014-04-14T13:04:56.1Z</time>
      </trkpt>
      <trkpt lat="48.63076" lon="-2.41939">
        <ele>4</ele>
        <time>2014-04-14T13:04:59.1Z</time>
      </trkpt>
      <trkpt lat="48.63078" lon="-2.41939">
        <ele>4</ele>
        <time>2014-04-14T13:05:02.1Z</time>
      </trkpt>
      <trkpt lat="48.6308" lon="-2.41939">
        <ele>3</ele>
        <time>2014-04-14T13:05:04.1Z</time>
      </trkpt>
      <trkpt lat="48.63082" lon="-2.4194">
        <ele>3</ele>
        <time>2014-04-14T13:05:07.1Z</time>
      </trkpt>
      <trkpt lat="48.63083" lon="-2.4194">
        <ele>3</ele>
        <time>2014-04-14T13:05:09.1Z</time>
      </trkpt>
      <trkpt lat="48.63085" lon="-2.41941">
        <ele>3</ele>
        <time>2014-04-14T13:05:12.1Z</time>
      </trkpt>
      <trkpt lat="48.63087" lon="-2.41942">
        <ele>4</ele>
        <time>2014-04-14T13:05:15.1Z</time>
      </trkpt>
      <trkpt lat="48.63088" lon="-2.41943">
        <ele>4</ele>
        <time>2014-04-14T13:05:17.1Z</time>
      </trkpt>
      <trkpt lat="48.6309" lon="-2.41944">
        <ele>4</ele>
        <time>2014-04-14T13:05:20.1Z</time>
      </trkpt>
      <trkpt lat="48.63093" lon="-2.41944">
        <ele>4</ele>
        <time>2014-04-14T13:05:23.1Z</time>
      </trkpt>
      <trkpt lat="48.63094" lon="-2.41944">
        <ele>4</ele>
        <time>2014-04-14T13:05:25.1Z</time>
      </trkpt>
      <trkpt lat="48.63096" lon="-2.41945">
        <ele>4</ele>
        <time>2014-04-14T13:05:27.1Z</time>
      </trkpt>
      <trkpt lat="48.63098" lon="-2.41945">
        <ele>4</ele>
        <time>2014-04-14T13:05:30.1Z</time>
      </trkpt>
      <trkpt lat="48.63099" lon="-2.41944">
        <ele>4</ele>
        <time>2014-04-14T13:05:32.1Z</time>
      </trkpt>
      <trkpt lat="48.63101" lon="-2.41942">
        <ele>4</ele>
        <time>2014-04-14T13:05:35.1Z</time>
      </trkpt>
      <trkpt lat="48.63102" lon="-2.4194">
        <ele>4</ele>
        <time>2014-04-14T13:05:37.1Z</time>
      </trkpt>
      <trkpt lat="48.63104" lon="-2.4194">
        <ele>4</ele>
        <time>2014-04-14T13:05:40.1Z</time>
      </trkpt>
      <trkpt lat="48.63106" lon="-2.41941">
        <ele>4</ele>
        <time>2014-04-14T13:05:42.1Z</time>
      </trkpt>
      <trkpt lat="48.63107" lon="-2.4194">
        <ele>4</ele>
        <time>2014-04-14T13:05:45.1Z</time>
      </trkpt>
      <trkpt lat="48.6311" lon="-2.4194">
        <ele>4</ele>
        <time>2014-04-14T13:05:48.1Z</time>
      </trkpt>
      <trkpt lat="48.63112" lon="-2.41939">
        <ele>4</ele>
        <time>2014-04-14T13:05:51.1Z</time>
      </trkpt>
      <trkpt lat="48.63114" lon="-2.41938">
        <ele>4</ele>
        <time>2014-04-14T13:05:53.1Z</time>
      </trkpt>
      <trkpt lat="48.63116" lon="-2.41938">
        <ele>4</ele>
        <time>2014-04-14T13:05:55.1Z</time>
      </trkpt>
      <trkpt lat="48.63118" lon="-2.41938">
        <ele>4</ele>
        <time>2014-04-14T13:05:57.1Z</time>
      </trkpt>
      <trkpt lat="48.6312" lon="-2.41938">
        <ele>4</ele>
        <time>2014-04-14T13:05:59.1Z</time>
      </trkpt>
      <trkpt lat="48.63122" lon="-2.41938">
        <ele>4</ele>
        <time>2014-04-14T13:06:02.1Z</time>
      </trkpt>
      <trkpt lat="48.63123" lon="-2.41938">
        <ele>5</ele>
        <time>2014-04-14T13:06:04.1Z</time>
      </trkpt>
      <trkpt lat="48.63125" lon="-2.41938">
        <ele>5</ele>
        <time>2014-04-14T13:06:07.1Z</time>
      </trkpt>
      <trkpt lat="48.63127" lon="-2.41938">
        <ele>5</ele>
        <time>2014-04-14T13:06:10.1Z</time>
      </trkpt>
      <trkpt lat="48.63129" lon="-2.41939">
        <ele>5</ele>
        <time>2014-04-14T13:06:12.1Z</time>
      </trkpt>
      <trkpt lat="48.6313" lon="-2.41939">
        <ele>6</ele>
        <time>2014-04-14T13:06:14.1Z</time>
      </trkpt>
      <trkpt lat="48.63132" lon="-2.41939">
        <ele>6</ele>
        <time>2014-04-14T13:06:17.1Z</time>
      </trkpt>
      <trkpt lat="48.63133" lon="-2.41939">
        <ele>6</ele>
        <time>2014-04-14T13:06:19.1Z</time>
      </trkpt>
      <trkpt lat="48.63134" lon="-2.41939">
        <ele>7</ele>
        <time>2014-04-14T13:06:22.1Z</time>
      </trkpt>
      <trkpt lat="48.63136" lon="-2.41939">
        <ele>7</ele>
        <time>2014-04-14T13:06:24.1Z</time>
      </trkpt>
      <trkpt lat="48.63137" lon="-2.41939">
        <ele>7</ele>
        <time>2014-04-14T13:06:26.1Z</time>
      </trkpt>
      <trkpt lat="48.63139" lon="-2.4194">
        <ele>8</ele>
        <time>2014-04-14T13:06:29.1Z</time>
      </trkpt>
      <trkpt lat="48.63141" lon="-2.41939">
        <ele>8</ele>
        <time>2014-04-14T13:06:32.1Z</time>
      </trkpt>
      <trkpt lat="48.63142" lon="-2.41938">
        <ele>8</ele>
        <time>2014-04-14T13:06:34.1Z</time>
      </trkpt>
      <trkpt lat="48.63144" lon="-2.41938">
        <ele>7</ele>
        <time>2014-04-14T13:06:37.1Z</time>
      </trkpt>
      <trkpt lat="48.63145" lon="-2.41937">
        <ele>7</ele>
        <time>2014-04-14T13:06:39.1Z</time>
      </trkpt>
      <trkpt lat="48.63146" lon="-2.41937">
        <ele>8</ele>
        <time>2014-04-14T13:06:41.1Z</time>
      </trkpt>
      <trkpt lat="48.63148" lon="-2.41937">
        <ele>8</ele>
        <time>2014-04-14T13:06:44.1Z</time>
      </trkpt>
      <trkpt lat="48.63148" lon="-2.41936">
        <ele>9</ele>
        <time>2014-04-14T13:06:47.1Z</time>
      </trkpt>
      <trkpt lat="48.6315" lon="-2.41936">
        <ele>9</ele>
        <time>2014-04-14T13:06:49.1Z</time>
      </trkpt>
      <trkpt lat="48.63149" lon="-2.41933">
        <ele>9</ele>
        <time>2014-04-14T13:06:51.1Z</time>
      </trkpt>
      <trkpt lat="48.6315" lon="-2.41932">
        <ele>9</ele>
        <time>2014-04-14T13:06:54.1Z</time>
      </trkpt>
      <trkpt lat="48.63152" lon="-2.41932">
        <ele>8</ele>
        <time>2014-04-14T13:06:57.1Z</time>
      </trkpt>
      <trkpt lat="48.63154" lon="-2.41932">
        <ele>8</ele>
        <time>2014-04-14T13:07:00.1Z</time>
      </trkpt>
      <trkpt lat="48.63156" lon="-2.41932">
        <ele>8</ele>
        <time>2014-04-14T13:07:03.1Z</time>
      </trkpt>
      <trkpt lat="48.63158" lon="-2.41933">
        <ele>8</ele>
        <time>2014-04-14T13:07:05.1Z</time>
      </trkpt>
      <trkpt lat="48.6316" lon="-2.41933">
        <ele>7</ele>
        <time>2014-04-14T13:07:08.1Z</time>
      </trkpt>
      <trkpt lat="48.63161" lon="-2.41934">
        <ele>7</ele>
        <time>2014-04-14T13:07:10.1Z</time>
      </trkpt>
      <trkpt lat="48.63162" lon="-2.41934">
        <ele>7</ele>
        <time>2014-04-14T13:07:13.1Z</time>
      </trkpt>
      <trkpt lat="48.63163" lon="-2.41933">
        <ele>7</ele>
        <time>2014-04-14T13:07:15.1Z</time>
      </trkpt>
      <trkpt lat="48.63166" lon="-2.41933">
        <ele>6</ele>
        <time>2014-04-14T13:07:18.1Z</time>
      </trkpt>
      <trkpt lat="48.63168" lon="-2.41934">
        <ele>5</ele>
        <time>2014-04-14T13:07:21.1Z</time>
      </trkpt>
      <trkpt lat="48.63172" lon="-2.41934">
        <ele>4</ele>
        <time>2014-04-14T13:07:24.1Z</time>
      </trkpt>
      <trkpt lat="48.63174" lon="-2.41933">
        <ele>4</ele>
        <time>2014-04-14T13:07:27.1Z</time>
      </trkpt>
      <trkpt lat="48.63175" lon="-2.41932">
        <ele>4</ele>
        <time>2014-04-14T13:07:30.1Z</time>
      </trkpt>
      <trkpt lat="48.63176" lon="-2.41931">
        <ele>4</ele>
        <time>2014-04-14T13:07:32.1Z</time>
      </trkpt>
      <trkpt lat="48.63179" lon="-2.4193">
        <ele>4</ele>
        <time>2014-04-14T13:07:35.1Z</time>
      </trkpt>
      <trkpt lat="48.63181" lon="-2.41927">
        <ele>4</ele>
        <time>2014-04-14T13:07:38.1Z</time>
      </trkpt>
      <trkpt lat="48.63184" lon="-2.41926">
        <ele>4</ele>
        <time>2014-04-14T13:07:41.1Z</time>
      </trkpt>
      <trkpt lat="48.63185" lon="-2.41924">
        <ele>4</ele>
        <time>2014-04-14T13:07:43.1Z</time>
      </trkpt>
      <trkpt lat="48.63187" lon="-2.41922">
        <ele>4</ele>
        <time>2014-04-14T13:07:46.1Z</time>
      </trkpt>
      <trkpt lat="48.63189" lon="-2.41921">
        <ele>4</ele>
        <time>2014-04-14T13:07:48.1Z</time>
      </trkpt>
      <trkpt lat="48.6319" lon="-2.4192">
        <ele>4</ele>
        <time>2014-04-14T13:07:51.1Z</time>
      </trkpt>
      <trkpt lat="48.63191" lon="-2.41919">
        <ele>4</ele>
        <time>2014-04-14T13:07:54.1Z</time>
      </trkpt>
      <trkpt lat="48.63192" lon="-2.41918">
        <ele>4</ele>
        <time>2014-04-14T13:07:56.1Z</time>
      </trkpt>
      <trkpt lat="48.63194" lon="-2.41916">
        <ele>4</ele>
        <time>2014-04-14T13:07:59.1Z</time>
      </trkpt>
      <trkpt lat="48.63195" lon="-2.41915">
        <ele>4</ele>
        <time>2014-04-14T13:08:01.1Z</time>
      </trkpt>
      <trkpt lat="48.63197" lon="-2.41914">
        <ele>4</ele>
        <time>2014-04-14T13:08:04.1Z</time>
      </trkpt>
      <trkpt lat="48.63198" lon="-2.41913">
        <ele>4</ele>
        <time>2014-04-14T13:08:06.1Z</time>
      </trkpt>
      <trkpt lat="48.63199" lon="-2.41912">
        <ele>5</ele>
        <time>2014-04-14T13:08:10.1Z</time>
      </trkpt>
      <trkpt lat="48.632" lon="-2.41912">
        <ele>6</ele>
        <time>2014-04-14T13:08:12.1Z</time>
      </trkpt>
      <trkpt lat="48.632" lon="-2.41911">
        <ele>6</ele>
        <time>2014-04-14T13:08:14.1Z</time>
      </trkpt>
      <trkpt lat="48.63202" lon="-2.4191">
        <ele>5</ele>
        <time>2014-04-14T13:08:16.1Z</time>
      </trkpt>
      <trkpt lat="48.63205" lon="-2.41906">
        <ele>5</ele>
        <time>2014-04-14T13:08:19.1Z</time>
      </trkpt>
      <trkpt lat="48.63207" lon="-2.41903">
        <ele>4</ele>
        <time>2014-04-14T13:08:22.1Z</time>
      </trkpt>
      <trkpt lat="48.6321" lon="-2.41899">
        <ele>4</ele>
        <time>2014-04-14T13:08:25.1Z</time>
      </trkpt>
      <trkpt lat="48.63212" lon="-2.41897">
        <ele>5</ele>
        <time>2014-04-14T13:08:27.1Z</time>
      </trkpt>
      <trkpt lat="48.63214" lon="-2.41895">
        <ele>5</ele>
        <time>2014-04-14T13:08:29.1Z</time>
      </trkpt>
      <trkpt lat="48.63215" lon="-2.41892">
        <ele>5</ele>
        <time>2014-04-14T13:08:31.1Z</time>
      </trkpt>
      <trkpt lat="48.63216" lon="-2.41889">
        <ele>4</ele>
        <time>2014-04-14T13:08:34.1Z</time>
      </trkpt>
      <trkpt lat="48.63218" lon="-2.41887">
        <ele>4</ele>
        <time>2014-04-14T13:08:37.1Z</time>
      </trkpt>
      <trkpt lat="48.63219" lon="-2.41885">
        <ele>5</ele>
        <time>2014-04-14T13:08:39.1Z</time>
      </trkpt>
      <trkpt lat="48.63221" lon="-2.41883">
        <ele>5</ele>
        <time>2014-04-14T13:08:41.1Z</time>
      </trkpt>
      <trkpt lat="48.63222" lon="-2.4188">
        <ele>5</ele>
        <time>2014-04-14T13:08:44.1Z</time>
      </trkpt>
      <trkpt lat="48.63223" lon="-2.41879">
        <ele>5</ele>
        <time>2014-04-14T13:08:46.1Z</time>
      </trkpt>
      <trkpt lat="48.63224" lon="-2.41878">
        <ele>4</ele>
        <time>2014-04-14T13:08:48.1Z</time>
      </trkpt>
      <trkpt lat="48.63225" lon="-2.41877">
        <ele>4</ele>
        <time>2014-04-14T13:08:50.1Z</time>
      </trkpt>
      <trkpt lat="48.63227" lon="-2.41875">
        <ele>4</ele>
        <time>2014-04-14T13:08:53.1Z</time>
      </trkpt>
      <trkpt lat="48.63228" lon="-2.41873">
        <ele>4</ele>
        <time>2014-04-14T13:08:55.1Z</time>
      </trkpt>
      <trkpt lat="48.63229" lon="-2.41871">
        <ele>4</ele>
        <time>2014-04-14T13:08:58.1Z</time>
      </trkpt>
      <trkpt lat="48.6323" lon="-2.41869">
        <ele>4</ele>
        <time>2014-04-14T13:09:00.1Z</time>
      </trkpt>
      <trkpt lat="48.63231" lon="-2.41867">
        <ele>4</ele>
        <time>2014-04-14T13:09:03.1Z</time>
      </trkpt>
      <trkpt lat="48.63232" lon="-2.41867">
        <ele>4</ele>
        <time>2014-04-14T13:09:05.1Z</time>
      </trkpt>
      <trkpt lat="48.63234" lon="-2.41865">
        <ele>5</ele>
        <time>2014-04-14T13:09:08.1Z</time>
      </trkpt>
      <trkpt lat="48.63235" lon="-2.41862">
        <ele>5</ele>
        <time>2014-04-14T13:09:11.1Z</time>
      </trkpt>
      <trkpt lat="48.63236" lon="-2.4186">
        <ele>5</ele>
        <time>2014-04-14T13:09:13.1Z</time>
      </trkpt>
      <trkpt lat="48.63238" lon="-2.41858">
        <ele>4</ele>
        <time>2014-04-14T13:09:16.1Z</time>
      </trkpt>
      <trkpt lat="48.63239" lon="-2.41856">
        <ele>5</ele>
        <time>2014-04-14T13:09:19.1Z</time>
      </trkpt>
      <trkpt lat="48.63241" lon="-2.41854">
        <ele>5</ele>
        <time>2014-04-14T13:09:22.1Z</time>
      </trkpt>
      <trkpt lat="48.63243" lon="-2.41851">
        <ele>4</ele>
        <time>2014-04-14T13:09:25.1Z</time>
      </trkpt>
      <trkpt lat="48.63244" lon="-2.41851">
        <ele>4</ele>
        <time>2014-04-14T13:09:28.1Z</time>
      </trkpt>
      <trkpt lat="48.63245" lon="-2.4185">
        <ele>4</ele>
        <time>2014-04-14T13:09:30.1Z</time>
      </trkpt>
      <trkpt lat="48.63247" lon="-2.41847">
        <ele>5</ele>
        <time>2014-04-14T13:09:33.1Z</time>
      </trkpt>
      <trkpt lat="48.63248" lon="-2.41846">
        <ele>5</ele>
        <time>2014-04-14T13:09:35.1Z</time>
      </trkpt>
      <trkpt lat="48.63249" lon="-2.41845">
        <ele>5</ele>
        <time>2014-04-14T13:09:37.1Z</time>
      </trkpt>
      <trkpt lat="48.6325" lon="-2.41843">
        <ele>4</ele>
        <time>2014-04-14T13:09:40.1Z</time>
      </trkpt>
      <trkpt lat="48.63251" lon="-2.41843">
        <ele>5</ele>
        <time>2014-04-14T13:09:42.1Z</time>
      </trkpt>
      <trkpt lat="48.63253" lon="-2.41841">
        <ele>5</ele>
        <time>2014-04-14T13:09:45.1Z</time>
      </trkpt>
      <trkpt lat="48.63255" lon="-2.41839">
        <ele>5</ele>
        <time>2014-04-14T13:09:48.1Z</time>
      </trkpt>
      <trkpt lat="48.63255" lon="-2.41837">
        <ele>5</ele>
        <time>2014-04-14T13:09:50.1Z</time>
      </trkpt>
      <trkpt lat="48.63257" lon="-2.41836">
        <ele>5</ele>
        <time>2014-04-14T13:09:53.1Z</time>
      </trkpt>
      <trkpt lat="48.63259" lon="-2.41834">
        <ele>5</ele>
        <time>2014-04-14T13:09:56.1Z</time>
      </trkpt>
      <trkpt lat="48.6326" lon="-2.41833">
        <ele>5</ele>
        <time>2014-04-14T13:09:58.1Z</time>
      </trkpt>
      <trkpt lat="48.6326" lon="-2.41831">
        <ele>5</ele>
        <time>2014-04-14T13:10:01.1Z</time>
      </trkpt>
      <trkpt lat="48.63261" lon="-2.41829">
        <ele>4</ele>
        <time>2014-04-14T13:10:04.1Z</time>
      </trkpt>
      <trkpt lat="48.63263" lon="-2.41827">
        <ele>4</ele>
        <time>2014-04-14T13:10:07.1Z</time>
      </trkpt>
      <trkpt lat="48.63266" lon="-2.41825">
        <ele>4</ele>
        <time>2014-04-14T13:10:10.1Z</time>
      </trkpt>
      <trkpt lat="48.63268" lon="-2.41823">
        <ele>4</ele>
        <time>2014-04-14T13:10:13.1Z</time>
      </trkpt>
      <trkpt lat="48.6327" lon="-2.41821">
        <ele>4</ele>
        <time>2014-04-14T13:10:16.1Z</time>
      </trkpt>
      <trkpt lat="48.63273" lon="-2.4182">
        <ele>5</ele>
        <time>2014-04-14T13:10:19.1Z</time>
      </trkpt>
      <trkpt lat="48.63276" lon="-2.41817">
        <ele>5</ele>
        <time>2014-04-14T13:10:22.1Z</time>
      </trkpt>
      <trkpt lat="48.63278" lon="-2.41817">
        <ele>5</ele>
        <time>2014-04-14T13:10:25.1Z</time>
      </trkpt>
      <trkpt lat="48.6328" lon="-2.41821">
        <ele>5</ele>
        <time>2014-04-14T13:10:28.1Z</time>
      </trkpt>
      <trkpt lat="48.63282" lon="-2.41824">
        <ele>6</ele>
        <time>2014-04-14T13:10:30.1Z</time>
      </trkpt>
      <trkpt lat="48.63283" lon="-2.41826">
        <ele>6</ele>
        <time>2014-04-14T13:10:32.1Z</time>
      </trkpt>
      <trkpt lat="48.63285" lon="-2.4183">
        <ele>6</ele>
        <time>2014-04-14T13:10:35.1Z</time>
      </trkpt>
      <trkpt lat="48.63286" lon="-2.41834">
        <ele>6</ele>
        <time>2014-04-14T13:10:38.1Z</time>
      </trkpt>
      <trkpt lat="48.63287" lon="-2.41837">
        <ele>6</ele>
        <time>2014-04-14T13:10:40.1Z</time>
      </trkpt>
      <trkpt lat="48.63287" lon="-2.41841">
        <ele>6</ele>
        <time>2014-04-14T13:10:43.1Z</time>
      </trkpt>
      <trkpt lat="48.63288" lon="-2.41842">
        <ele>6</ele>
        <time>2014-04-14T13:10:45.1Z</time>
      </trkpt>
      <trkpt lat="48.63288" lon="-2.41845">
        <ele>6</ele>
        <time>2014-04-14T13:10:48.1Z</time>
      </trkpt>
      <trkpt lat="48.6329" lon="-2.41847">
        <ele>7</ele>
        <time>2014-04-14T13:10:51.1Z</time>
      </trkpt>
      <trkpt lat="48.6329" lon="-2.4185">
        <ele>6</ele>
        <time>2014-04-14T13:10:53.1Z</time>
      </trkpt>
      <trkpt lat="48.63291" lon="-2.41853">
        <ele>7</ele>
        <time>2014-04-14T13:10:55.1Z</time>
      </trkpt>
      <trkpt lat="48.63292" lon="-2.41855">
        <ele>7</ele>
        <time>2014-04-14T13:10:57.1Z</time>
      </trkpt>
      <trkpt lat="48.63293" lon="-2.41859">
        <ele>7</ele>
        <time>2014-04-14T13:11:00.1Z</time>
      </trkpt>
      <trkpt lat="48.63295" lon="-2.41863">
        <ele>7</ele>
        <time>2014-04-14T13:11:03.1Z</time>
      </trkpt>
      <trkpt lat="48.63296" lon="-2.41867">
        <ele>7</ele>
        <time>2014-04-14T13:11:06.1Z</time>
      </trkpt>
      <trkpt lat="48.63297" lon="-2.41871">
        <ele>7</ele>
        <time>2014-04-14T13:11:09.1Z</time>
      </trkpt>
      <trkpt lat="48.63297" lon="-2.41873">
        <ele>7</ele>
        <time>2014-04-14T13:11:11.1Z</time>
      </trkpt>
      <trkpt lat="48.63298" lon="-2.41875">
        <ele>7</ele>
        <time>2014-04-14T13:11:13.1Z</time>
      </trkpt>
      <trkpt lat="48.63299" lon="-2.41878">
        <ele>7</ele>
        <time>2014-04-14T13:11:15.1Z</time>
      </trkpt>
      <trkpt lat="48.633" lon="-2.4188">
        <ele>7</ele>
        <time>2014-04-14T13:11:17.1Z</time>
      </trkpt>
      <trkpt lat="48.633" lon="-2.41884">
        <ele>8</ele>
        <time>2014-04-14T13:11:20.1Z</time>
      </trkpt>
      <trkpt lat="48.63301" lon="-2.41886">
        <ele>8</ele>
        <time>2014-04-14T13:11:22.1Z</time>
      </trkpt>
      <trkpt lat="48.63302" lon="-2.41889">
        <ele>8</ele>
        <time>2014-04-14T13:11:25.1Z</time>
      </trkpt>
      <trkpt lat="48.63303" lon="-2.41893">
        <ele>8</ele>
        <time>2014-04-14T13:11:28.1Z</time>
      </trkpt>
      <trkpt lat="48.63304" lon="-2.41895">
        <ele>8</ele>
        <time>2014-04-14T13:11:30.1Z</time>
      </trkpt>
      <trkpt lat="48.63305" lon="-2.41898">
        <ele>8</ele>
        <time>2014-04-14T13:11:33.1Z</time>
      </trkpt>
      <trkpt lat="48.63306" lon="-2.419">
        <ele>8</ele>
        <time>2014-04-14T13:11:35.1Z</time>
      </trkpt>
      <trkpt lat="48.63307" lon="-2.41904">
        <ele>8</ele>
        <time>2014-04-14T13:11:38.1Z</time>
      </trkpt>
      <trkpt lat="48.63308" lon="-2.41907">
        <ele>8</ele>
        <time>2014-04-14T13:11:41.1Z</time>
      </trkpt>
      <trkpt lat="48.63308" lon="-2.41908">
        <ele>8</ele>
        <time>2014-04-14T13:11:44.1Z</time>
      </trkpt>
      <trkpt lat="48.63309" lon="-2.41908">
        <ele>8</ele>
        <time>2014-04-14T13:11:48.1Z</time>
      </trkpt>
      <trkpt lat="48.63309" lon="-2.41908">
        <ele>9</ele>
        <time>2014-04-14T13:11:52.1Z</time>
      </trkpt>
      <trkpt lat="48.63309" lon="-2.41908">
        <ele>8</ele>
        <time>2014-04-14T13:11:55.1Z</time>
      </trkpt>
      <trkpt lat="48.63309" lon="-2.41908">
        <ele>8</ele>
        <time>2014-04-14T13:11:58.1Z</time>
      </trkpt>
      <trkpt lat="48.6331" lon="-2.41908">
        <ele>8</ele>
        <time>2014-04-14T13:12:02.1Z</time>
      </trkpt>
      <trkpt lat="48.6331" lon="-2.41908">
        <ele>8</ele>
        <time>2014-04-14T13:12:04.1Z</time>
      </trkpt>
      <trkpt lat="48.63311" lon="-2.41911">
        <ele>9</ele>
        <time>2014-04-14T13:12:07.1Z</time>
      </trkpt>
      <trkpt lat="48.63312" lon="-2.41915">
        <ele>9</ele>
        <time>2014-04-14T13:12:10.1Z</time>
      </trkpt>
      <trkpt lat="48.63313" lon="-2.41917">
        <ele>9</ele>
        <time>2014-04-14T13:12:12.1Z</time>
      </trkpt>
      <trkpt lat="48.63314" lon="-2.41921">
        <ele>9</ele>
        <time>2014-04-14T13:12:15.1Z</time>
      </trkpt>
      <trkpt lat="48.63316" lon="-2.41923">
        <ele>9</ele>
        <time>2014-04-14T13:12:17.1Z</time>
      </trkpt>
      <trkpt lat="48.63317" lon="-2.41926">
        <ele>9</ele>
        <time>2014-04-14T13:12:20.1Z</time>
      </trkpt>
      <trkpt lat="48.63318" lon="-2.4193">
        <ele>10</ele>
        <time>2014-04-14T13:12:23.1Z</time>
      </trkpt>
      <trkpt lat="48.63319" lon="-2.41932">
        <ele>10</ele>
        <time>2014-04-14T13:12:25.1Z</time>
      </trkpt>
      <trkpt lat="48.6332" lon="-2.41935">
        <ele>9</ele>
        <time>2014-04-14T13:12:27.1Z</time>
      </trkpt>
      <trkpt lat="48.63321" lon="-2.41939">
        <ele>9</ele>
        <time>2014-04-14T13:12:30.1Z</time>
      </trkpt>
      <trkpt lat="48.63322" lon="-2.41943">
        <ele>9</ele>
        <time>2014-04-14T13:12:33.1Z</time>
      </trkpt>
      <trkpt lat="48.63323" lon="-2.41946">
        <ele>9</ele>
        <time>2014-04-14T13:12:35.1Z</time>
      </trkpt>
      <trkpt lat="48.63324" lon="-2.41948">
        <ele>10</ele>
        <time>2014-04-14T13:12:37.1Z</time>
      </trkpt>
      <trkpt lat="48.63325" lon="-2.4195">
        <ele>10</ele>
        <time>2014-04-14T13:12:39.1Z</time>
      </trkpt>
      <trkpt lat="48.63326" lon="-2.41954">
        <ele>10</ele>
        <time>2014-04-14T13:12:42.1Z</time>
      </trkpt>
      <trkpt lat="48.63327" lon="-2.41957">
        <ele>10</ele>
        <time>2014-04-14T13:12:44.1Z</time>
      </trkpt>
      <trkpt lat="48.63327" lon="-2.4196">
        <ele>10</ele>
        <time>2014-04-14T13:12:46.1Z</time>
      </trkpt>
      <trkpt lat="48.63328" lon="-2.41962">
        <ele>10</ele>
        <time>2014-04-14T13:12:48.1Z</time>
      </trkpt>
      <trkpt lat="48.63329" lon="-2.41966">
        <ele>10</ele>
        <time>2014-04-14T13:12:51.1Z</time>
      </trkpt>
      <trkpt lat="48.6333" lon="-2.4197">
        <ele>10</ele>
        <time>2014-04-14T13:12:54.1Z</time>
      </trkpt>
      <trkpt lat="48.63331" lon="-2.41973">
        <ele>10</ele>
        <time>2014-04-14T13:12:56.1Z</time>
      </trkpt>
      <trkpt lat="48.63332" lon="-2.41977">
        <ele>10</ele>
        <time>2014-04-14T13:12:59.1Z</time>
      </trkpt>
      <trkpt lat="48.63333" lon="-2.41981">
        <ele>10</ele>
        <time>2014-04-14T13:13:02.1Z</time>
      </trkpt>
      <trkpt lat="48.63334" lon="-2.41983">
        <ele>10</ele>
        <time>2014-04-14T13:13:04.1Z</time>
      </trkpt>
      <trkpt lat="48.63334" lon="-2.41986">
        <ele>11</ele>
        <time>2014-04-14T13:13:06.1Z</time>
      </trkpt>
      <trkpt lat="48.63335" lon="-2.41988">
        <ele>11</ele>
        <time>2014-04-14T13:13:08.1Z</time>
      </trkpt>
      <trkpt lat="48.63336" lon="-2.41991">
        <ele>11</ele>
        <time>2014-04-14T13:13:10.1Z</time>
      </trkpt>
      <trkpt lat="48.63337" lon="-2.41994">
        <ele>11</ele>
        <time>2014-04-14T13:13:13.1Z</time>
      </trkpt>
      <trkpt lat="48.63338" lon="-2.41998">
        <ele>11</ele>
        <time>2014-04-14T13:13:16.1Z</time>
      </trkpt>
      <trkpt lat="48.63339" lon="-2.42001">
        <ele>11</ele>
        <time>2014-04-14T13:13:18.1Z</time>
      </trkpt>
      <trkpt lat="48.6334" lon="-2.42004">
        <ele>11</ele>
        <time>2014-04-14T13:13:21.1Z</time>
      </trkpt>
      <trkpt lat="48.63341" lon="-2.42006">
        <ele>11</ele>
        <time>2014-04-14T13:13:23.1Z</time>
      </trkpt>
      <trkpt lat="48.63342" lon="-2.42009">
        <ele>11</ele>
        <time>2014-04-14T13:13:25.1Z</time>
      </trkpt>
      <trkpt lat="48.63343" lon="-2.42012">
        <ele>11</ele>
        <time>2014-04-14T13:13:28.1Z</time>
      </trkpt>
      <trkpt lat="48.63344" lon="-2.42015">
        <ele>11</ele>
        <time>2014-04-14T13:13:30.1Z</time>
      </trkpt>
      <trkpt lat="48.63345" lon="-2.42019">
        <ele>11</ele>
        <time>2014-04-14T13:13:33.1Z</time>
      </trkpt>
      <trkpt lat="48.63346" lon="-2.42023">
        <ele>11</ele>
        <time>2014-04-14T13:13:36.1Z</time>
      </trkpt>
      <trkpt lat="48.63347" lon="-2.42027">
        <ele>11</ele>
        <time>2014-04-14T13:13:39.1Z</time>
      </trkpt>
      <trkpt lat="48.63348" lon="-2.42031">
        <ele>12</ele>
        <time>2014-04-14T13:13:42.1Z</time>
      </trkpt>
      <trkpt lat="48.63349" lon="-2.42033">
        <ele>12</ele>
        <time>2014-04-14T13:13:44.1Z</time>
      </trkpt>
      <trkpt lat="48.6335" lon="-2.42037">
        <ele>12</ele>
        <time>2014-04-14T13:13:47.1Z</time>
      </trkpt>
      <trkpt lat="48.63351" lon="-2.4204">
        <ele>12</ele>
        <time>2014-04-14T13:13:49.1Z</time>
      </trkpt>
      <trkpt lat="48.63352" lon="-2.42043">
        <ele>12</ele>
        <time>2014-04-14T13:13:51.1Z</time>
      </trkpt>
      <trkpt lat="48.63353" lon="-2.42048">
        <ele>12</ele>
        <time>2014-04-14T13:13:54.1Z</time>
      </trkpt>
      <trkpt lat="48.63355" lon="-2.42051">
        <ele>12</ele>
        <time>2014-04-14T13:13:57.1Z</time>
      </trkpt>
      <trkpt lat="48.63355" lon="-2.42056">
        <ele>12</ele>
        <time>2014-04-14T13:14:00.1Z</time>
      </trkpt>
      <trkpt lat="48.63356" lon="-2.42057">
        <ele>12</ele>
        <time>2014-04-14T13:14:02.1Z</time>
      </trkpt>
      <trkpt lat="48.63356" lon="-2.42061">
        <ele>12</ele>
        <time>2014-04-14T13:14:05.1Z</time>
      </trkpt>
      <trkpt lat="48.63358" lon="-2.42065">
        <ele>12</ele>
        <time>2014-04-14T13:14:08.1Z</time>
      </trkpt>
      <trkpt lat="48.63359" lon="-2.42068">
        <ele>12</ele>
        <time>2014-04-14T13:14:11.1Z</time>
      </trkpt>
      <trkpt lat="48.63359" lon="-2.4207">
        <ele>12</ele>
        <time>2014-04-14T13:14:14.1Z</time>
      </trkpt>
      <trkpt lat="48.6336" lon="-2.42071">
        <ele>13</ele>
        <time>2014-04-14T13:14:17.1Z</time>
      </trkpt>
      <trkpt lat="48.6336" lon="-2.42073">
        <ele>13</ele>
        <time>2014-04-14T13:14:20.1Z</time>
      </trkpt>
      <trkpt lat="48.63361" lon="-2.42074">
        <ele>13</ele>
        <time>2014-04-14T13:14:22.1Z</time>
      </trkpt>
      <trkpt lat="48.63362" lon="-2.42077">
        <ele>13</ele>
        <time>2014-04-14T13:14:25.1Z</time>
      </trkpt>
      <trkpt lat="48.63363" lon="-2.4208">
        <ele>13</ele>
        <time>2014-04-14T13:14:28.1Z</time>
      </trkpt>
      <trkpt lat="48.63364" lon="-2.42083">
        <ele>13</ele>
        <time>2014-04-14T13:14:31.1Z</time>
      </trkpt>
      <trkpt lat="48.63365" lon="-2.42085">
        <ele>13</ele>
        <time>2014-04-14T13:14:33.1Z</time>
      </trkpt>
      <trkpt lat="48.63366" lon="-2.42088">
        <ele>13</ele>
        <time>2014-04-14T13:14:36.1Z</time>
      </trkpt>
      <trkpt lat="48.63366" lon="-2.42091">
        <ele>13</ele>
        <time>2014-04-14T13:14:39.1Z</time>
      </trkpt>
      <trkpt lat="48.63367" lon="-2.42094">
        <ele>13</ele>
        <time>2014-04-14T13:14:42.1Z</time>
      </trkpt>
      <trkpt lat="48.63367" lon="-2.42097">
        <ele>13</ele>
        <time>2014-04-14T13:14:45.1Z</time>
      </trkpt>
      <trkpt lat="48.63368" lon="-2.42101">
        <ele>13</ele>
        <time>2014-04-14T13:14:48.1Z</time>
      </trkpt>
      <trkpt lat="48.63369" lon="-2.42105">
        <ele>13</ele>
        <time>2014-04-14T13:14:51.1Z</time>
      </trkpt>
      <trkpt lat="48.63369" lon="-2.42107">
        <ele>13</ele>
        <time>2014-04-14T13:14:53.1Z</time>
      </trkpt>
      <trkpt lat="48.63369" lon="-2.42112">
        <ele>13</ele>
        <time>2014-04-14T13:14:56.1Z</time>
      </trkpt>
      <trkpt lat="48.63369" lon="-2.42116">
        <ele>13</ele>
        <time>2014-04-14T13:14:58.1Z</time>
      </trkpt>
      <trkpt lat="48.63371" lon="-2.4212">
        <ele>13</ele>
        <time>2014-04-14T13:15:01.1Z</time>
      </trkpt>
      <trkpt lat="48.6337" lon="-2.42126">
        <ele>14</ele>
        <time>2014-04-14T13:15:04.1Z</time>
      </trkpt>
      <trkpt lat="48.63371" lon="-2.42129">
        <ele>14</ele>
        <time>2014-04-14T13:15:06.1Z</time>
      </trkpt>
      <trkpt lat="48.63371" lon="-2.42132">
        <ele>14</ele>
        <time>2014-04-14T13:15:08.1Z</time>
      </trkpt>
      <trkpt lat="48.63371" lon="-2.42136">
        <ele>14</ele>
        <time>2014-04-14T13:15:10.1Z</time>
      </trkpt>
      <trkpt lat="48.63372" lon="-2.42139">
        <ele>14</ele>
        <time>2014-04-14T13:15:12.1Z</time>
      </trkpt>
      <trkpt lat="48.63372" lon="-2.42144">
        <ele>14</ele>
        <time>2014-04-14T13:15:15.1Z</time>
      </trkpt>
      <trkpt lat="48.63371" lon="-2.42148">
        <ele>14</ele>
        <time>2014-04-14T13:15:18.1Z</time>
      </trkpt>
      <trkpt lat="48.63371" lon="-2.42151">
        <ele>14</ele>
        <time>2014-04-14T13:15:20.1Z</time>
      </trkpt>
      <trkpt lat="48.63372" lon="-2.42156">
        <ele>14</ele>
        <time>2014-04-14T13:15:23.1Z</time>
      </trkpt>
      <trkpt lat="48.63372" lon="-2.42159">
        <ele>15</ele>
        <time>2014-04-14T13:15:25.1Z</time>
      </trkpt>
      <trkpt lat="48.63372" lon="-2.42162">
        <ele>15</ele>
        <time>2014-04-14T13:15:27.1Z</time>
      </trkpt>
      <trkpt lat="48.63371" lon="-2.42167">
        <ele>15</ele>
        <time>2014-04-14T13:15:30.1Z</time>
      </trkpt>
      <trkpt lat="48.63371" lon="-2.42171">
        <ele>14</ele>
        <time>2014-04-14T13:15:32.1Z</time>
      </trkpt>
      <trkpt lat="48.63371" lon="-2.42176">
        <ele>14</ele>
        <time>2014-04-14T13:15:35.1Z</time>
      </trkpt>
      <trkpt lat="48.63371" lon="-2.42181">
        <ele>15</ele>
        <time>2014-04-14T13:15:38.1Z</time>
      </trkpt>
      <trkpt lat="48.63371" lon="-2.42184">
        <ele>15</ele>
        <time>2014-04-14T13:15:40.1Z</time>
      </trkpt>
      <trkpt lat="48.63371" lon="-2.42189">
        <ele>15</ele>
        <time>2014-04-14T13:15:43.1Z</time>
      </trkpt>
      <trkpt lat="48.6337" lon="-2.42195">
        <ele>15</ele>
        <time>2014-04-14T13:15:46.1Z</time>
      </trkpt>
      <trkpt lat="48.6337" lon="-2.42198">
        <ele>15</ele>
        <time>2014-04-14T13:15:48.1Z</time>
      </trkpt>
      <trkpt lat="48.63371" lon="-2.42202">
        <ele>16</ele>
        <time>2014-04-14T13:15:51.1Z</time>
      </trkpt>
      <trkpt lat="48.63371" lon="-2.42205">
        <ele>16</ele>
        <time>2014-04-14T13:15:53.1Z</time>
      </trkpt>
      <trkpt lat="48.63372" lon="-2.42208">
        <ele>16</ele>
        <time>2014-04-14T13:15:55.1Z</time>
      </trkpt>
      <trkpt lat="48.6337" lon="-2.42213">
        <ele>16</ele>
        <time>2014-04-14T13:15:58.1Z</time>
      </trkpt>
      <trkpt lat="48.6337" lon="-2.42216">
        <ele>16</ele>
        <time>2014-04-14T13:16:00.1Z</time>
      </trkpt>
      <trkpt lat="48.63369" lon="-2.4222">
        <ele>16</ele>
        <time>2014-04-14T13:16:03.1Z</time>
      </trkpt>
      <trkpt lat="48.63367" lon="-2.42224">
        <ele>16</ele>
        <time>2014-04-14T13:16:06.1Z</time>
      </trkpt>
      <trkpt lat="48.63366" lon="-2.42228">
        <ele>17</ele>
        <time>2014-04-14T13:16:09.1Z</time>
      </trkpt>
      <trkpt lat="48.63364" lon="-2.42232">
        <ele>17</ele>
        <time>2014-04-14T13:16:12.1Z</time>
      </trkpt>
      <trkpt lat="48.63361" lon="-2.42237">
        <ele>17</ele>
        <time>2014-04-14T13:16:15.1Z</time>
      </trkpt>
      <trkpt lat="48.63359" lon="-2.42239">
        <ele>17</ele>
        <time>2014-04-14T13:16:17.1Z</time>
      </trkpt>
      <trkpt lat="48.63358" lon="-2.42242">
        <ele>17</ele>
        <time>2014-04-14T13:16:19.1Z</time>
      </trkpt>
      <trkpt lat="48.63356" lon="-2.42245">
        <ele>17</ele>
        <time>2014-04-14T13:16:21.1Z</time>
      </trkpt>
      <trkpt lat="48.63355" lon="-2.42249">
        <ele>17</ele>
        <time>2014-04-14T13:16:24.1Z</time>
      </trkpt>
      <trkpt lat="48.63354" lon="-2.42251">
        <ele>17</ele>
        <time>2014-04-14T13:16:26.1Z</time>
      </trkpt>
      <trkpt lat="48.63351" lon="-2.42254">
        <ele>17</ele>
        <time>2014-04-14T13:16:29.1Z</time>
      </trkpt>
      <trkpt lat="48.63351" lon="-2.42257">
        <ele>17</ele>
        <time>2014-04-14T13:16:31.1Z</time>
      </trkpt>
      <trkpt lat="48.63349" lon="-2.42261">
        <ele>17</ele>
        <time>2014-04-14T13:16:34.1Z</time>
      </trkpt>
      <trkpt lat="48.63346" lon="-2.42266">
        <ele>18</ele>
        <time>2014-04-14T13:16:37.1Z</time>
      </trkpt>
      <trkpt lat="48.63344" lon="-2.4227">
        <ele>18</ele>
        <time>2014-04-14T13:16:40.1Z</time>
      </trkpt>
      <trkpt lat="48.63343" lon="-2.42273">
        <ele>18</ele>
        <time>2014-04-14T13:16:42.1Z</time>
      </trkpt>
      <trkpt lat="48.63341" lon="-2.42277">
        <ele>18</ele>
        <time>2014-04-14T13:16:45.1Z</time>
      </trkpt>
      <trkpt lat="48.6334" lon="-2.42279">
        <ele>19</ele>
        <time>2014-04-14T13:16:47.1Z</time>
      </trkpt>
      <trkpt lat="48.63337" lon="-2.42283">
        <ele>19</ele>
        <time>2014-04-14T13:16:50.1Z</time>
      </trkpt>
      <trkpt lat="48.63335" lon="-2.42285">
        <ele>19</ele>
        <time>2014-04-14T13:16:52.1Z</time>
      </trkpt>
      <trkpt lat="48.63332" lon="-2.42288">
        <ele>19</ele>
        <time>2014-04-14T13:16:54.1Z</time>
      </trkpt>
      <trkpt lat="48.63331" lon="-2.42291">
        <ele>19</ele>
        <time>2014-04-14T13:16:56.1Z</time>
      </trkpt>
      <trkpt lat="48.63328" lon="-2.42296">
        <ele>19</ele>
        <time>2014-04-14T13:16:59.1Z</time>
      </trkpt>
      <trkpt lat="48.63325" lon="-2.423">
        <ele>19</ele>
        <time>2014-04-14T13:17:02.1Z</time>
      </trkpt>
      <trkpt lat="48.63322" lon="-2.42305">
        <ele>19</ele>
        <time>2014-04-14T13:17:05.1Z</time>
      </trkpt>
      <trkpt lat="48.6332" lon="-2.42309">
        <ele>19</ele>
        <time>2014-04-14T13:17:08.1Z</time>
      </trkpt>
      <trkpt lat="48.63318" lon="-2.42312">
        <ele>19</ele>
        <time>2014-04-14T13:17:10.1Z</time>
      </trkpt>
      <trkpt lat="48.63315" lon="-2.42315">
        <ele>19</ele>
        <time>2014-04-14T13:17:13.1Z</time>
      </trkpt>
      <trkpt lat="48.63313" lon="-2.42318">
        <ele>19</ele>
        <time>2014-04-14T13:17:15.1Z</time>
      </trkpt>
      <trkpt lat="48.6331" lon="-2.42322">
        <ele>20</ele>
        <time>2014-04-14T13:17:18.1Z</time>
      </trkpt>
      <trkpt lat="48.63307" lon="-2.42326">
        <ele>20</ele>
        <time>2014-04-14T13:17:21.1Z</time>
      </trkpt>
      <trkpt lat="48.63305" lon="-2.4233">
        <ele>20</ele>
        <time>2014-04-14T13:17:24.1Z</time>
      </trkpt>
      <trkpt lat="48.63302" lon="-2.42335">
        <ele>20</ele>
        <time>2014-04-14T13:17:27.1Z</time>
      </trkpt>
      <trkpt lat="48.633" lon="-2.42338">
        <ele>20</ele>
        <time>2014-04-14T13:17:29.1Z</time>
      </trkpt>
      <trkpt lat="48.63298" lon="-2.42342">
        <ele>20</ele>
        <time>2014-04-14T13:17:32.1Z</time>
      </trkpt>
      <trkpt lat="48.63297" lon="-2.42344">
        <ele>21</ele>
        <time>2014-04-14T13:17:34.1Z</time>
      </trkpt>
      <trkpt lat="48.63296" lon="-2.42347">
        <ele>21</ele>
        <time>2014-04-14T13:17:36.1Z</time>
      </trkpt>
      <trkpt lat="48.63295" lon="-2.42351">
        <ele>21</ele>
        <time>2014-04-14T13:17:39.1Z</time>
      </trkpt>
      <trkpt lat="48.63292" lon="-2.42355">
        <ele>21</ele>
        <time>2014-04-14T13:17:42.1Z</time>
      </trkpt>
      <trkpt lat="48.6329" lon="-2.42357">
        <ele>21</ele>
        <time>2014-04-14T13:17:44.1Z</time>
      </trkpt>
      <trkpt lat="48.63288" lon="-2.42361">
        <ele>21</ele>
        <time>2014-04-14T13:17:47.1Z</time>
      </trkpt>
      <trkpt lat="48.63286" lon="-2.42366">
        <ele>21</ele>
        <time>2014-04-14T13:17:50.1Z</time>
      </trkpt>
      <trkpt lat="48.63285" lon="-2.42369">
        <ele>21</ele>
        <time>2014-04-14T13:17:53.1Z</time>
      </trkpt>
      <trkpt lat="48.63284" lon="-2.42372">
        <ele>21</ele>
        <time>2014-04-14T13:17:55.1Z</time>
      </trkpt>
      <trkpt lat="48.63283" lon="-2.42376">
        <ele>22</ele>
        <time>2014-04-14T13:17:57.1Z</time>
      </trkpt>
      <trkpt lat="48.63282" lon="-2.4238">
        <ele>22</ele>
        <time>2014-04-14T13:18:00.1Z</time>
      </trkpt>
      <trkpt lat="48.6328" lon="-2.42384">
        <ele>22</ele>
        <time>2014-04-14T13:18:03.1Z</time>
      </trkpt>
      <trkpt lat="48.63279" lon="-2.42387">
        <ele>22</ele>
        <time>2014-04-14T13:18:05.1Z</time>
      </trkpt>
      <trkpt lat="48.63277" lon="-2.42391">
        <ele>22</ele>
        <time>2014-04-14T13:18:08.1Z</time>
      </trkpt>
      <trkpt lat="48.63275" lon="-2.42395">
        <ele>22</ele>
        <time>2014-04-14T13:18:10.1Z</time>
      </trkpt>
      <trkpt lat="48.63274" lon="-2.424">
        <ele>23</ele>
        <time>2014-04-14T13:18:13.1Z</time>
      </trkpt>
      <trkpt lat="48.63272" lon="-2.42403">
        <ele>22</ele>
        <time>2014-04-14T13:18:15.1Z</time>
      </trkpt>
      <trkpt lat="48.6327" lon="-2.42408">
        <ele>23</ele>
        <time>2014-04-14T13:18:18.1Z</time>
      </trkpt>
      <trkpt lat="48.63268" lon="-2.42413">
        <ele>23</ele>
        <time>2014-04-14T13:18:21.1Z</time>
      </trkpt>
      <trkpt lat="48.63267" lon="-2.42418">
        <ele>23</ele>
        <time>2014-04-14T13:18:24.1Z</time>
      </trkpt>
      <trkpt lat="48.63264" lon="-2.42423">
        <ele>23</ele>
        <time>2014-04-14T13:18:27.1Z</time>
      </trkpt>
      <trkpt lat="48.63264" lon="-2.42425">
        <ele>23</ele>
        <time>2014-04-14T13:18:29.1Z</time>
      </trkpt>
      <trkpt lat="48.63264" lon="-2.42431">
        <ele>23</ele>
        <time>2014-04-14T13:18:32.1Z</time>
      </trkpt>
      <trkpt lat="48.63263" lon="-2.42434">
        <ele>23</ele>
        <time>2014-04-14T13:18:34.1Z</time>
      </trkpt>
      <trkpt lat="48.63262" lon="-2.4244">
        <ele>23</ele>
        <time>2014-04-14T13:18:37.1Z</time>
      </trkpt>
      <trkpt lat="48.63261" lon="-2.42444">
        <ele>23</ele>
        <time>2014-04-14T13:18:39.1Z</time>
      </trkpt>
      <trkpt lat="48.63261" lon="-2.42448">
        <ele>24</ele>
        <time>2014-04-14T13:18:41.1Z</time>
      </trkpt>
      <trkpt lat="48.63261" lon="-2.42454">
        <ele>24</ele>
        <time>2014-04-14T13:18:44.1Z</time>
      </trkpt>
      <trkpt lat="48.63261" lon="-2.42457">
        <ele>24</ele>
        <time>2014-04-14T13:18:46.1Z</time>
      </trkpt>
      <trkpt lat="48.63261" lon="-2.42462">
        <ele>23</ele>
        <time>2014-04-14T13:18:49.1Z</time>
      </trkpt>
      <trkpt lat="48.63261" lon="-2.42466">
        <ele>24</ele>
        <time>2014-04-14T13:18:51.1Z</time>
      </trkpt>
      <trkpt lat="48.63261" lon="-2.42472">
        <ele>24</ele>
        <time>2014-04-14T13:18:54.1Z</time>
      </trkpt>
      <trkpt lat="48.6326" lon="-2.42478">
        <ele>24</ele>
        <time>2014-04-14T13:18:57.1Z</time>
      </trkpt>
      <trkpt lat="48.6326" lon="-2.42481">
        <ele>24</ele>
        <time>2014-04-14T13:18:59.1Z</time>
      </trkpt>
      <trkpt lat="48.6326" lon="-2.42487">
        <ele>24</ele>
        <time>2014-04-14T13:19:02.1Z</time>
      </trkpt>
      <trkpt lat="48.63261" lon="-2.4249">
        <ele>24</ele>
        <time>2014-04-14T13:19:04.1Z</time>
      </trkpt>
      <trkpt lat="48.63261" lon="-2.42494">
        <ele>24</ele>
        <time>2014-04-14T13:19:06.1Z</time>
      </trkpt>
      <trkpt lat="48.63261" lon="-2.42499">
        <ele>24</ele>
        <time>2014-04-14T13:19:09.1Z</time>
      </trkpt>
      <trkpt lat="48.63261" lon="-2.42503">
        <ele>24</ele>
        <time>2014-04-14T13:19:11.1Z</time>
      </trkpt>
      <trkpt lat="48.63261" lon="-2.42508">
        <ele>24</ele>
        <time>2014-04-14T13:19:14.1Z</time>
      </trkpt>
      <trkpt lat="48.63263" lon="-2.42512">
        <ele>24</ele>
        <time>2014-04-14T13:19:16.1Z</time>
      </trkpt>
      <trkpt lat="48.63264" lon="-2.42515">
        <ele>24</ele>
        <time>2014-04-14T13:19:18.1Z</time>
      </trkpt>
      <trkpt lat="48.63266" lon="-2.4252">
        <ele>25</ele>
        <time>2014-04-14T13:19:21.1Z</time>
      </trkpt>
      <trkpt lat="48.63267" lon="-2.42525">
        <ele>25</ele>
        <time>2014-04-14T13:19:24.1Z</time>
      </trkpt>
      <trkpt lat="48.63269" lon="-2.42528">
        <ele>25</ele>
        <time>2014-04-14T13:19:26.1Z</time>
      </trkpt>
      <trkpt lat="48.63271" lon="-2.42533">
        <ele>25</ele>
        <time>2014-04-14T13:19:29.1Z</time>
      </trkpt>
      <trkpt lat="48.63271" lon="-2.42536">
        <ele>25</ele>
        <time>2014-04-14T13:19:31.1Z</time>
      </trkpt>
      <trkpt lat="48.63272" lon="-2.42541">
        <ele>25</ele>
        <time>2014-04-14T13:19:34.1Z</time>
      </trkpt>
      <trkpt lat="48.63273" lon="-2.42545">
        <ele>25</ele>
        <time>2014-04-14T13:19:36.1Z</time>
      </trkpt>
      <trkpt lat="48.63274" lon="-2.4255">
        <ele>25</ele>
        <time>2014-04-14T13:19:39.1Z</time>
      </trkpt>
      <trkpt lat="48.63276" lon="-2.42554">
        <ele>25</ele>
        <time>2014-04-14T13:19:42.1Z</time>
      </trkpt>
      <trkpt lat="48.63278" lon="-2.42559">
        <ele>25</ele>
        <time>2014-04-14T13:19:45.1Z</time>
      </trkpt>
      <trkpt lat="48.6328" lon="-2.42564">
        <ele>25</ele>
        <time>2014-04-14T13:19:48.1Z</time>
      </trkpt>
      <trkpt lat="48.63283" lon="-2.42569">
        <ele>26</ele>
        <time>2014-04-14T13:19:51.1Z</time>
      </trkpt>
      <trkpt lat="48.63285" lon="-2.42575">
        <ele>26</ele>
        <time>2014-04-14T13:19:54.1Z</time>
      </trkpt>
      <trkpt lat="48.63288" lon="-2.42581">
        <ele>26</ele>
        <time>2014-04-14T13:19:57.1Z</time>
      </trkpt>
      <trkpt lat="48.6329" lon="-2.42584">
        <ele>26</ele>
        <time>2014-04-14T13:19:59.1Z</time>
      </trkpt>
      <trkpt lat="48.63292" lon="-2.42588">
        <ele>26</ele>
        <time>2014-04-14T13:20:02.1Z</time>
      </trkpt>
      <trkpt lat="48.63293" lon="-2.42592">
        <ele>26</ele>
        <time>2014-04-14T13:20:04.1Z</time>
      </trkpt>
      <trkpt lat="48.63294" lon="-2.42595">
        <ele>26</ele>
        <time>2014-04-14T13:20:06.1Z</time>
      </trkpt>
      <trkpt lat="48.63297" lon="-2.42599">
        <ele>26</ele>
        <time>2014-04-14T13:20:09.1Z</time>
      </trkpt>
      <trkpt lat="48.633" lon="-2.42603">
        <ele>26</ele>
        <time>2014-04-14T13:20:12.1Z</time>
      </trkpt>
      <trkpt lat="48.63302" lon="-2.42608">
        <ele>26</ele>
        <time>2014-04-14T13:20:15.1Z</time>
      </trkpt>
      <trkpt lat="48.63303" lon="-2.42611">
        <ele>26</ele>
        <time>2014-04-14T13:20:17.1Z</time>
      </trkpt>
      <trkpt lat="48.63305" lon="-2.42616">
        <ele>26</ele>
        <time>2014-04-14T13:20:20.1Z</time>
      </trkpt>
      <trkpt lat="48.63307" lon="-2.42618">
        <ele>27</ele>
        <time>2014-04-14T13:20:22.1Z</time>
      </trkpt>
      <trkpt lat="48.63309" lon="-2.42623">
        <ele>27</ele>
        <time>2014-04-14T13:20:25.1Z</time>
      </trkpt>
      <trkpt lat="48.6331" lon="-2.42625">
        <ele>27</ele>
        <time>2014-04-14T13:20:27.1Z</time>
      </trkpt>
      <trkpt lat="48.63311" lon="-2.42629">
        <ele>26</ele>
        <time>2014-04-14T13:20:30.1Z</time>
      </trkpt>
      <trkpt lat="48.63312" lon="-2.42632">
        <ele>26</ele>
        <time>2014-04-14T13:20:32.1Z</time>
      </trkpt>
      <trkpt lat="48.63313" lon="-2.42635">
        <ele>27</ele>
        <time>2014-04-14T13:20:35.1Z</time>
      </trkpt>
      <trkpt lat="48.63314" lon="-2.4264">
        <ele>27</ele>
        <time>2014-04-14T13:20:38.1Z</time>
      </trkpt>
      <trkpt lat="48.63315" lon="-2.42644">
        <ele>27</ele>
        <time>2014-04-14T13:20:41.1Z</time>
      </trkpt>
      <trkpt lat="48.63316" lon="-2.42648">
        <ele>27</ele>
        <time>2014-04-14T13:20:44.1Z</time>
      </trkpt>
      <trkpt lat="48.63317" lon="-2.4265">
        <ele>27</ele>
        <time>2014-04-14T13:20:46.1Z</time>
      </trkpt>
      <trkpt lat="48.63319" lon="-2.42654">
        <ele>27</ele>
        <time>2014-04-14T13:20:49.1Z</time>
      </trkpt>
      <trkpt lat="48.6332" lon="-2.42657">
        <ele>28</ele>
        <time>2014-04-14T13:20:52.1Z</time>
      </trkpt>
      <trkpt lat="48.6332" lon="-2.42659">
        <ele>28</ele>
        <time>2014-04-14T13:20:54.1Z</time>
      </trkpt>
      <trkpt lat="48.6332" lon="-2.4266">
        <ele>28</ele>
        <time>2014-04-14T13:20:57.1Z</time>
      </trkpt>
      <trkpt lat="48.63321" lon="-2.42661">
        <ele>28</ele>
        <time>2014-04-14T13:20:59.1Z</time>
      </trkpt>
      <trkpt lat="48.63321" lon="-2.42662">
        <ele>28</ele>
        <time>2014-04-14T13:21:02.1Z</time>
      </trkpt>
      <trkpt lat="48.63321" lon="-2.42662">
        <ele>28</ele>
        <time>2014-04-14T13:21:05.1Z</time>
      </trkpt>
      <trkpt lat="48.63322" lon="-2.42663">
        <ele>28</ele>
        <time>2014-04-14T13:21:07.1Z</time>
      </trkpt>
      <trkpt lat="48.63322" lon="-2.42663">
        <ele>28</ele>
        <time>2014-04-14T13:21:10.1Z</time>
      </trkpt>
      <trkpt lat="48.63324" lon="-2.42667">
        <ele>28</ele>
        <time>2014-04-14T13:21:13.1Z</time>
      </trkpt>
      <trkpt lat="48.63325" lon="-2.4267">
        <ele>28</ele>
        <time>2014-04-14T13:21:16.1Z</time>
      </trkpt>
      <trkpt lat="48.63327" lon="-2.42673">
        <ele>28</ele>
        <time>2014-04-14T13:21:18.1Z</time>
      </trkpt>
      <trkpt lat="48.63328" lon="-2.42676">
        <ele>28</ele>
        <time>2014-04-14T13:21:20.1Z</time>
      </trkpt>
      <trkpt lat="48.63329" lon="-2.42681">
        <ele>28</ele>
        <time>2014-04-14T13:21:23.1Z</time>
      </trkpt>
      <trkpt lat="48.6333" lon="-2.42684">
        <ele>28</ele>
        <time>2014-04-14T13:21:25.1Z</time>
      </trkpt>
      <trkpt lat="48.63332" lon="-2.42688">
        <ele>28</ele>
        <time>2014-04-14T13:21:28.1Z</time>
      </trkpt>
      <trkpt lat="48.63333" lon="-2.42693">
        <ele>28</ele>
        <time>2014-04-14T13:21:31.1Z</time>
      </trkpt>
      <trkpt lat="48.63335" lon="-2.42697">
        <ele>28</ele>
        <time>2014-04-14T13:21:34.1Z</time>
      </trkpt>
      <trkpt lat="48.63335" lon="-2.427">
        <ele>28</ele>
        <time>2014-04-14T13:21:36.1Z</time>
      </trkpt>
      <trkpt lat="48.63336" lon="-2.42702">
        <ele>29</ele>
        <time>2014-04-14T13:21:39.1Z</time>
      </trkpt>
      <trkpt lat="48.63336" lon="-2.42703">
        <ele>29</ele>
        <time>2014-04-14T13:21:42.1Z</time>
      </trkpt>
      <trkpt lat="48.63336" lon="-2.42703">
        <ele>29</ele>
        <time>2014-04-14T13:21:45.1Z</time>
      </trkpt>
      <trkpt lat="48.63336" lon="-2.42703">
        <ele>29</ele>
        <time>2014-04-14T13:21:47.1Z</time>
      </trkpt>
      <trkpt lat="48.63336" lon="-2.42703">
        <ele>29</ele>
        <time>2014-04-14T13:21:50.1Z</time>
      </trkpt>
      <trkpt lat="48.63336" lon="-2.42703">
        <ele>29</ele>
        <time>2014-04-14T13:21:53.1Z</time>
      </trkpt>
      <trkpt lat="48.63336" lon="-2.42703">
        <ele>29</ele>
        <time>2014-04-14T13:21:56.1Z</time>
      </trkpt>
      <trkpt lat="48.63337" lon="-2.42703">
        <ele>29</ele>
        <time>2014-04-14T13:21:59.1Z</time>
      </trkpt>
      <trkpt lat="48.63338" lon="-2.42703">
        <ele>29</ele>
        <time>2014-04-14T13:22:02.1Z</time>
      </trkpt>
      <trkpt lat="48.63338" lon="-2.42701">
        <ele>28</ele>
        <time>2014-04-14T13:22:05.1Z</time>
      </trkpt>
      <trkpt lat="48.63337" lon="-2.42699">
        <ele>28</ele>
        <time>2014-04-14T13:22:08.1Z</time>
      </trkpt>
      <trkpt lat="48.63337" lon="-2.42696">
        <ele>28</ele>
        <time>2014-04-14T13:22:11.1Z</time>
      </trkpt>
      <trkpt lat="48.63338" lon="-2.42694">
        <ele>29</ele>
        <time>2014-04-14T13:22:14.1Z</time>
      </trkpt>
      <trkpt lat="48.63338" lon="-2.42694">
        <ele>29</ele>
        <time>2014-04-14T13:22:16.1Z</time>
      </trkpt>
      <trkpt lat="48.63338" lon="-2.42694">
        <ele>29</ele>
        <time>2014-04-14T13:22:19.1Z</time>
      </trkpt>
      <trkpt lat="48.63337" lon="-2.42694">
        <ele>29</ele>
        <time>2014-04-14T13:22:21.1Z</time>
      </trkpt>
      <trkpt lat="48.63337" lon="-2.42694">
        <ele>29</ele>
        <time>2014-04-14T13:22:24.1Z</time>
      </trkpt>
      <trkpt lat="48.63336" lon="-2.42694">
        <ele>29</ele>
        <time>2014-04-14T13:22:27.1Z</time>
      </trkpt>
      <trkpt lat="48.63335" lon="-2.42694">
        <ele>29</ele>
        <time>2014-04-14T13:22:30.1Z</time>
      </trkpt>
      <trkpt lat="48.63335" lon="-2.42694">
        <ele>28</ele>
        <time>2014-04-14T13:22:33.1Z</time>
      </trkpt>
      <trkpt lat="48.63334" lon="-2.42695">
        <ele>29</ele>
        <time>2014-04-14T13:22:36.1Z</time>
      </trkpt>
      <trkpt lat="48.63334" lon="-2.42694">
        <ele>29</ele>
        <time>2014-04-14T13:22:38.1Z</time>
      </trkpt>
      <trkpt lat="48.63334" lon="-2.42695">
        <ele>29</ele>
        <time>2014-04-14T13:22:42.1Z</time>
      </trkpt>
      <trkpt lat="48.63334" lon="-2.42695">
        <ele>29</ele>
        <time>2014-04-14T13:22:45.1Z</time>
      </trkpt>
      <trkpt lat="48.63333" lon="-2.42695">
        <ele>29</ele>
        <time>2014-04-14T13:22:48.1Z</time>
      </trkpt>
      <trkpt lat="48.63333" lon="-2.42696">
        <ele>29</ele>
        <time>2014-04-14T13:22:50.1Z</time>
      </trkpt>
      <trkpt lat="48.63331" lon="-2.42696">
        <ele>29</ele>
        <time>2014-04-14T13:22:53.1Z</time>
      </trkpt>
      <trkpt lat="48.6333" lon="-2.42697">
        <ele>29</ele>
        <time>2014-04-14T13:22:55.1Z</time>
      </trkpt>
      <trkpt lat="48.63328" lon="-2.42699">
        <ele>29</ele>
        <time>2014-04-14T13:22:58.1Z</time>
      </trkpt>
      <trkpt lat="48.63327" lon="-2.42699">
        <ele>29</ele>
        <time>2014-04-14T13:23:01.1Z</time>
      </trkpt>
      <trkpt lat="48.63326" lon="-2.427">
        <ele>29</ele>
        <time>2014-04-14T13:23:03.1Z</time>
      </trkpt>
      <trkpt lat="48.63326" lon="-2.42701">
        <ele>29</ele>
        <time>2014-04-14T13:23:06.1Z</time>
      </trkpt>
      <trkpt lat="48.63325" lon="-2.42701">
        <ele>29</ele>
        <time>2014-04-14T13:23:09.1Z</time>
      </trkpt>
      <trkpt lat="48.63325" lon="-2.42701">
        <ele>29</ele>
        <time>2014-04-14T13:23:11.1Z</time>
      </trkpt>
      <trkpt lat="48.63324" lon="-2.42702">
        <ele>29</ele>
        <time>2014-04-14T13:23:14.1Z</time>
      </trkpt>
      <trkpt lat="48.63324" lon="-2.42702">
        <ele>29</ele>
        <time>2014-04-14T13:23:17.1Z</time>
      </trkpt>
      <trkpt lat="48.63324" lon="-2.42702">
        <ele>29</ele>
        <time>2014-04-14T13:23:21.1Z</time>
      </trkpt>
      <trkpt lat="48.63324" lon="-2.42702">
        <ele>29</ele>
        <time>2014-04-14T13:23:26.1Z</time>
      </trkpt>
      <trkpt lat="48.63324" lon="-2.42702">
        <ele>29</ele>
        <time>2014-04-14T13:23:29.1Z</time>
      </trkpt>
      <trkpt lat="48.63325" lon="-2.42702">
        <ele>29</ele>
        <time>2014-04-14T13:23:32.1Z</time>
      </trkpt>
      <trkpt lat="48.63325" lon="-2.42702">
        <ele>29</ele>
        <time>2014-04-14T13:23:34.1Z</time>
      </trkpt>
      <trkpt lat="48.63326" lon="-2.42702">
        <ele>29</ele>
        <time>2014-04-14T13:23:36.1Z</time>
      </trkpt>
      <trkpt lat="48.63326" lon="-2.42702">
        <ele>29</ele>
        <time>2014-04-14T13:23:39.1Z</time>
      </trkpt>
      <trkpt lat="48.63327" lon="-2.42702">
        <ele>29</ele>
        <time>2014-04-14T13:23:42.1Z</time>
      </trkpt>
      <trkpt lat="48.63327" lon="-2.42702">
        <ele>29</ele>
        <time>2014-04-14T13:23:45.1Z</time>
      </trkpt>
      <trkpt lat="48.63327" lon="-2.42702">
        <ele>29</ele>
        <time>2014-04-14T13:23:47.1Z</time>
      </trkpt>
      <trkpt lat="48.63327" lon="-2.42704">
        <ele>29</ele>
        <time>2014-04-14T13:23:50.1Z</time>
      </trkpt>
      <trkpt lat="48.63328" lon="-2.42708">
        <ele>29</ele>
        <time>2014-04-14T13:23:53.1Z</time>
      </trkpt>
      <trkpt lat="48.63328" lon="-2.4271">
        <ele>29</ele>
        <time>2014-04-14T13:23:55.1Z</time>
      </trkpt>
      <trkpt lat="48.63327" lon="-2.42712">
        <ele>29</ele>
        <time>2014-04-14T13:23:57.1Z</time>
      </trkpt>
      <trkpt lat="48.63327" lon="-2.42715">
        <ele>29</ele>
        <time>2014-04-14T13:24:00.1Z</time>
      </trkpt>
      <trkpt lat="48.63327" lon="-2.42718">
        <ele>29</ele>
        <time>2014-04-14T13:24:03.1Z</time>
      </trkpt>
      <trkpt lat="48.63327" lon="-2.4272">
        <ele>29</ele>
        <time>2014-04-14T13:24:05.1Z</time>
      </trkpt>
      <trkpt lat="48.63327" lon="-2.42722">
        <ele>29</ele>
        <time>2014-04-14T13:24:08.1Z</time>
      </trkpt>
      <trkpt lat="48.63328" lon="-2.42723">
        <ele>30</ele>
        <time>2014-04-14T13:24:11.1Z</time>
      </trkpt>
      <trkpt lat="48.63328" lon="-2.42724">
        <ele>30</ele>
        <time>2014-04-14T13:24:13.1Z</time>
      </trkpt>
      <trkpt lat="48.63328" lon="-2.42725">
        <ele>30</ele>
        <time>2014-04-14T13:24:15.1Z</time>
      </trkpt>
      <trkpt lat="48.63328" lon="-2.42726">
        <ele>30</ele>
        <time>2014-04-14T13:24:17.1Z</time>
      </trkpt>
      <trkpt lat="48.63328" lon="-2.42726">
        <ele>30</ele>
        <time>2014-04-14T13:24:19.1Z</time>
      </trkpt>
      <trkpt lat="48.63329" lon="-2.42726">
        <ele>30</ele>
        <time>2014-04-14T13:24:22.1Z</time>
      </trkpt>
      <trkpt lat="48.6333" lon="-2.42727">
        <ele>30</ele>
        <time>2014-04-14T13:24:25.1Z</time>
      </trkpt>
      <trkpt lat="48.63331" lon="-2.42728">
        <ele>30</ele>
        <time>2014-04-14T13:24:28.1Z</time>
      </trkpt>
      <trkpt lat="48.63331" lon="-2.42729">
        <ele>30</ele>
        <time>2014-04-14T13:24:30.1Z</time>
      </trkpt>
      <trkpt lat="48.63331" lon="-2.4273">
        <ele>30</ele>
        <time>2014-04-14T13:24:33.1Z</time>
      </trkpt>
      <trkpt lat="48.63332" lon="-2.4273">
        <ele>30</ele>
        <time>2014-04-14T13:24:35.1Z</time>
      </trkpt>
      <trkpt lat="48.63333" lon="-2.4273">
        <ele>30</ele>
        <time>2014-04-14T13:24:37.1Z</time>
      </trkpt>
      <trkpt lat="48.63334" lon="-2.42729">
        <ele>30</ele>
        <time>2014-04-14T13:24:40.1Z</time>
      </trkpt>
      <trkpt lat="48.63334" lon="-2.42729">
        <ele>30</ele>
        <time>2014-04-14T13:24:43.1Z</time>
      </trkpt>
      <trkpt lat="48.63334" lon="-2.4273">
        <ele>30</ele>
        <time>2014-04-14T13:24:46.1Z</time>
      </trkpt>
      <trkpt lat="48.63334" lon="-2.42731">
        <ele>30</ele>
        <time>2014-04-14T13:24:48.1Z</time>
      </trkpt>
      <trkpt lat="48.63334" lon="-2.42732">
        <ele>30</ele>
        <time>2014-04-14T13:24:50.1Z</time>
      </trkpt>
      <trkpt lat="48.63335" lon="-2.42735">
        <ele>30</ele>
        <time>2014-04-14T13:24:53.1Z</time>
      </trkpt>
      <trkpt lat="48.63335" lon="-2.42737">
        <ele>31</ele>
        <time>2014-04-14T13:24:55.1Z</time>
      </trkpt>
      <trkpt lat="48.63335" lon="-2.4274">
        <ele>31</ele>
        <time>2014-04-14T13:24:58.1Z</time>
      </trkpt>
      <trkpt lat="48.63334" lon="-2.42743">
        <ele>31</ele>
        <time>2014-04-14T13:25:01.1Z</time>
      </trkpt>
      <trkpt lat="48.63334" lon="-2.42744">
        <ele>31</ele>
        <time>2014-04-14T13:25:03.1Z</time>
      </trkpt>
      <trkpt lat="48.63333" lon="-2.42747">
        <ele>31</ele>
        <time>2014-04-14T13:25:06.1Z</time>
      </trkpt>
      <trkpt lat="48.63334" lon="-2.4275">
        <ele>31</ele>
        <time>2014-04-14T13:25:08.1Z</time>
      </trkpt>
      <trkpt lat="48.63333" lon="-2.42753">
        <ele>31</ele>
        <time>2014-04-14T13:25:11.1Z</time>
      </trkpt>
      <trkpt lat="48.63333" lon="-2.42755">
        <ele>31</ele>
        <time>2014-04-14T13:25:13.1Z</time>
      </trkpt>
      <trkpt lat="48.63332" lon="-2.42759">
        <ele>31</ele>
        <time>2014-04-14T13:25:16.1Z</time>
      </trkpt>
      <trkpt lat="48.63332" lon="-2.42761">
        <ele>32</ele>
        <time>2014-04-14T13:25:18.1Z</time>
      </trkpt>
      <trkpt lat="48.63331" lon="-2.42764">
        <ele>31</ele>
        <time>2014-04-14T13:25:20.1Z</time>
      </trkpt>
      <trkpt lat="48.63331" lon="-2.42768">
        <ele>31</ele>
        <time>2014-04-14T13:25:23.1Z</time>
      </trkpt>
      <trkpt lat="48.6333" lon="-2.42772">
        <ele>31</ele>
        <time>2014-04-14T13:25:26.1Z</time>
      </trkpt>
      <trkpt lat="48.63329" lon="-2.42775">
        <ele>31</ele>
        <time>2014-04-14T13:25:28.1Z</time>
      </trkpt>
      <trkpt lat="48.63329" lon="-2.42777">
        <ele>31</ele>
        <time>2014-04-14T13:25:30.1Z</time>
      </trkpt>
      <trkpt lat="48.63329" lon="-2.4278">
        <ele>32</ele>
        <time>2014-04-14T13:25:33.1Z</time>
      </trkpt>
      <trkpt lat="48.63329" lon="-2.42784">
        <ele>32</ele>
        <time>2014-04-14T13:25:36.1Z</time>
      </trkpt>
      <trkpt lat="48.63329" lon="-2.4279">
        <ele>32</ele>
        <time>2014-04-14T13:25:39.1Z</time>
      </trkpt>
      <trkpt lat="48.63328" lon="-2.42793">
        <ele>33</ele>
        <time>2014-04-14T13:25:41.1Z</time>
      </trkpt>
      <trkpt lat="48.63329" lon="-2.42798">
        <ele>33</ele>
        <time>2014-04-14T13:25:44.1Z</time>
      </trkpt>
      <trkpt lat="48.63329" lon="-2.428">
        <ele>33</ele>
        <time>2014-04-14T13:25:46.1Z</time>
      </trkpt>
      <trkpt lat="48.63329" lon="-2.42805">
        <ele>33</ele>
        <time>2014-04-14T13:25:49.1Z</time>
      </trkpt>
      <trkpt lat="48.6333" lon="-2.42809">
        <ele>33</ele>
        <time>2014-04-14T13:25:52.1Z</time>
      </trkpt>
      <trkpt lat="48.6333" lon="-2.42811">
        <ele>33</ele>
        <time>2014-04-14T13:25:54.1Z</time>
      </trkpt>
      <trkpt lat="48.63329" lon="-2.42814">
        <ele>33</ele>
        <time>2014-04-14T13:25:57.1Z</time>
      </trkpt>
      <trkpt lat="48.63328" lon="-2.42818">
        <ele>33</ele>
        <time>2014-04-14T13:26:00.1Z</time>
      </trkpt>
      <trkpt lat="48.63326" lon="-2.42822">
        <ele>33</ele>
        <time>2014-04-14T13:26:03.1Z</time>
      </trkpt>
      <trkpt lat="48.63326" lon="-2.42825">
        <ele>33</ele>
        <time>2014-04-14T13:26:05.1Z</time>
      </trkpt>
      <trkpt lat="48.63326" lon="-2.42828">
        <ele>33</ele>
        <time>2014-04-14T13:26:07.1Z</time>
      </trkpt>
      <trkpt lat="48.63326" lon="-2.42831">
        <ele>33</ele>
        <time>2014-04-14T13:26:10.1Z</time>
      </trkpt>
      <trkpt lat="48.63326" lon="-2.42834">
        <ele>33</ele>
        <time>2014-04-14T13:26:12.1Z</time>
      </trkpt>
      <trkpt lat="48.63325" lon="-2.42839">
        <ele>34</ele>
        <time>2014-04-14T13:26:15.1Z</time>
      </trkpt>
      <trkpt lat="48.63326" lon="-2.42842">
        <ele>34</ele>
        <time>2014-04-14T13:26:17.1Z</time>
      </trkpt>
      <trkpt lat="48.63326" lon="-2.42846">
        <ele>33</ele>
        <time>2014-04-14T13:26:20.1Z</time>
      </trkpt>
      <trkpt lat="48.63326" lon="-2.42851">
        <ele>33</ele>
        <time>2014-04-14T13:26:23.1Z</time>
      </trkpt>
      <trkpt lat="48.63326" lon="-2.42854">
        <ele>33</ele>
        <time>2014-04-14T13:26:25.1Z</time>
      </trkpt>
      <trkpt lat="48.63325" lon="-2.42859">
        <ele>33</ele>
        <time>2014-04-14T13:26:28.1Z</time>
      </trkpt>
      <trkpt lat="48.63325" lon="-2.42861">
        <ele>34</ele>
        <time>2014-04-14T13:26:30.1Z</time>
      </trkpt>
      <trkpt lat="48.63324" lon="-2.42865">
        <ele>34</ele>
        <time>2014-04-14T13:26:33.1Z</time>
      </trkpt>
      <trkpt lat="48.63325" lon="-2.42868">
        <ele>34</ele>
        <time>2014-04-14T13:26:35.1Z</time>
      </trkpt>
      <trkpt lat="48.63325" lon="-2.42872">
        <ele>34</ele>
        <time>2014-04-14T13:26:38.1Z</time>
      </trkpt>
      <trkpt lat="48.63325" lon="-2.42877">
        <ele>34</ele>
        <time>2014-04-14T13:26:41.1Z</time>
      </trkpt>
      <trkpt lat="48.63326" lon="-2.42881">
        <ele>34</ele>
        <time>2014-04-14T13:26:44.1Z</time>
      </trkpt>
      <trkpt lat="48.63327" lon="-2.42885">
        <ele>34</ele>
        <time>2014-04-14T13:26:47.1Z</time>
      </trkpt>
      <trkpt lat="48.63327" lon="-2.42888">
        <ele>34</ele>
        <time>2014-04-14T13:26:49.1Z</time>
      </trkpt>
      <trkpt lat="48.63327" lon="-2.42893">
        <ele>34</ele>
        <time>2014-04-14T13:26:52.1Z</time>
      </trkpt>
      <trkpt lat="48.63327" lon="-2.42897">
        <ele>34</ele>
        <time>2014-04-14T13:26:55.1Z</time>
      </trkpt>
      <trkpt lat="48.63329" lon="-2.429">
        <ele>34</ele>
        <time>2014-04-14T13:26:57.1Z</time>
      </trkpt>
      <trkpt lat="48.63329" lon="-2.42902">
        <ele>34</ele>
        <time>2014-04-14T13:26:59.1Z</time>
      </trkpt>
      <trkpt lat="48.6333" lon="-2.42907">
        <ele>35</ele>
        <time>2014-04-14T13:27:02.1Z</time>
      </trkpt>
      <trkpt lat="48.63331" lon="-2.42911">
        <ele>35</ele>
        <time>2014-04-14T13:27:05.1Z</time>
      </trkpt>
      <trkpt lat="48.63331" lon="-2.42914">
        <ele>35</ele>
        <time>2014-04-14T13:27:07.1Z</time>
      </trkpt>
      <trkpt lat="48.63332" lon="-2.42919">
        <ele>34</ele>
        <time>2014-04-14T13:27:10.1Z</time>
      </trkpt>
      <trkpt lat="48.63332" lon="-2.42924">
        <ele>35</ele>
        <time>2014-04-14T13:27:13.1Z</time>
      </trkpt>
      <trkpt lat="48.63332" lon="-2.4293">
        <ele>35</ele>
        <time>2014-04-14T13:27:16.1Z</time>
      </trkpt>
      <trkpt lat="48.63331" lon="-2.42934">
        <ele>35</ele>
        <time>2014-04-14T13:27:19.1Z</time>
      </trkpt>
      <trkpt lat="48.63331" lon="-2.42936">
        <ele>35</ele>
        <time>2014-04-14T13:27:21.1Z</time>
      </trkpt>
      <trkpt lat="48.63332" lon="-2.42941">
        <ele>35</ele>
        <time>2014-04-14T13:27:24.1Z</time>
      </trkpt>
      <trkpt lat="48.63333" lon="-2.42944">
        <ele>35</ele>
        <time>2014-04-14T13:27:26.1Z</time>
      </trkpt>
      <trkpt lat="48.63333" lon="-2.42947">
        <ele>35</ele>
        <time>2014-04-14T13:27:28.1Z</time>
      </trkpt>
      <trkpt lat="48.63333" lon="-2.42953">
        <ele>35</ele>
        <time>2014-04-14T13:27:31.1Z</time>
      </trkpt>
      <trkpt lat="48.63334" lon="-2.42957">
        <ele>36</ele>
        <time>2014-04-14T13:27:34.1Z</time>
      </trkpt>
      <trkpt lat="48.63334" lon="-2.4296">
        <ele>36</ele>
        <time>2014-04-14T13:27:36.1Z</time>
      </trkpt>
      <trkpt lat="48.63335" lon="-2.42964">
        <ele>36</ele>
        <time>2014-04-14T13:27:39.1Z</time>
      </trkpt>
      <trkpt lat="48.63335" lon="-2.42969">
        <ele>36</ele>
        <time>2014-04-14T13:27:42.1Z</time>
      </trkpt>
      <trkpt lat="48.63334" lon="-2.42973">
        <ele>36</ele>
        <time>2014-04-14T13:27:45.1Z</time>
      </trkpt>
      <trkpt lat="48.63335" lon="-2.42979">
        <ele>37</ele>
        <time>2014-04-14T13:27:48.1Z</time>
      </trkpt>
      <trkpt lat="48.63336" lon="-2.42984">
        <ele>37</ele>
        <time>2014-04-14T13:27:51.1Z</time>
      </trkpt>
      <trkpt lat="48.63337" lon="-2.42989">
        <ele>37</ele>
        <time>2014-04-14T13:27:54.1Z</time>
      </trkpt>
      <trkpt lat="48.63338" lon="-2.42992">
        <ele>37</ele>
        <time>2014-04-14T13:27:56.1Z</time>
      </trkpt>
      <trkpt lat="48.63338" lon="-2.42998">
        <ele>37</ele>
        <time>2014-04-14T13:27:59.1Z</time>
      </trkpt>
      <trkpt lat="48.63339" lon="-2.43001">
        <ele>37</ele>
        <time>2014-04-14T13:28:01.1Z</time>
      </trkpt>
      <trkpt lat="48.6334" lon="-2.43007">
        <ele>37</ele>
        <time>2014-04-14T13:28:04.1Z</time>
      </trkpt>
      <trkpt lat="48.6334" lon="-2.4301">
        <ele>37</ele>
        <time>2014-04-14T13:28:06.1Z</time>
      </trkpt>
      <trkpt lat="48.63342" lon="-2.43015">
        <ele>37</ele>
        <time>2014-04-14T13:28:09.1Z</time>
      </trkpt>
      <trkpt lat="48.63343" lon="-2.43018">
        <ele>38</ele>
        <time>2014-04-14T13:28:11.1Z</time>
      </trkpt>
      <trkpt lat="48.63344" lon="-2.43022">
        <ele>38</ele>
        <time>2014-04-14T13:28:14.1Z</time>
      </trkpt>
      <trkpt lat="48.63345" lon="-2.43025">
        <ele>38</ele>
        <time>2014-04-14T13:28:16.1Z</time>
      </trkpt>
      <trkpt lat="48.63345" lon="-2.43031">
        <ele>38</ele>
        <time>2014-04-14T13:28:19.1Z</time>
      </trkpt>
      <trkpt lat="48.63345" lon="-2.43035">
        <ele>38</ele>
        <time>2014-04-14T13:28:21.1Z</time>
      </trkpt>
      <trkpt lat="48.63346" lon="-2.4304">
        <ele>38</ele>
        <time>2014-04-14T13:28:24.1Z</time>
      </trkpt>
      <trkpt lat="48.63346" lon="-2.43044">
        <ele>38</ele>
        <time>2014-04-14T13:28:26.1Z</time>
      </trkpt>
      <trkpt lat="48.63346" lon="-2.4305">
        <ele>38</ele>
        <time>2014-04-14T13:28:29.1Z</time>
      </trkpt>
      <trkpt lat="48.63347" lon="-2.43053">
        <ele>38</ele>
        <time>2014-04-14T13:28:31.1Z</time>
      </trkpt>
      <trkpt lat="48.63349" lon="-2.43057">
        <ele>38</ele>
        <time>2014-04-14T13:28:34.1Z</time>
      </trkpt>
      <trkpt lat="48.63349" lon="-2.43059">
        <ele>38</ele>
        <time>2014-04-14T13:28:37.1Z</time>
      </trkpt>
      <trkpt lat="48.63349" lon="-2.43064">
        <ele>38</ele>
        <time>2014-04-14T13:28:40.1Z</time>
      </trkpt>
      <trkpt lat="48.63348" lon="-2.43068">
        <ele>38</ele>
        <time>2014-04-14T13:28:42.1Z</time>
      </trkpt>
      <trkpt lat="48.63348" lon="-2.43074">
        <ele>38</ele>
        <time>2014-04-14T13:28:45.1Z</time>
      </trkpt>
      <trkpt lat="48.63348" lon="-2.43077">
        <ele>39</ele>
        <time>2014-04-14T13:28:47.1Z</time>
      </trkpt>
      <trkpt lat="48.63348" lon="-2.43081">
        <ele>39</ele>
        <time>2014-04-14T13:28:49.1Z</time>
      </trkpt>
      <trkpt lat="48.63348" lon="-2.43086">
        <ele>39</ele>
        <time>2014-04-14T13:28:52.1Z</time>
      </trkpt>
      <trkpt lat="48.63348" lon="-2.43089">
        <ele>39</ele>
        <time>2014-04-14T13:28:54.1Z</time>
      </trkpt>
      <trkpt lat="48.63347" lon="-2.43093">
        <ele>39</ele>
        <time>2014-04-14T13:28:56.1Z</time>
      </trkpt>
      <trkpt lat="48.63347" lon="-2.43098">
        <ele>40</ele>
        <time>2014-04-14T13:28:59.1Z</time>
      </trkpt>
      <trkpt lat="48.63347" lon="-2.43103">
        <ele>40</ele>
        <time>2014-04-14T13:29:02.1Z</time>
      </trkpt>
      <trkpt lat="48.63346" lon="-2.43107">
        <ele>40</ele>
        <time>2014-04-14T13:29:04.1Z</time>
      </trkpt>
      <trkpt lat="48.63345" lon="-2.43111">
        <ele>40</ele>
        <time>2014-04-14T13:29:07.1Z</time>
      </trkpt>
      <trkpt lat="48.63343" lon="-2.43116">
        <ele>40</ele>
        <time>2014-04-14T13:29:10.1Z</time>
      </trkpt>
      <trkpt lat="48.63342" lon="-2.4312">
        <ele>40</ele>
        <time>2014-04-14T13:29:13.1Z</time>
      </trkpt>
      <trkpt lat="48.63341" lon="-2.43125">
        <ele>40</ele>
        <time>2014-04-14T13:29:16.1Z</time>
      </trkpt>
      <trkpt lat="48.6334" lon="-2.43128">
        <ele>40</ele>
        <time>2014-04-14T13:29:18.1Z</time>
      </trkpt>
      <trkpt lat="48.6334" lon="-2.43134">
        <ele>40</ele>
        <time>2014-04-14T13:29:21.1Z</time>
      </trkpt>
      <trkpt lat="48.6334" lon="-2.43137">
        <ele>40</ele>
        <time>2014-04-14T13:29:23.1Z</time>
      </trkpt>
      <trkpt lat="48.63338" lon="-2.4314">
        <ele>41</ele>
        <time>2014-04-14T13:29:25.1Z</time>
      </trkpt>
      <trkpt lat="48.63337" lon="-2.43144">
        <ele>41</ele>
        <time>2014-04-14T13:29:28.1Z</time>
      </trkpt>
      <trkpt lat="48.63337" lon="-2.43146">
        <ele>41</ele>
        <time>2014-04-14T13:29:30.1Z</time>
      </trkpt>
      <trkpt lat="48.63337" lon="-2.4315">
        <ele>41</ele>
        <time>2014-04-14T13:29:33.1Z</time>
      </trkpt>
      <trkpt lat="48.63337" lon="-2.43152">
        <ele>41</ele>
        <time>2014-04-14T13:29:35.1Z</time>
      </trkpt>
      <trkpt lat="48.63335" lon="-2.43157">
        <ele>41</ele>
        <time>2014-04-14T13:29:38.1Z</time>
      </trkpt>
      <trkpt lat="48.63333" lon="-2.43162">
        <ele>41</ele>
        <time>2014-04-14T13:29:41.1Z</time>
      </trkpt>
      <trkpt lat="48.63332" lon="-2.43165">
        <ele>41</ele>
        <time>2014-04-14T13:29:44.1Z</time>
      </trkpt>
      <trkpt lat="48.63329" lon="-2.43169">
        <ele>41</ele>
        <time>2014-04-14T13:29:47.1Z</time>
      </trkpt>
      <trkpt lat="48.63328" lon="-2.43174">
        <ele>41</ele>
        <time>2014-04-14T13:29:50.1Z</time>
      </trkpt>
      <trkpt lat="48.63326" lon="-2.43176">
        <ele>41</ele>
        <time>2014-04-14T13:29:52.1Z</time>
      </trkpt>
      <trkpt lat="48.63324" lon="-2.4318">
        <ele>41</ele>
        <time>2014-04-14T13:29:55.1Z</time>
      </trkpt>
      <trkpt lat="48.63322" lon="-2.43185">
        <ele>42</ele>
        <time>2014-04-14T13:29:58.1Z</time>
      </trkpt>
      <trkpt lat="48.6332" lon="-2.43189">
        <ele>42</ele>
        <time>2014-04-14T13:30:01.1Z</time>
      </trkpt>
      <trkpt lat="48.63318" lon="-2.43194">
        <ele>42</ele>
        <time>2014-04-14T13:30:04.1Z</time>
      </trkpt>
      <trkpt lat="48.63316" lon="-2.43197">
        <ele>42</ele>
        <time>2014-04-14T13:30:07.1Z</time>
      </trkpt>
      <trkpt lat="48.63314" lon="-2.432">
        <ele>42</ele>
        <time>2014-04-14T13:30:09.1Z</time>
      </trkpt>
      <trkpt lat="48.63311" lon="-2.43204">
        <ele>42</ele>
        <time>2014-04-14T13:30:12.1Z</time>
      </trkpt>
      <trkpt lat="48.63308" lon="-2.43209">
        <ele>43</ele>
        <time>2014-04-14T13:30:15.1Z</time>
      </trkpt>
      <trkpt lat="48.63306" lon="-2.43213">
        <ele>43</ele>
        <time>2014-04-14T13:30:18.1Z</time>
      </trkpt>
      <trkpt lat="48.63303" lon="-2.43217">
        <ele>42</ele>
        <time>2014-04-14T13:30:21.1Z</time>
      </trkpt>
      <trkpt lat="48.63301" lon="-2.4322">
        <ele>42</ele>
        <time>2014-04-14T13:30:23.1Z</time>
      </trkpt>
      <trkpt lat="48.63298" lon="-2.43223">
        <ele>42</ele>
        <time>2014-04-14T13:30:26.1Z</time>
      </trkpt>
      <trkpt lat="48.63297" lon="-2.43226">
        <ele>43</ele>
        <time>2014-04-14T13:30:28.1Z</time>
      </trkpt>
      <trkpt lat="48.63295" lon="-2.43229">
        <ele>43</ele>
        <time>2014-04-14T13:30:30.1Z</time>
      </trkpt>
      <trkpt lat="48.63291" lon="-2.43232">
        <ele>43</ele>
        <time>2014-04-14T13:30:33.1Z</time>
      </trkpt>
      <trkpt lat="48.63288" lon="-2.43235">
        <ele>43</ele>
        <time>2014-04-14T13:30:36.1Z</time>
      </trkpt>
      <trkpt lat="48.63287" lon="-2.43237">
        <ele>43</ele>
        <time>2014-04-14T13:30:38.1Z</time>
      </trkpt>
      <trkpt lat="48.63285" lon="-2.43241">
        <ele>44</ele>
        <time>2014-04-14T13:30:41.1Z</time>
      </trkpt>
      <trkpt lat="48.63282" lon="-2.43246">
        <ele>44</ele>
        <time>2014-04-14T13:30:44.1Z</time>
      </trkpt>
      <trkpt lat="48.63279" lon="-2.4325">
        <ele>44</ele>
        <time>2014-04-14T13:30:47.1Z</time>
      </trkpt>
      <trkpt lat="48.63277" lon="-2.43252">
        <ele>44</ele>
        <time>2014-04-14T13:30:49.1Z</time>
      </trkpt>
      <trkpt lat="48.63276" lon="-2.43253">
        <ele>44</ele>
        <time>2014-04-14T13:30:52.1Z</time>
      </trkpt>
      <trkpt lat="48.63276" lon="-2.43254">
        <ele>44</ele>
        <time>2014-04-14T13:30:54.1Z</time>
      </trkpt>
      <trkpt lat="48.63274" lon="-2.43255">
        <ele>44</ele>
        <time>2014-04-14T13:30:57.1Z</time>
      </trkpt>
      <trkpt lat="48.63272" lon="-2.43258">
        <ele>44</ele>
        <time>2014-04-14T13:31:00.1Z</time>
      </trkpt>
      <trkpt lat="48.6327" lon="-2.43262">
        <ele>44</ele>
        <time>2014-04-14T13:31:03.1Z</time>
      </trkpt>
      <trkpt lat="48.63269" lon="-2.43265">
        <ele>44</ele>
        <time>2014-04-14T13:31:05.1Z</time>
      </trkpt>
      <trkpt lat="48.63267" lon="-2.43268">
        <ele>45</ele>
        <time>2014-04-14T13:31:07.1Z</time>
      </trkpt>
      <trkpt lat="48.63265" lon="-2.43271">
        <ele>45</ele>
        <time>2014-04-14T13:31:10.1Z</time>
      </trkpt>
      <trkpt lat="48.63263" lon="-2.43276">
        <ele>45</ele>
        <time>2014-04-14T13:31:13.1Z</time>
      </trkpt>
      <trkpt lat="48.63263" lon="-2.43279">
        <ele>45</ele>
        <time>2014-04-14T13:31:15.1Z</time>
      </trkpt>
      <trkpt lat="48.63261" lon="-2.43284">
        <ele>45</ele>
        <time>2014-04-14T13:31:18.1Z</time>
      </trkpt>
      <trkpt lat="48.6326" lon="-2.43288">
        <ele>46</ele>
        <time>2014-04-14T13:31:21.1Z</time>
      </trkpt>
      <trkpt lat="48.63258" lon="-2.4329">
        <ele>46</ele>
        <time>2014-04-14T13:31:23.1Z</time>
      </trkpt>
      <trkpt lat="48.63257" lon="-2.43294">
        <ele>45</ele>
        <time>2014-04-14T13:31:26.1Z</time>
      </trkpt>
      <trkpt lat="48.63256" lon="-2.43297">
        <ele>45</ele>
        <time>2014-04-14T13:31:28.1Z</time>
      </trkpt>
      <trkpt lat="48.63255" lon="-2.43301">
        <ele>46</ele>
        <time>2014-04-14T13:31:31.1Z</time>
      </trkpt>
      <trkpt lat="48.63253" lon="-2.43306">
        <ele>46</ele>
        <time>2014-04-14T13:31:34.1Z</time>
      </trkpt>
      <trkpt lat="48.63252" lon="-2.43309">
        <ele>46</ele>
        <time>2014-04-14T13:31:36.1Z</time>
      </trkpt>
      <trkpt lat="48.6325" lon="-2.43314">
        <ele>46</ele>
        <time>2014-04-14T13:31:39.1Z</time>
      </trkpt>
      <trkpt lat="48.63249" lon="-2.43317">
        <ele>46</ele>
        <time>2014-04-14T13:31:41.1Z</time>
      </trkpt>
      <trkpt lat="48.63248" lon="-2.43321">
        <ele>46</ele>
        <time>2014-04-14T13:31:44.1Z</time>
      </trkpt>
      <trkpt lat="48.63247" lon="-2.43326">
        <ele>46</ele>
        <time>2014-04-14T13:31:47.1Z</time>
      </trkpt>
      <trkpt lat="48.63246" lon="-2.4333">
        <ele>46</ele>
        <time>2014-04-14T13:31:49.1Z</time>
      </trkpt>
      <trkpt lat="48.63246" lon="-2.43335">
        <ele>46</ele>
        <time>2014-04-14T13:31:52.1Z</time>
      </trkpt>
      <trkpt lat="48.63246" lon="-2.43338">
        <ele>46</ele>
        <time>2014-04-14T13:31:54.1Z</time>
      </trkpt>
      <trkpt lat="48.63247" lon="-2.43342">
        <ele>46</ele>
        <time>2014-04-14T13:31:57.1Z</time>
      </trkpt>
      <trkpt lat="48.63247" lon="-2.43345">
        <ele>46</ele>
        <time>2014-04-14T13:32:00.1Z</time>
      </trkpt>
      <trkpt lat="48.63246" lon="-2.43346">
        <ele>47</ele>
        <time>2014-04-14T13:32:03.1Z</time>
      </trkpt>
      <trkpt lat="48.63246" lon="-2.43347">
        <ele>47</ele>
        <time>2014-04-14T13:32:06.1Z</time>
      </trkpt>
      <trkpt lat="48.63246" lon="-2.43347">
        <ele>47</ele>
        <time>2014-04-14T13:32:09.1Z</time>
      </trkpt>
      <trkpt lat="48.63246" lon="-2.43346">
        <ele>46</ele>
        <time>2014-04-14T13:32:11.1Z</time>
      </trkpt>
      <trkpt lat="48.63246" lon="-2.43347">
        <ele>46</ele>
        <time>2014-04-14T13:32:14.1Z</time>
      </trkpt>
      <trkpt lat="48.63245" lon="-2.43347">
        <ele>46</ele>
        <time>2014-04-14T13:32:16.1Z</time>
      </trkpt>
      <trkpt lat="48.63246" lon="-2.43346">
        <ele>46</ele>
        <time>2014-04-14T13:32:19.1Z</time>
      </trkpt>
      <trkpt lat="48.63247" lon="-2.43345">
        <ele>47</ele>
        <time>2014-04-14T13:32:22.1Z</time>
      </trkpt>
      <trkpt lat="48.63247" lon="-2.43344">
        <ele>47</ele>
        <time>2014-04-14T13:32:24.1Z</time>
      </trkpt>
      <trkpt lat="48.63247" lon="-2.43344">
        <ele>47</ele>
        <time>2014-04-14T13:32:26.1Z</time>
      </trkpt>
      <trkpt lat="48.63247" lon="-2.43344">
        <ele>46</ele>
        <time>2014-04-14T13:32:29.1Z</time>
      </trkpt>
      <trkpt lat="48.63248" lon="-2.43345">
        <ele>46</ele>
        <time>2014-04-14T13:32:32.1Z</time>
      </trkpt>
      <trkpt lat="48.63248" lon="-2.43346">
        <ele>47</ele>
        <time>2014-04-14T13:32:35.1Z</time>
      </trkpt>
      <trkpt lat="48.63248" lon="-2.43346">
        <ele>47</ele>
        <time>2014-04-14T13:32:38.1Z</time>
      </trkpt>
      <trkpt lat="48.63248" lon="-2.43345">
        <ele>47</ele>
        <time>2014-04-14T13:32:40.1Z</time>
      </trkpt>
      <trkpt lat="48.63247" lon="-2.43349">
        <ele>47</ele>
        <time>2014-04-14T13:32:43.1Z</time>
      </trkpt>
      <trkpt lat="48.63246" lon="-2.4335">
        <ele>47</ele>
        <time>2014-04-14T13:32:45.1Z</time>
      </trkpt>
      <trkpt lat="48.63248" lon="-2.43353">
        <ele>47</ele>
        <time>2014-04-14T13:32:48.1Z</time>
      </trkpt>
      <trkpt lat="48.63251" lon="-2.43353">
        <ele>48</ele>
        <time>2014-04-14T13:32:51.1Z</time>
      </trkpt>
      <trkpt lat="48.63252" lon="-2.43353">
        <ele>47</ele>
        <time>2014-04-14T13:32:54.1Z</time>
      </trkpt>
      <trkpt lat="48.63253" lon="-2.43353">
        <ele>48</ele>
        <time>2014-04-14T13:32:57.1Z</time>
      </trkpt>
      <trkpt lat="48.63254" lon="-2.43354">
        <ele>47</ele>
        <time>2014-04-14T13:32:59.1Z</time>
      </trkpt>
      <trkpt lat="48.63255" lon="-2.43354">
        <ele>47</ele>
        <time>2014-04-14T13:33:01.1Z</time>
      </trkpt>
      <trkpt lat="48.63259" lon="-2.43355">
        <ele>48</ele>
        <time>2014-04-14T13:33:04.1Z</time>
      </trkpt>
      <trkpt lat="48.63263" lon="-2.43355">
        <ele>48</ele>
        <time>2014-04-14T13:33:07.1Z</time>
      </trkpt>
      <trkpt lat="48.63266" lon="-2.43355">
        <ele>48</ele>
        <time>2014-04-14T13:33:10.1Z</time>
      </trkpt>
      <trkpt lat="48.63269" lon="-2.43356">
        <ele>47</ele>
        <time>2014-04-14T13:33:12.1Z</time>
      </trkpt>
      <trkpt lat="48.63272" lon="-2.43357">
        <ele>47</ele>
        <time>2014-04-14T13:33:15.1Z</time>
      </trkpt>
      <trkpt lat="48.63275" lon="-2.43357">
        <ele>47</ele>
        <time>2014-04-14T13:33:17.1Z</time>
      </trkpt>
      <trkpt lat="48.63277" lon="-2.43358">
        <ele>47</ele>
        <time>2014-04-14T13:33:19.1Z</time>
      </trkpt>
      <trkpt lat="48.6328" lon="-2.43358">
        <ele>47</ele>
        <time>2014-04-14T13:33:22.1Z</time>
      </trkpt>
      <trkpt lat="48.63284" lon="-2.43359">
        <ele>47</ele>
        <time>2014-04-14T13:33:25.1Z</time>
      </trkpt>
      <trkpt lat="48.63286" lon="-2.4336">
        <ele>47</ele>
        <time>2014-04-14T13:33:27.1Z</time>
      </trkpt>
      <trkpt lat="48.63289" lon="-2.43362">
        <ele>47</ele>
        <time>2014-04-14T13:33:30.1Z</time>
      </trkpt>
      <trkpt lat="48.63292" lon="-2.43363">
        <ele>47</ele>
        <time>2014-04-14T13:33:33.1Z</time>
      </trkpt>
      <trkpt lat="48.63296" lon="-2.43365">
        <ele>47</ele>
        <time>2014-04-14T13:33:36.1Z</time>
      </trkpt>
      <trkpt lat="48.63298" lon="-2.43366">
        <ele>47</ele>
        <time>2014-04-14T13:33:38.1Z</time>
      </trkpt>
      <trkpt lat="48.63301" lon="-2.43368">
        <ele>47</ele>
        <time>2014-04-14T13:33:41.1Z</time>
      </trkpt>
      <trkpt lat="48.63303" lon="-2.43369">
        <ele>47</ele>
        <time>2014-04-14T13:33:43.1Z</time>
      </trkpt>
      <trkpt lat="48.63306" lon="-2.43371">
        <ele>48</ele>
        <time>2014-04-14T13:33:46.1Z</time>
      </trkpt>
      <trkpt lat="48.63308" lon="-2.43372">
        <ele>48</ele>
        <time>2014-04-14T13:33:48.1Z</time>
      </trkpt>
      <trkpt lat="48.6331" lon="-2.43373">
        <ele>48</ele>
        <time>2014-04-14T13:33:50.1Z</time>
      </trkpt>
      <trkpt lat="48.63313" lon="-2.43376">
        <ele>48</ele>
        <time>2014-04-14T13:33:53.1Z</time>
      </trkpt>
      <trkpt lat="48.63315" lon="-2.43377">
        <ele>47</ele>
        <time>2014-04-14T13:33:55.1Z</time>
      </trkpt>
      <trkpt lat="48.63318" lon="-2.4338">
        <ele>47</ele>
        <time>2014-04-14T13:33:58.1Z</time>
      </trkpt>
      <trkpt lat="48.63321" lon="-2.43383">
        <ele>48</ele>
        <time>2014-04-14T13:34:01.1Z</time>
      </trkpt>
      <trkpt lat="48.63323" lon="-2.43385">
        <ele>48</ele>
        <time>2014-04-14T13:34:03.1Z</time>
      </trkpt>
      <trkpt lat="48.63326" lon="-2.43388">
        <ele>48</ele>
        <time>2014-04-14T13:34:06.1Z</time>
      </trkpt>
      <trkpt lat="48.63328" lon="-2.4339">
        <ele>48</ele>
        <time>2014-04-14T13:34:08.1Z</time>
      </trkpt>
      <trkpt lat="48.6333" lon="-2.43393">
        <ele>48</ele>
        <time>2014-04-14T13:34:11.1Z</time>
      </trkpt>
      <trkpt lat="48.63332" lon="-2.43395">
        <ele>48</ele>
        <time>2014-04-14T13:34:13.1Z</time>
      </trkpt>
      <trkpt lat="48.63333" lon="-2.43396">
        <ele>48</ele>
        <time>2014-04-14T13:34:15.1Z</time>
      </trkpt>
      <trkpt lat="48.63335" lon="-2.43399">
        <ele>48</ele>
        <time>2014-04-14T13:34:18.1Z</time>
      </trkpt>
      <trkpt lat="48.63336" lon="-2.43401">
        <ele>48</ele>
        <time>2014-04-14T13:34:20.1Z</time>
      </trkpt>
      <trkpt lat="48.63337" lon="-2.43403">
        <ele>48</ele>
        <time>2014-04-14T13:34:22.1Z</time>
      </trkpt>
      <trkpt lat="48.6334" lon="-2.43406">
        <ele>49</ele>
        <time>2014-04-14T13:34:25.1Z</time>
      </trkpt>
      <trkpt lat="48.63341" lon="-2.43409">
        <ele>48</ele>
        <time>2014-04-14T13:34:27.1Z</time>
      </trkpt>
      <trkpt lat="48.63343" lon="-2.43411">
        <ele>48</ele>
        <time>2014-04-14T13:34:29.1Z</time>
      </trkpt>
      <trkpt lat="48.63345" lon="-2.43414">
        <ele>48</ele>
        <time>2014-04-14T13:34:32.1Z</time>
      </trkpt>
      <trkpt lat="48.63348" lon="-2.43418">
        <ele>48</ele>
        <time>2014-04-14T13:34:35.1Z</time>
      </trkpt>
      <trkpt lat="48.63351" lon="-2.43421">
        <ele>49</ele>
        <time>2014-04-14T13:34:38.1Z</time>
      </trkpt>
      <trkpt lat="48.63353" lon="-2.43424">
        <ele>49</ele>
        <time>2014-04-14T13:34:40.1Z</time>
      </trkpt>
      <trkpt lat="48.63355" lon="-2.43426">
        <ele>49</ele>
        <time>2014-04-14T13:34:42.1Z</time>
      </trkpt>
      <trkpt lat="48.63358" lon="-2.4343">
        <ele>49</ele>
        <time>2014-04-14T13:34:45.1Z</time>
      </trkpt>
      <trkpt lat="48.63359" lon="-2.43432">
        <ele>49</ele>
        <time>2014-04-14T13:34:47.1Z</time>
      </trkpt>
      <trkpt lat="48.63362" lon="-2.43436">
        <ele>48</ele>
        <time>2014-04-14T13:34:50.1Z</time>
      </trkpt>
      <trkpt lat="48.63364" lon="-2.43438">
        <ele>48</ele>
        <time>2014-04-14T13:34:52.1Z</time>
      </trkpt>
      <trkpt lat="48.63365" lon="-2.4344">
        <ele>48</ele>
        <time>2014-04-14T13:34:54.1Z</time>
      </trkpt>
      <trkpt lat="48.63366" lon="-2.43442">
        <ele>49</ele>
        <time>2014-04-14T13:34:56.1Z</time>
      </trkpt>
      <trkpt lat="48.63368" lon="-2.43446">
        <ele>48</ele>
        <time>2014-04-14T13:34:59.1Z</time>
      </trkpt>
      <trkpt lat="48.6337" lon="-2.43449">
        <ele>48</ele>
        <time>2014-04-14T13:35:02.1Z</time>
      </trkpt>
      <trkpt lat="48.63372" lon="-2.4345">
        <ele>48</ele>
        <time>2014-04-14T13:35:04.1Z</time>
      </trkpt>
      <trkpt lat="48.63375" lon="-2.4345">
        <ele>47</ele>
        <time>2014-04-14T13:35:07.1Z</time>
      </trkpt>
      <trkpt lat="48.63378" lon="-2.43447">
        <ele>47</ele>
        <time>2014-04-14T13:35:10.1Z</time>
      </trkpt>
      <trkpt lat="48.63378" lon="-2.43442">
        <ele>47</ele>
        <time>2014-04-14T13:35:13.1Z</time>
      </trkpt>
      <trkpt lat="48.63379" lon="-2.43439">
        <ele>47</ele>
        <time>2014-04-14T13:35:15.1Z</time>
      </trkpt>
      <trkpt lat="48.6338" lon="-2.43434">
        <ele>47</ele>
        <time>2014-04-14T13:35:18.1Z</time>
      </trkpt>
      <trkpt lat="48.6338" lon="-2.43431">
        <ele>46</ele>
        <time>2014-04-14T13:35:20.1Z</time>
      </trkpt>
      <trkpt lat="48.63379" lon="-2.43426">
        <ele>46</ele>
        <time>2014-04-14T13:35:23.1Z</time>
      </trkpt>
      <trkpt lat="48.63379" lon="-2.43422">
        <ele>46</ele>
        <time>2014-04-14T13:35:26.1Z</time>
      </trkpt>
      <trkpt lat="48.63379" lon="-2.4342">
        <ele>46</ele>
        <time>2014-04-14T13:35:28.1Z</time>
      </trkpt>
      <trkpt lat="48.6338" lon="-2.43417">
        <ele>46</ele>
        <time>2014-04-14T13:35:31.1Z</time>
      </trkpt>
      <trkpt lat="48.63379" lon="-2.43414">
        <ele>46</ele>
        <time>2014-04-14T13:35:33.1Z</time>
      </trkpt>
      <trkpt lat="48.63379" lon="-2.4341">
        <ele>45</ele>
        <time>2014-04-14T13:35:36.1Z</time>
      </trkpt>
      <trkpt lat="48.63379" lon="-2.43408">
        <ele>45</ele>
        <time>2014-04-14T13:35:38.1Z</time>
      </trkpt>
      <trkpt lat="48.63379" lon="-2.43404">
        <ele>45</ele>
        <time>2014-04-14T13:35:41.1Z</time>
      </trkpt>
      <trkpt lat="48.63378" lon="-2.43403">
        <ele>44</ele>
        <time>2014-04-14T13:35:43.1Z</time>
      </trkpt>
      <trkpt lat="48.63378" lon="-2.43399">
        <ele>44</ele>
        <time>2014-04-14T13:35:46.1Z</time>
      </trkpt>
      <trkpt lat="48.63377" lon="-2.43395">
        <ele>45</ele>
        <time>2014-04-14T13:35:49.1Z</time>
      </trkpt>
      <trkpt lat="48.63376" lon="-2.43392">
        <ele>45</ele>
        <time>2014-04-14T13:35:51.1Z</time>
      </trkpt>
      <trkpt lat="48.63375" lon="-2.43388">
        <ele>45</ele>
        <time>2014-04-14T13:35:54.1Z</time>
      </trkpt>
      <trkpt lat="48.63375" lon="-2.43384">
        <ele>45</ele>
        <time>2014-04-14T13:35:57.1Z</time>
      </trkpt>
      <trkpt lat="48.63374" lon="-2.4338">
        <ele>45</ele>
        <time>2014-04-14T13:36:00.1Z</time>
      </trkpt>
      <trkpt lat="48.63374" lon="-2.43377">
        <ele>45</ele>
        <time>2014-04-14T13:36:02.1Z</time>
      </trkpt>
      <trkpt lat="48.63372" lon="-2.43374">
        <ele>45</ele>
        <time>2014-04-14T13:36:05.1Z</time>
      </trkpt>
      <trkpt lat="48.63371" lon="-2.43372">
        <ele>45</ele>
        <time>2014-04-14T13:36:07.1Z</time>
      </trkpt>
      <trkpt lat="48.6337" lon="-2.43369">
        <ele>45</ele>
        <time>2014-04-14T13:36:10.1Z</time>
      </trkpt>
      <trkpt lat="48.63369" lon="-2.43367">
        <ele>44</ele>
        <time>2014-04-14T13:36:12.1Z</time>
      </trkpt>
      <trkpt lat="48.63369" lon="-2.43365">
        <ele>45</ele>
        <time>2014-04-14T13:36:14.1Z</time>
      </trkpt>
      <trkpt lat="48.63367" lon="-2.43362">
        <ele>45</ele>
        <time>2014-04-14T13:36:17.1Z</time>
      </trkpt>
      <trkpt lat="48.63367" lon="-2.43359">
        <ele>45</ele>
        <time>2014-04-14T13:36:20.1Z</time>
      </trkpt>
      <trkpt lat="48.63366" lon="-2.43357">
        <ele>45</ele>
        <time>2014-04-14T13:36:22.1Z</time>
      </trkpt>
      <trkpt lat="48.63366" lon="-2.43355">
        <ele>45</ele>
        <time>2014-04-14T13:36:25.1Z</time>
      </trkpt>
      <trkpt lat="48.63365" lon="-2.43351">
        <ele>45</ele>
        <time>2014-04-14T13:36:28.1Z</time>
      </trkpt>
      <trkpt lat="48.63365" lon="-2.43349">
        <ele>46</ele>
        <time>2014-04-14T13:36:30.1Z</time>
      </trkpt>
      <trkpt lat="48.63365" lon="-2.43344">
        <ele>46</ele>
        <time>2014-04-14T13:36:33.1Z</time>
      </trkpt>
      <trkpt lat="48.63365" lon="-2.43341">
        <ele>46</ele>
        <time>2014-04-14T13:36:35.1Z</time>
      </trkpt>
      <trkpt lat="48.63365" lon="-2.43337">
        <ele>46</ele>
        <time>2014-04-14T13:36:38.1Z</time>
      </trkpt>
      <trkpt lat="48.63364" lon="-2.43333">
        <ele>46</ele>
        <time>2014-04-14T13:36:41.1Z</time>
      </trkpt>
      <trkpt lat="48.63364" lon="-2.43331">
        <ele>46</ele>
        <time>2014-04-14T13:36:43.1Z</time>
      </trkpt>
      <trkpt lat="48.63364" lon="-2.43328">
        <ele>46</ele>
        <time>2014-04-14T13:36:45.1Z</time>
      </trkpt>
      <trkpt lat="48.63364" lon="-2.43323">
        <ele>45</ele>
        <time>2014-04-14T13:36:48.1Z</time>
      </trkpt>
      <trkpt lat="48.63363" lon="-2.4332">
        <ele>45</ele>
        <time>2014-04-14T13:36:50.1Z</time>
      </trkpt>
      <trkpt lat="48.63363" lon="-2.43317">
        <ele>45</ele>
        <time>2014-04-14T13:36:52.1Z</time>
      </trkpt>
      <trkpt lat="48.63362" lon="-2.43312">
        <ele>45</ele>
        <time>2014-04-14T13:36:55.1Z</time>
      </trkpt>
      <trkpt lat="48.63362" lon="-2.43307">
        <ele>44</ele>
        <time>2014-04-14T13:36:58.1Z</time>
      </trkpt>
      <trkpt lat="48.63362" lon="-2.43302">
        <ele>44</ele>
        <time>2014-04-14T13:37:01.1Z</time>
      </trkpt>
      <trkpt lat="48.63361" lon="-2.43298">
        <ele>44</ele>
        <time>2014-04-14T13:37:04.1Z</time>
      </trkpt>
      <trkpt lat="48.63361" lon="-2.43294">
        <ele>44</ele>
        <time>2014-04-14T13:37:07.1Z</time>
      </trkpt>
      <trkpt lat="48.63361" lon="-2.43291">
        <ele>44</ele>
        <time>2014-04-14T13:37:09.1Z</time>
      </trkpt>
      <trkpt lat="48.63361" lon="-2.43288">
        <ele>44</ele>
        <time>2014-04-14T13:37:11.1Z</time>
      </trkpt>
      <trkpt lat="48.63361" lon="-2.43283">
        <ele>43</ele>
        <time>2014-04-14T13:37:14.1Z</time>
      </trkpt>
      <trkpt lat="48.63361" lon="-2.4328">
        <ele>43</ele>
        <time>2014-04-14T13:37:16.1Z</time>
      </trkpt>
      <trkpt lat="48.6336" lon="-2.43275">
        <ele>43</ele>
        <time>2014-04-14T13:37:19.1Z</time>
      </trkpt>
      <trkpt lat="48.63358" lon="-2.4327">
        <ele>42</ele>
        <time>2014-04-14T13:37:22.1Z</time>
      </trkpt>
      <trkpt lat="48.63357" lon="-2.43267">
        <ele>42</ele>
        <time>2014-04-14T13:37:25.1Z</time>
      </trkpt>
      <trkpt lat="48.63356" lon="-2.43266">
        <ele>43</ele>
        <time>2014-04-14T13:37:27.1Z</time>
      </trkpt>
      <trkpt lat="48.63356" lon="-2.43264">
        <ele>43</ele>
        <time>2014-04-14T13:37:29.1Z</time>
      </trkpt>
      <trkpt lat="48.63355" lon="-2.4326">
        <ele>42</ele>
        <time>2014-04-14T13:37:32.1Z</time>
      </trkpt>
      <trkpt lat="48.63354" lon="-2.43258">
        <ele>43</ele>
        <time>2014-04-14T13:37:34.1Z</time>
      </trkpt>
      <trkpt lat="48.63353" lon="-2.43253">
        <ele>42</ele>
        <time>2014-04-14T13:37:37.1Z</time>
      </trkpt>
      <trkpt lat="48.63352" lon="-2.4325">
        <ele>43</ele>
        <time>2014-04-14T13:37:39.1Z</time>
      </trkpt>
      <trkpt lat="48.63351" lon="-2.43246">
        <ele>42</ele>
        <time>2014-04-14T13:37:42.1Z</time>
      </trkpt>
      <trkpt lat="48.6335" lon="-2.43242">
        <ele>42</ele>
        <time>2014-04-14T13:37:45.1Z</time>
      </trkpt>
      <trkpt lat="48.6335" lon="-2.43237">
        <ele>42</ele>
        <time>2014-04-14T13:37:48.1Z</time>
      </trkpt>
      <trkpt lat="48.6335" lon="-2.43233">
        <ele>42</ele>
        <time>2014-04-14T13:37:50.1Z</time>
      </trkpt>
      <trkpt lat="48.6335" lon="-2.4323">
        <ele>41</ele>
        <time>2014-04-14T13:37:52.1Z</time>
      </trkpt>
      <trkpt lat="48.63351" lon="-2.43225">
        <ele>41</ele>
        <time>2014-04-14T13:37:55.1Z</time>
      </trkpt>
      <trkpt lat="48.63353" lon="-2.4322">
        <ele>41</ele>
        <time>2014-04-14T13:37:58.1Z</time>
      </trkpt>
      <trkpt lat="48.63355" lon="-2.43215">
        <ele>41</ele>
        <time>2014-04-14T13:38:01.1Z</time>
      </trkpt>
      <trkpt lat="48.63356" lon="-2.43212">
        <ele>41</ele>
        <time>2014-04-14T13:38:03.1Z</time>
      </trkpt>
      <trkpt lat="48.63358" lon="-2.43208">
        <ele>40</ele>
        <time>2014-04-14T13:38:05.1Z</time>
      </trkpt>
      <trkpt lat="48.6336" lon="-2.43204">
        <ele>40</ele>
        <time>2014-04-14T13:38:07.1Z</time>
      </trkpt>
      <trkpt lat="48.63362" lon="-2.432">
        <ele>40</ele>
        <time>2014-04-14T13:38:10.1Z</time>
      </trkpt>
      <trkpt lat="48.63364" lon="-2.43195">
        <ele>40</ele>
        <time>2014-04-14T13:38:13.1Z</time>
      </trkpt>
      <trkpt lat="48.63365" lon="-2.43193">
        <ele>40</ele>
        <time>2014-04-14T13:38:15.1Z</time>
      </trkpt>
      <trkpt lat="48.63366" lon="-2.4319">
        <ele>40</ele>
        <time>2014-04-14T13:38:17.1Z</time>
      </trkpt>
      <trkpt lat="48.63367" lon="-2.43185">
        <ele>39</ele>
        <time>2014-04-14T13:38:20.1Z</time>
      </trkpt>
      <trkpt lat="48.63369" lon="-2.43181">
        <ele>39</ele>
        <time>2014-04-14T13:38:23.1Z</time>
      </trkpt>
      <trkpt lat="48.63371" lon="-2.43177">
        <ele>39</ele>
        <time>2014-04-14T13:38:26.1Z</time>
      </trkpt>
      <trkpt lat="48.63372" lon="-2.43173">
        <ele>39</ele>
        <time>2014-04-14T13:38:28.1Z</time>
      </trkpt>
      <trkpt lat="48.63373" lon="-2.43171">
        <ele>39</ele>
        <time>2014-04-14T13:38:30.1Z</time>
      </trkpt>
      <trkpt lat="48.63374" lon="-2.43167">
        <ele>38</ele>
        <time>2014-04-14T13:38:33.1Z</time>
      </trkpt>
      <trkpt lat="48.63374" lon="-2.43163">
        <ele>38</ele>
        <time>2014-04-14T13:38:36.1Z</time>
      </trkpt>
      <trkpt lat="48.63374" lon="-2.43161">
        <ele>38</ele>
        <time>2014-04-14T13:38:38.1Z</time>
      </trkpt>
      <trkpt lat="48.63374" lon="-2.43159">
        <ele>38</ele>
        <time>2014-04-14T13:38:40.1Z</time>
      </trkpt>
      <trkpt lat="48.63374" lon="-2.43155">
        <ele>38</ele>
        <time>2014-04-14T13:38:43.1Z</time>
      </trkpt>
      <trkpt lat="48.63374" lon="-2.43152">
        <ele>38</ele>
        <time>2014-04-14T13:38:45.1Z</time>
      </trkpt>
      <trkpt lat="48.63373" lon="-2.4315">
        <ele>38</ele>
        <time>2014-04-14T13:38:47.1Z</time>
      </trkpt>
      <trkpt lat="48.63374" lon="-2.43146">
        <ele>38</ele>
        <time>2014-04-14T13:38:50.1Z</time>
      </trkpt>
      <trkpt lat="48.63373" lon="-2.43143">
        <ele>38</ele>
        <time>2014-04-14T13:38:53.1Z</time>
      </trkpt>
      <trkpt lat="48.63374" lon="-2.43139">
        <ele>37</ele>
        <time>2014-04-14T13:38:56.1Z</time>
      </trkpt>
      <trkpt lat="48.63374" lon="-2.43136">
        <ele>37</ele>
        <time>2014-04-14T13:38:58.1Z</time>
      </trkpt>
      <trkpt lat="48.63375" lon="-2.43132">
        <ele>37</ele>
        <time>2014-04-14T13:39:01.1Z</time>
      </trkpt>
      <trkpt lat="48.63377" lon="-2.43129">
        <ele>37</ele>
        <time>2014-04-14T13:39:04.1Z</time>
      </trkpt>
      <trkpt lat="48.63377" lon="-2.43128">
        <ele>37</ele>
        <time>2014-04-14T13:39:06.1Z</time>
      </trkpt>
      <trkpt lat="48.63378" lon="-2.43124">
        <ele>37</ele>
        <time>2014-04-14T13:39:09.1Z</time>
      </trkpt>
      <trkpt lat="48.63379" lon="-2.43122">
        <ele>37</ele>
        <time>2014-04-14T13:39:11.1Z</time>
      </trkpt>
      <trkpt lat="48.63379" lon="-2.43119">
        <ele>37</ele>
        <time>2014-04-14T13:39:14.1Z</time>
      </trkpt>
      <trkpt lat="48.63381" lon="-2.43115">
        <ele>37</ele>
        <time>2014-04-14T13:39:17.1Z</time>
      </trkpt>
      <trkpt lat="48.63381" lon="-2.43112">
        <ele>37</ele>
        <time>2014-04-14T13:39:20.1Z</time>
      </trkpt>
      <trkpt lat="48.63381" lon="-2.43109">
        <ele>37</ele>
        <time>2014-04-14T13:39:22.1Z</time>
      </trkpt>
      <trkpt lat="48.63382" lon="-2.43105">
        <ele>37</ele>
        <time>2014-04-14T13:39:25.1Z</time>
      </trkpt>
      <trkpt lat="48.63385" lon="-2.431">
        <ele>38</ele>
        <time>2014-04-14T13:39:28.1Z</time>
      </trkpt>
      <trkpt lat="48.63385" lon="-2.43097">
        <ele>38</ele>
        <time>2014-04-14T13:39:30.1Z</time>
      </trkpt>
      <trkpt lat="48.63387" lon="-2.43092">
        <ele>37</ele>
        <time>2014-04-14T13:39:33.1Z</time>
      </trkpt>
      <trkpt lat="48.63388" lon="-2.43089">
        <ele>37</ele>
        <time>2014-04-14T13:39:35.1Z</time>
      </trkpt>
      <trkpt lat="48.63388" lon="-2.43085">
        <ele>37</ele>
        <time>2014-04-14T13:39:38.1Z</time>
      </trkpt>
      <trkpt lat="48.63388" lon="-2.43082">
        <ele>37</ele>
        <time>2014-04-14T13:39:40.1Z</time>
      </trkpt>
      <trkpt lat="48.63388" lon="-2.43079">
        <ele>37</ele>
        <time>2014-04-14T13:39:43.1Z</time>
      </trkpt>
      <trkpt lat="48.63387" lon="-2.43077">
        <ele>36</ele>
        <time>2014-04-14T13:39:45.1Z</time>
      </trkpt>
      <trkpt lat="48.63387" lon="-2.43074">
        <ele>36</ele>
        <time>2014-04-14T13:39:47.1Z</time>
      </trkpt>
      <trkpt lat="48.63387" lon="-2.4307">
        <ele>36</ele>
        <time>2014-04-14T13:39:50.1Z</time>
      </trkpt>
      <trkpt lat="48.63386" lon="-2.43065">
        <ele>36</ele>
        <time>2014-04-14T13:39:53.1Z</time>
      </trkpt>
      <trkpt lat="48.63387" lon="-2.43062">
        <ele>36</ele>
        <time>2014-04-14T13:39:55.1Z</time>
      </trkpt>
      <trkpt lat="48.63387" lon="-2.43059">
        <ele>37</ele>
        <time>2014-04-14T13:39:57.1Z</time>
      </trkpt>
      <trkpt lat="48.63385" lon="-2.43056">
        <ele>36</ele>
        <time>2014-04-14T13:40:00.1Z</time>
      </trkpt>
      <trkpt lat="48.63385" lon="-2.43051">
        <ele>36</ele>
        <time>2014-04-14T13:40:03.1Z</time>
      </trkpt>
      <trkpt lat="48.63385" lon="-2.43047">
        <ele>36</ele>
        <time>2014-04-14T13:40:05.1Z</time>
      </trkpt>
      <trkpt lat="48.63386" lon="-2.43043">
        <ele>35</ele>
        <time>2014-04-14T13:40:08.1Z</time>
      </trkpt>
      <trkpt lat="48.63386" lon="-2.43039">
        <ele>35</ele>
        <time>2014-04-14T13:40:10.1Z</time>
      </trkpt>
      <trkpt lat="48.63386" lon="-2.43035">
        <ele>35</ele>
        <time>2014-04-14T13:40:13.1Z</time>
      </trkpt>
      <trkpt lat="48.63386" lon="-2.43031">
        <ele>35</ele>
        <time>2014-04-14T13:40:15.1Z</time>
      </trkpt>
      <trkpt lat="48.63386" lon="-2.43027">
        <ele>35</ele>
        <time>2014-04-14T13:40:17.1Z</time>
      </trkpt>
      <trkpt lat="48.63385" lon="-2.43022">
        <ele>35</ele>
        <time>2014-04-14T13:40:20.1Z</time>
      </trkpt>
      <trkpt lat="48.63384" lon="-2.43018">
        <ele>35</ele>
        <time>2014-04-14T13:40:23.1Z</time>
      </trkpt>
      <trkpt lat="48.63383" lon="-2.43014">
        <ele>34</ele>
        <time>2014-04-14T13:40:26.1Z</time>
      </trkpt>
      <trkpt lat="48.63382" lon="-2.43011">
        <ele>34</ele>
        <time>2014-04-14T13:40:29.1Z</time>
      </trkpt>
      <trkpt lat="48.63382" lon="-2.43006">
        <ele>34</ele>
        <time>2014-04-14T13:40:32.1Z</time>
      </trkpt>
      <trkpt lat="48.6338" lon="-2.43004">
        <ele>34</ele>
        <time>2014-04-14T13:40:35.1Z</time>
      </trkpt>
      <trkpt lat="48.6338" lon="-2.43002">
        <ele>35</ele>
        <time>2014-04-14T13:40:37.1Z</time>
      </trkpt>
      <trkpt lat="48.6338" lon="-2.43001">
        <ele>35</ele>
        <time>2014-04-14T13:40:40.1Z</time>
      </trkpt>
      <trkpt lat="48.63379" lon="-2.42999">
        <ele>34</ele>
        <time>2014-04-14T13:40:42.1Z</time>
      </trkpt>
      <trkpt lat="48.63377" lon="-2.42995">
        <ele>34</ele>
        <time>2014-04-14T13:40:45.1Z</time>
      </trkpt>
      <trkpt lat="48.63375" lon="-2.4299">
        <ele>34</ele>
        <time>2014-04-14T13:40:48.1Z</time>
      </trkpt>
      <trkpt lat="48.63373" lon="-2.42987">
        <ele>34</ele>
        <time>2014-04-14T13:40:50.1Z</time>
      </trkpt>
      <trkpt lat="48.63372" lon="-2.42983">
        <ele>34</ele>
        <time>2014-04-14T13:40:53.1Z</time>
      </trkpt>
      <trkpt lat="48.63372" lon="-2.4298">
        <ele>34</ele>
        <time>2014-04-14T13:40:55.1Z</time>
      </trkpt>
      <trkpt lat="48.6337" lon="-2.42977">
        <ele>34</ele>
        <time>2014-04-14T13:40:57.1Z</time>
      </trkpt>
      <trkpt lat="48.63367" lon="-2.42973">
        <ele>33</ele>
        <time>2014-04-14T13:41:00.1Z</time>
      </trkpt>
      <trkpt lat="48.63366" lon="-2.42969">
        <ele>33</ele>
        <time>2014-04-14T13:41:03.1Z</time>
      </trkpt>
      <trkpt lat="48.63365" lon="-2.42966">
        <ele>33</ele>
        <time>2014-04-14T13:41:05.1Z</time>
      </trkpt>
      <trkpt lat="48.63364" lon="-2.42961">
        <ele>33</ele>
        <time>2014-04-14T13:41:08.1Z</time>
      </trkpt>
      <trkpt lat="48.63363" lon="-2.42959">
        <ele>33</ele>
        <time>2014-04-14T13:41:10.1Z</time>
      </trkpt>
      <trkpt lat="48.63361" lon="-2.42954">
        <ele>33</ele>
        <time>2014-04-14T13:41:13.1Z</time>
      </trkpt>
      <trkpt lat="48.63359" lon="-2.4295">
        <ele>33</ele>
        <time>2014-04-14T13:41:16.1Z</time>
      </trkpt>
      <trkpt lat="48.63358" lon="-2.42946">
        <ele>33</ele>
        <time>2014-04-14T13:41:19.1Z</time>
      </trkpt>
      <trkpt lat="48.63356" lon="-2.42942">
        <ele>32</ele>
        <time>2014-04-14T13:41:22.1Z</time>
      </trkpt>
      <trkpt lat="48.63356" lon="-2.42939">
        <ele>32</ele>
        <time>2014-04-14T13:41:24.1Z</time>
      </trkpt>
      <trkpt lat="48.63355" lon="-2.42936">
        <ele>32</ele>
        <time>2014-04-14T13:41:27.1Z</time>
      </trkpt>
      <trkpt lat="48.63354" lon="-2.42933">
        <ele>32</ele>
        <time>2014-04-14T13:41:29.1Z</time>
      </trkpt>
      <trkpt lat="48.63354" lon="-2.42928">
        <ele>33</ele>
        <time>2014-04-14T13:41:32.1Z</time>
      </trkpt>
      <trkpt lat="48.63354" lon="-2.42923">
        <ele>32</ele>
        <time>2014-04-14T13:41:35.1Z</time>
      </trkpt>
      <trkpt lat="48.63354" lon="-2.42919">
        <ele>32</ele>
        <time>2014-04-14T13:41:38.1Z</time>
      </trkpt>
      <trkpt lat="48.63355" lon="-2.42914">
        <ele>32</ele>
        <time>2014-04-14T13:41:41.1Z</time>
      </trkpt>
      <trkpt lat="48.63354" lon="-2.42911">
        <ele>32</ele>
        <time>2014-04-14T13:41:43.1Z</time>
      </trkpt>
      <trkpt lat="48.63353" lon="-2.42906">
        <ele>32</ele>
        <time>2014-04-14T13:41:46.1Z</time>
      </trkpt>
      <trkpt lat="48.63353" lon="-2.42902">
        <ele>32</ele>
        <time>2014-04-14T13:41:48.1Z</time>
      </trkpt>
      <trkpt lat="48.63354" lon="-2.42898">
        <ele>32</ele>
        <time>2014-04-14T13:41:50.1Z</time>
      </trkpt>
      <trkpt lat="48.63354" lon="-2.42894">
        <ele>31</ele>
        <time>2014-04-14T13:41:53.1Z</time>
      </trkpt>
      <trkpt lat="48.63354" lon="-2.42891">
        <ele>31</ele>
        <time>2014-04-14T13:41:55.1Z</time>
      </trkpt>
      <trkpt lat="48.63354" lon="-2.42887">
        <ele>31</ele>
        <time>2014-04-14T13:41:57.1Z</time>
      </trkpt>
      <trkpt lat="48.63355" lon="-2.42881">
        <ele>31</ele>
        <time>2014-04-14T13:42:00.1Z</time>
      </trkpt>
      <trkpt lat="48.63357" lon="-2.42876">
        <ele>31</ele>
        <time>2014-04-14T13:42:03.1Z</time>
      </trkpt>
      <trkpt lat="48.63359" lon="-2.42873">
        <ele>31</ele>
        <time>2014-04-14T13:42:05.1Z</time>
      </trkpt>
      <trkpt lat="48.63361" lon="-2.42867">
        <ele>31</ele>
        <time>2014-04-14T13:42:08.1Z</time>
      </trkpt>
      <trkpt lat="48.63363" lon="-2.42863">
        <ele>31</ele>
        <time>2014-04-14T13:42:11.1Z</time>
      </trkpt>
      <trkpt lat="48.63364" lon="-2.42857">
        <ele>31</ele>
        <time>2014-04-14T13:42:14.1Z</time>
      </trkpt>
      <trkpt lat="48.63365" lon="-2.42853">
        <ele>31</ele>
        <time>2014-04-14T13:42:16.1Z</time>
      </trkpt>
      <trkpt lat="48.63366" lon="-2.4285">
        <ele>31</ele>
        <time>2014-04-14T13:42:18.1Z</time>
      </trkpt>
      <trkpt lat="48.63367" lon="-2.42845">
        <ele>30</ele>
        <time>2014-04-14T13:42:21.1Z</time>
      </trkpt>
      <trkpt lat="48.63369" lon="-2.42839">
        <ele>30</ele>
        <time>2014-04-14T13:42:24.1Z</time>
      </trkpt>
      <trkpt lat="48.6337" lon="-2.42834">
        <ele>29</ele>
        <time>2014-04-14T13:42:27.1Z</time>
      </trkpt>
      <trkpt lat="48.6337" lon="-2.42829">
        <ele>29</ele>
        <time>2014-04-14T13:42:30.1Z</time>
      </trkpt>
      <trkpt lat="48.63371" lon="-2.42826">
        <ele>29</ele>
        <time>2014-04-14T13:42:32.1Z</time>
      </trkpt>
      <trkpt lat="48.63372" lon="-2.42822">
        <ele>29</ele>
        <time>2014-04-14T13:42:34.1Z</time>
      </trkpt>
      <trkpt lat="48.63374" lon="-2.42817">
        <ele>29</ele>
        <time>2014-04-14T13:42:37.1Z</time>
      </trkpt>
      <trkpt lat="48.63375" lon="-2.42811">
        <ele>28</ele>
        <time>2014-04-14T13:42:40.1Z</time>
      </trkpt>
      <trkpt lat="48.63377" lon="-2.42808">
        <ele>28</ele>
        <time>2014-04-14T13:42:42.1Z</time>
      </trkpt>
      <trkpt lat="48.63379" lon="-2.42804">
        <ele>28</ele>
        <time>2014-04-14T13:42:45.1Z</time>
      </trkpt>
      <trkpt lat="48.6338" lon="-2.428">
        <ele>28</ele>
        <time>2014-04-14T13:42:47.1Z</time>
      </trkpt>
      <trkpt lat="48.63381" lon="-2.42796">
        <ele>28</ele>
        <time>2014-04-14T13:42:50.1Z</time>
      </trkpt>
      <trkpt lat="48.63382" lon="-2.42794">
        <ele>28</ele>
        <time>2014-04-14T13:42:52.1Z</time>
      </trkpt>
      <trkpt lat="48.63385" lon="-2.42792">
        <ele>28</ele>
        <time>2014-04-14T13:42:55.1Z</time>
      </trkpt>
      <trkpt lat="48.63386" lon="-2.42791">
        <ele>28</ele>
        <time>2014-04-14T13:42:57.1Z</time>
      </trkpt>
      <trkpt lat="48.63389" lon="-2.42789">
        <ele>28</ele>
        <time>2014-04-14T13:43:00.1Z</time>
      </trkpt>
      <trkpt lat="48.6339" lon="-2.42788">
        <ele>29</ele>
        <time>2014-04-14T13:43:02.1Z</time>
      </trkpt>
      <trkpt lat="48.63391" lon="-2.42787">
        <ele>29</ele>
        <time>2014-04-14T13:43:04.1Z</time>
      </trkpt>
      <trkpt lat="48.63391" lon="-2.42787">
        <ele>30</ele>
        <time>2014-04-14T13:43:07.1Z</time>
      </trkpt>
      <trkpt lat="48.63392" lon="-2.42786">
        <ele>30</ele>
        <time>2014-04-14T13:43:09.1Z</time>
      </trkpt>
      <trkpt lat="48.63395" lon="-2.42785">
        <ele>30</ele>
        <time>2014-04-14T13:43:12.1Z</time>
      </trkpt>
      <trkpt lat="48.63398" lon="-2.42784">
        <ele>30</ele>
        <time>2014-04-14T13:43:15.1Z</time>
      </trkpt>
      <trkpt lat="48.63401" lon="-2.42784">
        <ele>29</ele>
        <time>2014-04-14T13:43:18.1Z</time>
      </trkpt>
      <trkpt lat="48.63404" lon="-2.42784">
        <ele>30</ele>
        <time>2014-04-14T13:43:21.1Z</time>
      </trkpt>
      <trkpt lat="48.63408" lon="-2.42786">
        <ele>30</ele>
        <time>2014-04-14T13:43:24.1Z</time>
      </trkpt>
      <trkpt lat="48.63412" lon="-2.42788">
        <ele>30</ele>
        <time>2014-04-14T13:43:27.1Z</time>
      </trkpt>
      <trkpt lat="48.63413" lon="-2.42789">
        <ele>30</ele>
        <time>2014-04-14T13:43:29.1Z</time>
      </trkpt>
      <trkpt lat="48.63414" lon="-2.42792">
        <ele>31</ele>
        <time>2014-04-14T13:43:32.1Z</time>
      </trkpt>
      <trkpt lat="48.63417" lon="-2.42794">
        <ele>31</ele>
        <time>2014-04-14T13:43:35.1Z</time>
      </trkpt>
      <trkpt lat="48.63416" lon="-2.42797">
        <ele>31</ele>
        <time>2014-04-14T13:43:38.1Z</time>
      </trkpt>
      <trkpt lat="48.63417" lon="-2.428">
        <ele>31</ele>
        <time>2014-04-14T13:43:41.1Z</time>
      </trkpt>
      <trkpt lat="48.63417" lon="-2.42801">
        <ele>31</ele>
        <time>2014-04-14T13:43:43.1Z</time>
      </trkpt>
      <trkpt lat="48.63417" lon="-2.42803">
        <ele>31</ele>
        <time>2014-04-14T13:43:45.1Z</time>
      </trkpt>
      <trkpt lat="48.63418" lon="-2.42806">
        <ele>31</ele>
        <time>2014-04-14T13:43:48.1Z</time>
      </trkpt>
      <trkpt lat="48.63418" lon="-2.42807">
        <ele>31</ele>
        <time>2014-04-14T13:43:51.1Z</time>
      </trkpt>
      <trkpt lat="48.6342" lon="-2.42808">
        <ele>31</ele>
        <time>2014-04-14T13:43:53.1Z</time>
      </trkpt>
      <trkpt lat="48.63422" lon="-2.42808">
        <ele>31</ele>
        <time>2014-04-14T13:43:55.1Z</time>
      </trkpt>
      <trkpt lat="48.63427" lon="-2.42808">
        <ele>31</ele>
        <time>2014-04-14T13:43:58.1Z</time>
      </trkpt>
      <trkpt lat="48.63433" lon="-2.42808">
        <ele>31</ele>
        <time>2014-04-14T13:44:01.1Z</time>
      </trkpt>
      <trkpt lat="48.63439" lon="-2.42808">
        <ele>31</ele>
        <time>2014-04-14T13:44:04.1Z</time>
      </trkpt>
      <trkpt lat="48.63445" lon="-2.42807">
        <ele>31</ele>
        <time>2014-04-14T13:44:07.1Z</time>
      </trkpt>
      <trkpt lat="48.63448" lon="-2.42806">
        <ele>32</ele>
        <time>2014-04-14T13:44:09.1Z</time>
      </trkpt>
      <trkpt lat="48.63452" lon="-2.42805">
        <ele>32</ele>
        <time>2014-04-14T13:44:11.1Z</time>
      </trkpt>
      <trkpt lat="48.63457" lon="-2.42804">
        <ele>32</ele>
        <time>2014-04-14T13:44:14.1Z</time>
      </trkpt>
      <trkpt lat="48.63461" lon="-2.42803">
        <ele>33</ele>
        <time>2014-04-14T13:44:17.1Z</time>
      </trkpt>
      <trkpt lat="48.63464" lon="-2.42801">
        <ele>33</ele>
        <time>2014-04-14T13:44:20.1Z</time>
      </trkpt>
      <trkpt lat="48.63467" lon="-2.42799">
        <ele>33</ele>
        <time>2014-04-14T13:44:23.1Z</time>
      </trkpt>
      <trkpt lat="48.63469" lon="-2.42798">
        <ele>33</ele>
        <time>2014-04-14T13:44:25.1Z</time>
      </trkpt>
      <trkpt lat="48.63471" lon="-2.42795">
        <ele>33</ele>
        <time>2014-04-14T13:44:28.1Z</time>
      </trkpt>
      <trkpt lat="48.63474" lon="-2.42792">
        <ele>33</ele>
        <time>2014-04-14T13:44:30.1Z</time>
      </trkpt>
      <trkpt lat="48.63477" lon="-2.42789">
        <ele>33</ele>
        <time>2014-04-14T13:44:33.1Z</time>
      </trkpt>
      <trkpt lat="48.63479" lon="-2.42788">
        <ele>33</ele>
        <time>2014-04-14T13:44:35.1Z</time>
      </trkpt>
      <trkpt lat="48.63483" lon="-2.42785">
        <ele>34</ele>
        <time>2014-04-14T13:44:38.1Z</time>
      </trkpt>
      <trkpt lat="48.63485" lon="-2.42782">
        <ele>34</ele>
        <time>2014-04-14T13:44:40.1Z</time>
      </trkpt>
      <trkpt lat="48.63487" lon="-2.4278">
        <ele>34</ele>
        <time>2014-04-14T13:44:42.1Z</time>
      </trkpt>
      <trkpt lat="48.6349" lon="-2.42777">
        <ele>34</ele>
        <time>2014-04-14T13:44:45.1Z</time>
      </trkpt>
      <trkpt lat="48.63493" lon="-2.42775">
        <ele>34</ele>
        <time>2014-04-14T13:44:48.1Z</time>
      </trkpt>
      <trkpt lat="48.63497" lon="-2.42772">
        <ele>35</ele>
        <time>2014-04-14T13:44:51.1Z</time>
      </trkpt>
      <trkpt lat="48.635" lon="-2.4277">
        <ele>35</ele>
        <time>2014-04-14T13:44:54.1Z</time>
      </trkpt>
      <trkpt lat="48.63501" lon="-2.42768">
        <ele>35</ele>
        <time>2014-04-14T13:44:57.1Z</time>
      </trkpt>
      <trkpt lat="48.63502" lon="-2.42767">
        <ele>35</ele>
        <time>2014-04-14T13:44:59.1Z</time>
      </trkpt>
      <trkpt lat="48.63504" lon="-2.42766">
        <ele>35</ele>
        <time>2014-04-14T13:45:02.1Z</time>
      </trkpt>
      <trkpt lat="48.63506" lon="-2.42764">
        <ele>35</ele>
        <time>2014-04-14T13:45:05.1Z</time>
      </trkpt>
      <trkpt lat="48.63509" lon="-2.42764">
        <ele>35</ele>
        <time>2014-04-14T13:45:08.1Z</time>
      </trkpt>
      <trkpt lat="48.63511" lon="-2.42763">
        <ele>35</ele>
        <time>2014-04-14T13:45:10.1Z</time>
      </trkpt>
      <trkpt lat="48.63514" lon="-2.42763">
        <ele>35</ele>
        <time>2014-04-14T13:45:13.1Z</time>
      </trkpt>
      <trkpt lat="48.63516" lon="-2.42763">
        <ele>36</ele>
        <time>2014-04-14T13:45:16.1Z</time>
      </trkpt>
      <trkpt lat="48.63518" lon="-2.42763">
        <ele>35</ele>
        <time>2014-04-14T13:45:18.1Z</time>
      </trkpt>
      <trkpt lat="48.63521" lon="-2.42763">
        <ele>35</ele>
        <time>2014-04-14T13:45:20.1Z</time>
      </trkpt>
      <trkpt lat="48.63522" lon="-2.42764">
        <ele>35</ele>
        <time>2014-04-14T13:45:22.1Z</time>
      </trkpt>
      <trkpt lat="48.63524" lon="-2.42764">
        <ele>36</ele>
        <time>2014-04-14T13:45:25.1Z</time>
      </trkpt>
      <trkpt lat="48.63525" lon="-2.42765">
        <ele>37</ele>
        <time>2014-04-14T13:45:28.1Z</time>
      </trkpt>
      <trkpt lat="48.63525" lon="-2.42767">
        <ele>37</ele>
        <time>2014-04-14T13:45:30.1Z</time>
      </trkpt>
      <trkpt lat="48.63526" lon="-2.42769">
        <ele>37</ele>
        <time>2014-04-14T13:45:33.1Z</time>
      </trkpt>
      <trkpt lat="48.63526" lon="-2.42771">
        <ele>37</ele>
        <time>2014-04-14T13:45:36.1Z</time>
      </trkpt>
      <trkpt lat="48.63526" lon="-2.42772">
        <ele>36</ele>
        <time>2014-04-14T13:45:38.1Z</time>
      </trkpt>
      <trkpt lat="48.63529" lon="-2.42772">
        <ele>36</ele>
        <time>2014-04-14T13:45:41.1Z</time>
      </trkpt>
      <trkpt lat="48.63531" lon="-2.42773">
        <ele>36</ele>
        <time>2014-04-14T13:45:44.1Z</time>
      </trkpt>
      <trkpt lat="48.63533" lon="-2.42773">
        <ele>37</ele>
        <time>2014-04-14T13:45:46.1Z</time>
      </trkpt>
      <trkpt lat="48.63536" lon="-2.42773">
        <ele>36</ele>
        <time>2014-04-14T13:45:49.1Z</time>
      </trkpt>
      <trkpt lat="48.63539" lon="-2.42774">
        <ele>36</ele>
        <time>2014-04-14T13:45:51.1Z</time>
      </trkpt>
      <trkpt lat="48.63543" lon="-2.42774">
        <ele>37</ele>
        <time>2014-04-14T13:45:54.1Z</time>
      </trkpt>
      <trkpt lat="48.63545" lon="-2.42774">
        <ele>37</ele>
        <time>2014-04-14T13:45:56.1Z</time>
      </trkpt>
      <trkpt lat="48.63549" lon="-2.42775">
        <ele>37</ele>
        <time>2014-04-14T13:45:59.1Z</time>
      </trkpt>
      <trkpt lat="48.63551" lon="-2.42775">
        <ele>37</ele>
        <time>2014-04-14T13:46:02.1Z</time>
      </trkpt>
      <trkpt lat="48.63554" lon="-2.42776">
        <ele>37</ele>
        <time>2014-04-14T13:46:04.1Z</time>
      </trkpt>
      <trkpt lat="48.63556" lon="-2.42776">
        <ele>37</ele>
        <time>2014-04-14T13:46:06.1Z</time>
      </trkpt>
      <trkpt lat="48.63559" lon="-2.42778">
        <ele>38</ele>
        <time>2014-04-14T13:46:09.1Z</time>
      </trkpt>
      <trkpt lat="48.63562" lon="-2.42779">
        <ele>38</ele>
        <time>2014-04-14T13:46:11.1Z</time>
      </trkpt>
      <trkpt lat="48.63565" lon="-2.42781">
        <ele>38</ele>
        <time>2014-04-14T13:46:14.1Z</time>
      </trkpt>
      <trkpt lat="48.63568" lon="-2.42783">
        <ele>38</ele>
        <time>2014-04-14T13:46:17.1Z</time>
      </trkpt>
      <trkpt lat="48.6357" lon="-2.42785">
        <ele>38</ele>
        <time>2014-04-14T13:46:19.1Z</time>
      </trkpt>
      <trkpt lat="48.63572" lon="-2.42786">
        <ele>39</ele>
        <time>2014-04-14T13:46:22.1Z</time>
      </trkpt>
      <trkpt lat="48.63574" lon="-2.42788">
        <ele>39</ele>
        <time>2014-04-14T13:46:24.1Z</time>
      </trkpt>
      <trkpt lat="48.63576" lon="-2.42789">
        <ele>39</ele>
        <time>2014-04-14T13:46:26.1Z</time>
      </trkpt>
      <trkpt lat="48.63579" lon="-2.42791">
        <ele>40</ele>
        <time>2014-04-14T13:46:29.1Z</time>
      </trkpt>
      <trkpt lat="48.63581" lon="-2.42792">
        <ele>40</ele>
        <time>2014-04-14T13:46:31.1Z</time>
      </trkpt>
      <trkpt lat="48.63583" lon="-2.42794">
        <ele>40</ele>
        <time>2014-04-14T13:46:34.1Z</time>
      </trkpt>
      <trkpt lat="48.63586" lon="-2.42795">
        <ele>40</ele>
        <time>2014-04-14T13:46:36.1Z</time>
      </trkpt>
      <trkpt lat="48.63588" lon="-2.42796">
        <ele>40</ele>
        <time>2014-04-14T13:46:38.1Z</time>
      </trkpt>
      <trkpt lat="48.63591" lon="-2.42797">
        <ele>40</ele>
        <time>2014-04-14T13:46:41.1Z</time>
      </trkpt>
      <trkpt lat="48.63592" lon="-2.42798">
        <ele>40</ele>
        <time>2014-04-14T13:46:43.1Z</time>
      </trkpt>
      <trkpt lat="48.63594" lon="-2.42798">
        <ele>40</ele>
        <time>2014-04-14T13:46:45.1Z</time>
      </trkpt>
      <trkpt lat="48.63596" lon="-2.42798">
        <ele>40</ele>
        <time>2014-04-14T13:46:48.1Z</time>
      </trkpt>
      <trkpt lat="48.63599" lon="-2.42798">
        <ele>40</ele>
        <time>2014-04-14T13:46:51.1Z</time>
      </trkpt>
      <trkpt lat="48.63602" lon="-2.42799">
        <ele>40</ele>
        <time>2014-04-14T13:46:54.1Z</time>
      </trkpt>
      <trkpt lat="48.63604" lon="-2.42799">
        <ele>40</ele>
        <time>2014-04-14T13:46:57.1Z</time>
      </trkpt>
      <trkpt lat="48.63606" lon="-2.42799">
        <ele>40</ele>
        <time>2014-04-14T13:47:00.1Z</time>
      </trkpt>
      <trkpt lat="48.63609" lon="-2.42798">
        <ele>40</ele>
        <time>2014-04-14T13:47:03.1Z</time>
      </trkpt>
      <trkpt lat="48.63613" lon="-2.42797">
        <ele>40</ele>
        <time>2014-04-14T13:47:06.1Z</time>
      </trkpt>
      <trkpt lat="48.63616" lon="-2.42795">
        <ele>40</ele>
        <time>2014-04-14T13:47:08.1Z</time>
      </trkpt>
      <trkpt lat="48.63618" lon="-2.42794">
        <ele>40</ele>
        <time>2014-04-14T13:47:10.1Z</time>
      </trkpt>
      <trkpt lat="48.6362" lon="-2.42793">
        <ele>40</ele>
        <time>2014-04-14T13:47:12.1Z</time>
      </trkpt>
      <trkpt lat="48.63624" lon="-2.4279">
        <ele>41</ele>
        <time>2014-04-14T13:47:15.1Z</time>
      </trkpt>
      <trkpt lat="48.63626" lon="-2.42788">
        <ele>41</ele>
        <time>2014-04-14T13:47:17.1Z</time>
      </trkpt>
      <trkpt lat="48.63629" lon="-2.42785">
        <ele>42</ele>
        <time>2014-04-14T13:47:20.1Z</time>
      </trkpt>
      <trkpt lat="48.63631" lon="-2.42782">
        <ele>42</ele>
        <time>2014-04-14T13:47:22.1Z</time>
      </trkpt>
      <trkpt lat="48.63633" lon="-2.4278">
        <ele>42</ele>
        <time>2014-04-14T13:47:24.1Z</time>
      </trkpt>
      <trkpt lat="48.63635" lon="-2.42777">
        <ele>42</ele>
        <time>2014-04-14T13:47:27.1Z</time>
      </trkpt>
      <trkpt lat="48.63637" lon="-2.42776">
        <ele>42</ele>
        <time>2014-04-14T13:47:29.1Z</time>
      </trkpt>
      <trkpt lat="48.6364" lon="-2.42773">
        <ele>43</ele>
        <time>2014-04-14T13:47:32.1Z</time>
      </trkpt>
      <trkpt lat="48.63643" lon="-2.4277">
        <ele>43</ele>
        <time>2014-04-14T13:47:35.1Z</time>
      </trkpt>
      <trkpt lat="48.63646" lon="-2.42768">
        <ele>43</ele>
        <time>2014-04-14T13:47:38.1Z</time>
      </trkpt>
      <trkpt lat="48.63649" lon="-2.42765">
        <ele>43</ele>
        <time>2014-04-14T13:47:41.1Z</time>
      </trkpt>
      <trkpt lat="48.63651" lon="-2.42763">
        <ele>43</ele>
        <time>2014-04-14T13:47:43.1Z</time>
      </trkpt>
      <trkpt lat="48.63652" lon="-2.42761">
        <ele>44</ele>
        <time>2014-04-14T13:47:45.1Z</time>
      </trkpt>
      <trkpt lat="48.63655" lon="-2.42758">
        <ele>44</ele>
        <time>2014-04-14T13:47:48.1Z</time>
      </trkpt>
      <trkpt lat="48.63657" lon="-2.42755">
        <ele>44</ele>
        <time>2014-04-14T13:47:51.1Z</time>
      </trkpt>
      <trkpt lat="48.63658" lon="-2.42753">
        <ele>44</ele>
        <time>2014-04-14T13:47:53.1Z</time>
      </trkpt>
      <trkpt lat="48.6366" lon="-2.4275">
        <ele>44</ele>
        <time>2014-04-14T13:47:56.1Z</time>
      </trkpt>
      <trkpt lat="48.63662" lon="-2.42747">
        <ele>44</ele>
        <time>2014-04-14T13:47:59.1Z</time>
      </trkpt>
      <trkpt lat="48.63665" lon="-2.42743">
        <ele>45</ele>
        <time>2014-04-14T13:48:02.1Z</time>
      </trkpt>
      <trkpt lat="48.63666" lon="-2.42741">
        <ele>45</ele>
        <time>2014-04-14T13:48:05.1Z</time>
      </trkpt>
      <trkpt lat="48.63669" lon="-2.42738">
        <ele>45</ele>
        <time>2014-04-14T13:48:08.1Z</time>
      </trkpt>
      <trkpt lat="48.6367" lon="-2.42736">
        <ele>45</ele>
        <time>2014-04-14T13:48:11.1Z</time>
      </trkpt>
      <trkpt lat="48.63672" lon="-2.42735">
        <ele>45</ele>
        <time>2014-04-14T13:48:13.1Z</time>
      </trkpt>
      <trkpt lat="48.63674" lon="-2.42732">
        <ele>46</ele>
        <time>2014-04-14T13:48:16.1Z</time>
      </trkpt>
      <trkpt lat="48.63676" lon="-2.42731">
        <ele>46</ele>
        <time>2014-04-14T13:48:18.1Z</time>
      </trkpt>
      <trkpt lat="48.63678" lon="-2.42729">
        <ele>46</ele>
        <time>2014-04-14T13:48:21.1Z</time>
      </trkpt>
      <trkpt lat="48.63679" lon="-2.42729">
        <ele>46</ele>
        <time>2014-04-14T13:48:23.1Z</time>
      </trkpt>
      <trkpt lat="48.63682" lon="-2.42727">
        <ele>47</ele>
        <time>2014-04-14T13:48:26.1Z</time>
      </trkpt>
      <trkpt lat="48.63683" lon="-2.42726">
        <ele>47</ele>
        <time>2014-04-14T13:48:28.1Z</time>
      </trkpt>
      <trkpt lat="48.63684" lon="-2.42725">
        <ele>47</ele>
        <time>2014-04-14T13:48:30.1Z</time>
      </trkpt>
      <trkpt lat="48.63686" lon="-2.42724">
        <ele>47</ele>
        <time>2014-04-14T13:48:33.1Z</time>
      </trkpt>
      <trkpt lat="48.63686" lon="-2.42724">
        <ele>47</ele>
        <time>2014-04-14T13:48:35.1Z</time>
      </trkpt>
      <trkpt lat="48.63687" lon="-2.42723">
        <ele>47</ele>
        <time>2014-04-14T13:48:38.1Z</time>
      </trkpt>
      <trkpt lat="48.63689" lon="-2.42723">
        <ele>47</ele>
        <time>2014-04-14T13:48:40.1Z</time>
      </trkpt>
      <trkpt lat="48.63692" lon="-2.42722">
        <ele>47</ele>
        <time>2014-04-14T13:48:43.1Z</time>
      </trkpt>
      <trkpt lat="48.63695" lon="-2.42722">
        <ele>47</ele>
        <time>2014-04-14T13:48:46.1Z</time>
      </trkpt>
      <trkpt lat="48.63697" lon="-2.42721">
        <ele>47</ele>
        <time>2014-04-14T13:48:49.1Z</time>
      </trkpt>
      <trkpt lat="48.63699" lon="-2.4272">
        <ele>47</ele>
        <time>2014-04-14T13:48:51.1Z</time>
      </trkpt>
      <trkpt lat="48.63702" lon="-2.42718">
        <ele>48</ele>
        <time>2014-04-14T13:48:54.1Z</time>
      </trkpt>
      <trkpt lat="48.63703" lon="-2.42716">
        <ele>48</ele>
        <time>2014-04-14T13:48:56.1Z</time>
      </trkpt>
      <trkpt lat="48.63706" lon="-2.42714">
        <ele>48</ele>
        <time>2014-04-14T13:48:59.1Z</time>
      </trkpt>
      <trkpt lat="48.63707" lon="-2.42713">
        <ele>48</ele>
        <time>2014-04-14T13:49:01.1Z</time>
      </trkpt>
      <trkpt lat="48.6371" lon="-2.42711">
        <ele>48</ele>
        <time>2014-04-14T13:49:04.1Z</time>
      </trkpt>
      <trkpt lat="48.63712" lon="-2.42709">
        <ele>49</ele>
        <time>2014-04-14T13:49:07.1Z</time>
      </trkpt>
      <trkpt lat="48.63715" lon="-2.42707">
        <ele>49</ele>
        <time>2014-04-14T13:49:10.1Z</time>
      </trkpt>
      <trkpt lat="48.63717" lon="-2.42705">
        <ele>49</ele>
        <time>2014-04-14T13:49:12.1Z</time>
      </trkpt>
      <trkpt lat="48.6372" lon="-2.42703">
        <ele>49</ele>
        <time>2014-04-14T13:49:15.1Z</time>
      </trkpt>
      <trkpt lat="48.63722" lon="-2.42701">
        <ele>49</ele>
        <time>2014-04-14T13:49:17.1Z</time>
      </trkpt>
      <trkpt lat="48.63725" lon="-2.42698">
        <ele>49</ele>
        <time>2014-04-14T13:49:20.1Z</time>
      </trkpt>
      <trkpt lat="48.63729" lon="-2.42695">
        <ele>49</ele>
        <time>2014-04-14T13:49:23.1Z</time>
      </trkpt>
      <trkpt lat="48.63731" lon="-2.42693">
        <ele>50</ele>
        <time>2014-04-14T13:49:25.1Z</time>
      </trkpt>
      <trkpt lat="48.63734" lon="-2.42691">
        <ele>50</ele>
        <time>2014-04-14T13:49:28.1Z</time>
      </trkpt>
      <trkpt lat="48.63736" lon="-2.42689">
        <ele>50</ele>
        <time>2014-04-14T13:49:31.1Z</time>
      </trkpt>
      <trkpt lat="48.63739" lon="-2.42687">
        <ele>50</ele>
        <time>2014-04-14T13:49:34.1Z</time>
      </trkpt>
      <trkpt lat="48.63741" lon="-2.42686">
        <ele>50</ele>
        <time>2014-04-14T13:49:37.1Z</time>
      </trkpt>
      <trkpt lat="48.63742" lon="-2.42685">
        <ele>50</ele>
        <time>2014-04-14T13:49:39.1Z</time>
      </trkpt>
      <trkpt lat="48.63744" lon="-2.42684">
        <ele>50</ele>
        <time>2014-04-14T13:49:42.1Z</time>
      </trkpt>
      <trkpt lat="48.63744" lon="-2.42684">
        <ele>51</ele>
        <time>2014-04-14T13:49:44.1Z</time>
      </trkpt>
      <trkpt lat="48.63745" lon="-2.42684">
        <ele>51</ele>
        <time>2014-04-14T13:49:46.1Z</time>
      </trkpt>
      <trkpt lat="48.63746" lon="-2.42684">
        <ele>51</ele>
        <time>2014-04-14T13:49:49.1Z</time>
      </trkpt>
      <trkpt lat="48.63747" lon="-2.42685">
        <ele>51</ele>
        <time>2014-04-14T13:49:51.1Z</time>
      </trkpt>
      <trkpt lat="48.63749" lon="-2.42686">
        <ele>51</ele>
        <time>2014-04-14T13:49:54.1Z</time>
      </trkpt>
      <trkpt lat="48.63749" lon="-2.42688">
        <ele>51</ele>
        <time>2014-04-14T13:49:56.1Z</time>
      </trkpt>
      <trkpt lat="48.6375" lon="-2.42689">
        <ele>51</ele>
        <time>2014-04-14T13:49:58.1Z</time>
      </trkpt>
      <trkpt lat="48.63754" lon="-2.42691">
        <ele>52</ele>
        <time>2014-04-14T13:50:01.1Z</time>
      </trkpt>
      <trkpt lat="48.63756" lon="-2.4269">
        <ele>52</ele>
        <time>2014-04-14T13:50:04.1Z</time>
      </trkpt>
      <trkpt lat="48.63759" lon="-2.42689">
        <ele>52</ele>
        <time>2014-04-14T13:50:07.1Z</time>
      </trkpt>
      <trkpt lat="48.63762" lon="-2.42688">
        <ele>52</ele>
        <time>2014-04-14T13:50:10.1Z</time>
      </trkpt>
      <trkpt lat="48.63765" lon="-2.42687">
        <ele>52</ele>
        <time>2014-04-14T13:50:13.1Z</time>
      </trkpt>
      <trkpt lat="48.63768" lon="-2.42687">
        <ele>52</ele>
        <time>2014-04-14T13:50:16.1Z</time>
      </trkpt>
      <trkpt lat="48.63772" lon="-2.42688">
        <ele>53</ele>
        <time>2014-04-14T13:50:19.1Z</time>
      </trkpt>
      <trkpt lat="48.63776" lon="-2.4269">
        <ele>52</ele>
        <time>2014-04-14T13:50:22.1Z</time>
      </trkpt>
      <trkpt lat="48.63779" lon="-2.4269">
        <ele>53</ele>
        <time>2014-04-14T13:50:25.1Z</time>
      </trkpt>
      <trkpt lat="48.63781" lon="-2.42692">
        <ele>53</ele>
        <time>2014-04-14T13:50:27.1Z</time>
      </trkpt>
      <trkpt lat="48.63783" lon="-2.42695">
        <ele>54</ele>
        <time>2014-04-14T13:50:30.1Z</time>
      </trkpt>
      <trkpt lat="48.63785" lon="-2.42696">
        <ele>54</ele>
        <time>2014-04-14T13:50:32.1Z</time>
      </trkpt>
      <trkpt lat="48.63788" lon="-2.42696">
        <ele>54</ele>
        <time>2014-04-14T13:50:35.1Z</time>
      </trkpt>
      <trkpt lat="48.63791" lon="-2.42696">
        <ele>54</ele>
        <time>2014-04-14T13:50:38.1Z</time>
      </trkpt>
      <trkpt lat="48.63793" lon="-2.42697">
        <ele>54</ele>
        <time>2014-04-14T13:50:41.1Z</time>
      </trkpt>
      <trkpt lat="48.63794" lon="-2.42698">
        <ele>54</ele>
        <time>2014-04-14T13:50:43.1Z</time>
      </trkpt>
      <trkpt lat="48.63798" lon="-2.42699">
        <ele>54</ele>
        <time>2014-04-14T13:50:46.1Z</time>
      </trkpt>
      <trkpt lat="48.638" lon="-2.427">
        <ele>54</ele>
        <time>2014-04-14T13:50:49.1Z</time>
      </trkpt>
      <trkpt lat="48.63803" lon="-2.427">
        <ele>54</ele>
        <time>2014-04-14T13:50:52.1Z</time>
      </trkpt>
      <trkpt lat="48.63806" lon="-2.427">
        <ele>55</ele>
        <time>2014-04-14T13:50:55.1Z</time>
      </trkpt>
      <trkpt lat="48.63809" lon="-2.427">
        <ele>55</ele>
        <time>2014-04-14T13:50:58.1Z</time>
      </trkpt>
      <trkpt lat="48.63813" lon="-2.427">
        <ele>55</ele>
        <time>2014-04-14T13:51:01.1Z</time>
      </trkpt>
      <trkpt lat="48.63816" lon="-2.42699">
        <ele>55</ele>
        <time>2014-04-14T13:51:04.1Z</time>
      </trkpt>
      <trkpt lat="48.63819" lon="-2.42697">
        <ele>55</ele>
        <time>2014-04-14T13:51:07.1Z</time>
      </trkpt>
      <trkpt lat="48.63821" lon="-2.42694">
        <ele>56</ele>
        <time>2014-04-14T13:51:10.1Z</time>
      </trkpt>
      <trkpt lat="48.63823" lon="-2.4269">
        <ele>56</ele>
        <time>2014-04-14T13:51:13.1Z</time>
      </trkpt>
      <trkpt lat="48.63824" lon="-2.42688">
        <ele>56</ele>
        <time>2014-04-14T13:51:15.1Z</time>
      </trkpt>
      <trkpt lat="48.63824" lon="-2.42685">
        <ele>56</ele>
        <time>2014-04-14T13:51:17.1Z</time>
      </trkpt>
      <trkpt lat="48.63824" lon="-2.4268">
        <ele>56</ele>
        <time>2014-04-14T13:51:20.1Z</time>
      </trkpt>
      <trkpt lat="48.63825" lon="-2.42677">
        <ele>56</ele>
        <time>2014-04-14T13:51:22.1Z</time>
      </trkpt>
      <trkpt lat="48.63825" lon="-2.42673">
        <ele>56</ele>
        <time>2014-04-14T13:51:25.1Z</time>
      </trkpt>
      <trkpt lat="48.63825" lon="-2.4267">
        <ele>56</ele>
        <time>2014-04-14T13:51:28.1Z</time>
      </trkpt>
      <trkpt lat="48.63825" lon="-2.42667">
        <ele>56</ele>
        <time>2014-04-14T13:51:30.1Z</time>
      </trkpt>
      <trkpt lat="48.63825" lon="-2.42665">
        <ele>56</ele>
        <time>2014-04-14T13:51:32.1Z</time>
      </trkpt>
      <trkpt lat="48.63828" lon="-2.42661">
        <ele>56</ele>
        <time>2014-04-14T13:51:35.1Z</time>
      </trkpt>
      <trkpt lat="48.63828" lon="-2.42656">
        <ele>56</ele>
        <time>2014-04-14T13:51:38.1Z</time>
      </trkpt>
      <trkpt lat="48.63828" lon="-2.42652">
        <ele>56</ele>
        <time>2014-04-14T13:51:41.1Z</time>
      </trkpt>
      <trkpt lat="48.63827" lon="-2.42649">
        <ele>56</ele>
        <time>2014-04-14T13:51:43.1Z</time>
      </trkpt>
      <trkpt lat="48.63827" lon="-2.42646">
        <ele>56</ele>
        <time>2014-04-14T13:51:45.1Z</time>
      </trkpt>
      <trkpt lat="48.63826" lon="-2.42643">
        <ele>56</ele>
        <time>2014-04-14T13:51:47.1Z</time>
      </trkpt>
      <trkpt lat="48.63825" lon="-2.42639">
        <ele>56</ele>
        <time>2014-04-14T13:51:50.1Z</time>
      </trkpt>
      <trkpt lat="48.63825" lon="-2.42636">
        <ele>56</ele>
        <time>2014-04-14T13:51:52.1Z</time>
      </trkpt>
      <trkpt lat="48.63824" lon="-2.42631">
        <ele>56</ele>
        <time>2014-04-14T13:51:55.1Z</time>
      </trkpt>
      <trkpt lat="48.63823" lon="-2.42628">
        <ele>56</ele>
        <time>2014-04-14T13:51:58.1Z</time>
      </trkpt>
      <trkpt lat="48.63823" lon="-2.42625">
        <ele>56</ele>
        <time>2014-04-14T13:52:00.1Z</time>
      </trkpt>
      <trkpt lat="48.63822" lon="-2.42621">
        <ele>56</ele>
        <time>2014-04-14T13:52:03.1Z</time>
      </trkpt>
      <trkpt lat="48.63822" lon="-2.42616">
        <ele>56</ele>
        <time>2014-04-14T13:52:06.1Z</time>
      </trkpt>
      <trkpt lat="48.63822" lon="-2.42613">
        <ele>56</ele>
        <time>2014-04-14T13:52:08.1Z</time>
      </trkpt>
      <trkpt lat="48.63821" lon="-2.42608">
        <ele>56</ele>
        <time>2014-04-14T13:52:11.1Z</time>
      </trkpt>
      <trkpt lat="48.63821" lon="-2.42605">
        <ele>56</ele>
        <time>2014-04-14T13:52:13.1Z</time>
      </trkpt>
      <trkpt lat="48.63821" lon="-2.426">
        <ele>56</ele>
        <time>2014-04-14T13:52:16.1Z</time>
      </trkpt>
      <trkpt lat="48.6382" lon="-2.42595">
        <ele>56</ele>
        <time>2014-04-14T13:52:19.1Z</time>
      </trkpt>
      <trkpt lat="48.63819" lon="-2.42592">
        <ele>56</ele>
        <time>2014-04-14T13:52:21.1Z</time>
      </trkpt>
      <trkpt lat="48.63818" lon="-2.42587">
        <ele>56</ele>
        <time>2014-04-14T13:52:24.1Z</time>
      </trkpt>
      <trkpt lat="48.63818" lon="-2.42584">
        <ele>56</ele>
        <time>2014-04-14T13:52:26.1Z</time>
      </trkpt>
      <trkpt lat="48.63817" lon="-2.42581">
        <ele>55</ele>
        <time>2014-04-14T13:52:28.1Z</time>
      </trkpt>
      <trkpt lat="48.63816" lon="-2.42576">
        <ele>56</ele>
        <time>2014-04-14T13:52:31.1Z</time>
      </trkpt>
      <trkpt lat="48.63815" lon="-2.42571">
        <ele>55</ele>
        <time>2014-04-14T13:52:34.1Z</time>
      </trkpt>
      <trkpt lat="48.63814" lon="-2.42569">
        <ele>56</ele>
        <time>2014-04-14T13:52:36.1Z</time>
      </trkpt>
      <trkpt lat="48.63813" lon="-2.42564">
        <ele>56</ele>
        <time>2014-04-14T13:52:39.1Z</time>
      </trkpt>
      <trkpt lat="48.63813" lon="-2.4256">
        <ele>56</ele>
        <time>2014-04-14T13:52:42.1Z</time>
      </trkpt>
      <trkpt lat="48.63813" lon="-2.42557">
        <ele>56</ele>
        <time>2014-04-14T13:52:44.1Z</time>
      </trkpt>
      <trkpt lat="48.63812" lon="-2.42552">
        <ele>55</ele>
        <time>2014-04-14T13:52:47.1Z</time>
      </trkpt>
      <trkpt lat="48.63811" lon="-2.42548">
        <ele>56</ele>
        <time>2014-04-14T13:52:50.1Z</time>
      </trkpt>
      <trkpt lat="48.6381" lon="-2.42546">
        <ele>55</ele>
        <time>2014-04-14T13:52:52.1Z</time>
      </trkpt>
      <trkpt lat="48.63809" lon="-2.42541">
        <ele>55</ele>
        <time>2014-04-14T13:52:55.1Z</time>
      </trkpt>
      <trkpt lat="48.63808" lon="-2.42538">
        <ele>55</ele>
        <time>2014-04-14T13:52:57.1Z</time>
      </trkpt>
      <trkpt lat="48.63808" lon="-2.42535">
        <ele>56</ele>
        <time>2014-04-14T13:52:59.1Z</time>
      </trkpt>
      <trkpt lat="48.63807" lon="-2.42531">
        <ele>56</ele>
        <time>2014-04-14T13:53:02.1Z</time>
      </trkpt>
      <trkpt lat="48.63806" lon="-2.42527">
        <ele>56</ele>
        <time>2014-04-14T13:53:05.1Z</time>
      </trkpt>
      <trkpt lat="48.63805" lon="-2.42524">
        <ele>56</ele>
        <time>2014-04-14T13:53:07.1Z</time>
      </trkpt>
      <trkpt lat="48.63803" lon="-2.42519">
        <ele>56</ele>
        <time>2014-04-14T13:53:10.1Z</time>
      </trkpt>
      <trkpt lat="48.63802" lon="-2.42517">
        <ele>56</ele>
        <time>2014-04-14T13:53:12.1Z</time>
      </trkpt>
      <trkpt lat="48.638" lon="-2.42513">
        <ele>56</ele>
        <time>2014-04-14T13:53:15.1Z</time>
      </trkpt>
      <trkpt lat="48.638" lon="-2.42508">
        <ele>56</ele>
        <time>2014-04-14T13:53:18.1Z</time>
      </trkpt>
      <trkpt lat="48.63798" lon="-2.42506">
        <ele>56</ele>
        <time>2014-04-14T13:53:20.1Z</time>
      </trkpt>
      <trkpt lat="48.63797" lon="-2.42503">
        <ele>56</ele>
        <time>2014-04-14T13:53:22.1Z</time>
      </trkpt>
      <trkpt lat="48.63796" lon="-2.42499">
        <ele>56</ele>
        <time>2014-04-14T13:53:25.1Z</time>
      </trkpt>
      <trkpt lat="48.63795" lon="-2.42495">
        <ele>56</ele>
        <time>2014-04-14T13:53:28.1Z</time>
      </trkpt>
      <trkpt lat="48.63793" lon="-2.42491">
        <ele>56</ele>
        <time>2014-04-14T13:53:31.1Z</time>
      </trkpt>
      <trkpt lat="48.63792" lon="-2.42488">
        <ele>56</ele>
        <time>2014-04-14T13:53:33.1Z</time>
      </trkpt>
      <trkpt lat="48.63791" lon="-2.42484">
        <ele>57</ele>
        <time>2014-04-14T13:53:36.1Z</time>
      </trkpt>
      <trkpt lat="48.6379" lon="-2.42481">
        <ele>56</ele>
        <time>2014-04-14T13:53:38.1Z</time>
      </trkpt>
      <trkpt lat="48.63789" lon="-2.42477">
        <ele>56</ele>
        <time>2014-04-14T13:53:41.1Z</time>
      </trkpt>
      <trkpt lat="48.63789" lon="-2.42475">
        <ele>56</ele>
        <time>2014-04-14T13:53:43.1Z</time>
      </trkpt>
      <trkpt lat="48.63788" lon="-2.42472">
        <ele>56</ele>
        <time>2014-04-14T13:53:45.1Z</time>
      </trkpt>
      <trkpt lat="48.63786" lon="-2.42468">
        <ele>56</ele>
        <time>2014-04-14T13:53:48.1Z</time>
      </trkpt>
      <trkpt lat="48.63786" lon="-2.42465">
        <ele>56</ele>
        <time>2014-04-14T13:53:50.1Z</time>
      </trkpt>
      <trkpt lat="48.63785" lon="-2.42463">
        <ele>56</ele>
        <time>2014-04-14T13:53:52.1Z</time>
      </trkpt>
      <trkpt lat="48.63784" lon="-2.42459">
        <ele>56</ele>
        <time>2014-04-14T13:53:55.1Z</time>
      </trkpt>
      <trkpt lat="48.63783" lon="-2.42455">
        <ele>57</ele>
        <time>2014-04-14T13:53:58.1Z</time>
      </trkpt>
      <trkpt lat="48.63782" lon="-2.42451">
        <ele>57</ele>
        <time>2014-04-14T13:54:01.1Z</time>
      </trkpt>
      <trkpt lat="48.63781" lon="-2.42448">
        <ele>57</ele>
        <time>2014-04-14T13:54:03.1Z</time>
      </trkpt>
      <trkpt lat="48.63781" lon="-2.42445">
        <ele>56</ele>
        <time>2014-04-14T13:54:05.1Z</time>
      </trkpt>
      <trkpt lat="48.63779" lon="-2.42441">
        <ele>57</ele>
        <time>2014-04-14T13:54:08.1Z</time>
      </trkpt>
      <trkpt lat="48.63779" lon="-2.42437">
        <ele>57</ele>
        <time>2014-04-14T13:54:11.1Z</time>
      </trkpt>
      <trkpt lat="48.63778" lon="-2.42434">
        <ele>57</ele>
        <time>2014-04-14T13:54:14.1Z</time>
      </trkpt>
      <trkpt lat="48.63778" lon="-2.42431">
        <ele>57</ele>
        <time>2014-04-14T13:54:16.1Z</time>
      </trkpt>
      <trkpt lat="48.63776" lon="-2.42428">
        <ele>57</ele>
        <time>2014-04-14T13:54:19.1Z</time>
      </trkpt>
      <trkpt lat="48.63776" lon="-2.42425">
        <ele>57</ele>
        <time>2014-04-14T13:54:21.1Z</time>
      </trkpt>
      <trkpt lat="48.63774" lon="-2.42421">
        <ele>57</ele>
        <time>2014-04-14T13:54:24.1Z</time>
      </trkpt>
      <trkpt lat="48.63774" lon="-2.42418">
        <ele>57</ele>
        <time>2014-04-14T13:54:26.1Z</time>
      </trkpt>
      <trkpt lat="48.63773" lon="-2.42415">
        <ele>57</ele>
        <time>2014-04-14T13:54:28.1Z</time>
      </trkpt>
      <trkpt lat="48.63773" lon="-2.42411">
        <ele>57</ele>
        <time>2014-04-14T13:54:31.1Z</time>
      </trkpt>
      <trkpt lat="48.63772" lon="-2.42408">
        <ele>57</ele>
        <time>2014-04-14T13:54:33.1Z</time>
      </trkpt>
      <trkpt lat="48.63771" lon="-2.42405">
        <ele>57</ele>
        <time>2014-04-14T13:54:35.1Z</time>
      </trkpt>
      <trkpt lat="48.63771" lon="-2.42401">
        <ele>57</ele>
        <time>2014-04-14T13:54:38.1Z</time>
      </trkpt>
      <trkpt lat="48.63771" lon="-2.42397">
        <ele>57</ele>
        <time>2014-04-14T13:54:41.1Z</time>
      </trkpt>
      <trkpt lat="48.6377" lon="-2.42396">
        <ele>57</ele>
        <time>2014-04-14T13:54:43.1Z</time>
      </trkpt>
      <trkpt lat="48.63772" lon="-2.42395">
        <ele>57</ele>
        <time>2014-04-14T13:54:46.1Z</time>
      </trkpt>
      <trkpt lat="48.63771" lon="-2.42396">
        <ele>57</ele>
        <time>2014-04-14T13:54:48.1Z</time>
      </trkpt>
      <trkpt lat="48.63771" lon="-2.42392">
        <ele>57</ele>
        <time>2014-04-14T13:54:51.1Z</time>
      </trkpt>
      <trkpt lat="48.6377" lon="-2.42389">
        <ele>57</ele>
        <time>2014-04-14T13:54:54.1Z</time>
      </trkpt>
      <trkpt lat="48.6377" lon="-2.42386">
        <ele>57</ele>
        <time>2014-04-14T13:54:57.1Z</time>
      </trkpt>
      <trkpt lat="48.6377" lon="-2.42385">
        <ele>57</ele>
        <time>2014-04-14T13:54:59.1Z</time>
      </trkpt>
      <trkpt lat="48.63769" lon="-2.42382">
        <ele>57</ele>
        <time>2014-04-14T13:55:01.1Z</time>
      </trkpt>
      <trkpt lat="48.63768" lon="-2.42377">
        <ele>57</ele>
        <time>2014-04-14T13:55:04.1Z</time>
      </trkpt>
      <trkpt lat="48.63767" lon="-2.42373">
        <ele>57</ele>
        <time>2014-04-14T13:55:07.1Z</time>
      </trkpt>
      <trkpt lat="48.63767" lon="-2.4237">
        <ele>57</ele>
        <time>2014-04-14T13:55:09.1Z</time>
      </trkpt>
      <trkpt lat="48.63765" lon="-2.42366">
        <ele>57</ele>
        <time>2014-04-14T13:55:12.1Z</time>
      </trkpt>
      <trkpt lat="48.63764" lon="-2.42361">
        <ele>57</ele>
        <time>2014-04-14T13:55:15.1Z</time>
      </trkpt>
      <trkpt lat="48.63763" lon="-2.42356">
        <ele>57</ele>
        <time>2014-04-14T13:55:18.1Z</time>
      </trkpt>
      <trkpt lat="48.63763" lon="-2.42354">
        <ele>57</ele>
        <time>2014-04-14T13:55:20.1Z</time>
      </trkpt>
      <trkpt lat="48.63762" lon="-2.42349">
        <ele>57</ele>
        <time>2014-04-14T13:55:23.1Z</time>
      </trkpt>
      <trkpt lat="48.63761" lon="-2.42346">
        <ele>57</ele>
        <time>2014-04-14T13:55:25.1Z</time>
      </trkpt>
      <trkpt lat="48.6376" lon="-2.42343">
        <ele>57</ele>
        <time>2014-04-14T13:55:27.1Z</time>
      </trkpt>
      <trkpt lat="48.63758" lon="-2.42338">
        <ele>57</ele>
        <time>2014-04-14T13:55:30.1Z</time>
      </trkpt>
      <trkpt lat="48.63758" lon="-2.42335">
        <ele>57</ele>
        <time>2014-04-14T13:55:32.1Z</time>
      </trkpt>
      <trkpt lat="48.63757" lon="-2.4233">
        <ele>57</ele>
        <time>2014-04-14T13:55:35.1Z</time>
      </trkpt>
      <trkpt lat="48.63755" lon="-2.42326">
        <ele>57</ele>
        <time>2014-04-14T13:55:38.1Z</time>
      </trkpt>
      <trkpt lat="48.63755" lon="-2.42323">
        <ele>57</ele>
        <time>2014-04-14T13:55:40.1Z</time>
      </trkpt>
      <trkpt lat="48.63754" lon="-2.42318">
        <ele>57</ele>
        <time>2014-04-14T13:55:43.1Z</time>
      </trkpt>
      <trkpt lat="48.63753" lon="-2.42313">
        <ele>57</ele>
        <time>2014-04-14T13:55:46.1Z</time>
      </trkpt>
      <trkpt lat="48.63753" lon="-2.4231">
        <ele>57</ele>
        <time>2014-04-14T13:55:48.1Z</time>
      </trkpt>
      <trkpt lat="48.63752" lon="-2.42304">
        <ele>57</ele>
        <time>2014-04-14T13:55:51.1Z</time>
      </trkpt>
      <trkpt lat="48.63752" lon="-2.42301">
        <ele>57</ele>
        <time>2014-04-14T13:55:53.1Z</time>
      </trkpt>
      <trkpt lat="48.63752" lon="-2.42298">
        <ele>57</ele>
        <time>2014-04-14T13:55:55.1Z</time>
      </trkpt>
      <trkpt lat="48.63751" lon="-2.42292">
        <ele>57</ele>
        <time>2014-04-14T13:55:58.1Z</time>
      </trkpt>
      <trkpt lat="48.6375" lon="-2.42288">
        <ele>57</ele>
        <time>2014-04-14T13:56:01.1Z</time>
      </trkpt>
      <trkpt lat="48.6375" lon="-2.42283">
        <ele>57</ele>
        <time>2014-04-14T13:56:04.1Z</time>
      </trkpt>
      <trkpt lat="48.63749" lon="-2.42278">
        <ele>57</ele>
        <time>2014-04-14T13:56:07.1Z</time>
      </trkpt>
      <trkpt lat="48.63748" lon="-2.42273">
        <ele>58</ele>
        <time>2014-04-14T13:56:10.1Z</time>
      </trkpt>
      <trkpt lat="48.63748" lon="-2.4227">
        <ele>58</ele>
        <time>2014-04-14T13:56:12.1Z</time>
      </trkpt>
      <trkpt lat="48.63747" lon="-2.42266">
        <ele>58</ele>
        <time>2014-04-14T13:56:15.1Z</time>
      </trkpt>
      <trkpt lat="48.63747" lon="-2.42263">
        <ele>58</ele>
        <time>2014-04-14T13:56:17.1Z</time>
      </trkpt>
      <trkpt lat="48.63747" lon="-2.42259">
        <ele>58</ele>
        <time>2014-04-14T13:56:20.1Z</time>
      </trkpt>
      <trkpt lat="48.63746" lon="-2.42258">
        <ele>58</ele>
        <time>2014-04-14T13:56:22.1Z</time>
      </trkpt>
      <trkpt lat="48.63746" lon="-2.42256">
        <ele>58</ele>
        <time>2014-04-14T13:56:25.1Z</time>
      </trkpt>
      <trkpt lat="48.63746" lon="-2.42255">
        <ele>58</ele>
        <time>2014-04-14T13:56:27.1Z</time>
      </trkpt>
      <trkpt lat="48.63745" lon="-2.42254">
        <ele>58</ele>
        <time>2014-04-14T13:56:30.1Z</time>
      </trkpt>
      <trkpt lat="48.63745" lon="-2.42253">
        <ele>58</ele>
        <time>2014-04-14T13:56:32.1Z</time>
      </trkpt>
      <trkpt lat="48.63745" lon="-2.42253">
        <ele>58</ele>
        <time>2014-04-14T13:56:35.1Z</time>
      </trkpt>
      <trkpt lat="48.63744" lon="-2.42253">
        <ele>58</ele>
        <time>2014-04-14T13:56:37.1Z</time>
      </trkpt>
      <trkpt lat="48.63743" lon="-2.42253">
        <ele>58</ele>
        <time>2014-04-14T13:56:40.1Z</time>
      </trkpt>
      <trkpt lat="48.63743" lon="-2.42254">
        <ele>58</ele>
        <time>2014-04-14T13:56:42.1Z</time>
      </trkpt>
      <trkpt lat="48.63744" lon="-2.42254">
        <ele>58</ele>
        <time>2014-04-14T13:56:46.1Z</time>
      </trkpt>
      <trkpt lat="48.63744" lon="-2.42254">
        <ele>58</ele>
        <time>2014-04-14T13:56:49.1Z</time>
      </trkpt>
      <trkpt lat="48.63744" lon="-2.42254">
        <ele>58</ele>
        <time>2014-04-14T13:56:52.1Z</time>
      </trkpt>
      <trkpt lat="48.63744" lon="-2.42254">
        <ele>59</ele>
        <time>2014-04-14T13:56:54.1Z</time>
      </trkpt>
      <trkpt lat="48.63744" lon="-2.42254">
        <ele>59</ele>
        <time>2014-04-14T13:56:57.1Z</time>
      </trkpt>
      <trkpt lat="48.63744" lon="-2.42254">
        <ele>58</ele>
        <time>2014-04-14T13:57:01.1Z</time>
      </trkpt>
      <trkpt lat="48.63744" lon="-2.42254">
        <ele>57</ele>
        <time>2014-04-14T13:57:04.1Z</time>
      </trkpt>
      <trkpt lat="48.63745" lon="-2.42253">
        <ele>57</ele>
        <time>2014-04-14T13:57:07.1Z</time>
      </trkpt>
      <trkpt lat="48.63746" lon="-2.42252">
        <ele>58</ele>
        <time>2014-04-14T13:57:09.1Z</time>
      </trkpt>
      <trkpt lat="48.63747" lon="-2.4225">
        <ele>58</ele>
        <time>2014-04-14T13:57:12.1Z</time>
      </trkpt>
      <trkpt lat="48.63748" lon="-2.4225">
        <ele>58</ele>
        <time>2014-04-14T13:57:15.1Z</time>
      </trkpt>
      <trkpt lat="48.63748" lon="-2.4225">
        <ele>58</ele>
        <time>2014-04-14T13:57:22.1Z</time>
      </trkpt>
      <trkpt lat="48.63748" lon="-2.42249">
        <ele>59</ele>
        <time>2014-04-14T13:57:25.1Z</time>
      </trkpt>
      <trkpt lat="48.63747" lon="-2.42249">
        <ele>58</ele>
        <time>2014-04-14T13:57:33.1Z</time>
      </trkpt>
      <trkpt lat="48.63747" lon="-2.42249">
        <ele>58</ele>
        <time>2014-04-14T13:57:36.1Z</time>
      </trkpt>
      <trkpt lat="48.63747" lon="-2.42249">
        <ele>58</ele>
        <time>2014-04-14T13:57:41.1Z</time>
      </trkpt>
      <trkpt lat="48.63747" lon="-2.42249">
        <ele>58</ele>
        <time>2014-04-14T13:57:44.1Z</time>
      </trkpt>
      <trkpt lat="48.63747" lon="-2.42249">
        <ele>58</ele>
        <time>2014-04-14T13:57:46.1Z</time>
      </trkpt>
      <trkpt lat="48.63747" lon="-2.42249">
        <ele>58</ele>
        <time>2014-04-14T13:57:50.1Z</time>
      </trkpt>
      <trkpt lat="48.63747" lon="-2.42249">
        <ele>58</ele>
        <time>2014-04-14T13:57:53.1Z</time>
      </trkpt>
      <trkpt lat="48.63747" lon="-2.4225">
        <ele>58</ele>
        <time>2014-04-14T13:57:55.1Z</time>
      </trkpt>
      <trkpt lat="48.63747" lon="-2.42249">
        <ele>58</ele>
        <time>2014-04-14T13:57:58.1Z</time>
      </trkpt>
      <trkpt lat="48.63747" lon="-2.42249">
        <ele>58</ele>
        <time>2014-04-14T13:58:04.1Z</time>
      </trkpt>
      <trkpt lat="48.63747" lon="-2.42249">
        <ele>58</ele>
        <time>2014-04-14T13:58:11.1Z</time>
      </trkpt>
      <trkpt lat="48.63747" lon="-2.42249">
        <ele>58</ele>
        <time>2014-04-14T13:58:14.1Z</time>
      </trkpt>
      <trkpt lat="48.63747" lon="-2.42249">
        <ele>58</ele>
        <time>2014-04-14T13:58:17.1Z</time>
      </trkpt>
      <trkpt lat="48.63747" lon="-2.42249">
        <ele>58</ele>
        <time>2014-04-14T13:58:21.1Z</time>
      </trkpt>
      <trkpt lat="48.63748" lon="-2.42249">
        <ele>58</ele>
        <time>2014-04-14T13:58:26.1Z</time>
      </trkpt>
      <trkpt lat="48.63747" lon="-2.42249">
        <ele>58</ele>
        <time>2014-04-14T13:58:28.1Z</time>
      </trkpt>
      <trkpt lat="48.63747" lon="-2.42249">
        <ele>58</ele>
        <time>2014-04-14T13:58:44.1Z</time>
      </trkpt>
      <trkpt lat="48.63747" lon="-2.42249">
        <ele>58</ele>
        <time>2014-04-14T13:58:47.1Z</time>
      </trkpt>
      <trkpt lat="48.63747" lon="-2.42249">
        <ele>58</ele>
        <time>2014-04-14T13:58:50.1Z</time>
      </trkpt>
      <trkpt lat="48.63747" lon="-2.42249">
        <ele>58</ele>
        <time>2014-04-14T13:58:54.1Z</time>
      </trkpt>
      <trkpt lat="48.63747" lon="-2.42249">
        <ele>58</ele>
        <time>2014-04-14T13:58:58.1Z</time>
      </trkpt>
      <trkpt lat="48.63747" lon="-2.42249">
        <ele>58</ele>
        <time>2014-04-14T13:59:00.1Z</time>
      </trkpt>
      <trkpt lat="48.63747" lon="-2.42249">
        <ele>58</ele>
        <time>2014-04-14T13:59:02.1Z</time>
      </trkpt>
      <trkpt lat="48.63747" lon="-2.42249">
        <ele>58</ele>
        <time>2014-04-14T13:59:08.1Z</time>
      </trkpt>
      <trkpt lat="48.63747" lon="-2.42249">
        <ele>58</ele>
        <time>2014-04-14T13:59:11.1Z</time>
      </trkpt>
      <trkpt lat="48.63747" lon="-2.42249">
        <ele>58</ele>
        <time>2014-04-14T13:59:14.1Z</time>
      </trkpt>
      <trkpt lat="48.63747" lon="-2.42248">
        <ele>58</ele>
        <time>2014-04-14T13:59:16.1Z</time>
      </trkpt>
      <trkpt lat="48.63748" lon="-2.42249">
        <ele>58</ele>
        <time>2014-04-14T13:59:19.1Z</time>
      </trkpt>
      <trkpt lat="48.63748" lon="-2.42249">
        <ele>58</ele>
        <time>2014-04-14T13:59:25.1Z</time>
      </trkpt>
      <trkpt lat="48.63748" lon="-2.42248">
        <ele>58</ele>
        <time>2014-04-14T13:59:27.1Z</time>
      </trkpt>
      <trkpt lat="48.63748" lon="-2.42244">
        <ele>58</ele>
        <time>2014-04-14T13:59:30.1Z</time>
      </trkpt>
      <trkpt lat="48.63747" lon="-2.4224">
        <ele>58</ele>
        <time>2014-04-14T13:59:33.1Z</time>
      </trkpt>
      <trkpt lat="48.63748" lon="-2.42238">
        <ele>58</ele>
        <time>2014-04-14T13:59:35.1Z</time>
      </trkpt>
      <trkpt lat="48.63749" lon="-2.42236">
        <ele>58</ele>
        <time>2014-04-14T13:59:39.1Z</time>
      </trkpt>
      <trkpt lat="48.63748" lon="-2.42237">
        <ele>60</ele>
        <time>2014-04-14T13:59:47.1Z</time>
      </trkpt>
      <trkpt lat="48.63748" lon="-2.42236">
        <ele>59</ele>
        <time>2014-04-14T13:59:49.1Z</time>
      </trkpt>
      <trkpt lat="48.63748" lon="-2.42235">
        <ele>59</ele>
        <time>2014-04-14T13:59:51.1Z</time>
      </trkpt>
      <trkpt lat="48.63748" lon="-2.42236">
        <ele>59</ele>
        <time>2014-04-14T13:59:55.1Z</time>
      </trkpt>
      <trkpt lat="48.63748" lon="-2.42235">
        <ele>60</ele>
        <time>2014-04-14T13:59:59.1Z</time>
      </trkpt>
      <trkpt lat="48.63748" lon="-2.42233">
        <ele>60</ele>
        <time>2014-04-14T14:00:02.1Z</time>
      </trkpt>
      <trkpt lat="48.6375" lon="-2.42229">
        <ele>59</ele>
        <time>2014-04-14T14:00:05.1Z</time>
      </trkpt>
      <trkpt lat="48.63752" lon="-2.42226">
        <ele>58</ele>
        <time>2014-04-14T14:00:08.1Z</time>
      </trkpt>
      <trkpt lat="48.63754" lon="-2.42224">
        <ele>58</ele>
        <time>2014-04-14T14:00:10.1Z</time>
      </trkpt>
      <trkpt lat="48.63755" lon="-2.42221">
        <ele>58</ele>
        <time>2014-04-14T14:00:12.1Z</time>
      </trkpt>
      <trkpt lat="48.63757" lon="-2.42217">
        <ele>57</ele>
        <time>2014-04-14T14:00:15.1Z</time>
      </trkpt>
      <trkpt lat="48.63758" lon="-2.42213">
        <ele>57</ele>
        <time>2014-04-14T14:00:18.1Z</time>
      </trkpt>
      <trkpt lat="48.6376" lon="-2.42211">
        <ele>57</ele>
        <time>2014-04-14T14:00:20.1Z</time>
      </trkpt>
      <trkpt lat="48.63762" lon="-2.42209">
        <ele>57</ele>
        <time>2014-04-14T14:00:22.1Z</time>
      </trkpt>
      <trkpt lat="48.63766" lon="-2.42208">
        <ele>57</ele>
        <time>2014-04-14T14:00:25.1Z</time>
      </trkpt>
      <trkpt lat="48.6377" lon="-2.42205">
        <ele>57</ele>
        <time>2014-04-14T14:00:28.1Z</time>
      </trkpt>
      <trkpt lat="48.63773" lon="-2.42202">
        <ele>57</ele>
        <time>2014-04-14T14:00:31.1Z</time>
      </trkpt>
      <trkpt lat="48.63775" lon="-2.422">
        <ele>57</ele>
        <time>2014-04-14T14:00:33.1Z</time>
      </trkpt>
      <trkpt lat="48.63777" lon="-2.42197">
        <ele>57</ele>
        <time>2014-04-14T14:00:35.1Z</time>
      </trkpt>
      <trkpt lat="48.63779" lon="-2.42194">
        <ele>57</ele>
        <time>2014-04-14T14:00:38.1Z</time>
      </trkpt>
      <trkpt lat="48.63779" lon="-2.42193">
        <ele>58</ele>
        <time>2014-04-14T14:00:42.1Z</time>
      </trkpt>
      <trkpt lat="48.6378" lon="-2.42192">
        <ele>58</ele>
        <time>2014-04-14T14:00:47.1Z</time>
      </trkpt>
      <trkpt lat="48.63782" lon="-2.4219">
        <ele>57</ele>
        <time>2014-04-14T14:00:49.1Z</time>
      </trkpt>
      <trkpt lat="48.63783" lon="-2.42188">
        <ele>57</ele>
        <time>2014-04-14T14:00:51.1Z</time>
      </trkpt>
      <trkpt lat="48.63786" lon="-2.42182">
        <ele>57</ele>
        <time>2014-04-14T14:00:54.1Z</time>
      </trkpt>
      <trkpt lat="48.63788" lon="-2.42179">
        <ele>56</ele>
        <time>2014-04-14T14:00:56.1Z</time>
      </trkpt>
      <trkpt lat="48.63792" lon="-2.42177">
        <ele>56</ele>
        <time>2014-04-14T14:00:59.1Z</time>
      </trkpt>
      <trkpt lat="48.63794" lon="-2.42175">
        <ele>56</ele>
        <time>2014-04-14T14:01:01.1Z</time>
      </trkpt>
      <trkpt lat="48.63797" lon="-2.42174">
        <ele>56</ele>
        <time>2014-04-14T14:01:04.1Z</time>
      </trkpt>
      <trkpt lat="48.63798" lon="-2.42174">
        <ele>56</ele>
        <time>2014-04-14T14:01:07.1Z</time>
      </trkpt>
      <trkpt lat="48.63799" lon="-2.42174">
        <ele>56</ele>
        <time>2014-04-14T14:01:09.1Z</time>
      </trkpt>
      <trkpt lat="48.638" lon="-2.42174">
        <ele>56</ele>
        <time>2014-04-14T14:01:11.1Z</time>
      </trkpt>
      <trkpt lat="48.63803" lon="-2.42173">
        <ele>56</ele>
        <time>2014-04-14T14:01:14.1Z</time>
      </trkpt>
      <trkpt lat="48.63805" lon="-2.42173">
        <ele>56</ele>
        <time>2014-04-14T14:01:16.1Z</time>
      </trkpt>
      <trkpt lat="48.63808" lon="-2.42173">
        <ele>56</ele>
        <time>2014-04-14T14:01:19.1Z</time>
      </trkpt>
      <trkpt lat="48.6381" lon="-2.42172">
        <ele>55</ele>
        <time>2014-04-14T14:01:21.1Z</time>
      </trkpt>
      <trkpt lat="48.63813" lon="-2.42172">
        <ele>55</ele>
        <time>2014-04-14T14:01:24.1Z</time>
      </trkpt>
      <trkpt lat="48.63816" lon="-2.42171">
        <ele>55</ele>
        <time>2014-04-14T14:01:27.1Z</time>
      </trkpt>
      <trkpt lat="48.63819" lon="-2.42172">
        <ele>55</ele>
        <time>2014-04-14T14:01:30.1Z</time>
      </trkpt>
      <trkpt lat="48.63821" lon="-2.42172">
        <ele>55</ele>
        <time>2014-04-14T14:01:32.1Z</time>
      </trkpt>
      <trkpt lat="48.63824" lon="-2.42173">
        <ele>55</ele>
        <time>2014-04-14T14:01:35.1Z</time>
      </trkpt>
      <trkpt lat="48.63826" lon="-2.42174">
        <ele>56</ele>
        <time>2014-04-14T14:01:37.1Z</time>
      </trkpt>
      <trkpt lat="48.63828" lon="-2.42175">
        <ele>56</ele>
        <time>2014-04-14T14:01:39.1Z</time>
      </trkpt>
      <trkpt lat="48.63831" lon="-2.42176">
        <ele>56</ele>
        <time>2014-04-14T14:01:41.1Z</time>
      </trkpt>
      <trkpt lat="48.63833" lon="-2.42177">
        <ele>56</ele>
        <time>2014-04-14T14:01:43.1Z</time>
      </trkpt>
      <trkpt lat="48.63835" lon="-2.42177">
        <ele>56</ele>
        <time>2014-04-14T14:01:45.1Z</time>
      </trkpt>
      <trkpt lat="48.63839" lon="-2.42178">
        <ele>56</ele>
        <time>2014-04-14T14:01:48.1Z</time>
      </trkpt>
      <trkpt lat="48.63842" lon="-2.42179">
        <ele>57</ele>
        <time>2014-04-14T14:01:51.1Z</time>
      </trkpt>
      <trkpt lat="48.63844" lon="-2.42181">
        <ele>57</ele>
        <time>2014-04-14T14:01:53.1Z</time>
      </trkpt>
      <trkpt lat="48.63845" lon="-2.42182">
        <ele>57</ele>
        <time>2014-04-14T14:01:55.1Z</time>
      </trkpt>
      <trkpt lat="48.63847" lon="-2.42183">
        <ele>57</ele>
        <time>2014-04-14T14:01:57.1Z</time>
      </trkpt>
      <trkpt lat="48.6385" lon="-2.42185">
        <ele>57</ele>
        <time>2014-04-14T14:02:00.1Z</time>
      </trkpt>
      <trkpt lat="48.63852" lon="-2.42186">
        <ele>57</ele>
        <time>2014-04-14T14:02:02.1Z</time>
      </trkpt>
      <trkpt lat="48.63854" lon="-2.42188">
        <ele>57</ele>
        <time>2014-04-14T14:02:04.1Z</time>
      </trkpt>
      <trkpt lat="48.63857" lon="-2.4219">
        <ele>56</ele>
        <time>2014-04-14T14:02:07.1Z</time>
      </trkpt>
      <trkpt lat="48.63858" lon="-2.42192">
        <ele>56</ele>
        <time>2014-04-14T14:02:09.1Z</time>
      </trkpt>
      <trkpt lat="48.63859" lon="-2.42193">
        <ele>57</ele>
        <time>2014-04-14T14:02:11.1Z</time>
      </trkpt>
      <trkpt lat="48.6386" lon="-2.42193">
        <ele>56</ele>
        <time>2014-04-14T14:02:14.1Z</time>
      </trkpt>
      <trkpt lat="48.6386" lon="-2.42193">
        <ele>55</ele>
        <time>2014-04-14T14:02:19.1Z</time>
      </trkpt>
      <trkpt lat="48.6386" lon="-2.42193">
        <ele>56</ele>
        <time>2014-04-14T14:02:22.1Z</time>
      </trkpt>
      <trkpt lat="48.6386" lon="-2.42193">
        <ele>57</ele>
        <time>2014-04-14T14:02:30.1Z</time>
      </trkpt>
      <trkpt lat="48.6386" lon="-2.42195">
        <ele>57</ele>
        <time>2014-04-14T14:02:32.1Z</time>
      </trkpt>
      <trkpt lat="48.63863" lon="-2.42196">
        <ele>57</ele>
        <time>2014-04-14T14:02:35.1Z</time>
      </trkpt>
      <trkpt lat="48.63865" lon="-2.42198">
        <ele>57</ele>
        <time>2014-04-14T14:02:37.1Z</time>
      </trkpt>
      <trkpt lat="48.63867" lon="-2.422">
        <ele>56</ele>
        <time>2014-04-14T14:02:39.1Z</time>
      </trkpt>
      <trkpt lat="48.63869" lon="-2.42202">
        <ele>56</ele>
        <time>2014-04-14T14:02:42.1Z</time>
      </trkpt>
      <trkpt lat="48.63871" lon="-2.42204">
        <ele>56</ele>
        <time>2014-04-14T14:02:44.1Z</time>
      </trkpt>
      <trkpt lat="48.63874" lon="-2.42206">
        <ele>56</ele>
        <time>2014-04-14T14:02:47.1Z</time>
      </trkpt>
      <trkpt lat="48.63875" lon="-2.42208">
        <ele>56</ele>
        <time>2014-04-14T14:02:49.1Z</time>
      </trkpt>
      <trkpt lat="48.63876" lon="-2.42209">
        <ele>57</ele>
        <time>2014-04-14T14:02:51.1Z</time>
      </trkpt>
      <trkpt lat="48.63878" lon="-2.42213">
        <ele>57</ele>
        <time>2014-04-14T14:02:54.1Z</time>
      </trkpt>
      <trkpt lat="48.63879" lon="-2.42215">
        <ele>57</ele>
        <time>2014-04-14T14:02:56.1Z</time>
      </trkpt>
      <trkpt lat="48.6388" lon="-2.42217">
        <ele>57</ele>
        <time>2014-04-14T14:02:58.1Z</time>
      </trkpt>
      <trkpt lat="48.63882" lon="-2.4222">
        <ele>57</ele>
        <time>2014-04-14T14:03:01.1Z</time>
      </trkpt>
      <trkpt lat="48.63884" lon="-2.42222">
        <ele>57</ele>
        <time>2014-04-14T14:03:03.1Z</time>
      </trkpt>
      <trkpt lat="48.63886" lon="-2.42223">
        <ele>57</ele>
        <time>2014-04-14T14:03:06.1Z</time>
      </trkpt>
      <trkpt lat="48.63887" lon="-2.42223">
        <ele>57</ele>
        <time>2014-04-14T14:03:08.1Z</time>
      </trkpt>
      <trkpt lat="48.6389" lon="-2.42223">
        <ele>56</ele>
        <time>2014-04-14T14:03:11.1Z</time>
      </trkpt>
      <trkpt lat="48.63893" lon="-2.42222">
        <ele>56</ele>
        <time>2014-04-14T14:03:14.1Z</time>
      </trkpt>
      <trkpt lat="48.63895" lon="-2.42223">
        <ele>56</ele>
        <time>2014-04-14T14:03:16.1Z</time>
      </trkpt>
      <trkpt lat="48.63898" lon="-2.42224">
        <ele>56</ele>
        <time>2014-04-14T14:03:19.1Z</time>
      </trkpt>
      <trkpt lat="48.639" lon="-2.42224">
        <ele>56</ele>
        <time>2014-04-14T14:03:21.1Z</time>
      </trkpt>
      <trkpt lat="48.63903" lon="-2.42226">
        <ele>57</ele>
        <time>2014-04-14T14:03:24.1Z</time>
      </trkpt>
      <trkpt lat="48.63906" lon="-2.42227">
        <ele>57</ele>
        <time>2014-04-14T14:03:27.1Z</time>
      </trkpt>
      <trkpt lat="48.63908" lon="-2.42228">
        <ele>56</ele>
        <time>2014-04-14T14:03:29.1Z</time>
      </trkpt>
      <trkpt lat="48.63911" lon="-2.42229">
        <ele>56</ele>
        <time>2014-04-14T14:03:32.1Z</time>
      </trkpt>
      <trkpt lat="48.63914" lon="-2.42231">
        <ele>56</ele>
        <time>2014-04-14T14:03:35.1Z</time>
      </trkpt>
      <trkpt lat="48.63916" lon="-2.42232">
        <ele>56</ele>
        <time>2014-04-14T14:03:37.1Z</time>
      </trkpt>
      <trkpt lat="48.63918" lon="-2.42233">
        <ele>56</ele>
        <time>2014-04-14T14:03:40.1Z</time>
      </trkpt>
      <trkpt lat="48.6392" lon="-2.42234">
        <ele>56</ele>
        <time>2014-04-14T14:03:42.1Z</time>
      </trkpt>
      <trkpt lat="48.63923" lon="-2.42236">
        <ele>55</ele>
        <time>2014-04-14T14:03:45.1Z</time>
      </trkpt>
      <trkpt lat="48.63924" lon="-2.42238">
        <ele>55</ele>
        <time>2014-04-14T14:03:47.1Z</time>
      </trkpt>
      <trkpt lat="48.63926" lon="-2.42239">
        <ele>55</ele>
        <time>2014-04-14T14:03:49.1Z</time>
      </trkpt>
      <trkpt lat="48.63929" lon="-2.4224">
        <ele>54</ele>
        <time>2014-04-14T14:03:52.1Z</time>
      </trkpt>
      <trkpt lat="48.63933" lon="-2.42241">
        <ele>53</ele>
        <time>2014-04-14T14:03:55.1Z</time>
      </trkpt>
      <trkpt lat="48.63935" lon="-2.42242">
        <ele>53</ele>
        <time>2014-04-14T14:03:58.1Z</time>
      </trkpt>
      <trkpt lat="48.63937" lon="-2.42242">
        <ele>53</ele>
        <time>2014-04-14T14:04:00.1Z</time>
      </trkpt>
      <trkpt lat="48.63939" lon="-2.42243">
        <ele>53</ele>
        <time>2014-04-14T14:04:03.1Z</time>
      </trkpt>
      <trkpt lat="48.63941" lon="-2.42243">
        <ele>53</ele>
        <time>2014-04-14T14:04:05.1Z</time>
      </trkpt>
      <trkpt lat="48.63943" lon="-2.42245">
        <ele>53</ele>
        <time>2014-04-14T14:04:08.1Z</time>
      </trkpt>
      <trkpt lat="48.63945" lon="-2.42245">
        <ele>53</ele>
        <time>2014-04-14T14:04:11.1Z</time>
      </trkpt>
      <trkpt lat="48.63946" lon="-2.42244">
        <ele>52</ele>
        <time>2014-04-14T14:04:13.1Z</time>
      </trkpt>
      <trkpt lat="48.63949" lon="-2.42243">
        <ele>51</ele>
        <time>2014-04-14T14:04:16.1Z</time>
      </trkpt>
      <trkpt lat="48.6395" lon="-2.42243">
        <ele>51</ele>
        <time>2014-04-14T14:04:18.1Z</time>
      </trkpt>
      <trkpt lat="48.63954" lon="-2.42243">
        <ele>50</ele>
        <time>2014-04-14T14:04:21.1Z</time>
      </trkpt>
      <trkpt lat="48.63956" lon="-2.42243">
        <ele>50</ele>
        <time>2014-04-14T14:04:23.1Z</time>
      </trkpt>
      <trkpt lat="48.63958" lon="-2.42242">
        <ele>50</ele>
        <time>2014-04-14T14:04:25.1Z</time>
      </trkpt>
      <trkpt lat="48.6396" lon="-2.4224">
        <ele>50</ele>
        <time>2014-04-14T14:04:28.1Z</time>
      </trkpt>
      <trkpt lat="48.6396" lon="-2.4224">
        <ele>51</ele>
        <time>2014-04-14T14:04:34.1Z</time>
      </trkpt>
      <trkpt lat="48.6396" lon="-2.4224">
        <ele>52</ele>
        <time>2014-04-14T14:04:37.1Z</time>
      </trkpt>
      <trkpt lat="48.63961" lon="-2.42241">
        <ele>51</ele>
        <time>2014-04-14T14:04:40.1Z</time>
      </trkpt>
      <trkpt lat="48.63962" lon="-2.42242">
        <ele>51</ele>
        <time>2014-04-14T14:04:42.1Z</time>
      </trkpt>
      <trkpt lat="48.63966" lon="-2.4224">
        <ele>50</ele>
        <time>2014-04-14T14:04:45.1Z</time>
      </trkpt>
      <trkpt lat="48.63967" lon="-2.42237">
        <ele>49</ele>
        <time>2014-04-14T14:04:47.1Z</time>
      </trkpt>
      <trkpt lat="48.63968" lon="-2.42234">
        <ele>48</ele>
        <time>2014-04-14T14:04:49.1Z</time>
      </trkpt>
      <trkpt lat="48.63971" lon="-2.42232">
        <ele>47</ele>
        <time>2014-04-14T14:04:52.1Z</time>
      </trkpt>
      <trkpt lat="48.63975" lon="-2.42231">
        <ele>46</ele>
        <time>2014-04-14T14:04:55.1Z</time>
      </trkpt>
      <trkpt lat="48.63978" lon="-2.42231">
        <ele>46</ele>
        <time>2014-04-14T14:04:58.1Z</time>
      </trkpt>
      <trkpt lat="48.63981" lon="-2.4223">
        <ele>46</ele>
        <time>2014-04-14T14:05:01.1Z</time>
      </trkpt>
      <trkpt lat="48.63984" lon="-2.4223">
        <ele>46</ele>
        <time>2014-04-14T14:05:03.1Z</time>
      </trkpt>
      <trkpt lat="48.63987" lon="-2.42231">
        <ele>46</ele>
        <time>2014-04-14T14:05:06.1Z</time>
      </trkpt>
      <trkpt lat="48.6399" lon="-2.42233">
        <ele>46</ele>
        <time>2014-04-14T14:05:09.1Z</time>
      </trkpt>
      <trkpt lat="48.63991" lon="-2.42235">
        <ele>46</ele>
        <time>2014-04-14T14:05:11.1Z</time>
      </trkpt>
      <trkpt lat="48.63993" lon="-2.42236">
        <ele>47</ele>
        <time>2014-04-14T14:05:13.1Z</time>
      </trkpt>
      <trkpt lat="48.63996" lon="-2.42238">
        <ele>47</ele>
        <time>2014-04-14T14:05:16.1Z</time>
      </trkpt>
      <trkpt lat="48.63998" lon="-2.42239">
        <ele>47</ele>
        <time>2014-04-14T14:05:18.1Z</time>
      </trkpt>
      <trkpt lat="48.64001" lon="-2.42238">
        <ele>47</ele>
        <time>2014-04-14T14:05:21.1Z</time>
      </trkpt>
      <trkpt lat="48.64004" lon="-2.42237">
        <ele>46</ele>
        <time>2014-04-14T14:05:24.1Z</time>
      </trkpt>
      <trkpt lat="48.64006" lon="-2.42236">
        <ele>46</ele>
        <time>2014-04-14T14:05:26.1Z</time>
      </trkpt>
      <trkpt lat="48.64008" lon="-2.42235">
        <ele>46</ele>
        <time>2014-04-14T14:05:29.1Z</time>
      </trkpt>
      <trkpt lat="48.64011" lon="-2.42236">
        <ele>46</ele>
        <time>2014-04-14T14:05:32.1Z</time>
      </trkpt>
      <trkpt lat="48.64014" lon="-2.42236">
        <ele>46</ele>
        <time>2014-04-14T14:05:35.1Z</time>
      </trkpt>
      <trkpt lat="48.64017" lon="-2.42237">
        <ele>45</ele>
        <time>2014-04-14T14:05:38.1Z</time>
      </trkpt>
      <trkpt lat="48.64019" lon="-2.42237">
        <ele>45</ele>
        <time>2014-04-14T14:05:40.1Z</time>
      </trkpt>
      <trkpt lat="48.64019" lon="-2.42237">
        <ele>45</ele>
        <time>2014-04-14T14:05:42.1Z</time>
      </trkpt>
      <trkpt lat="48.64021" lon="-2.42237">
        <ele>45</ele>
        <time>2014-04-14T14:05:45.1Z</time>
      </trkpt>
      <trkpt lat="48.64021" lon="-2.42237">
        <ele>45</ele>
        <time>2014-04-14T14:05:47.1Z</time>
      </trkpt>
      <trkpt lat="48.64021" lon="-2.42237">
        <ele>44</ele>
        <time>2014-04-14T14:05:49.1Z</time>
      </trkpt>
      <trkpt lat="48.64023" lon="-2.42237">
        <ele>44</ele>
        <time>2014-04-14T14:05:52.1Z</time>
      </trkpt>
      <trkpt lat="48.64024" lon="-2.42237">
        <ele>45</ele>
        <time>2014-04-14T14:05:54.1Z</time>
      </trkpt>
      <trkpt lat="48.64026" lon="-2.42236">
        <ele>44</ele>
        <time>2014-04-14T14:05:57.1Z</time>
      </trkpt>
      <trkpt lat="48.64027" lon="-2.42235">
        <ele>44</ele>
        <time>2014-04-14T14:06:00.1Z</time>
      </trkpt>
      <trkpt lat="48.64029" lon="-2.42233">
        <ele>43</ele>
        <time>2014-04-14T14:06:03.1Z</time>
      </trkpt>
      <trkpt lat="48.64028" lon="-2.42229">
        <ele>43</ele>
        <time>2014-04-14T14:06:05.1Z</time>
      </trkpt>
      <trkpt lat="48.64025" lon="-2.42225">
        <ele>42</ele>
        <time>2014-04-14T14:06:08.1Z</time>
      </trkpt>
      <trkpt lat="48.64023" lon="-2.42224">
        <ele>42</ele>
        <time>2014-04-14T14:06:10.1Z</time>
      </trkpt>
      <trkpt lat="48.64021" lon="-2.42222">
        <ele>41</ele>
        <time>2014-04-14T14:06:12.1Z</time>
      </trkpt>
      <trkpt lat="48.64018" lon="-2.42219">
        <ele>41</ele>
        <time>2014-04-14T14:06:15.1Z</time>
      </trkpt>
      <trkpt lat="48.64014" lon="-2.42217">
        <ele>41</ele>
        <time>2014-04-14T14:06:18.1Z</time>
      </trkpt>
      <trkpt lat="48.64012" lon="-2.42216">
        <ele>41</ele>
        <time>2014-04-14T14:06:20.1Z</time>
      </trkpt>
      <trkpt lat="48.64008" lon="-2.42215">
        <ele>41</ele>
        <time>2014-04-14T14:06:23.1Z</time>
      </trkpt>
      <trkpt lat="48.64005" lon="-2.42213">
        <ele>40</ele>
        <time>2014-04-14T14:06:26.1Z</time>
      </trkpt>
      <trkpt lat="48.64002" lon="-2.42213">
        <ele>40</ele>
        <time>2014-04-14T14:06:28.1Z</time>
      </trkpt>
      <trkpt lat="48.64" lon="-2.42212">
        <ele>40</ele>
        <time>2014-04-14T14:06:30.1Z</time>
      </trkpt>
      <trkpt lat="48.63996" lon="-2.42211">
        <ele>41</ele>
        <time>2014-04-14T14:06:33.1Z</time>
      </trkpt>
      <trkpt lat="48.63992" lon="-2.42209">
        <ele>41</ele>
        <time>2014-04-14T14:06:36.1Z</time>
      </trkpt>
      <trkpt lat="48.63988" lon="-2.42209">
        <ele>41</ele>
        <time>2014-04-14T14:06:39.1Z</time>
      </trkpt>
      <trkpt lat="48.63985" lon="-2.42208">
        <ele>41</ele>
        <time>2014-04-14T14:06:42.1Z</time>
      </trkpt>
      <trkpt lat="48.63981" lon="-2.42207">
        <ele>40</ele>
        <time>2014-04-14T14:06:45.1Z</time>
      </trkpt>
      <trkpt lat="48.63979" lon="-2.42207">
        <ele>40</ele>
        <time>2014-04-14T14:06:47.1Z</time>
      </trkpt>
      <trkpt lat="48.63976" lon="-2.42206">
        <ele>40</ele>
        <time>2014-04-14T14:06:49.1Z</time>
      </trkpt>
      <trkpt lat="48.63972" lon="-2.42205">
        <ele>39</ele>
        <time>2014-04-14T14:06:52.1Z</time>
      </trkpt>
      <trkpt lat="48.63969" lon="-2.42204">
        <ele>39</ele>
        <time>2014-04-14T14:06:55.1Z</time>
      </trkpt>
      <trkpt lat="48.63965" lon="-2.42204">
        <ele>39</ele>
        <time>2014-04-14T14:06:58.1Z</time>
      </trkpt>
      <trkpt lat="48.63961" lon="-2.42203">
        <ele>39</ele>
        <time>2014-04-14T14:07:01.1Z</time>
      </trkpt>
      <trkpt lat="48.63959" lon="-2.42202">
        <ele>39</ele>
        <time>2014-04-14T14:07:03.1Z</time>
      </trkpt>
      <trkpt lat="48.63956" lon="-2.42201">
        <ele>38</ele>
        <time>2014-04-14T14:07:06.1Z</time>
      </trkpt>
      <trkpt lat="48.63953" lon="-2.42201">
        <ele>38</ele>
        <time>2014-04-14T14:07:08.1Z</time>
      </trkpt>
      <trkpt lat="48.63951" lon="-2.42199">
        <ele>39</ele>
        <time>2014-04-14T14:07:10.1Z</time>
      </trkpt>
      <trkpt lat="48.63948" lon="-2.42197">
        <ele>38</ele>
        <time>2014-04-14T14:07:13.1Z</time>
      </trkpt>
      <trkpt lat="48.63946" lon="-2.42196">
        <ele>38</ele>
        <time>2014-04-14T14:07:15.1Z</time>
      </trkpt>
      <trkpt lat="48.63942" lon="-2.42193">
        <ele>38</ele>
        <time>2014-04-14T14:07:18.1Z</time>
      </trkpt>
      <trkpt lat="48.63939" lon="-2.4219">
        <ele>38</ele>
        <time>2014-04-14T14:07:21.1Z</time>
      </trkpt>
      <trkpt lat="48.63936" lon="-2.42188">
        <ele>38</ele>
        <time>2014-04-14T14:07:24.1Z</time>
      </trkpt>
      <trkpt lat="48.63932" lon="-2.42185">
        <ele>37</ele>
        <time>2014-04-14T14:07:27.1Z</time>
      </trkpt>
      <trkpt lat="48.63929" lon="-2.42182">
        <ele>37</ele>
        <time>2014-04-14T14:07:30.1Z</time>
      </trkpt>
      <trkpt lat="48.63927" lon="-2.4218">
        <ele>37</ele>
        <time>2014-04-14T14:07:32.1Z</time>
      </trkpt>
      <trkpt lat="48.63924" lon="-2.42178">
        <ele>37</ele>
        <time>2014-04-14T14:07:35.1Z</time>
      </trkpt>
      <trkpt lat="48.63922" lon="-2.42176">
        <ele>37</ele>
        <time>2014-04-14T14:07:38.1Z</time>
      </trkpt>
      <trkpt lat="48.6392" lon="-2.42174">
        <ele>37</ele>
        <time>2014-04-14T14:07:40.1Z</time>
      </trkpt>
      <trkpt lat="48.63918" lon="-2.4217">
        <ele>37</ele>
        <time>2014-04-14T14:07:43.1Z</time>
      </trkpt>
      <trkpt lat="48.63915" lon="-2.42168">
        <ele>37</ele>
        <time>2014-04-14T14:07:46.1Z</time>
      </trkpt>
      <trkpt lat="48.63912" lon="-2.42165">
        <ele>37</ele>
        <time>2014-04-14T14:07:49.1Z</time>
      </trkpt>
      <trkpt lat="48.63909" lon="-2.42163">
        <ele>36</ele>
        <time>2014-04-14T14:07:52.1Z</time>
      </trkpt>
      <trkpt lat="48.63907" lon="-2.42162">
        <ele>36</ele>
        <time>2014-04-14T14:07:54.1Z</time>
      </trkpt>
      <trkpt lat="48.63905" lon="-2.42161">
        <ele>36</ele>
        <time>2014-04-14T14:07:57.1Z</time>
      </trkpt>
      <trkpt lat="48.63905" lon="-2.42161">
        <ele>36</ele>
        <time>2014-04-14T14:07:59.1Z</time>
      </trkpt>
      <trkpt lat="48.63905" lon="-2.42161">
        <ele>36</ele>
        <time>2014-04-14T14:08:02.1Z</time>
      </trkpt>
      <trkpt lat="48.63904" lon="-2.4216">
        <ele>36</ele>
        <time>2014-04-14T14:08:04.1Z</time>
      </trkpt>
      <trkpt lat="48.63902" lon="-2.42157">
        <ele>36</ele>
        <time>2014-04-14T14:08:07.1Z</time>
      </trkpt>
      <trkpt lat="48.639" lon="-2.42155">
        <ele>36</ele>
        <time>2014-04-14T14:08:09.1Z</time>
      </trkpt>
      <trkpt lat="48.63897" lon="-2.42151">
        <ele>35</ele>
        <time>2014-04-14T14:08:12.1Z</time>
      </trkpt>
      <trkpt lat="48.63894" lon="-2.42147">
        <ele>35</ele>
        <time>2014-04-14T14:08:15.1Z</time>
      </trkpt>
      <trkpt lat="48.63891" lon="-2.42143">
        <ele>35</ele>
        <time>2014-04-14T14:08:18.1Z</time>
      </trkpt>
      <trkpt lat="48.63888" lon="-2.42139">
        <ele>35</ele>
        <time>2014-04-14T14:08:21.1Z</time>
      </trkpt>
      <trkpt lat="48.63885" lon="-2.42136">
        <ele>35</ele>
        <time>2014-04-14T14:08:24.1Z</time>
      </trkpt>
      <trkpt lat="48.63882" lon="-2.42132">
        <ele>35</ele>
        <time>2014-04-14T14:08:27.1Z</time>
      </trkpt>
      <trkpt lat="48.6388" lon="-2.42129">
        <ele>35</ele>
        <time>2014-04-14T14:08:29.1Z</time>
      </trkpt>
      <trkpt lat="48.63877" lon="-2.42125">
        <ele>34</ele>
        <time>2014-04-14T14:08:32.1Z</time>
      </trkpt>
      <trkpt lat="48.63874" lon="-2.42121">
        <ele>34</ele>
        <time>2014-04-14T14:08:35.1Z</time>
      </trkpt>
      <trkpt lat="48.63871" lon="-2.42117">
        <ele>34</ele>
        <time>2014-04-14T14:08:38.1Z</time>
      </trkpt>
      <trkpt lat="48.63869" lon="-2.42115">
        <ele>34</ele>
        <time>2014-04-14T14:08:40.1Z</time>
      </trkpt>
      <trkpt lat="48.63866" lon="-2.42111">
        <ele>34</ele>
        <time>2014-04-14T14:08:43.1Z</time>
      </trkpt>
      <trkpt lat="48.63865" lon="-2.42109">
        <ele>34</ele>
        <time>2014-04-14T14:08:45.1Z</time>
      </trkpt>
      <trkpt lat="48.63862" lon="-2.42105">
        <ele>34</ele>
        <time>2014-04-14T14:08:48.1Z</time>
      </trkpt>
      <trkpt lat="48.63859" lon="-2.42102">
        <ele>33</ele>
        <time>2014-04-14T14:08:51.1Z</time>
      </trkpt>
      <trkpt lat="48.63857" lon="-2.42099">
        <ele>33</ele>
        <time>2014-04-14T14:08:53.1Z</time>
      </trkpt>
      <trkpt lat="48.63854" lon="-2.42096">
        <ele>33</ele>
        <time>2014-04-14T14:08:56.1Z</time>
      </trkpt>
      <trkpt lat="48.63852" lon="-2.42094">
        <ele>33</ele>
        <time>2014-04-14T14:08:58.1Z</time>
      </trkpt>
      <trkpt lat="48.63848" lon="-2.42093">
        <ele>33</ele>
        <time>2014-04-14T14:09:01.1Z</time>
      </trkpt>
      <trkpt lat="48.63847" lon="-2.42093">
        <ele>33</ele>
        <time>2014-04-14T14:09:03.1Z</time>
      </trkpt>
      <trkpt lat="48.63844" lon="-2.42092">
        <ele>33</ele>
        <time>2014-04-14T14:09:06.1Z</time>
      </trkpt>
      <trkpt lat="48.63841" lon="-2.42091">
        <ele>32</ele>
        <time>2014-04-14T14:09:09.1Z</time>
      </trkpt>
      <trkpt lat="48.63838" lon="-2.4209">
        <ele>32</ele>
        <time>2014-04-14T14:09:12.1Z</time>
      </trkpt>
      <trkpt lat="48.63836" lon="-2.42089">
        <ele>32</ele>
        <time>2014-04-14T14:09:14.1Z</time>
      </trkpt>
      <trkpt lat="48.63834" lon="-2.42087">
        <ele>32</ele>
        <time>2014-04-14T14:09:16.1Z</time>
      </trkpt>
      <trkpt lat="48.63831" lon="-2.42086">
        <ele>32</ele>
        <time>2014-04-14T14:09:19.1Z</time>
      </trkpt>
      <trkpt lat="48.63829" lon="-2.42085">
        <ele>31</ele>
        <time>2014-04-14T14:09:21.1Z</time>
      </trkpt>
      <trkpt lat="48.63826" lon="-2.42083">
        <ele>32</ele>
        <time>2014-04-14T14:09:24.1Z</time>
      </trkpt>
      <trkpt lat="48.63823" lon="-2.42079">
        <ele>32</ele>
        <time>2014-04-14T14:09:27.1Z</time>
      </trkpt>
      <trkpt lat="48.63821" lon="-2.42077">
        <ele>31</ele>
        <time>2014-04-14T14:09:29.1Z</time>
      </trkpt>
      <trkpt lat="48.63819" lon="-2.42074">
        <ele>31</ele>
        <time>2014-04-14T14:09:32.1Z</time>
      </trkpt>
      <trkpt lat="48.63817" lon="-2.42071">
        <ele>31</ele>
        <time>2014-04-14T14:09:34.1Z</time>
      </trkpt>
      <trkpt lat="48.63815" lon="-2.42067">
        <ele>31</ele>
        <time>2014-04-14T14:09:37.1Z</time>
      </trkpt>
      <trkpt lat="48.63815" lon="-2.42064">
        <ele>30</ele>
        <time>2014-04-14T14:09:39.1Z</time>
      </trkpt>
      <trkpt lat="48.63814" lon="-2.42059">
        <ele>30</ele>
        <time>2014-04-14T14:09:42.1Z</time>
      </trkpt>
      <trkpt lat="48.63814" lon="-2.42056">
        <ele>31</ele>
        <time>2014-04-14T14:09:44.1Z</time>
      </trkpt>
      <trkpt lat="48.63814" lon="-2.42053">
        <ele>30</ele>
        <time>2014-04-14T14:09:46.1Z</time>
      </trkpt>
      <trkpt lat="48.63814" lon="-2.4205">
        <ele>30</ele>
        <time>2014-04-14T14:09:48.1Z</time>
      </trkpt>
      <trkpt lat="48.63814" lon="-2.42044">
        <ele>29</ele>
        <time>2014-04-14T14:09:51.1Z</time>
      </trkpt>
      <trkpt lat="48.63815" lon="-2.4204">
        <ele>29</ele>
        <time>2014-04-14T14:09:54.1Z</time>
      </trkpt>
      <trkpt lat="48.63815" lon="-2.42037">
        <ele>29</ele>
        <time>2014-04-14T14:09:56.1Z</time>
      </trkpt>
      <trkpt lat="48.63816" lon="-2.42032">
        <ele>29</ele>
        <time>2014-04-14T14:09:59.1Z</time>
      </trkpt>
      <trkpt lat="48.63816" lon="-2.42027">
        <ele>29</ele>
        <time>2014-04-14T14:10:02.1Z</time>
      </trkpt>
      <trkpt lat="48.63816" lon="-2.42024">
        <ele>28</ele>
        <time>2014-04-14T14:10:04.1Z</time>
      </trkpt>
      <trkpt lat="48.63817" lon="-2.4202">
        <ele>28</ele>
        <time>2014-04-14T14:10:07.1Z</time>
      </trkpt>
      <trkpt lat="48.63817" lon="-2.42015">
        <ele>28</ele>
        <time>2014-04-14T14:10:10.1Z</time>
      </trkpt>
      <trkpt lat="48.63817" lon="-2.42011">
        <ele>28</ele>
        <time>2014-04-14T14:10:13.1Z</time>
      </trkpt>
      <trkpt lat="48.63817" lon="-2.42007">
        <ele>28</ele>
        <time>2014-04-14T14:10:15.1Z</time>
      </trkpt>
      <trkpt lat="48.63817" lon="-2.42004">
        <ele>28</ele>
        <time>2014-04-14T14:10:17.1Z</time>
      </trkpt>
      <trkpt lat="48.63817" lon="-2.42">
        <ele>27</ele>
        <time>2014-04-14T14:10:20.1Z</time>
      </trkpt>
      <trkpt lat="48.63816" lon="-2.41997">
        <ele>28</ele>
        <time>2014-04-14T14:10:22.1Z</time>
      </trkpt>
      <trkpt lat="48.63816" lon="-2.41992">
        <ele>28</ele>
        <time>2014-04-14T14:10:25.1Z</time>
      </trkpt>
      <trkpt lat="48.63815" lon="-2.41989">
        <ele>27</ele>
        <time>2014-04-14T14:10:27.1Z</time>
      </trkpt>
      <trkpt lat="48.63815" lon="-2.41984">
        <ele>27</ele>
        <time>2014-04-14T14:10:30.1Z</time>
      </trkpt>
      <trkpt lat="48.63814" lon="-2.41979">
        <ele>27</ele>
        <time>2014-04-14T14:10:33.1Z</time>
      </trkpt>
      <trkpt lat="48.63813" lon="-2.41975">
        <ele>27</ele>
        <time>2014-04-14T14:10:36.1Z</time>
      </trkpt>
      <trkpt lat="48.63811" lon="-2.4197">
        <ele>26</ele>
        <time>2014-04-14T14:10:39.1Z</time>
      </trkpt>
      <trkpt lat="48.63809" lon="-2.41968">
        <ele>26</ele>
        <time>2014-04-14T14:10:41.1Z</time>
      </trkpt>
      <trkpt lat="48.63808" lon="-2.41966">
        <ele>26</ele>
        <time>2014-04-14T14:10:43.1Z</time>
      </trkpt>
      <trkpt lat="48.63805" lon="-2.41965">
        <ele>26</ele>
        <time>2014-04-14T14:10:45.1Z</time>
      </trkpt>
      <trkpt lat="48.63803" lon="-2.41962">
        <ele>26</ele>
        <time>2014-04-14T14:10:48.1Z</time>
      </trkpt>
      <trkpt lat="48.63802" lon="-2.4196">
        <ele>26</ele>
        <time>2014-04-14T14:10:50.1Z</time>
      </trkpt>
      <trkpt lat="48.638" lon="-2.41957">
        <ele>26</ele>
        <time>2014-04-14T14:10:52.1Z</time>
      </trkpt>
      <trkpt lat="48.63797" lon="-2.41953">
        <ele>26</ele>
        <time>2014-04-14T14:10:55.1Z</time>
      </trkpt>
      <trkpt lat="48.63795" lon="-2.4195">
        <ele>26</ele>
        <time>2014-04-14T14:10:57.1Z</time>
      </trkpt>
      <trkpt lat="48.63793" lon="-2.41946">
        <ele>25</ele>
        <time>2014-04-14T14:11:00.1Z</time>
      </trkpt>
      <trkpt lat="48.63791" lon="-2.41943">
        <ele>25</ele>
        <time>2014-04-14T14:11:03.1Z</time>
      </trkpt>
      <trkpt lat="48.63788" lon="-2.41939">
        <ele>25</ele>
        <time>2014-04-14T14:11:06.1Z</time>
      </trkpt>
      <trkpt lat="48.63787" lon="-2.41937">
        <ele>25</ele>
        <time>2014-04-14T14:11:08.1Z</time>
      </trkpt>
      <trkpt lat="48.63785" lon="-2.41933">
        <ele>25</ele>
        <time>2014-04-14T14:11:11.1Z</time>
      </trkpt>
      <trkpt lat="48.63783" lon="-2.41931">
        <ele>24</ele>
        <time>2014-04-14T14:11:13.1Z</time>
      </trkpt>
      <trkpt lat="48.63781" lon="-2.41927">
        <ele>24</ele>
        <time>2014-04-14T14:11:16.1Z</time>
      </trkpt>
      <trkpt lat="48.6378" lon="-2.41921">
        <ele>24</ele>
        <time>2014-04-14T14:11:19.1Z</time>
      </trkpt>
      <trkpt lat="48.63778" lon="-2.41917">
        <ele>24</ele>
        <time>2014-04-14T14:11:22.1Z</time>
      </trkpt>
      <trkpt lat="48.63776" lon="-2.41914">
        <ele>23</ele>
        <time>2014-04-14T14:11:24.1Z</time>
      </trkpt>
      <trkpt lat="48.63774" lon="-2.4191">
        <ele>23</ele>
        <time>2014-04-14T14:11:27.1Z</time>
      </trkpt>
      <trkpt lat="48.63772" lon="-2.41906">
        <ele>23</ele>
        <time>2014-04-14T14:11:29.1Z</time>
      </trkpt>
      <trkpt lat="48.63771" lon="-2.41901">
        <ele>22</ele>
        <time>2014-04-14T14:11:32.1Z</time>
      </trkpt>
      <trkpt lat="48.6377" lon="-2.41898">
        <ele>22</ele>
        <time>2014-04-14T14:11:34.1Z</time>
      </trkpt>
      <trkpt lat="48.63768" lon="-2.41894">
        <ele>22</ele>
        <time>2014-04-14T14:11:37.1Z</time>
      </trkpt>
      <trkpt lat="48.63766" lon="-2.41891">
        <ele>22</ele>
        <time>2014-04-14T14:11:39.1Z</time>
      </trkpt>
      <trkpt lat="48.63765" lon="-2.41888">
        <ele>22</ele>
        <time>2014-04-14T14:11:41.1Z</time>
      </trkpt>
      <trkpt lat="48.63764" lon="-2.41884">
        <ele>22</ele>
        <time>2014-04-14T14:11:44.1Z</time>
      </trkpt>
      <trkpt lat="48.63762" lon="-2.41881">
        <ele>21</ele>
        <time>2014-04-14T14:11:46.1Z</time>
      </trkpt>
      <trkpt lat="48.6376" lon="-2.41876">
        <ele>21</ele>
        <time>2014-04-14T14:11:49.1Z</time>
      </trkpt>
      <trkpt lat="48.63758" lon="-2.41872">
        <ele>21</ele>
        <time>2014-04-14T14:11:52.1Z</time>
      </trkpt>
      <trkpt lat="48.63756" lon="-2.41868">
        <ele>21</ele>
        <time>2014-04-14T14:11:55.1Z</time>
      </trkpt>
      <trkpt lat="48.63755" lon="-2.41865">
        <ele>20</ele>
        <time>2014-04-14T14:11:57.1Z</time>
      </trkpt>
      <trkpt lat="48.63752" lon="-2.41861">
        <ele>20</ele>
        <time>2014-04-14T14:12:00.1Z</time>
      </trkpt>
      <trkpt lat="48.63751" lon="-2.41859">
        <ele>20</ele>
        <time>2014-04-14T14:12:02.1Z</time>
      </trkpt>
      <trkpt lat="48.63749" lon="-2.41855">
        <ele>20</ele>
        <time>2014-04-14T14:12:05.1Z</time>
      </trkpt>
      <trkpt lat="48.63747" lon="-2.41852">
        <ele>19</ele>
        <time>2014-04-14T14:12:07.1Z</time>
      </trkpt>
      <trkpt lat="48.63745" lon="-2.41847">
        <ele>19</ele>
        <time>2014-04-14T14:12:10.1Z</time>
      </trkpt>
      <trkpt lat="48.63742" lon="-2.41844">
        <ele>19</ele>
        <time>2014-04-14T14:12:13.1Z</time>
      </trkpt>
      <trkpt lat="48.6374" lon="-2.41843">
        <ele>18</ele>
        <time>2014-04-14T14:12:15.1Z</time>
      </trkpt>
      <trkpt lat="48.63738" lon="-2.4184">
        <ele>18</ele>
        <time>2014-04-14T14:12:18.1Z</time>
      </trkpt>
      <trkpt lat="48.63736" lon="-2.41837">
        <ele>18</ele>
        <time>2014-04-14T14:12:20.1Z</time>
      </trkpt>
      <trkpt lat="48.63734" lon="-2.41833">
        <ele>17</ele>
        <time>2014-04-14T14:12:23.1Z</time>
      </trkpt>
      <trkpt lat="48.63733" lon="-2.4183">
        <ele>17</ele>
        <time>2014-04-14T14:12:25.1Z</time>
      </trkpt>
      <trkpt lat="48.63731" lon="-2.41826">
        <ele>17</ele>
        <time>2014-04-14T14:12:28.1Z</time>
      </trkpt>
      <trkpt lat="48.6373" lon="-2.41823">
        <ele>17</ele>
        <time>2014-04-14T14:12:30.1Z</time>
      </trkpt>
      <trkpt lat="48.63728" lon="-2.41818">
        <ele>17</ele>
        <time>2014-04-14T14:12:33.1Z</time>
      </trkpt>
      <trkpt lat="48.63727" lon="-2.41813">
        <ele>16</ele>
        <time>2014-04-14T14:12:36.1Z</time>
      </trkpt>
      <trkpt lat="48.63725" lon="-2.41809">
        <ele>16</ele>
        <time>2014-04-14T14:12:39.1Z</time>
      </trkpt>
      <trkpt lat="48.63724" lon="-2.41806">
        <ele>16</ele>
        <time>2014-04-14T14:12:41.1Z</time>
      </trkpt>
      <trkpt lat="48.63721" lon="-2.41803">
        <ele>16</ele>
        <time>2014-04-14T14:12:44.1Z</time>
      </trkpt>
      <trkpt lat="48.63718" lon="-2.41799">
        <ele>15</ele>
        <time>2014-04-14T14:12:47.1Z</time>
      </trkpt>
      <trkpt lat="48.63716" lon="-2.41796">
        <ele>15</ele>
        <time>2014-04-14T14:12:50.1Z</time>
      </trkpt>
      <trkpt lat="48.63713" lon="-2.41793">
        <ele>15</ele>
        <time>2014-04-14T14:12:53.1Z</time>
      </trkpt>
      <trkpt lat="48.63711" lon="-2.41789">
        <ele>15</ele>
        <time>2014-04-14T14:12:56.1Z</time>
      </trkpt>
      <trkpt lat="48.63708" lon="-2.41785">
        <ele>15</ele>
        <time>2014-04-14T14:12:59.1Z</time>
      </trkpt>
      <trkpt lat="48.63707" lon="-2.41782">
        <ele>15</ele>
        <time>2014-04-14T14:13:01.1Z</time>
      </trkpt>
      <trkpt lat="48.63705" lon="-2.41778">
        <ele>14</ele>
        <time>2014-04-14T14:13:04.1Z</time>
      </trkpt>
      <trkpt lat="48.63703" lon="-2.41776">
        <ele>14</ele>
        <time>2014-04-14T14:13:06.1Z</time>
      </trkpt>
      <trkpt lat="48.63701" lon="-2.41772">
        <ele>13</ele>
        <time>2014-04-14T14:13:09.1Z</time>
      </trkpt>
      <trkpt lat="48.63699" lon="-2.41768">
        <ele>13</ele>
        <time>2014-04-14T14:13:12.1Z</time>
      </trkpt>
      <trkpt lat="48.63697" lon="-2.41765">
        <ele>13</ele>
        <time>2014-04-14T14:13:15.1Z</time>
      </trkpt>
      <trkpt lat="48.63696" lon="-2.41762">
        <ele>13</ele>
        <time>2014-04-14T14:13:17.1Z</time>
      </trkpt>
      <trkpt lat="48.63694" lon="-2.41758">
        <ele>13</ele>
        <time>2014-04-14T14:13:20.1Z</time>
      </trkpt>
      <trkpt lat="48.63692" lon="-2.41756">
        <ele>13</ele>
        <time>2014-04-14T14:13:22.1Z</time>
      </trkpt>
      <trkpt lat="48.6369" lon="-2.41752">
        <ele>13</ele>
        <time>2014-04-14T14:13:25.1Z</time>
      </trkpt>
      <trkpt lat="48.63689" lon="-2.4175">
        <ele>13</ele>
        <time>2014-04-14T14:13:27.1Z</time>
      </trkpt>
      <trkpt lat="48.63686" lon="-2.41746">
        <ele>13</ele>
        <time>2014-04-14T14:13:30.1Z</time>
      </trkpt>
      <trkpt lat="48.63683" lon="-2.41743">
        <ele>12</ele>
        <time>2014-04-14T14:13:33.1Z</time>
      </trkpt>
      <trkpt lat="48.63682" lon="-2.4174">
        <ele>12</ele>
        <time>2014-04-14T14:13:35.1Z</time>
      </trkpt>
      <trkpt lat="48.63681" lon="-2.41738">
        <ele>11</ele>
        <time>2014-04-14T14:13:37.1Z</time>
      </trkpt>
      <trkpt lat="48.63679" lon="-2.41736">
        <ele>11</ele>
        <time>2014-04-14T14:13:39.1Z</time>
      </trkpt>
      <trkpt lat="48.63676" lon="-2.41733">
        <ele>11</ele>
        <time>2014-04-14T14:13:42.1Z</time>
      </trkpt>
      <trkpt lat="48.63673" lon="-2.4173">
        <ele>11</ele>
        <time>2014-04-14T14:13:45.1Z</time>
      </trkpt>
      <trkpt lat="48.63671" lon="-2.41729">
        <ele>11</ele>
        <time>2014-04-14T14:13:47.1Z</time>
      </trkpt>
      <trkpt lat="48.63668" lon="-2.41728">
        <ele>10</ele>
        <time>2014-04-14T14:13:49.1Z</time>
      </trkpt>
      <trkpt lat="48.63666" lon="-2.41727">
        <ele>10</ele>
        <time>2014-04-14T14:13:51.1Z</time>
      </trkpt>
      <trkpt lat="48.63665" lon="-2.41724">
        <ele>10</ele>
        <time>2014-04-14T14:13:54.1Z</time>
      </trkpt>
      <trkpt lat="48.63663" lon="-2.41721">
        <ele>10</ele>
        <time>2014-04-14T14:13:57.1Z</time>
      </trkpt>
      <trkpt lat="48.63662" lon="-2.41719">
        <ele>10</ele>
        <time>2014-04-14T14:13:59.1Z</time>
      </trkpt>
      <trkpt lat="48.6366" lon="-2.41716">
        <ele>10</ele>
        <time>2014-04-14T14:14:02.1Z</time>
      </trkpt>
      <trkpt lat="48.6366" lon="-2.41715">
        <ele>10</ele>
        <time>2014-04-14T14:14:05.1Z</time>
      </trkpt>
      <trkpt lat="48.6366" lon="-2.41712">
        <ele>10</ele>
        <time>2014-04-14T14:14:08.1Z</time>
      </trkpt>
      <trkpt lat="48.63659" lon="-2.41708">
        <ele>10</ele>
        <time>2014-04-14T14:14:11.1Z</time>
      </trkpt>
      <trkpt lat="48.63657" lon="-2.41703">
        <ele>10</ele>
        <time>2014-04-14T14:14:14.1Z</time>
      </trkpt>
      <trkpt lat="48.63654" lon="-2.41699">
        <ele>9</ele>
        <time>2014-04-14T14:14:17.1Z</time>
      </trkpt>
      <trkpt lat="48.63652" lon="-2.41694">
        <ele>9</ele>
        <time>2014-04-14T14:14:20.1Z</time>
      </trkpt>
      <trkpt lat="48.63651" lon="-2.41692">
        <ele>9</ele>
        <time>2014-04-14T14:14:22.1Z</time>
      </trkpt>
      <trkpt lat="48.63649" lon="-2.4169">
        <ele>9</ele>
        <time>2014-04-14T14:14:24.1Z</time>
      </trkpt>
      <trkpt lat="48.63646" lon="-2.41688">
        <ele>9</ele>
        <time>2014-04-14T14:14:27.1Z</time>
      </trkpt>
      <trkpt lat="48.63644" lon="-2.41687">
        <ele>8</ele>
        <time>2014-04-14T14:14:29.1Z</time>
      </trkpt>
      <trkpt lat="48.63642" lon="-2.41687">
        <ele>8</ele>
        <time>2014-04-14T14:14:31.1Z</time>
      </trkpt>
      <trkpt lat="48.63639" lon="-2.41688">
        <ele>7</ele>
        <time>2014-04-14T14:14:34.1Z</time>
      </trkpt>
      <trkpt lat="48.63638" lon="-2.41689">
        <ele>7</ele>
        <time>2014-04-14T14:14:36.1Z</time>
      </trkpt>
      <trkpt lat="48.63636" lon="-2.41691">
        <ele>7</ele>
        <time>2014-04-14T14:14:39.1Z</time>
      </trkpt>
      <trkpt lat="48.63635" lon="-2.41692">
        <ele>7</ele>
        <time>2014-04-14T14:14:42.1Z</time>
      </trkpt>
      <trkpt lat="48.63633" lon="-2.41694">
        <ele>7</ele>
        <time>2014-04-14T14:14:44.1Z</time>
      </trkpt>
      <trkpt lat="48.63632" lon="-2.41696">
        <ele>6</ele>
        <time>2014-04-14T14:14:47.1Z</time>
      </trkpt>
      <trkpt lat="48.6363" lon="-2.41699">
        <ele>6</ele>
        <time>2014-04-14T14:14:50.1Z</time>
      </trkpt>
      <trkpt lat="48.63627" lon="-2.41702">
        <ele>6</ele>
        <time>2014-04-14T14:14:53.1Z</time>
      </trkpt>
      <trkpt lat="48.63625" lon="-2.41705">
        <ele>6</ele>
        <time>2014-04-14T14:14:56.1Z</time>
      </trkpt>
      <trkpt lat="48.63624" lon="-2.41707">
        <ele>6</ele>
        <time>2014-04-14T14:14:58.1Z</time>
      </trkpt>
      <trkpt lat="48.63622" lon="-2.4171">
        <ele>6</ele>
        <time>2014-04-14T14:15:01.1Z</time>
      </trkpt>
      <trkpt lat="48.63619" lon="-2.41713">
        <ele>6</ele>
        <time>2014-04-14T14:15:04.1Z</time>
      </trkpt>
      <trkpt lat="48.63617" lon="-2.41716">
        <ele>6</ele>
        <time>2014-04-14T14:15:07.1Z</time>
      </trkpt>
      <trkpt lat="48.63615" lon="-2.41718">
        <ele>6</ele>
        <time>2014-04-14T14:15:09.1Z</time>
      </trkpt>
      <trkpt lat="48.63612" lon="-2.4172">
        <ele>6</ele>
        <time>2014-04-14T14:15:12.1Z</time>
      </trkpt>
      <trkpt lat="48.6361" lon="-2.41722">
        <ele>6</ele>
        <time>2014-04-14T14:15:14.1Z</time>
      </trkpt>
      <trkpt lat="48.63607" lon="-2.41726">
        <ele>6</ele>
        <time>2014-04-14T14:15:17.1Z</time>
      </trkpt>
      <trkpt lat="48.63604" lon="-2.4173">
        <ele>6</ele>
        <time>2014-04-14T14:15:20.1Z</time>
      </trkpt>
      <trkpt lat="48.636" lon="-2.41734">
        <ele>6</ele>
        <time>2014-04-14T14:15:23.1Z</time>
      </trkpt>
      <trkpt lat="48.63597" lon="-2.41738">
        <ele>6</ele>
        <time>2014-04-14T14:15:26.1Z</time>
      </trkpt>
      <trkpt lat="48.63594" lon="-2.41742">
        <ele>6</ele>
        <time>2014-04-14T14:15:29.1Z</time>
      </trkpt>
      <trkpt lat="48.63591" lon="-2.41745">
        <ele>6</ele>
        <time>2014-04-14T14:15:32.1Z</time>
      </trkpt>
      <trkpt lat="48.63589" lon="-2.41748">
        <ele>6</ele>
        <time>2014-04-14T14:15:34.1Z</time>
      </trkpt>
      <trkpt lat="48.63586" lon="-2.41752">
        <ele>6</ele>
        <time>2014-04-14T14:15:37.1Z</time>
      </trkpt>
      <trkpt lat="48.63583" lon="-2.41756">
        <ele>6</ele>
        <time>2014-04-14T14:15:40.1Z</time>
      </trkpt>
      <trkpt lat="48.63581" lon="-2.4176">
        <ele>6</ele>
        <time>2014-04-14T14:15:43.1Z</time>
      </trkpt>
      <trkpt lat="48.63579" lon="-2.41762">
        <ele>6</ele>
        <time>2014-04-14T14:15:45.1Z</time>
      </trkpt>
      <trkpt lat="48.63577" lon="-2.41767">
        <ele>6</ele>
        <time>2014-04-14T14:15:48.1Z</time>
      </trkpt>
      <trkpt lat="48.63575" lon="-2.41769">
        <ele>6</ele>
        <time>2014-04-14T14:15:50.1Z</time>
      </trkpt>
      <trkpt lat="48.63573" lon="-2.41773">
        <ele>6</ele>
        <time>2014-04-14T14:15:53.1Z</time>
      </trkpt>
      <trkpt lat="48.6357" lon="-2.41777">
        <ele>6</ele>
        <time>2014-04-14T14:15:56.1Z</time>
      </trkpt>
      <trkpt lat="48.63568" lon="-2.41781">
        <ele>6</ele>
        <time>2014-04-14T14:15:59.1Z</time>
      </trkpt>
      <trkpt lat="48.63567" lon="-2.41784">
        <ele>6</ele>
        <time>2014-04-14T14:16:01.1Z</time>
      </trkpt>
      <trkpt lat="48.63565" lon="-2.41786">
        <ele>6</ele>
        <time>2014-04-14T14:16:03.1Z</time>
      </trkpt>
      <trkpt lat="48.63562" lon="-2.4179">
        <ele>6</ele>
        <time>2014-04-14T14:16:05.1Z</time>
      </trkpt>
      <trkpt lat="48.6356" lon="-2.41792">
        <ele>6</ele>
        <time>2014-04-14T14:16:08.1Z</time>
      </trkpt>
      <trkpt lat="48.63558" lon="-2.41796">
        <ele>6</ele>
        <time>2014-04-14T14:16:11.1Z</time>
      </trkpt>
      <trkpt lat="48.63556" lon="-2.418">
        <ele>6</ele>
        <time>2014-04-14T14:16:14.1Z</time>
      </trkpt>
      <trkpt lat="48.63553" lon="-2.41804">
        <ele>6</ele>
        <time>2014-04-14T14:16:17.1Z</time>
      </trkpt>
      <trkpt lat="48.63551" lon="-2.41806">
        <ele>6</ele>
        <time>2014-04-14T14:16:19.1Z</time>
      </trkpt>
      <trkpt lat="48.63549" lon="-2.41809">
        <ele>6</ele>
        <time>2014-04-14T14:16:22.1Z</time>
      </trkpt>
      <trkpt lat="48.63547" lon="-2.41812">
        <ele>6</ele>
        <time>2014-04-14T14:16:24.1Z</time>
      </trkpt>
      <trkpt lat="48.63545" lon="-2.41815">
        <ele>6</ele>
        <time>2014-04-14T14:16:27.1Z</time>
      </trkpt>
      <trkpt lat="48.63543" lon="-2.41818">
        <ele>5</ele>
        <time>2014-04-14T14:16:29.1Z</time>
      </trkpt>
      <trkpt lat="48.63542" lon="-2.4182">
        <ele>5</ele>
        <time>2014-04-14T14:16:31.1Z</time>
      </trkpt>
      <trkpt lat="48.6354" lon="-2.41824">
        <ele>5</ele>
        <time>2014-04-14T14:16:34.1Z</time>
      </trkpt>
      <trkpt lat="48.63538" lon="-2.41826">
        <ele>6</ele>
        <time>2014-04-14T14:16:36.1Z</time>
      </trkpt>
      <trkpt lat="48.63536" lon="-2.4183">
        <ele>6</ele>
        <time>2014-04-14T14:16:39.1Z</time>
      </trkpt>
      <trkpt lat="48.63534" lon="-2.41832">
        <ele>6</ele>
        <time>2014-04-14T14:16:41.1Z</time>
      </trkpt>
      <trkpt lat="48.63532" lon="-2.41835">
        <ele>6</ele>
        <time>2014-04-14T14:16:43.1Z</time>
      </trkpt>
      <trkpt lat="48.63531" lon="-2.41837">
        <ele>6</ele>
        <time>2014-04-14T14:16:45.1Z</time>
      </trkpt>
      <trkpt lat="48.63528" lon="-2.41841">
        <ele>6</ele>
        <time>2014-04-14T14:16:48.1Z</time>
      </trkpt>
      <trkpt lat="48.63527" lon="-2.41843">
        <ele>6</ele>
        <time>2014-04-14T14:16:50.1Z</time>
      </trkpt>
      <trkpt lat="48.63525" lon="-2.41845">
        <ele>6</ele>
        <time>2014-04-14T14:16:52.1Z</time>
      </trkpt>
      <trkpt lat="48.63523" lon="-2.41848">
        <ele>6</ele>
        <time>2014-04-14T14:16:55.1Z</time>
      </trkpt>
      <trkpt lat="48.63521" lon="-2.41851">
        <ele>6</ele>
        <time>2014-04-14T14:16:58.1Z</time>
      </trkpt>
      <trkpt lat="48.63518" lon="-2.41854">
        <ele>6</ele>
        <time>2014-04-14T14:17:01.1Z</time>
      </trkpt>
      <trkpt lat="48.63516" lon="-2.41857">
        <ele>6</ele>
        <time>2014-04-14T14:17:04.1Z</time>
      </trkpt>
      <trkpt lat="48.63513" lon="-2.4186">
        <ele>6</ele>
        <time>2014-04-14T14:17:07.1Z</time>
      </trkpt>
      <trkpt lat="48.6351" lon="-2.41862">
        <ele>5</ele>
        <time>2014-04-14T14:17:10.1Z</time>
      </trkpt>
      <trkpt lat="48.63509" lon="-2.41864">
        <ele>5</ele>
        <time>2014-04-14T14:17:12.1Z</time>
      </trkpt>
      <trkpt lat="48.63506" lon="-2.41867">
        <ele>5</ele>
        <time>2014-04-14T14:17:15.1Z</time>
      </trkpt>
      <trkpt lat="48.63503" lon="-2.4187">
        <ele>5</ele>
        <time>2014-04-14T14:17:18.1Z</time>
      </trkpt>
      <trkpt lat="48.63501" lon="-2.41872">
        <ele>5</ele>
        <time>2014-04-14T14:17:20.1Z</time>
      </trkpt>
      <trkpt lat="48.635" lon="-2.41874">
        <ele>5</ele>
        <time>2014-04-14T14:17:22.1Z</time>
      </trkpt>
      <trkpt lat="48.63497" lon="-2.41876">
        <ele>5</ele>
        <time>2014-04-14T14:17:25.1Z</time>
      </trkpt>
      <trkpt lat="48.63494" lon="-2.41879">
        <ele>5</ele>
        <time>2014-04-14T14:17:28.1Z</time>
      </trkpt>
      <trkpt lat="48.63492" lon="-2.41882">
        <ele>5</ele>
        <time>2014-04-14T14:17:31.1Z</time>
      </trkpt>
      <trkpt lat="48.6349" lon="-2.41884">
        <ele>6</ele>
        <time>2014-04-14T14:17:33.1Z</time>
      </trkpt>
      <trkpt lat="48.63488" lon="-2.41886">
        <ele>6</ele>
        <time>2014-04-14T14:17:35.1Z</time>
      </trkpt>
      <trkpt lat="48.63485" lon="-2.41889">
        <ele>6</ele>
        <time>2014-04-14T14:17:38.1Z</time>
      </trkpt>
      <trkpt lat="48.63483" lon="-2.41891">
        <ele>5</ele>
        <time>2014-04-14T14:17:40.1Z</time>
      </trkpt>
      <trkpt lat="48.6348" lon="-2.41894">
        <ele>6</ele>
        <time>2014-04-14T14:17:43.1Z</time>
      </trkpt>
      <trkpt lat="48.63479" lon="-2.41896">
        <ele>6</ele>
        <time>2014-04-14T14:17:45.1Z</time>
      </trkpt>
      <trkpt lat="48.63477" lon="-2.41898">
        <ele>6</ele>
        <time>2014-04-14T14:17:47.1Z</time>
      </trkpt>
      <trkpt lat="48.63475" lon="-2.419">
        <ele>5</ele>
        <time>2014-04-14T14:17:49.1Z</time>
      </trkpt>
      <trkpt lat="48.63472" lon="-2.41903">
        <ele>5</ele>
        <time>2014-04-14T14:17:52.1Z</time>
      </trkpt>
      <trkpt lat="48.6347" lon="-2.41906">
        <ele>5</ele>
        <time>2014-04-14T14:17:55.1Z</time>
      </trkpt>
      <trkpt lat="48.63468" lon="-2.41908">
        <ele>5</ele>
        <time>2014-04-14T14:17:57.1Z</time>
      </trkpt>
      <trkpt lat="48.63466" lon="-2.4191">
        <ele>6</ele>
        <time>2014-04-14T14:17:59.1Z</time>
      </trkpt>
      <trkpt lat="48.63463" lon="-2.41913">
        <ele>6</ele>
        <time>2014-04-14T14:18:02.1Z</time>
      </trkpt>
      <trkpt lat="48.63461" lon="-2.41916">
        <ele>5</ele>
        <time>2014-04-14T14:18:05.1Z</time>
      </trkpt>
      <trkpt lat="48.63459" lon="-2.41918">
        <ele>6</ele>
        <time>2014-04-14T14:18:07.1Z</time>
      </trkpt>
      <trkpt lat="48.63456" lon="-2.41922">
        <ele>6</ele>
        <time>2014-04-14T14:18:10.1Z</time>
      </trkpt>
      <trkpt lat="48.63454" lon="-2.41926">
        <ele>6</ele>
        <time>2014-04-14T14:18:13.1Z</time>
      </trkpt>
      <trkpt lat="48.63451" lon="-2.4193">
        <ele>5</ele>
        <time>2014-04-14T14:18:16.1Z</time>
      </trkpt>
      <trkpt lat="48.63449" lon="-2.41933">
        <ele>6</ele>
        <time>2014-04-14T14:18:18.1Z</time>
      </trkpt>
      <trkpt lat="48.63447" lon="-2.41937">
        <ele>6</ele>
        <time>2014-04-14T14:18:21.1Z</time>
      </trkpt>
      <trkpt lat="48.63446" lon="-2.41939">
        <ele>6</ele>
        <time>2014-04-14T14:18:23.1Z</time>
      </trkpt>
      <trkpt lat="48.63444" lon="-2.41943">
        <ele>6</ele>
        <time>2014-04-14T14:18:26.1Z</time>
      </trkpt>
      <trkpt lat="48.63443" lon="-2.41946">
        <ele>6</ele>
        <time>2014-04-14T14:18:28.1Z</time>
      </trkpt>
      <trkpt lat="48.63441" lon="-2.4195">
        <ele>6</ele>
        <time>2014-04-14T14:18:31.1Z</time>
      </trkpt>
      <trkpt lat="48.63439" lon="-2.41954">
        <ele>6</ele>
        <time>2014-04-14T14:18:34.1Z</time>
      </trkpt>
      <trkpt lat="48.63438" lon="-2.41959">
        <ele>6</ele>
        <time>2014-04-14T14:18:37.1Z</time>
      </trkpt>
      <trkpt lat="48.63436" lon="-2.41963">
        <ele>6</ele>
        <time>2014-04-14T14:18:40.1Z</time>
      </trkpt>
      <trkpt lat="48.63435" lon="-2.41968">
        <ele>6</ele>
        <time>2014-04-14T14:18:43.1Z</time>
      </trkpt>
      <trkpt lat="48.63434" lon="-2.41972">
        <ele>7</ele>
        <time>2014-04-14T14:18:46.1Z</time>
      </trkpt>
      <trkpt lat="48.63434" lon="-2.41975">
        <ele>7</ele>
        <time>2014-04-14T14:18:48.1Z</time>
      </trkpt>
      <trkpt lat="48.63434" lon="-2.41978">
        <ele>7</ele>
        <time>2014-04-14T14:18:50.1Z</time>
      </trkpt>
      <trkpt lat="48.63433" lon="-2.41982">
        <ele>7</ele>
        <time>2014-04-14T14:18:53.1Z</time>
      </trkpt>
      <trkpt lat="48.63432" lon="-2.41986">
        <ele>7</ele>
        <time>2014-04-14T14:18:56.1Z</time>
      </trkpt>
      <trkpt lat="48.63432" lon="-2.4199">
        <ele>7</ele>
        <time>2014-04-14T14:18:59.1Z</time>
      </trkpt>
      <trkpt lat="48.63431" lon="-2.41995">
        <ele>6</ele>
        <time>2014-04-14T14:19:02.1Z</time>
      </trkpt>
      <trkpt lat="48.6343" lon="-2.41998">
        <ele>6</ele>
        <time>2014-04-14T14:19:04.1Z</time>
      </trkpt>
      <trkpt lat="48.63429" lon="-2.42001">
        <ele>6</ele>
        <time>2014-04-14T14:19:07.1Z</time>
      </trkpt>
      <trkpt lat="48.63428" lon="-2.42003">
        <ele>6</ele>
        <time>2014-04-14T14:19:10.1Z</time>
      </trkpt>
      <trkpt lat="48.63427" lon="-2.42006">
        <ele>6</ele>
        <time>2014-04-14T14:19:13.1Z</time>
      </trkpt>
      <trkpt lat="48.63427" lon="-2.42008">
        <ele>6</ele>
        <time>2014-04-14T14:19:15.1Z</time>
      </trkpt>
      <trkpt lat="48.63425" lon="-2.4201">
        <ele>6</ele>
        <time>2014-04-14T14:19:17.1Z</time>
      </trkpt>
      <trkpt lat="48.63424" lon="-2.42014">
        <ele>7</ele>
        <time>2014-04-14T14:19:20.1Z</time>
      </trkpt>
      <trkpt lat="48.63422" lon="-2.42016">
        <ele>7</ele>
        <time>2014-04-14T14:19:23.1Z</time>
      </trkpt>
      <trkpt lat="48.63421" lon="-2.42018">
        <ele>7</ele>
        <time>2014-04-14T14:19:25.1Z</time>
      </trkpt>
      <trkpt lat="48.63418" lon="-2.42021">
        <ele>7</ele>
        <time>2014-04-14T14:19:28.1Z</time>
      </trkpt>
      <trkpt lat="48.63417" lon="-2.42023">
        <ele>7</ele>
        <time>2014-04-14T14:19:30.1Z</time>
      </trkpt>
      <trkpt lat="48.63414" lon="-2.42026">
        <ele>7</ele>
        <time>2014-04-14T14:19:33.1Z</time>
      </trkpt>
      <trkpt lat="48.63412" lon="-2.4203">
        <ele>7</ele>
        <time>2014-04-14T14:19:36.1Z</time>
      </trkpt>
      <trkpt lat="48.63409" lon="-2.42033">
        <ele>7</ele>
        <time>2014-04-14T14:19:39.1Z</time>
      </trkpt>
      <trkpt lat="48.63406" lon="-2.42036">
        <ele>8</ele>
        <time>2014-04-14T14:19:42.1Z</time>
      </trkpt>
      <trkpt lat="48.63405" lon="-2.42038">
        <ele>7</ele>
        <time>2014-04-14T14:19:44.1Z</time>
      </trkpt>
      <trkpt lat="48.63402" lon="-2.42041">
        <ele>8</ele>
        <time>2014-04-14T14:19:47.1Z</time>
      </trkpt>
      <trkpt lat="48.63399" lon="-2.42044">
        <ele>8</ele>
        <time>2014-04-14T14:19:50.1Z</time>
      </trkpt>
      <trkpt lat="48.63397" lon="-2.42045">
        <ele>8</ele>
        <time>2014-04-14T14:19:52.1Z</time>
      </trkpt>
      <trkpt lat="48.63395" lon="-2.42048">
        <ele>8</ele>
        <time>2014-04-14T14:19:55.1Z</time>
      </trkpt>
      <trkpt lat="48.63394" lon="-2.42049">
        <ele>8</ele>
        <time>2014-04-14T14:19:57.1Z</time>
      </trkpt>
      <trkpt lat="48.63392" lon="-2.42051">
        <ele>8</ele>
        <time>2014-04-14T14:19:59.1Z</time>
      </trkpt>
      <trkpt lat="48.6339" lon="-2.42053">
        <ele>9</ele>
        <time>2014-04-14T14:20:02.1Z</time>
      </trkpt>
      <trkpt lat="48.63387" lon="-2.42054">
        <ele>8</ele>
        <time>2014-04-14T14:20:05.1Z</time>
      </trkpt>
      <trkpt lat="48.63385" lon="-2.42056">
        <ele>8</ele>
        <time>2014-04-14T14:20:07.1Z</time>
      </trkpt>
      <trkpt lat="48.63383" lon="-2.42057">
        <ele>8</ele>
        <time>2014-04-14T14:20:10.1Z</time>
      </trkpt>
      <trkpt lat="48.63381" lon="-2.42059">
        <ele>8</ele>
        <time>2014-04-14T14:20:13.1Z</time>
      </trkpt>
      <trkpt lat="48.63379" lon="-2.42061">
        <ele>9</ele>
        <time>2014-04-14T14:20:16.1Z</time>
      </trkpt>
      <trkpt lat="48.63376" lon="-2.42063">
        <ele>9</ele>
        <time>2014-04-14T14:20:19.1Z</time>
      </trkpt>
      <trkpt lat="48.63374" lon="-2.42064">
        <ele>9</ele>
        <time>2014-04-14T14:20:22.1Z</time>
      </trkpt>
      <trkpt lat="48.63373" lon="-2.42065">
        <ele>9</ele>
        <time>2014-04-14T14:20:24.1Z</time>
      </trkpt>
      <trkpt lat="48.63372" lon="-2.42065">
        <ele>9</ele>
        <time>2014-04-14T14:20:26.1Z</time>
      </trkpt>
      <trkpt lat="48.63369" lon="-2.42065">
        <ele>9</ele>
        <time>2014-04-14T14:20:29.1Z</time>
      </trkpt>
      <trkpt lat="48.63368" lon="-2.42065">
        <ele>9</ele>
        <time>2014-04-14T14:20:31.1Z</time>
      </trkpt>
      <trkpt lat="48.63367" lon="-2.42065">
        <ele>10</ele>
        <time>2014-04-14T14:20:34.1Z</time>
      </trkpt>
      <trkpt lat="48.63366" lon="-2.42066">
        <ele>10</ele>
        <time>2014-04-14T14:20:36.1Z</time>
      </trkpt>
      <trkpt lat="48.63365" lon="-2.42066">
        <ele>10</ele>
        <time>2014-04-14T14:20:38.1Z</time>
      </trkpt>
      <trkpt lat="48.63364" lon="-2.42066">
        <ele>11</ele>
        <time>2014-04-14T14:20:40.1Z</time>
      </trkpt>
      <trkpt lat="48.63364" lon="-2.42065">
        <ele>11</ele>
        <time>2014-04-14T14:20:42.1Z</time>
      </trkpt>
      <trkpt lat="48.63363" lon="-2.42063">
        <ele>12</ele>
        <time>2014-04-14T14:20:45.1Z</time>
      </trkpt>
      <trkpt lat="48.63361" lon="-2.42063">
        <ele>13</ele>
        <time>2014-04-14T14:20:47.1Z</time>
      </trkpt>
      <trkpt lat="48.6336" lon="-2.42061">
        <ele>13</ele>
        <time>2014-04-14T14:20:50.1Z</time>
      </trkpt>
      <trkpt lat="48.63359" lon="-2.42058">
        <ele>13</ele>
        <time>2014-04-14T14:20:53.1Z</time>
      </trkpt>
      <trkpt lat="48.63358" lon="-2.42056">
        <ele>13</ele>
        <time>2014-04-14T14:20:55.1Z</time>
      </trkpt>
      <trkpt lat="48.63357" lon="-2.42054">
        <ele>13</ele>
        <time>2014-04-14T14:20:58.1Z</time>
      </trkpt>
      <trkpt lat="48.63356" lon="-2.42051">
        <ele>13</ele>
        <time>2014-04-14T14:21:01.1Z</time>
      </trkpt>
      <trkpt lat="48.63356" lon="-2.42048">
        <ele>13</ele>
        <time>2014-04-14T14:21:03.1Z</time>
      </trkpt>
      <trkpt lat="48.63354" lon="-2.42046">
        <ele>13</ele>
        <time>2014-04-14T14:21:06.1Z</time>
      </trkpt>
      <trkpt lat="48.63356" lon="-2.42047">
        <ele>12</ele>
        <time>2014-04-14T14:21:09.1Z</time>
      </trkpt>
      <trkpt lat="48.63356" lon="-2.42049">
        <ele>12</ele>
        <time>2014-04-14T14:21:11.1Z</time>
      </trkpt>
      <trkpt lat="48.63358" lon="-2.42047">
        <ele>12</ele>
        <time>2014-04-14T14:21:14.1Z</time>
      </trkpt>
      <trkpt lat="48.63358" lon="-2.42044">
        <ele>12</ele>
        <time>2014-04-14T14:21:17.1Z</time>
      </trkpt>
      <trkpt lat="48.63356" lon="-2.42044">
        <ele>12</ele>
        <time>2014-04-14T14:21:19.1Z</time>
      </trkpt>
      <trkpt lat="48.63356" lon="-2.42045">
        <ele>12</ele>
        <time>2014-04-14T14:21:21.1Z</time>
      </trkpt>
      <trkpt lat="48.63356" lon="-2.42045">
        <ele>12</ele>
        <time>2014-04-14T14:21:24.1Z</time>
      </trkpt>
      <trkpt lat="48.63356" lon="-2.42047">
        <ele>12</ele>
        <time>2014-04-14T14:21:27.1Z</time>
      </trkpt>
      <trkpt lat="48.63357" lon="-2.42048">
        <ele>12</ele>
        <time>2014-04-14T14:21:29.1Z</time>
      </trkpt>
      <trkpt lat="48.63361" lon="-2.42051">
        <ele>12</ele>
        <time>2014-04-14T14:21:32.1Z</time>
      </trkpt>
      <trkpt lat="48.63362" lon="-2.42052">
        <ele>12</ele>
        <time>2014-04-14T14:21:34.1Z</time>
      </trkpt>
      <trkpt lat="48.63363" lon="-2.42049">
        <ele>12</ele>
        <time>2014-04-14T14:21:36.1Z</time>
      </trkpt>
      <trkpt lat="48.63366" lon="-2.42049">
        <ele>12</ele>
        <time>2014-04-14T14:21:38.1Z</time>
      </trkpt>
      <trkpt lat="48.6337" lon="-2.42051">
        <ele>12</ele>
        <time>2014-04-14T14:21:40.1Z</time>
      </trkpt>
      <trkpt lat="48.63378" lon="-2.42057">
        <ele>12</ele>
        <time>2014-04-14T14:21:43.1Z</time>
      </trkpt>
      <trkpt lat="48.63383" lon="-2.42058">
        <ele>12</ele>
        <time>2014-04-14T14:21:45.1Z</time>
      </trkpt>
      <trkpt lat="48.63385" lon="-2.42058">
        <ele>12</ele>
        <time>2014-04-14T14:21:47.1Z</time>
      </trkpt>
      <trkpt lat="48.63385" lon="-2.42058">
        <ele>12</ele>
        <time>2014-04-14T14:21:49.1Z</time>
      </trkpt>
      <trkpt lat="48.63385" lon="-2.42058">
        <ele>12</ele>
        <time>2014-04-14T14:21:52.1Z</time>
      </trkpt>
      <trkpt lat="48.63385" lon="-2.42059">
        <ele>12</ele>
        <time>2014-04-14T14:21:54.1Z</time>
      </trkpt>
      <trkpt lat="48.63384" lon="-2.42061">
        <ele>12</ele>
        <time>2014-04-14T14:21:57.1Z</time>
      </trkpt>
      <trkpt lat="48.63385" lon="-2.42062">
        <ele>12</ele>
        <time>2014-04-14T14:22:00.1Z</time>
      </trkpt>
      <trkpt lat="48.63383" lon="-2.4206">
        <ele>12</ele>
        <time>2014-04-14T14:22:03.1Z</time>
      </trkpt>
      <trkpt lat="48.63382" lon="-2.42058">
        <ele>13</ele>
        <time>2014-04-14T14:22:05.1Z</time>
      </trkpt>
      <trkpt lat="48.63381" lon="-2.42055">
        <ele>13</ele>
        <time>2014-04-14T14:22:07.1Z</time>
      </trkpt>
      <trkpt lat="48.63379" lon="-2.42053">
        <ele>13</ele>
        <time>2014-04-14T14:22:10.1Z</time>
      </trkpt>
      <trkpt lat="48.63377" lon="-2.42052">
        <ele>13</ele>
        <time>2014-04-14T14:22:12.1Z</time>
      </trkpt>
      <trkpt lat="48.63375" lon="-2.42052">
        <ele>13</ele>
        <time>2014-04-14T14:22:15.1Z</time>
      </trkpt>
      <trkpt lat="48.63372" lon="-2.42051">
        <ele>13</ele>
        <time>2014-04-14T14:22:17.1Z</time>
      </trkpt>
      <trkpt lat="48.6337" lon="-2.42048">
        <ele>12</ele>
        <time>2014-04-14T14:22:20.1Z</time>
      </trkpt>
      <trkpt lat="48.63367" lon="-2.42045">
        <ele>12</ele>
        <time>2014-04-14T14:22:22.1Z</time>
      </trkpt>
      <trkpt lat="48.63366" lon="-2.42043">
        <ele>12</ele>
        <time>2014-04-14T14:22:24.1Z</time>
      </trkpt>
      <trkpt lat="48.63363" lon="-2.42042">
        <ele>12</ele>
        <time>2014-04-14T14:22:27.1Z</time>
      </trkpt>
      <trkpt lat="48.63361" lon="-2.42041">
        <ele>13</ele>
        <time>2014-04-14T14:22:29.1Z</time>
      </trkpt>
      <trkpt lat="48.63357" lon="-2.4204">
        <ele>12</ele>
        <time>2014-04-14T14:22:32.1Z</time>
      </trkpt>
      <trkpt lat="48.63354" lon="-2.42041">
        <ele>12</ele>
        <time>2014-04-14T14:22:35.1Z</time>
      </trkpt>
      <trkpt lat="48.63353" lon="-2.42043">
        <ele>12</ele>
        <time>2014-04-14T14:22:37.1Z</time>
      </trkpt>
      <trkpt lat="48.63352" lon="-2.42045">
        <ele>12</ele>
        <time>2014-04-14T14:22:40.1Z</time>
      </trkpt>
      <trkpt lat="48.63351" lon="-2.42045">
        <ele>12</ele>
        <time>2014-04-14T14:22:43.1Z</time>
      </trkpt>
      <trkpt lat="48.63352" lon="-2.42046">
        <ele>12</ele>
        <time>2014-04-14T14:22:45.1Z</time>
      </trkpt>
      <trkpt lat="48.63352" lon="-2.42046">
        <ele>13</ele>
        <time>2014-04-14T14:22:51.1Z</time>
      </trkpt>
      <trkpt lat="48.63352" lon="-2.42047">
        <ele>13</ele>
        <time>2014-04-14T14:22:53.1Z</time>
      </trkpt>
      <trkpt lat="48.63352" lon="-2.42049">
        <ele>13</ele>
        <time>2014-04-14T14:22:56.1Z</time>
      </trkpt>
      <trkpt lat="48.63353" lon="-2.42049">
        <ele>12</ele>
        <time>2014-04-14T14:22:59.1Z</time>
      </trkpt>
      <trkpt lat="48.63355" lon="-2.4205">
        <ele>13</ele>
        <time>2014-04-14T14:23:01.1Z</time>
      </trkpt>
      <trkpt lat="48.63354" lon="-2.42051">
        <ele>12</ele>
        <time>2014-04-14T14:23:03.1Z</time>
      </trkpt>
      <trkpt lat="48.63353" lon="-2.42051">
        <ele>12</ele>
        <time>2014-04-14T14:23:05.1Z</time>
      </trkpt>
      <trkpt lat="48.63353" lon="-2.42052">
        <ele>13</ele>
        <time>2014-04-14T14:23:08.1Z</time>
      </trkpt>
      <trkpt lat="48.63354" lon="-2.42053">
        <ele>13</ele>
        <time>2014-04-14T14:23:11.1Z</time>
      </trkpt>
      <trkpt lat="48.63354" lon="-2.42053">
        <ele>13</ele>
        <time>2014-04-14T14:23:14.1Z</time>
      </trkpt>
      <trkpt lat="48.63354" lon="-2.42054">
        <ele>12</ele>
        <time>2014-04-14T14:23:17.1Z</time>
      </trkpt>
      <trkpt lat="48.63353" lon="-2.42054">
        <ele>12</ele>
        <time>2014-04-14T14:23:19.1Z</time>
      </trkpt>
      <trkpt lat="48.63353" lon="-2.42055">
        <ele>12</ele>
        <time>2014-04-14T14:23:22.1Z</time>
      </trkpt>
      <trkpt lat="48.63353" lon="-2.42056">
        <ele>13</ele>
        <time>2014-04-14T14:23:25.1Z</time>
      </trkpt>
      <trkpt lat="48.63353" lon="-2.42056">
        <ele>12</ele>
        <time>2014-04-14T14:23:27.1Z</time>
      </trkpt>
      <trkpt lat="48.63354" lon="-2.42056">
        <ele>13</ele>
        <time>2014-04-14T14:23:29.1Z</time>
      </trkpt>
      <trkpt lat="48.63355" lon="-2.42056">
        <ele>13</ele>
        <time>2014-04-14T14:23:31.1Z</time>
      </trkpt>
      <trkpt lat="48.63356" lon="-2.42056">
        <ele>13</ele>
        <time>2014-04-14T14:23:34.1Z</time>
      </trkpt>
      <trkpt lat="48.63357" lon="-2.42058">
        <ele>13</ele>
        <time>2014-04-14T14:23:37.1Z</time>
      </trkpt>
      <trkpt lat="48.63358" lon="-2.4206">
        <ele>13</ele>
        <time>2014-04-14T14:23:41.1Z</time>
      </trkpt>
      <trkpt lat="48.63357" lon="-2.42061">
        <ele>13</ele>
        <time>2014-04-14T14:23:43.1Z</time>
      </trkpt>
      <trkpt lat="48.63356" lon="-2.42061">
        <ele>12</ele>
        <time>2014-04-14T14:23:45.1Z</time>
      </trkpt>
      <trkpt lat="48.63355" lon="-2.42061">
        <ele>12</ele>
        <time>2014-04-14T14:23:48.1Z</time>
      </trkpt>
      <trkpt lat="48.63355" lon="-2.4206">
        <ele>12</ele>
        <time>2014-04-14T14:23:50.1Z</time>
      </trkpt>
      <trkpt lat="48.63354" lon="-2.42058">
        <ele>12</ele>
        <time>2014-04-14T14:23:53.1Z</time>
      </trkpt>
      <trkpt lat="48.63353" lon="-2.42057">
        <ele>12</ele>
        <time>2014-04-14T14:23:55.1Z</time>
      </trkpt>
      <trkpt lat="48.63353" lon="-2.42056">
        <ele>12</ele>
        <time>2014-04-14T14:23:57.1Z</time>
      </trkpt>
      <trkpt lat="48.63353" lon="-2.42055">
        <ele>12</ele>
        <time>2014-04-14T14:24:00.1Z</time>
      </trkpt>
      <trkpt lat="48.63353" lon="-2.42056">
        <ele>12</ele>
        <time>2014-04-14T14:24:02.1Z</time>
      </trkpt>
      <trkpt lat="48.63353" lon="-2.42055">
        <ele>13</ele>
        <time>2014-04-14T14:24:04.1Z</time>
      </trkpt>
      <trkpt lat="48.63354" lon="-2.42052">
        <ele>13</ele>
        <time>2014-04-14T14:24:07.1Z</time>
      </trkpt>
      <trkpt lat="48.63354" lon="-2.42049">
        <ele>13</ele>
        <time>2014-04-14T14:24:09.1Z</time>
      </trkpt>
      <trkpt lat="48.63355" lon="-2.42045">
        <ele>12</ele>
        <time>2014-04-14T14:24:12.1Z</time>
      </trkpt>
      <trkpt lat="48.63355" lon="-2.42045">
        <ele>12</ele>
        <time>2014-04-14T14:24:15.1Z</time>
      </trkpt>
      <trkpt lat="48.63353" lon="-2.42042">
        <ele>13</ele>
        <time>2014-04-14T14:24:18.1Z</time>
      </trkpt>
      <trkpt lat="48.63352" lon="-2.42038">
        <ele>13</ele>
        <time>2014-04-14T14:24:20.1Z</time>
      </trkpt>
      <trkpt lat="48.63352" lon="-2.42035">
        <ele>13</ele>
        <time>2014-04-14T14:24:23.1Z</time>
      </trkpt>
      <trkpt lat="48.63351" lon="-2.42032">
        <ele>13</ele>
        <time>2014-04-14T14:24:25.1Z</time>
      </trkpt>
      <trkpt lat="48.63349" lon="-2.42027">
        <ele>13</ele>
        <time>2014-04-14T14:24:28.1Z</time>
      </trkpt>
      <trkpt lat="48.63348" lon="-2.42022">
        <ele>12</ele>
        <time>2014-04-14T14:24:31.1Z</time>
      </trkpt>
      <trkpt lat="48.63346" lon="-2.42019">
        <ele>12</ele>
        <time>2014-04-14T14:24:33.1Z</time>
      </trkpt>
      <trkpt lat="48.63345" lon="-2.42015">
        <ele>12</ele>
        <time>2014-04-14T14:24:36.1Z</time>
      </trkpt>
      <trkpt lat="48.63344" lon="-2.42012">
        <ele>12</ele>
        <time>2014-04-14T14:24:39.1Z</time>
      </trkpt>
      <trkpt lat="48.63343" lon="-2.42009">
        <ele>12</ele>
        <time>2014-04-14T14:24:41.1Z</time>
      </trkpt>
      <trkpt lat="48.63341" lon="-2.42005">
        <ele>12</ele>
        <time>2014-04-14T14:24:44.1Z</time>
      </trkpt>
      <trkpt lat="48.6334" lon="-2.42003">
        <ele>12</ele>
        <time>2014-04-14T14:24:46.1Z</time>
      </trkpt>
      <trkpt lat="48.63339" lon="-2.41998">
        <ele>12</ele>
        <time>2014-04-14T14:24:49.1Z</time>
      </trkpt>
      <trkpt lat="48.63337" lon="-2.41993">
        <ele>12</ele>
        <time>2014-04-14T14:24:51.1Z</time>
      </trkpt>
      <trkpt lat="48.63336" lon="-2.4199">
        <ele>12</ele>
        <time>2014-04-14T14:24:53.1Z</time>
      </trkpt>
      <trkpt lat="48.63335" lon="-2.41987">
        <ele>12</ele>
        <time>2014-04-14T14:24:56.1Z</time>
      </trkpt>
      <trkpt lat="48.63334" lon="-2.41985">
        <ele>11</ele>
        <time>2014-04-14T14:24:58.1Z</time>
      </trkpt>
      <trkpt lat="48.63333" lon="-2.41982">
        <ele>11</ele>
        <time>2014-04-14T14:25:00.1Z</time>
      </trkpt>
      <trkpt lat="48.63332" lon="-2.41979">
        <ele>11</ele>
        <time>2014-04-14T14:25:02.1Z</time>
      </trkpt>
      <trkpt lat="48.63332" lon="-2.41977">
        <ele>11</ele>
        <time>2014-04-14T14:25:04.1Z</time>
      </trkpt>
      <trkpt lat="48.6333" lon="-2.41972">
        <ele>12</ele>
        <time>2014-04-14T14:25:07.1Z</time>
      </trkpt>
      <trkpt lat="48.63329" lon="-2.41969">
        <ele>11</ele>
        <time>2014-04-14T14:25:10.1Z</time>
      </trkpt>
      <trkpt lat="48.63327" lon="-2.41965">
        <ele>11</ele>
        <time>2014-04-14T14:25:13.1Z</time>
      </trkpt>
      <trkpt lat="48.63326" lon="-2.41962">
        <ele>11</ele>
        <time>2014-04-14T14:25:15.1Z</time>
      </trkpt>
      <trkpt lat="48.63325" lon="-2.41957">
        <ele>11</ele>
        <time>2014-04-14T14:25:18.1Z</time>
      </trkpt>
      <trkpt lat="48.63324" lon="-2.41953">
        <ele>11</ele>
        <time>2014-04-14T14:25:21.1Z</time>
      </trkpt>
      <trkpt lat="48.63323" lon="-2.4195">
        <ele>11</ele>
        <time>2014-04-14T14:25:23.1Z</time>
      </trkpt>
      <trkpt lat="48.63322" lon="-2.41947">
        <ele>11</ele>
        <time>2014-04-14T14:25:25.1Z</time>
      </trkpt>
      <trkpt lat="48.63321" lon="-2.41944">
        <ele>11</ele>
        <time>2014-04-14T14:25:27.1Z</time>
      </trkpt>
      <trkpt lat="48.6332" lon="-2.4194">
        <ele>10</ele>
        <time>2014-04-14T14:25:30.1Z</time>
      </trkpt>
      <trkpt lat="48.63318" lon="-2.41935">
        <ele>11</ele>
        <time>2014-04-14T14:25:33.1Z</time>
      </trkpt>
      <trkpt lat="48.63316" lon="-2.41931">
        <ele>11</ele>
        <time>2014-04-14T14:25:36.1Z</time>
      </trkpt>
      <trkpt lat="48.63316" lon="-2.41928">
        <ele>10</ele>
        <time>2014-04-14T14:25:38.1Z</time>
      </trkpt>
      <trkpt lat="48.63314" lon="-2.41924">
        <ele>10</ele>
        <time>2014-04-14T14:25:41.1Z</time>
      </trkpt>
      <trkpt lat="48.63313" lon="-2.41919">
        <ele>10</ele>
        <time>2014-04-14T14:25:44.1Z</time>
      </trkpt>
      <trkpt lat="48.63312" lon="-2.41916">
        <ele>10</ele>
        <time>2014-04-14T14:25:46.1Z</time>
      </trkpt>
      <trkpt lat="48.6331" lon="-2.41912">
        <ele>10</ele>
        <time>2014-04-14T14:25:49.1Z</time>
      </trkpt>
      <trkpt lat="48.63309" lon="-2.41908">
        <ele>10</ele>
        <time>2014-04-14T14:25:52.1Z</time>
      </trkpt>
      <trkpt lat="48.63308" lon="-2.41903">
        <ele>10</ele>
        <time>2014-04-14T14:25:55.1Z</time>
      </trkpt>
      <trkpt lat="48.63306" lon="-2.419">
        <ele>10</ele>
        <time>2014-04-14T14:25:57.1Z</time>
      </trkpt>
      <trkpt lat="48.63306" lon="-2.41897">
        <ele>10</ele>
        <time>2014-04-14T14:25:59.1Z</time>
      </trkpt>
      <trkpt lat="48.63304" lon="-2.41893">
        <ele>10</ele>
        <time>2014-04-14T14:26:02.1Z</time>
      </trkpt>
      <trkpt lat="48.63303" lon="-2.41888">
        <ele>10</ele>
        <time>2014-04-14T14:26:05.1Z</time>
      </trkpt>
      <trkpt lat="48.63301" lon="-2.41884">
        <ele>9</ele>
        <time>2014-04-14T14:26:08.1Z</time>
      </trkpt>
      <trkpt lat="48.633" lon="-2.4188">
        <ele>9</ele>
        <time>2014-04-14T14:26:11.1Z</time>
      </trkpt>
      <trkpt lat="48.63299" lon="-2.41876">
        <ele>9</ele>
        <time>2014-04-14T14:26:13.1Z</time>
      </trkpt>
      <trkpt lat="48.63298" lon="-2.41872">
        <ele>8</ele>
        <time>2014-04-14T14:26:16.1Z</time>
      </trkpt>
      <trkpt lat="48.63297" lon="-2.41869">
        <ele>8</ele>
        <time>2014-04-14T14:26:19.1Z</time>
      </trkpt>
      <trkpt lat="48.63296" lon="-2.41867">
        <ele>8</ele>
        <time>2014-04-14T14:26:21.1Z</time>
      </trkpt>
      <trkpt lat="48.63295" lon="-2.41863">
        <ele>8</ele>
        <time>2014-04-14T14:26:24.1Z</time>
      </trkpt>
      <trkpt lat="48.63294" lon="-2.4186">
        <ele>8</ele>
        <time>2014-04-14T14:26:26.1Z</time>
      </trkpt>
      <trkpt lat="48.63293" lon="-2.41856">
        <ele>8</ele>
        <time>2014-04-14T14:26:29.1Z</time>
      </trkpt>
      <trkpt lat="48.63292" lon="-2.41852">
        <ele>7</ele>
        <time>2014-04-14T14:26:31.1Z</time>
      </trkpt>
      <trkpt lat="48.6329" lon="-2.41848">
        <ele>8</ele>
        <time>2014-04-14T14:26:34.1Z</time>
      </trkpt>
      <trkpt lat="48.6329" lon="-2.41845">
        <ele>8</ele>
        <time>2014-04-14T14:26:36.1Z</time>
      </trkpt>
      <trkpt lat="48.63288" lon="-2.41842">
        <ele>8</ele>
        <time>2014-04-14T14:26:38.1Z</time>
      </trkpt>
      <trkpt lat="48.63287" lon="-2.41837">
        <ele>8</ele>
        <time>2014-04-14T14:26:41.1Z</time>
      </trkpt>
      <trkpt lat="48.63285" lon="-2.41832">
        <ele>7</ele>
        <time>2014-04-14T14:26:44.1Z</time>
      </trkpt>
      <trkpt lat="48.63285" lon="-2.41829">
        <ele>7</ele>
        <time>2014-04-14T14:26:46.1Z</time>
      </trkpt>
      <trkpt lat="48.63284" lon="-2.41826">
        <ele>7</ele>
        <time>2014-04-14T14:26:48.1Z</time>
      </trkpt>
      <trkpt lat="48.63282" lon="-2.41821">
        <ele>7</ele>
        <time>2014-04-14T14:26:51.1Z</time>
      </trkpt>
      <trkpt lat="48.6328" lon="-2.41817">
        <ele>7</ele>
        <time>2014-04-14T14:26:54.1Z</time>
      </trkpt>
      <trkpt lat="48.63279" lon="-2.41814">
        <ele>7</ele>
        <time>2014-04-14T14:26:56.1Z</time>
      </trkpt>
      <trkpt lat="48.63278" lon="-2.41809">
        <ele>7</ele>
        <time>2014-04-14T14:26:59.1Z</time>
      </trkpt>
      <trkpt lat="48.63277" lon="-2.41805">
        <ele>7</ele>
        <time>2014-04-14T14:27:01.1Z</time>
      </trkpt>
      <trkpt lat="48.63275" lon="-2.418">
        <ele>7</ele>
        <time>2014-04-14T14:27:04.1Z</time>
      </trkpt>
      <trkpt lat="48.63274" lon="-2.41795">
        <ele>6</ele>
        <time>2014-04-14T14:27:07.1Z</time>
      </trkpt>
      <trkpt lat="48.63272" lon="-2.4179">
        <ele>7</ele>
        <time>2014-04-14T14:27:10.1Z</time>
      </trkpt>
      <trkpt lat="48.63271" lon="-2.41787">
        <ele>7</ele>
        <time>2014-04-14T14:27:12.1Z</time>
      </trkpt>
      <trkpt lat="48.6327" lon="-2.41782">
        <ele>6</ele>
        <time>2014-04-14T14:27:15.1Z</time>
      </trkpt>
      <trkpt lat="48.63269" lon="-2.41778">
        <ele>6</ele>
        <time>2014-04-14T14:27:17.1Z</time>
      </trkpt>
      <trkpt lat="48.63267" lon="-2.41774">
        <ele>7</ele>
        <time>2014-04-14T14:27:20.1Z</time>
      </trkpt>
      <trkpt lat="48.63265" lon="-2.41769">
        <ele>7</ele>
        <time>2014-04-14T14:27:23.1Z</time>
      </trkpt>
      <trkpt lat="48.63264" lon="-2.41765">
        <ele>7</ele>
        <time>2014-04-14T14:27:25.1Z</time>
      </trkpt>
      <trkpt lat="48.63263" lon="-2.4176">
        <ele>7</ele>
        <time>2014-04-14T14:27:27.1Z</time>
      </trkpt>
      <trkpt lat="48.63261" lon="-2.41757">
        <ele>6</ele>
        <time>2014-04-14T14:27:30.1Z</time>
      </trkpt>
      <trkpt lat="48.6326" lon="-2.41753">
        <ele>6</ele>
        <time>2014-04-14T14:27:32.1Z</time>
      </trkpt>
      <trkpt lat="48.6326" lon="-2.41749">
        <ele>7</ele>
        <time>2014-04-14T14:27:35.1Z</time>
      </trkpt>
      <trkpt lat="48.63258" lon="-2.41745">
        <ele>7</ele>
        <time>2014-04-14T14:27:37.1Z</time>
      </trkpt>
      <trkpt lat="48.63257" lon="-2.41742">
        <ele>6</ele>
        <time>2014-04-14T14:27:40.1Z</time>
      </trkpt>
      <trkpt lat="48.63255" lon="-2.41737">
        <ele>6</ele>
        <time>2014-04-14T14:27:43.1Z</time>
      </trkpt>
      <trkpt lat="48.63254" lon="-2.41735">
        <ele>6</ele>
        <time>2014-04-14T14:27:45.1Z</time>
      </trkpt>
      <trkpt lat="48.63253" lon="-2.41732">
        <ele>6</ele>
        <time>2014-04-14T14:27:47.1Z</time>
      </trkpt>
      <trkpt lat="48.63252" lon="-2.41727">
        <ele>6</ele>
        <time>2014-04-14T14:27:50.1Z</time>
      </trkpt>
      <trkpt lat="48.6325" lon="-2.41722">
        <ele>6</ele>
        <time>2014-04-14T14:27:53.1Z</time>
      </trkpt>
      <trkpt lat="48.63249" lon="-2.41718">
        <ele>6</ele>
        <time>2014-04-14T14:27:56.1Z</time>
      </trkpt>
      <trkpt lat="48.63248" lon="-2.41713">
        <ele>6</ele>
        <time>2014-04-14T14:27:59.1Z</time>
      </trkpt>
      <trkpt lat="48.63246" lon="-2.41708">
        <ele>6</ele>
        <time>2014-04-14T14:28:02.1Z</time>
      </trkpt>
      <trkpt lat="48.63245" lon="-2.41705">
        <ele>6</ele>
        <time>2014-04-14T14:28:04.1Z</time>
      </trkpt>
      <trkpt lat="48.63244" lon="-2.417">
        <ele>6</ele>
        <time>2014-04-14T14:28:06.1Z</time>
      </trkpt>
      <trkpt lat="48.63243" lon="-2.41697">
        <ele>6</ele>
        <time>2014-04-14T14:28:09.1Z</time>
      </trkpt>
      <trkpt lat="48.63242" lon="-2.41694">
        <ele>6</ele>
        <time>2014-04-14T14:28:11.1Z</time>
      </trkpt>
      <trkpt lat="48.6324" lon="-2.4169">
        <ele>6</ele>
        <time>2014-04-14T14:28:14.1Z</time>
      </trkpt>
      <trkpt lat="48.63239" lon="-2.41685">
        <ele>6</ele>
        <time>2014-04-14T14:28:17.1Z</time>
      </trkpt>
      <trkpt lat="48.63238" lon="-2.41682">
        <ele>6</ele>
        <time>2014-04-14T14:28:19.1Z</time>
      </trkpt>
      <trkpt lat="48.63237" lon="-2.41677">
        <ele>6</ele>
        <time>2014-04-14T14:28:22.1Z</time>
      </trkpt>
      <trkpt lat="48.63235" lon="-2.41671">
        <ele>6</ele>
        <time>2014-04-14T14:28:25.1Z</time>
      </trkpt>
      <trkpt lat="48.63235" lon="-2.41668">
        <ele>6</ele>
        <time>2014-04-14T14:28:27.1Z</time>
      </trkpt>
      <trkpt lat="48.63233" lon="-2.41662">
        <ele>7</ele>
        <time>2014-04-14T14:28:30.1Z</time>
      </trkpt>
      <trkpt lat="48.63232" lon="-2.41659">
        <ele>7</ele>
        <time>2014-04-14T14:28:32.1Z</time>
      </trkpt>
      <trkpt lat="48.63231" lon="-2.41655">
        <ele>7</ele>
        <time>2014-04-14T14:28:35.1Z</time>
      </trkpt>
      <trkpt lat="48.6323" lon="-2.4165">
        <ele>7</ele>
        <time>2014-04-14T14:28:38.1Z</time>
      </trkpt>
      <trkpt lat="48.63229" lon="-2.41648">
        <ele>7</ele>
        <time>2014-04-14T14:28:40.1Z</time>
      </trkpt>
      <trkpt lat="48.63228" lon="-2.41645">
        <ele>7</ele>
        <time>2014-04-14T14:28:42.1Z</time>
      </trkpt>
      <trkpt lat="48.63227" lon="-2.41639">
        <ele>8</ele>
        <time>2014-04-14T14:28:45.1Z</time>
      </trkpt>
      <trkpt lat="48.63226" lon="-2.41634">
        <ele>8</ele>
        <time>2014-04-14T14:28:47.1Z</time>
      </trkpt>
      <trkpt lat="48.63225" lon="-2.41631">
        <ele>8</ele>
        <time>2014-04-14T14:28:50.1Z</time>
      </trkpt>
      <trkpt lat="48.63224" lon="-2.41628">
        <ele>9</ele>
        <time>2014-04-14T14:28:52.1Z</time>
      </trkpt>
      <trkpt lat="48.63222" lon="-2.41623">
        <ele>8</ele>
        <time>2014-04-14T14:28:55.1Z</time>
      </trkpt>
      <trkpt lat="48.63222" lon="-2.4162">
        <ele>8</ele>
        <time>2014-04-14T14:28:57.1Z</time>
      </trkpt>
      <trkpt lat="48.63221" lon="-2.41615">
        <ele>9</ele>
        <time>2014-04-14T14:29:00.1Z</time>
      </trkpt>
      <trkpt lat="48.6322" lon="-2.41611">
        <ele>9</ele>
        <time>2014-04-14T14:29:02.1Z</time>
      </trkpt>
      <trkpt lat="48.63219" lon="-2.41606">
        <ele>9</ele>
        <time>2014-04-14T14:29:05.1Z</time>
      </trkpt>
      <trkpt lat="48.63218" lon="-2.41601">
        <ele>8</ele>
        <time>2014-04-14T14:29:07.1Z</time>
      </trkpt>
      <trkpt lat="48.63217" lon="-2.41597">
        <ele>8</ele>
        <time>2014-04-14T14:29:09.1Z</time>
      </trkpt>
      <trkpt lat="48.63217" lon="-2.41594">
        <ele>8</ele>
        <time>2014-04-14T14:29:12.1Z</time>
      </trkpt>
      <trkpt lat="48.63216" lon="-2.4159">
        <ele>8</ele>
        <time>2014-04-14T14:29:14.1Z</time>
      </trkpt>
      <trkpt lat="48.63216" lon="-2.41585">
        <ele>8</ele>
        <time>2014-04-14T14:29:17.1Z</time>
      </trkpt>
      <trkpt lat="48.63215" lon="-2.41581">
        <ele>8</ele>
        <time>2014-04-14T14:29:20.1Z</time>
      </trkpt>
      <trkpt lat="48.63215" lon="-2.41576">
        <ele>8</ele>
        <time>2014-04-14T14:29:23.1Z</time>
      </trkpt>
      <trkpt lat="48.63214" lon="-2.4157">
        <ele>8</ele>
        <time>2014-04-14T14:29:26.1Z</time>
      </trkpt>
      <trkpt lat="48.63214" lon="-2.41567">
        <ele>8</ele>
        <time>2014-04-14T14:29:28.1Z</time>
      </trkpt>
      <trkpt lat="48.63213" lon="-2.41564">
        <ele>7</ele>
        <time>2014-04-14T14:29:30.1Z</time>
      </trkpt>
      <trkpt lat="48.63212" lon="-2.41559">
        <ele>7</ele>
        <time>2014-04-14T14:29:33.1Z</time>
      </trkpt>
      <trkpt lat="48.63211" lon="-2.41554">
        <ele>7</ele>
        <time>2014-04-14T14:29:36.1Z</time>
      </trkpt>
      <trkpt lat="48.6321" lon="-2.41551">
        <ele>7</ele>
        <time>2014-04-14T14:29:38.1Z</time>
      </trkpt>
      <trkpt lat="48.6321" lon="-2.41547">
        <ele>7</ele>
        <time>2014-04-14T14:29:40.1Z</time>
      </trkpt>
      <trkpt lat="48.63209" lon="-2.41543">
        <ele>7</ele>
        <time>2014-04-14T14:29:43.1Z</time>
      </trkpt>
      <trkpt lat="48.63208" lon="-2.41538">
        <ele>7</ele>
        <time>2014-04-14T14:29:46.1Z</time>
      </trkpt>
      <trkpt lat="48.63208" lon="-2.41534">
        <ele>7</ele>
        <time>2014-04-14T14:29:48.1Z</time>
      </trkpt>
      <trkpt lat="48.63207" lon="-2.4153">
        <ele>7</ele>
        <time>2014-04-14T14:29:50.1Z</time>
      </trkpt>
      <trkpt lat="48.63207" lon="-2.41526">
        <ele>7</ele>
        <time>2014-04-14T14:29:53.1Z</time>
      </trkpt>
      <trkpt lat="48.63206" lon="-2.41521">
        <ele>7</ele>
        <time>2014-04-14T14:29:55.1Z</time>
      </trkpt>
      <trkpt lat="48.63206" lon="-2.41517">
        <ele>7</ele>
        <time>2014-04-14T14:29:58.1Z</time>
      </trkpt>
      <trkpt lat="48.63205" lon="-2.41512">
        <ele>7</ele>
        <time>2014-04-14T14:30:00.1Z</time>
      </trkpt>
      <trkpt lat="48.63205" lon="-2.41507">
        <ele>7</ele>
        <time>2014-04-14T14:30:04.1Z</time>
      </trkpt>
      <trkpt lat="48.63204" lon="-2.41502">
        <ele>6</ele>
        <time>2014-04-14T14:30:06.1Z</time>
      </trkpt>
      <trkpt lat="48.63203" lon="-2.41497">
        <ele>6</ele>
        <time>2014-04-14T14:30:09.1Z</time>
      </trkpt>
      <trkpt lat="48.63203" lon="-2.41493">
        <ele>6</ele>
        <time>2014-04-14T14:30:12.1Z</time>
      </trkpt>
      <trkpt lat="48.63203" lon="-2.41489">
        <ele>7</ele>
        <time>2014-04-14T14:30:14.1Z</time>
      </trkpt>
      <trkpt lat="48.63202" lon="-2.41484">
        <ele>7</ele>
        <time>2014-04-14T14:30:18.1Z</time>
      </trkpt>
      <trkpt lat="48.63201" lon="-2.41479">
        <ele>6</ele>
        <time>2014-04-14T14:30:20.1Z</time>
      </trkpt>
      <trkpt lat="48.632" lon="-2.41476">
        <ele>6</ele>
        <time>2014-04-14T14:30:23.1Z</time>
      </trkpt>
      <trkpt lat="48.632" lon="-2.41471">
        <ele>6</ele>
        <time>2014-04-14T14:30:25.1Z</time>
      </trkpt>
      <trkpt lat="48.632" lon="-2.41468">
        <ele>6</ele>
        <time>2014-04-14T14:30:28.1Z</time>
      </trkpt>
      <trkpt lat="48.63199" lon="-2.41463">
        <ele>6</ele>
        <time>2014-04-14T14:30:31.1Z</time>
      </trkpt>
      <trkpt lat="48.63199" lon="-2.41458">
        <ele>6</ele>
        <time>2014-04-14T14:30:34.1Z</time>
      </trkpt>
      <trkpt lat="48.63198" lon="-2.41454">
        <ele>7</ele>
        <time>2014-04-14T14:30:37.1Z</time>
      </trkpt>
      <trkpt lat="48.63197" lon="-2.41451">
        <ele>7</ele>
        <time>2014-04-14T14:30:39.1Z</time>
      </trkpt>
      <trkpt lat="48.63196" lon="-2.41446">
        <ele>7</ele>
        <time>2014-04-14T14:30:41.1Z</time>
      </trkpt>
      <trkpt lat="48.63195" lon="-2.41443">
        <ele>7</ele>
        <time>2014-04-14T14:30:44.1Z</time>
      </trkpt>
      <trkpt lat="48.63195" lon="-2.41438">
        <ele>7</ele>
        <time>2014-04-14T14:30:46.1Z</time>
      </trkpt>
      <trkpt lat="48.63195" lon="-2.41433">
        <ele>7</ele>
        <time>2014-04-14T14:30:50.1Z</time>
      </trkpt>
      <trkpt lat="48.63195" lon="-2.41428">
        <ele>6</ele>
        <time>2014-04-14T14:30:53.1Z</time>
      </trkpt>
      <trkpt lat="48.63194" lon="-2.41423">
        <ele>6</ele>
        <time>2014-04-14T14:30:56.1Z</time>
      </trkpt>
      <trkpt lat="48.63194" lon="-2.41418">
        <ele>6</ele>
        <time>2014-04-14T14:30:58.1Z</time>
      </trkpt>
      <trkpt lat="48.63194" lon="-2.41415">
        <ele>7</ele>
        <time>2014-04-14T14:31:01.1Z</time>
      </trkpt>
      <trkpt lat="48.63193" lon="-2.4141">
        <ele>6</ele>
        <time>2014-04-14T14:31:03.1Z</time>
      </trkpt>
      <trkpt lat="48.63193" lon="-2.41406">
        <ele>6</ele>
        <time>2014-04-14T14:31:06.1Z</time>
      </trkpt>
      <trkpt lat="48.63193" lon="-2.41403">
        <ele>6</ele>
        <time>2014-04-14T14:31:08.1Z</time>
      </trkpt>
      <trkpt lat="48.63192" lon="-2.41397">
        <ele>6</ele>
        <time>2014-04-14T14:31:10.1Z</time>
      </trkpt>
      <trkpt lat="48.63192" lon="-2.41393">
        <ele>6</ele>
        <time>2014-04-14T14:31:13.1Z</time>
      </trkpt>
      <trkpt lat="48.63192" lon="-2.41388">
        <ele>7</ele>
        <time>2014-04-14T14:31:15.1Z</time>
      </trkpt>
      <trkpt lat="48.63192" lon="-2.41385">
        <ele>6</ele>
        <time>2014-04-14T14:31:18.1Z</time>
      </trkpt>
      <trkpt lat="48.63192" lon="-2.41382">
        <ele>6</ele>
        <time>2014-04-14T14:31:20.1Z</time>
      </trkpt>
      <trkpt lat="48.63191" lon="-2.41378">
        <ele>6</ele>
        <time>2014-04-14T14:31:22.1Z</time>
      </trkpt>
      <trkpt lat="48.63191" lon="-2.41376">
        <ele>7</ele>
        <time>2014-04-14T14:31:25.1Z</time>
      </trkpt>
      <trkpt lat="48.63192" lon="-2.41371">
        <ele>7</ele>
        <time>2014-04-14T14:31:27.1Z</time>
      </trkpt>
      <trkpt lat="48.63192" lon="-2.41368">
        <ele>7</ele>
        <time>2014-04-14T14:31:29.1Z</time>
      </trkpt>
      <trkpt lat="48.63192" lon="-2.41363">
        <ele>8</ele>
        <time>2014-04-14T14:31:33.1Z</time>
      </trkpt>
      <trkpt lat="48.63192" lon="-2.4136">
        <ele>7</ele>
        <time>2014-04-14T14:31:35.1Z</time>
      </trkpt>
      <trkpt lat="48.63192" lon="-2.41354">
        <ele>7</ele>
        <time>2014-04-14T14:31:38.1Z</time>
      </trkpt>
      <trkpt lat="48.63193" lon="-2.41351">
        <ele>7</ele>
        <time>2014-04-14T14:31:40.1Z</time>
      </trkpt>
      <trkpt lat="48.63193" lon="-2.41346">
        <ele>7</ele>
        <time>2014-04-14T14:31:43.1Z</time>
      </trkpt>
      <trkpt lat="48.63194" lon="-2.41342">
        <ele>7</ele>
        <time>2014-04-14T14:31:45.1Z</time>
      </trkpt>
      <trkpt lat="48.63194" lon="-2.41337">
        <ele>7</ele>
        <time>2014-04-14T14:31:47.1Z</time>
      </trkpt>
      <trkpt lat="48.63194" lon="-2.41334">
        <ele>7</ele>
        <time>2014-04-14T14:31:50.1Z</time>
      </trkpt>
      <trkpt lat="48.63195" lon="-2.41329">
        <ele>7</ele>
        <time>2014-04-14T14:31:53.1Z</time>
      </trkpt>
      <trkpt lat="48.63195" lon="-2.41326">
        <ele>7</ele>
        <time>2014-04-14T14:31:55.1Z</time>
      </trkpt>
      <trkpt lat="48.63196" lon="-2.41321">
        <ele>7</ele>
        <time>2014-04-14T14:31:58.1Z</time>
      </trkpt>
      <trkpt lat="48.63196" lon="-2.41317">
        <ele>7</ele>
        <time>2014-04-14T14:32:00.1Z</time>
      </trkpt>
      <trkpt lat="48.63197" lon="-2.41314">
        <ele>7</ele>
        <time>2014-04-14T14:32:03.1Z</time>
      </trkpt>
      <trkpt lat="48.63198" lon="-2.41309">
        <ele>7</ele>
        <time>2014-04-14T14:32:05.1Z</time>
      </trkpt>
      <trkpt lat="48.63199" lon="-2.41305">
        <ele>8</ele>
        <time>2014-04-14T14:32:07.1Z</time>
      </trkpt>
      <trkpt lat="48.632" lon="-2.41302">
        <ele>8</ele>
        <time>2014-04-14T14:32:09.1Z</time>
      </trkpt>
      <trkpt lat="48.632" lon="-2.41299">
        <ele>8</ele>
        <time>2014-04-14T14:32:12.1Z</time>
      </trkpt>
      <trkpt lat="48.63202" lon="-2.41295">
        <ele>8</ele>
        <time>2014-04-14T14:32:14.1Z</time>
      </trkpt>
      <trkpt lat="48.63203" lon="-2.4129">
        <ele>8</ele>
        <time>2014-04-14T14:32:17.1Z</time>
      </trkpt>
      <trkpt lat="48.63204" lon="-2.41287">
        <ele>8</ele>
        <time>2014-04-14T14:32:19.1Z</time>
      </trkpt>
      <trkpt lat="48.63206" lon="-2.41283">
        <ele>8</ele>
        <time>2014-04-14T14:32:21.1Z</time>
      </trkpt>
      <trkpt lat="48.63207" lon="-2.41279">
        <ele>8</ele>
        <time>2014-04-14T14:32:23.1Z</time>
      </trkpt>
      <trkpt lat="48.63208" lon="-2.41277">
        <ele>8</ele>
        <time>2014-04-14T14:32:25.1Z</time>
      </trkpt>
      <trkpt lat="48.63209" lon="-2.41274">
        <ele>8</ele>
        <time>2014-04-14T14:32:28.1Z</time>
      </trkpt>
      <trkpt lat="48.63211" lon="-2.41269">
        <ele>8</ele>
        <time>2014-04-14T14:32:31.1Z</time>
      </trkpt>
      <trkpt lat="48.63212" lon="-2.41266">
        <ele>8</ele>
        <time>2014-04-14T14:32:33.1Z</time>
      </trkpt>
      <trkpt lat="48.63214" lon="-2.41264">
        <ele>8</ele>
        <time>2014-04-14T14:32:35.1Z</time>
      </trkpt>
      <trkpt lat="48.63215" lon="-2.41261">
        <ele>8</ele>
        <time>2014-04-14T14:32:37.1Z</time>
      </trkpt>
      <trkpt lat="48.63217" lon="-2.41256">
        <ele>8</ele>
        <time>2014-04-14T14:32:39.1Z</time>
      </trkpt>
      <trkpt lat="48.63219" lon="-2.41252">
        <ele>8</ele>
        <time>2014-04-14T14:32:42.1Z</time>
      </trkpt>
      <trkpt lat="48.6322" lon="-2.41249">
        <ele>8</ele>
        <time>2014-04-14T14:32:44.1Z</time>
      </trkpt>
      <trkpt lat="48.63221" lon="-2.41246">
        <ele>8</ele>
        <time>2014-04-14T14:32:46.1Z</time>
      </trkpt>
      <trkpt lat="48.63223" lon="-2.41243">
        <ele>8</ele>
        <time>2014-04-14T14:32:49.1Z</time>
      </trkpt>
      <trkpt lat="48.63224" lon="-2.4124">
        <ele>8</ele>
        <time>2014-04-14T14:32:51.1Z</time>
      </trkpt>
      <trkpt lat="48.63225" lon="-2.41237">
        <ele>8</ele>
        <time>2014-04-14T14:32:53.1Z</time>
      </trkpt>
      <trkpt lat="48.63227" lon="-2.41234">
        <ele>8</ele>
        <time>2014-04-14T14:32:55.1Z</time>
      </trkpt>
      <trkpt lat="48.63228" lon="-2.41231">
        <ele>8</ele>
        <time>2014-04-14T14:32:57.1Z</time>
      </trkpt>
      <trkpt lat="48.6323" lon="-2.41227">
        <ele>8</ele>
        <time>2014-04-14T14:32:59.1Z</time>
      </trkpt>
      <trkpt lat="48.63231" lon="-2.41225">
        <ele>8</ele>
        <time>2014-04-14T14:33:02.1Z</time>
      </trkpt>
      <trkpt lat="48.63234" lon="-2.4122">
        <ele>8</ele>
        <time>2014-04-14T14:33:05.1Z</time>
      </trkpt>
      <trkpt lat="48.63235" lon="-2.41218">
        <ele>8</ele>
        <time>2014-04-14T14:33:07.1Z</time>
      </trkpt>
      <trkpt lat="48.63237" lon="-2.41215">
        <ele>8</ele>
        <time>2014-04-14T14:33:09.1Z</time>
      </trkpt>
      <trkpt lat="48.63238" lon="-2.41213">
        <ele>8</ele>
        <time>2014-04-14T14:33:11.1Z</time>
      </trkpt>
      <trkpt lat="48.63241" lon="-2.4121">
        <ele>8</ele>
        <time>2014-04-14T14:33:13.1Z</time>
      </trkpt>
      <trkpt lat="48.63242" lon="-2.41207">
        <ele>7</ele>
        <time>2014-04-14T14:33:15.1Z</time>
      </trkpt>
      <trkpt lat="48.63245" lon="-2.41205">
        <ele>7</ele>
        <time>2014-04-14T14:33:19.1Z</time>
      </trkpt>
      <trkpt lat="48.63247" lon="-2.41203">
        <ele>7</ele>
        <time>2014-04-14T14:33:21.1Z</time>
      </trkpt>
      <trkpt lat="48.63249" lon="-2.41202">
        <ele>7</ele>
        <time>2014-04-14T14:33:23.1Z</time>
      </trkpt>
      <trkpt lat="48.63251" lon="-2.412">
        <ele>7</ele>
        <time>2014-04-14T14:33:25.1Z</time>
      </trkpt>
      <trkpt lat="48.63253" lon="-2.41198">
        <ele>7</ele>
        <time>2014-04-14T14:33:27.1Z</time>
      </trkpt>
      <trkpt lat="48.63255" lon="-2.41196">
        <ele>7</ele>
        <time>2014-04-14T14:33:29.1Z</time>
      </trkpt>
      <trkpt lat="48.63258" lon="-2.41194">
        <ele>7</ele>
        <time>2014-04-14T14:33:32.1Z</time>
      </trkpt>
      <trkpt lat="48.63261" lon="-2.41191">
        <ele>7</ele>
        <time>2014-04-14T14:33:34.1Z</time>
      </trkpt>
      <trkpt lat="48.63262" lon="-2.41189">
        <ele>8</ele>
        <time>2014-04-14T14:33:37.1Z</time>
      </trkpt>
      <trkpt lat="48.63265" lon="-2.41186">
        <ele>8</ele>
        <time>2014-04-14T14:33:40.1Z</time>
      </trkpt>
      <trkpt lat="48.63269" lon="-2.41183">
        <ele>8</ele>
        <time>2014-04-14T14:33:43.1Z</time>
      </trkpt>
      <trkpt lat="48.63271" lon="-2.41181">
        <ele>8</ele>
        <time>2014-04-14T14:33:46.1Z</time>
      </trkpt>
      <trkpt lat="48.63274" lon="-2.41178">
        <ele>8</ele>
        <time>2014-04-14T14:33:48.1Z</time>
      </trkpt>
      <trkpt lat="48.63277" lon="-2.41176">
        <ele>8</ele>
        <time>2014-04-14T14:33:51.1Z</time>
      </trkpt>
      <trkpt lat="48.63279" lon="-2.41174">
        <ele>8</ele>
        <time>2014-04-14T14:33:53.1Z</time>
      </trkpt>
      <trkpt lat="48.63281" lon="-2.41172">
        <ele>8</ele>
        <time>2014-04-14T14:33:56.1Z</time>
      </trkpt>
      <trkpt lat="48.63283" lon="-2.41169">
        <ele>7</ele>
        <time>2014-04-14T14:33:58.1Z</time>
      </trkpt>
      <trkpt lat="48.63284" lon="-2.41166">
        <ele>7</ele>
        <time>2014-04-14T14:34:02.1Z</time>
      </trkpt>
      <trkpt lat="48.63285" lon="-2.41164">
        <ele>7</ele>
        <time>2014-04-14T14:34:04.1Z</time>
      </trkpt>
      <trkpt lat="48.63288" lon="-2.41162">
        <ele>7</ele>
        <time>2014-04-14T14:34:07.1Z</time>
      </trkpt>
      <trkpt lat="48.6329" lon="-2.41161">
        <ele>7</ele>
        <time>2014-04-14T14:34:09.1Z</time>
      </trkpt>
      <trkpt lat="48.63292" lon="-2.41161">
        <ele>8</ele>
        <time>2014-04-14T14:34:12.1Z</time>
      </trkpt>
      <trkpt lat="48.63295" lon="-2.41161">
        <ele>8</ele>
        <time>2014-04-14T14:34:15.1Z</time>
      </trkpt>
      <trkpt lat="48.63296" lon="-2.41162">
        <ele>9</ele>
        <time>2014-04-14T14:34:17.1Z</time>
      </trkpt>
      <trkpt lat="48.63296" lon="-2.41164">
        <ele>9</ele>
        <time>2014-04-14T14:34:19.1Z</time>
      </trkpt>
      <trkpt lat="48.63297" lon="-2.41167">
        <ele>9</ele>
        <time>2014-04-14T14:34:22.1Z</time>
      </trkpt>
      <trkpt lat="48.63299" lon="-2.41168">
        <ele>9</ele>
        <time>2014-04-14T14:34:24.1Z</time>
      </trkpt>
      <trkpt lat="48.633" lon="-2.4117">
        <ele>9</ele>
        <time>2014-04-14T14:34:26.1Z</time>
      </trkpt>
      <trkpt lat="48.63303" lon="-2.4117">
        <ele>9</ele>
        <time>2014-04-14T14:34:28.1Z</time>
      </trkpt>
      <trkpt lat="48.63305" lon="-2.4117">
        <ele>8</ele>
        <time>2014-04-14T14:34:30.1Z</time>
      </trkpt>
      <trkpt lat="48.63308" lon="-2.41171">
        <ele>8</ele>
        <time>2014-04-14T14:34:32.1Z</time>
      </trkpt>
      <trkpt lat="48.63311" lon="-2.41171">
        <ele>7</ele>
        <time>2014-04-14T14:34:36.1Z</time>
      </trkpt>
      <trkpt lat="48.63314" lon="-2.41171">
        <ele>7</ele>
        <time>2014-04-14T14:34:39.1Z</time>
      </trkpt>
      <trkpt lat="48.63315" lon="-2.41171">
        <ele>6</ele>
        <time>2014-04-14T14:34:41.1Z</time>
      </trkpt>
      <trkpt lat="48.63317" lon="-2.4117">
        <ele>6</ele>
        <time>2014-04-14T14:34:43.1Z</time>
      </trkpt>
      <trkpt lat="48.63319" lon="-2.4117">
        <ele>6</ele>
        <time>2014-04-14T14:34:45.1Z</time>
      </trkpt>
      <trkpt lat="48.63321" lon="-2.4117">
        <ele>6</ele>
        <time>2014-04-14T14:34:48.1Z</time>
      </trkpt>
      <trkpt lat="48.63323" lon="-2.4117">
        <ele>6</ele>
        <time>2014-04-14T14:34:50.1Z</time>
      </trkpt>
      <trkpt lat="48.63326" lon="-2.41169">
        <ele>6</ele>
        <time>2014-04-14T14:34:52.1Z</time>
      </trkpt>
      <trkpt lat="48.63328" lon="-2.41168">
        <ele>6</ele>
        <time>2014-04-14T14:34:55.1Z</time>
      </trkpt>
      <trkpt lat="48.63332" lon="-2.41167">
        <ele>6</ele>
        <time>2014-04-14T14:34:58.1Z</time>
      </trkpt>
      <trkpt lat="48.63335" lon="-2.41166">
        <ele>6</ele>
        <time>2014-04-14T14:35:00.1Z</time>
      </trkpt>
      <trkpt lat="48.63337" lon="-2.41165">
        <ele>6</ele>
        <time>2014-04-14T14:35:03.1Z</time>
      </trkpt>
      <trkpt lat="48.63341" lon="-2.41164">
        <ele>6</ele>
        <time>2014-04-14T14:35:06.1Z</time>
      </trkpt>
      <trkpt lat="48.63345" lon="-2.41163">
        <ele>6</ele>
        <time>2014-04-14T14:35:08.1Z</time>
      </trkpt>
      <trkpt lat="48.63347" lon="-2.41162">
        <ele>6</ele>
        <time>2014-04-14T14:35:10.1Z</time>
      </trkpt>
      <trkpt lat="48.6335" lon="-2.41161">
        <ele>6</ele>
        <time>2014-04-14T14:35:14.1Z</time>
      </trkpt>
      <trkpt lat="48.63353" lon="-2.4116">
        <ele>6</ele>
        <time>2014-04-14T14:35:17.1Z</time>
      </trkpt>
      <trkpt lat="48.63357" lon="-2.41158">
        <ele>6</ele>
        <time>2014-04-14T14:35:20.1Z</time>
      </trkpt>
      <trkpt lat="48.6336" lon="-2.41157">
        <ele>6</ele>
        <time>2014-04-14T14:35:23.1Z</time>
      </trkpt>
      <trkpt lat="48.63363" lon="-2.41155">
        <ele>6</ele>
        <time>2014-04-14T14:35:26.1Z</time>
      </trkpt>
      <trkpt lat="48.63365" lon="-2.41154">
        <ele>6</ele>
        <time>2014-04-14T14:35:28.1Z</time>
      </trkpt>
      <trkpt lat="48.63369" lon="-2.41153">
        <ele>6</ele>
        <time>2014-04-14T14:35:30.1Z</time>
      </trkpt>
      <trkpt lat="48.63371" lon="-2.41153">
        <ele>6</ele>
        <time>2014-04-14T14:35:32.1Z</time>
      </trkpt>
      <trkpt lat="48.63373" lon="-2.41152">
        <ele>6</ele>
        <time>2014-04-14T14:35:35.1Z</time>
      </trkpt>
      <trkpt lat="48.63376" lon="-2.41152">
        <ele>6</ele>
        <time>2014-04-14T14:35:37.1Z</time>
      </trkpt>
      <trkpt lat="48.63379" lon="-2.41152">
        <ele>6</ele>
        <time>2014-04-14T14:35:40.1Z</time>
      </trkpt>
      <trkpt lat="48.63382" lon="-2.41153">
        <ele>5</ele>
        <time>2014-04-14T14:35:43.1Z</time>
      </trkpt>
      <trkpt lat="48.63383" lon="-2.41154">
        <ele>5</ele>
        <time>2014-04-14T14:35:46.1Z</time>
      </trkpt>
      <trkpt lat="48.63385" lon="-2.41155">
        <ele>4</ele>
        <time>2014-04-14T14:35:48.1Z</time>
      </trkpt>
      <trkpt lat="48.63387" lon="-2.41156">
        <ele>4</ele>
        <time>2014-04-14T14:35:51.1Z</time>
      </trkpt>
      <trkpt lat="48.63389" lon="-2.41158">
        <ele>4</ele>
        <time>2014-04-14T14:35:53.1Z</time>
      </trkpt>
      <trkpt lat="48.63393" lon="-2.41157">
        <ele>4</ele>
        <time>2014-04-14T14:35:56.1Z</time>
      </trkpt>
      <trkpt lat="48.63395" lon="-2.41155">
        <ele>5</ele>
        <time>2014-04-14T14:35:59.1Z</time>
      </trkpt>
      <trkpt lat="48.63396" lon="-2.41153">
        <ele>4</ele>
        <time>2014-04-14T14:36:01.1Z</time>
      </trkpt>
      <trkpt lat="48.63398" lon="-2.41152">
        <ele>4</ele>
        <time>2014-04-14T14:36:04.1Z</time>
      </trkpt>
      <trkpt lat="48.634" lon="-2.41149">
        <ele>4</ele>
        <time>2014-04-14T14:36:06.1Z</time>
      </trkpt>
      <trkpt lat="48.63402" lon="-2.41148">
        <ele>4</ele>
        <time>2014-04-14T14:36:08.1Z</time>
      </trkpt>
      <trkpt lat="48.63404" lon="-2.41146">
        <ele>4</ele>
        <time>2014-04-14T14:36:10.1Z</time>
      </trkpt>
      <trkpt lat="48.63406" lon="-2.41144">
        <ele>4</ele>
        <time>2014-04-14T14:36:12.1Z</time>
      </trkpt>
      <trkpt lat="48.63408" lon="-2.41142">
        <ele>4</ele>
        <time>2014-04-14T14:36:14.1Z</time>
      </trkpt>
      <trkpt lat="48.63409" lon="-2.41139">
        <ele>4</ele>
        <time>2014-04-14T14:36:17.1Z</time>
      </trkpt>
      <trkpt lat="48.63412" lon="-2.41136">
        <ele>4</ele>
        <time>2014-04-14T14:36:19.1Z</time>
      </trkpt>
      <trkpt lat="48.63415" lon="-2.41133">
        <ele>4</ele>
        <time>2014-04-14T14:36:22.1Z</time>
      </trkpt>
      <trkpt lat="48.63417" lon="-2.41131">
        <ele>4</ele>
        <time>2014-04-14T14:36:25.1Z</time>
      </trkpt>
      <trkpt lat="48.6342" lon="-2.41127">
        <ele>4</ele>
        <time>2014-04-14T14:36:27.1Z</time>
      </trkpt>
      <trkpt lat="48.63422" lon="-2.41125">
        <ele>4</ele>
        <time>2014-04-14T14:36:29.1Z</time>
      </trkpt>
      <trkpt lat="48.63425" lon="-2.41122">
        <ele>4</ele>
        <time>2014-04-14T14:36:32.1Z</time>
      </trkpt>
      <trkpt lat="48.63428" lon="-2.41119">
        <ele>4</ele>
        <time>2014-04-14T14:36:35.1Z</time>
      </trkpt>
      <trkpt lat="48.63431" lon="-2.41115">
        <ele>4</ele>
        <time>2014-04-14T14:36:38.1Z</time>
      </trkpt>
      <trkpt lat="48.63433" lon="-2.41111">
        <ele>4</ele>
        <time>2014-04-14T14:36:41.1Z</time>
      </trkpt>
      <trkpt lat="48.63435" lon="-2.41109">
        <ele>4</ele>
        <time>2014-04-14T14:36:44.1Z</time>
      </trkpt>
      <trkpt lat="48.63438" lon="-2.41106">
        <ele>4</ele>
        <time>2014-04-14T14:36:46.1Z</time>
      </trkpt>
      <trkpt lat="48.63439" lon="-2.41104">
        <ele>4</ele>
        <time>2014-04-14T14:36:48.1Z</time>
      </trkpt>
      <trkpt lat="48.6344" lon="-2.41104">
        <ele>5</ele>
        <time>2014-04-14T14:36:52.1Z</time>
      </trkpt>
      <trkpt lat="48.63443" lon="-2.41101">
        <ele>6</ele>
        <time>2014-04-14T14:36:54.1Z</time>
      </trkpt>
      <trkpt lat="48.63445" lon="-2.41098">
        <ele>6</ele>
        <time>2014-04-14T14:36:57.1Z</time>
      </trkpt>
      <trkpt lat="48.63446" lon="-2.41095">
        <ele>6</ele>
        <time>2014-04-14T14:36:59.1Z</time>
      </trkpt>
      <trkpt lat="48.63447" lon="-2.4109">
        <ele>5</ele>
        <time>2014-04-14T14:37:01.1Z</time>
      </trkpt>
      <trkpt lat="48.63447" lon="-2.41086">
        <ele>5</ele>
        <time>2014-04-14T14:37:03.1Z</time>
      </trkpt>
      <trkpt lat="48.63447" lon="-2.41083">
        <ele>5</ele>
        <time>2014-04-14T14:37:05.1Z</time>
      </trkpt>
      <trkpt lat="48.63446" lon="-2.41079">
        <ele>5</ele>
        <time>2014-04-14T14:37:07.1Z</time>
      </trkpt>
      <trkpt lat="48.63445" lon="-2.41074">
        <ele>6</ele>
        <time>2014-04-14T14:37:11.1Z</time>
      </trkpt>
      <trkpt lat="48.63444" lon="-2.4107">
        <ele>6</ele>
        <time>2014-04-14T14:37:14.1Z</time>
      </trkpt>
      <trkpt lat="48.63443" lon="-2.41065">
        <ele>6</ele>
        <time>2014-04-14T14:37:16.1Z</time>
      </trkpt>
      <trkpt lat="48.63442" lon="-2.41062">
        <ele>5</ele>
        <time>2014-04-14T14:37:19.1Z</time>
      </trkpt>
      <trkpt lat="48.63441" lon="-2.41058">
        <ele>5</ele>
        <time>2014-04-14T14:37:22.1Z</time>
      </trkpt>
      <trkpt lat="48.6344" lon="-2.41056">
        <ele>6</ele>
        <time>2014-04-14T14:37:24.1Z</time>
      </trkpt>
      <trkpt lat="48.6344" lon="-2.41052">
        <ele>6</ele>
        <time>2014-04-14T14:37:27.1Z</time>
      </trkpt>
      <trkpt lat="48.6344" lon="-2.41051">
        <ele>6</ele>
        <time>2014-04-14T14:37:30.1Z</time>
      </trkpt>
      <trkpt lat="48.6344" lon="-2.41052">
        <ele>6</ele>
        <time>2014-04-14T14:37:33.1Z</time>
      </trkpt>
      <trkpt lat="48.6344" lon="-2.41051">
        <ele>6</ele>
        <time>2014-04-14T14:37:35.1Z</time>
      </trkpt>
      <trkpt lat="48.6344" lon="-2.41051">
        <ele>6</ele>
        <time>2014-04-14T14:37:38.1Z</time>
      </trkpt>
      <trkpt lat="48.63439" lon="-2.41051">
        <ele>6</ele>
        <time>2014-04-14T14:37:41.1Z</time>
      </trkpt>
      <trkpt lat="48.63439" lon="-2.41052">
        <ele>6</ele>
        <time>2014-04-14T14:37:44.1Z</time>
      </trkpt>
      <trkpt lat="48.6344" lon="-2.41052">
        <ele>6</ele>
        <time>2014-04-14T14:37:46.1Z</time>
      </trkpt>
      <trkpt lat="48.6344" lon="-2.41053">
        <ele>6</ele>
        <time>2014-04-14T14:37:50.1Z</time>
      </trkpt>
      <trkpt lat="48.63439" lon="-2.41053">
        <ele>6</ele>
        <time>2014-04-14T14:37:53.1Z</time>
      </trkpt>
      <trkpt lat="48.63439" lon="-2.41053">
        <ele>6</ele>
        <time>2014-04-14T14:37:57.1Z</time>
      </trkpt>
      <trkpt lat="48.63439" lon="-2.41053">
        <ele>6</ele>
        <time>2014-04-14T14:38:00.1Z</time>
      </trkpt>
      <trkpt lat="48.63439" lon="-2.41053">
        <ele>6</ele>
        <time>2014-04-14T14:38:05.1Z</time>
      </trkpt>
      <trkpt lat="48.6344" lon="-2.41053">
        <ele>5</ele>
        <time>2014-04-14T14:38:08.1Z</time>
      </trkpt>
      <trkpt lat="48.6344" lon="-2.41053">
        <ele>5</ele>
        <time>2014-04-14T14:38:13.1Z</time>
      </trkpt>
      <trkpt lat="48.6344" lon="-2.41053">
        <ele>6</ele>
        <time>2014-04-14T14:38:17.1Z</time>
      </trkpt>
      <trkpt lat="48.6344" lon="-2.41053">
        <ele>5</ele>
        <time>2014-04-14T14:38:27.1Z</time>
      </trkpt>
      <trkpt lat="48.6344" lon="-2.41054">
        <ele>6</ele>
        <time>2014-04-14T14:38:29.1Z</time>
      </trkpt>
      <trkpt lat="48.6344" lon="-2.41054">
        <ele>6</ele>
        <time>2014-04-14T14:38:31.1Z</time>
      </trkpt>
      <trkpt lat="48.6344" lon="-2.41054">
        <ele>6</ele>
        <time>2014-04-14T14:38:34.1Z</time>
      </trkpt>
      <trkpt lat="48.6344" lon="-2.41054">
        <ele>6</ele>
        <time>2014-04-14T14:38:38.1Z</time>
      </trkpt>
      <trkpt lat="48.6344" lon="-2.41054">
        <ele>6</ele>
        <time>2014-04-14T14:38:41.1Z</time>
      </trkpt>
      <trkpt lat="48.6344" lon="-2.41054">
        <ele>6</ele>
        <time>2014-04-14T14:38:43.1Z</time>
      </trkpt>
      <trkpt lat="48.6344" lon="-2.41054">
        <ele>6</ele>
        <time>2014-04-14T14:38:45.1Z</time>
      </trkpt>
      <trkpt lat="48.6344" lon="-2.41054">
        <ele>6</ele>
        <time>2014-04-14T14:38:48.1Z</time>
      </trkpt>
      <trkpt lat="48.6344" lon="-2.41054">
        <ele>6</ele>
        <time>2014-04-14T14:38:50.1Z</time>
      </trkpt>
      <trkpt lat="48.6344" lon="-2.41054">
        <ele>5</ele>
        <time>2014-04-14T14:38:52.1Z</time>
      </trkpt>
      <trkpt lat="48.6344" lon="-2.41054">
        <ele>5</ele>
        <time>2014-04-14T14:38:55.1Z</time>
      </trkpt>
      <trkpt lat="48.6344" lon="-2.41053">
        <ele>5</ele>
        <time>2014-04-14T14:39:04.1Z</time>
      </trkpt>
      <trkpt lat="48.6344" lon="-2.41054">
        <ele>5</ele>
        <time>2014-04-14T14:39:09.1Z</time>
      </trkpt>
      <trkpt lat="48.6344" lon="-2.41054">
        <ele>6</ele>
        <time>2014-04-14T14:39:18.1Z</time>
      </trkpt>
      <trkpt lat="48.63441" lon="-2.41054">
        <ele>6</ele>
        <time>2014-04-14T14:39:22.1Z</time>
      </trkpt>
      <trkpt lat="48.63441" lon="-2.41054">
        <ele>6</ele>
        <time>2014-04-14T14:39:26.1Z</time>
      </trkpt>
      <trkpt lat="48.63441" lon="-2.41054">
        <ele>6</ele>
        <time>2014-04-14T14:39:29.1Z</time>
      </trkpt>
      <trkpt lat="48.63441" lon="-2.41054">
        <ele>6</ele>
        <time>2014-04-14T14:39:32.1Z</time>
      </trkpt>
      <trkpt lat="48.63441" lon="-2.41054">
        <ele>6</ele>
        <time>2014-04-14T14:39:34.1Z</time>
      </trkpt>
      <trkpt lat="48.63442" lon="-2.41054">
        <ele>6</ele>
        <time>2014-04-14T14:39:37.1Z</time>
      </trkpt>
      <trkpt lat="48.63442" lon="-2.41054">
        <ele>5</ele>
        <time>2014-04-14T14:39:40.1Z</time>
      </trkpt>
      <trkpt lat="48.63442" lon="-2.41054">
        <ele>6</ele>
        <time>2014-04-14T14:39:43.1Z</time>
      </trkpt>
      <trkpt lat="48.63442" lon="-2.41054">
        <ele>6</ele>
        <time>2014-04-14T14:39:45.1Z</time>
      </trkpt>
      <trkpt lat="48.63442" lon="-2.41053">
        <ele>6</ele>
        <time>2014-04-14T14:39:48.1Z</time>
      </trkpt>
      <trkpt lat="48.63442" lon="-2.41053">
        <ele>7</ele>
        <time>2014-04-14T14:39:51.1Z</time>
      </trkpt>
      <trkpt lat="48.63443" lon="-2.41053">
        <ele>7</ele>
        <time>2014-04-14T14:39:54.1Z</time>
      </trkpt>
      <trkpt lat="48.63442" lon="-2.41054">
        <ele>7</ele>
        <time>2014-04-14T14:39:57.1Z</time>
      </trkpt>
      <trkpt lat="48.63442" lon="-2.41054">
        <ele>7</ele>
        <time>2014-04-14T14:40:00.1Z</time>
      </trkpt>
      <trkpt lat="48.63442" lon="-2.41054">
        <ele>7</ele>
        <time>2014-04-14T14:40:02.1Z</time>
      </trkpt>
      <trkpt lat="48.63442" lon="-2.41054">
        <ele>6</ele>
        <time>2014-04-14T14:40:05.1Z</time>
      </trkpt>
      <trkpt lat="48.63441" lon="-2.41054">
        <ele>6</ele>
        <time>2014-04-14T14:40:09.1Z</time>
      </trkpt>
      <trkpt lat="48.63441" lon="-2.41054">
        <ele>6</ele>
        <time>2014-04-14T14:40:11.1Z</time>
      </trkpt>
      <trkpt lat="48.63441" lon="-2.41054">
        <ele>7</ele>
        <time>2014-04-14T14:40:13.1Z</time>
      </trkpt>
      <trkpt lat="48.6344" lon="-2.41046">
        <ele>7</ele>
        <time>2014-04-14T14:40:16.1Z</time>
      </trkpt>
      <trkpt lat="48.6344" lon="-2.41062">
        <ele>7</ele>
        <time>2014-04-14T14:40:19.1Z</time>
      </trkpt>
      <trkpt lat="48.6344" lon="-2.41063">
        <ele>7</ele>
        <time>2014-04-14T14:40:22.1Z</time>
      </trkpt>
      <trkpt lat="48.63439" lon="-2.41058">
        <ele>7</ele>
        <time>2014-04-14T14:40:25.1Z</time>
      </trkpt>
      <trkpt lat="48.63438" lon="-2.41055">
        <ele>7</ele>
        <time>2014-04-14T14:40:27.1Z</time>
      </trkpt>
      <trkpt lat="48.63437" lon="-2.41053">
        <ele>6</ele>
        <time>2014-04-14T14:40:29.1Z</time>
      </trkpt>
      <trkpt lat="48.63437" lon="-2.41051">
        <ele>6</ele>
        <time>2014-04-14T14:40:31.1Z</time>
      </trkpt>
      <trkpt lat="48.63436" lon="-2.41051">
        <ele>7</ele>
        <time>2014-04-14T14:40:34.1Z</time>
      </trkpt>
      <trkpt lat="48.63436" lon="-2.41049">
        <ele>7</ele>
        <time>2014-04-14T14:40:37.1Z</time>
      </trkpt>
      <trkpt lat="48.63436" lon="-2.41047">
        <ele>7</ele>
        <time>2014-04-14T14:40:40.1Z</time>
      </trkpt>
      <trkpt lat="48.63435" lon="-2.41045">
        <ele>7</ele>
        <time>2014-04-14T14:40:43.1Z</time>
      </trkpt>
      <trkpt lat="48.63435" lon="-2.41043">
        <ele>7</ele>
        <time>2014-04-14T14:40:46.1Z</time>
      </trkpt>
      <trkpt lat="48.63435" lon="-2.41042">
        <ele>7</ele>
        <time>2014-04-14T14:40:48.1Z</time>
      </trkpt>
      <trkpt lat="48.63436" lon="-2.41041">
        <ele>7</ele>
        <time>2014-04-14T14:40:51.1Z</time>
      </trkpt>
      <trkpt lat="48.63436" lon="-2.4104">
        <ele>7</ele>
        <time>2014-04-14T14:40:54.1Z</time>
      </trkpt>
      <trkpt lat="48.63436" lon="-2.4104">
        <ele>7</ele>
        <time>2014-04-14T14:40:55.1Z</time>
      </trkpt>
    </trkseg>
  </trk>
</gpx>